<?xml version="1.0" encoding="UTF-8" standalone="no" ?>
<gpx xmlns="http://www.topografix.com/GPX/1/1" xmlns:xsi="http://www.w3.org/2001/XMLSchema-instance" xsi:schemaLocation="http://www.topografix.com/GPX/1/1 http://www.topografix.com/GPX/1/1/gpx.xsd" version="1.1" creator="VisuGPX - https://www.visugpx.com">
  <metadata>
    <name>Gorges du ras de la Carança / pic du Géant</name>
    <desc><![CDATA[un premier itinéraire vous emmène de Thuès entre Valls au refuge du ras de la Carança en traversant les gorges du même nom. Le deuxième est une boucle qui part du refuge pour grimper au pic du Géant et qui suit ensuite la crête frontière jusqu'au col de la Vaca avant de redescendre au refuge. Enfin le dernier passe par le col Mitja avant de redescendre vers fontpédrouse et de revenir à Tuès. ]]></desc>
  </metadata>
  <trk>
    <name><![CDATA[Tracé actuel: 01 JUIL 2016 06:49]]></name>
    <trkseg>
      <trkpt lat="42.46407" lon="2.22408">
        <ele>1809.82</ele>
        <time>2016-07-01T04:49:56Z</time>
      </trkpt>
      <trkpt lat="42.46407" lon="2.22407">
        <ele>1809.82</ele>
        <time>2016-07-01T04:49:57Z</time>
      </trkpt>
      <trkpt lat="42.46417" lon="2.22415">
        <ele>1809.82</ele>
        <time>2016-07-01T04:50:07Z</time>
      </trkpt>
      <trkpt lat="42.46422" lon="2.22421">
        <ele>1809.82</ele>
        <time>2016-07-01T04:50:26Z</time>
      </trkpt>
      <trkpt lat="42.46429" lon="2.22405">
        <ele>1812.7</ele>
        <time>2016-07-01T04:50:49Z</time>
      </trkpt>
      <trkpt lat="42.46428" lon="2.22405">
        <ele>1813.66</ele>
        <time>2016-07-01T04:50:51Z</time>
      </trkpt>
      <trkpt lat="42.46427" lon="2.22402">
        <ele>1816.55</ele>
        <time>2016-07-01T04:50:58Z</time>
      </trkpt>
      <trkpt lat="42.46428" lon="2.22403">
        <ele>1817.99</ele>
        <time>2016-07-01T04:51:01Z</time>
      </trkpt>
      <trkpt lat="42.46441" lon="2.224">
        <ele>1821.84</ele>
        <time>2016-07-01T04:51:08Z</time>
      </trkpt>
      <trkpt lat="42.46443" lon="2.2241">
        <ele>1824.72</ele>
        <time>2016-07-01T04:51:16Z</time>
      </trkpt>
      <trkpt lat="42.46444" lon="2.22411">
        <ele>1825.2</ele>
        <time>2016-07-01T04:51:18Z</time>
      </trkpt>
      <trkpt lat="42.46448" lon="2.22411">
        <ele>1825.68</ele>
        <time>2016-07-01T04:51:24Z</time>
      </trkpt>
      <trkpt lat="42.46453" lon="2.22414">
        <ele>1827.12</ele>
        <time>2016-07-01T04:51:30Z</time>
      </trkpt>
      <trkpt lat="42.46455" lon="2.22412">
        <ele>1827.6</ele>
        <time>2016-07-01T04:51:32Z</time>
      </trkpt>
      <trkpt lat="42.4647" lon="2.22413">
        <ele>1829.05</ele>
        <time>2016-07-01T04:51:45Z</time>
      </trkpt>
      <trkpt lat="42.46473" lon="2.22413">
        <ele>1829.05</ele>
        <time>2016-07-01T04:51:47Z</time>
      </trkpt>
      <trkpt lat="42.46483" lon="2.22413">
        <ele>1829.05</ele>
        <time>2016-07-01T04:51:55Z</time>
      </trkpt>
      <trkpt lat="42.46485" lon="2.22413">
        <ele>1829.05</ele>
        <time>2016-07-01T04:51:56Z</time>
      </trkpt>
      <trkpt lat="42.46489" lon="2.22413">
        <ele>1827.6</ele>
        <time>2016-07-01T04:52:00Z</time>
      </trkpt>
      <trkpt lat="42.46493" lon="2.22416">
        <ele>1827.6</ele>
        <time>2016-07-01T04:52:05Z</time>
      </trkpt>
      <trkpt lat="42.46493" lon="2.22418">
        <ele>1827.6</ele>
        <time>2016-07-01T04:52:06Z</time>
      </trkpt>
      <trkpt lat="42.46494" lon="2.22421">
        <ele>1827.6</ele>
        <time>2016-07-01T04:52:08Z</time>
      </trkpt>
      <trkpt lat="42.46495" lon="2.22422">
        <ele>1827.6</ele>
        <time>2016-07-01T04:52:09Z</time>
      </trkpt>
      <trkpt lat="42.46496" lon="2.22424">
        <ele>1827.6</ele>
        <time>2016-07-01T04:52:10Z</time>
      </trkpt>
      <trkpt lat="42.46496" lon="2.22425">
        <ele>1827.6</ele>
        <time>2016-07-01T04:52:11Z</time>
      </trkpt>
      <trkpt lat="42.46497" lon="2.22427">
        <ele>1827.6</ele>
        <time>2016-07-01T04:52:12Z</time>
      </trkpt>
      <trkpt lat="42.46497" lon="2.22428">
        <ele>1827.6</ele>
        <time>2016-07-01T04:52:13Z</time>
      </trkpt>
      <trkpt lat="42.46497" lon="2.2243">
        <ele>1827.6</ele>
        <time>2016-07-01T04:52:14Z</time>
      </trkpt>
      <trkpt lat="42.46497" lon="2.22432">
        <ele>1827.6</ele>
        <time>2016-07-01T04:52:15Z</time>
      </trkpt>
      <trkpt lat="42.46498" lon="2.22433">
        <ele>1827.6</ele>
        <time>2016-07-01T04:52:16Z</time>
      </trkpt>
      <trkpt lat="42.46498" lon="2.22434">
        <ele>1827.6</ele>
        <time>2016-07-01T04:52:17Z</time>
      </trkpt>
      <trkpt lat="42.46499" lon="2.22436">
        <ele>1827.6</ele>
        <time>2016-07-01T04:52:18Z</time>
      </trkpt>
      <trkpt lat="42.465" lon="2.22436">
        <ele>1827.6</ele>
        <time>2016-07-01T04:52:20Z</time>
      </trkpt>
      <trkpt lat="42.46501" lon="2.22436">
        <ele>1827.6</ele>
        <time>2016-07-01T04:52:21Z</time>
      </trkpt>
      <trkpt lat="42.46502" lon="2.22438">
        <ele>1827.6</ele>
        <time>2016-07-01T04:52:22Z</time>
      </trkpt>
      <trkpt lat="42.46505" lon="2.2244">
        <ele>1827.6</ele>
        <time>2016-07-01T04:52:25Z</time>
      </trkpt>
      <trkpt lat="42.4651" lon="2.22444">
        <ele>1827.6</ele>
        <time>2016-07-01T04:52:31Z</time>
      </trkpt>
      <trkpt lat="42.46516" lon="2.22451">
        <ele>1828.56</ele>
        <time>2016-07-01T04:52:38Z</time>
      </trkpt>
      <trkpt lat="42.46523" lon="2.22456">
        <ele>1829.05</ele>
        <time>2016-07-01T04:52:44Z</time>
      </trkpt>
      <trkpt lat="42.46527" lon="2.22456">
        <ele>1829.05</ele>
        <time>2016-07-01T04:52:49Z</time>
      </trkpt>
      <trkpt lat="42.4653" lon="2.22457">
        <ele>1829.53</ele>
        <time>2016-07-01T04:52:52Z</time>
      </trkpt>
      <trkpt lat="42.46532" lon="2.22457">
        <ele>1830.01</ele>
        <time>2016-07-01T04:52:54Z</time>
      </trkpt>
      <trkpt lat="42.46533" lon="2.22458">
        <ele>1830.01</ele>
        <time>2016-07-01T04:52:55Z</time>
      </trkpt>
      <trkpt lat="42.46534" lon="2.22458">
        <ele>1830.01</ele>
        <time>2016-07-01T04:52:56Z</time>
      </trkpt>
      <trkpt lat="42.46536" lon="2.22459">
        <ele>1830.01</ele>
        <time>2016-07-01T04:52:57Z</time>
      </trkpt>
      <trkpt lat="42.46537" lon="2.22459">
        <ele>1830.01</ele>
        <time>2016-07-01T04:52:58Z</time>
      </trkpt>
      <trkpt lat="42.46538" lon="2.22459">
        <ele>1830.49</ele>
        <time>2016-07-01T04:52:59Z</time>
      </trkpt>
      <trkpt lat="42.4655" lon="2.22461">
        <ele>1831.45</ele>
        <time>2016-07-01T04:53:12Z</time>
      </trkpt>
      <trkpt lat="42.46552" lon="2.22461">
        <ele>1831.93</ele>
        <time>2016-07-01T04:53:14Z</time>
      </trkpt>
      <trkpt lat="42.46561" lon="2.22472">
        <ele>1833.37</ele>
        <time>2016-07-01T04:53:25Z</time>
      </trkpt>
      <trkpt lat="42.46567" lon="2.22476">
        <ele>1834.33</ele>
        <time>2016-07-01T04:53:32Z</time>
      </trkpt>
      <trkpt lat="42.46571" lon="2.22478">
        <ele>1834.81</ele>
        <time>2016-07-01T04:53:36Z</time>
      </trkpt>
      <trkpt lat="42.46574" lon="2.22483">
        <ele>1834.81</ele>
        <time>2016-07-01T04:53:40Z</time>
      </trkpt>
      <trkpt lat="42.46578" lon="2.22484">
        <ele>1835.77</ele>
        <time>2016-07-01T04:53:48Z</time>
      </trkpt>
      <trkpt lat="42.46579" lon="2.22478">
        <ele>1836.74</ele>
        <time>2016-07-01T04:53:53Z</time>
      </trkpt>
      <trkpt lat="42.46582" lon="2.22473">
        <ele>1837.22</ele>
        <time>2016-07-01T04:53:58Z</time>
      </trkpt>
      <trkpt lat="42.46591" lon="2.22474">
        <ele>1838.18</ele>
        <time>2016-07-01T04:54:07Z</time>
      </trkpt>
      <trkpt lat="42.46604" lon="2.22487">
        <ele>1840.1</ele>
        <time>2016-07-01T04:54:20Z</time>
      </trkpt>
      <trkpt lat="42.46613" lon="2.22491">
        <ele>1842.5</ele>
        <time>2016-07-01T04:54:30Z</time>
      </trkpt>
      <trkpt lat="42.46619" lon="2.22493">
        <ele>1845.39</ele>
        <time>2016-07-01T04:54:36Z</time>
      </trkpt>
      <trkpt lat="42.4662" lon="2.22495">
        <ele>1845.87</ele>
        <time>2016-07-01T04:54:38Z</time>
      </trkpt>
      <trkpt lat="42.46631" lon="2.22503">
        <ele>1846.83</ele>
        <time>2016-07-01T04:54:49Z</time>
      </trkpt>
      <trkpt lat="42.46634" lon="2.22505">
        <ele>1846.83</ele>
        <time>2016-07-01T04:54:52Z</time>
      </trkpt>
      <trkpt lat="42.46635" lon="2.22507">
        <ele>1846.83</ele>
        <time>2016-07-01T04:54:54Z</time>
      </trkpt>
      <trkpt lat="42.46639" lon="2.22508">
        <ele>1847.31</ele>
        <time>2016-07-01T04:54:58Z</time>
      </trkpt>
      <trkpt lat="42.46642" lon="2.22509">
        <ele>1847.31</ele>
        <time>2016-07-01T04:55:01Z</time>
      </trkpt>
      <trkpt lat="42.46646" lon="2.22514">
        <ele>1848.27</ele>
        <time>2016-07-01T04:55:07Z</time>
      </trkpt>
      <trkpt lat="42.46651" lon="2.22518">
        <ele>1848.75</ele>
        <time>2016-07-01T04:55:13Z</time>
      </trkpt>
      <trkpt lat="42.46654" lon="2.22523">
        <ele>1849.71</ele>
        <time>2016-07-01T04:55:18Z</time>
      </trkpt>
      <trkpt lat="42.46658" lon="2.22532">
        <ele>1850.19</ele>
        <time>2016-07-01T04:55:25Z</time>
      </trkpt>
      <trkpt lat="42.46667" lon="2.22541">
        <ele>1852.12</ele>
        <time>2016-07-01T04:55:36Z</time>
      </trkpt>
      <trkpt lat="42.46674" lon="2.22545">
        <ele>1854.04</ele>
        <time>2016-07-01T04:55:46Z</time>
      </trkpt>
      <trkpt lat="42.46677" lon="2.22545">
        <ele>1854.04</ele>
        <time>2016-07-01T04:55:48Z</time>
      </trkpt>
      <trkpt lat="42.46679" lon="2.22547">
        <ele>1854.52</ele>
        <time>2016-07-01T04:55:50Z</time>
      </trkpt>
      <trkpt lat="42.46681" lon="2.22548">
        <ele>1855</ele>
        <time>2016-07-01T04:55:53Z</time>
      </trkpt>
      <trkpt lat="42.46683" lon="2.22549">
        <ele>1855.48</ele>
        <time>2016-07-01T04:55:55Z</time>
      </trkpt>
      <trkpt lat="42.46686" lon="2.22549">
        <ele>1855.96</ele>
        <time>2016-07-01T04:55:58Z</time>
      </trkpt>
      <trkpt lat="42.46694" lon="2.22559">
        <ele>1857.4</ele>
        <time>2016-07-01T04:56:10Z</time>
      </trkpt>
      <trkpt lat="42.46695" lon="2.2256">
        <ele>1857.4</ele>
        <time>2016-07-01T04:56:12Z</time>
      </trkpt>
      <trkpt lat="42.46696" lon="2.22563">
        <ele>1858.37</ele>
        <time>2016-07-01T04:56:14Z</time>
      </trkpt>
      <trkpt lat="42.46698" lon="2.22564">
        <ele>1858.85</ele>
        <time>2016-07-01T04:56:16Z</time>
      </trkpt>
      <trkpt lat="42.46702" lon="2.22569">
        <ele>1859.33</ele>
        <time>2016-07-01T04:56:21Z</time>
      </trkpt>
      <trkpt lat="42.46705" lon="2.22573">
        <ele>1859.81</ele>
        <time>2016-07-01T04:56:26Z</time>
      </trkpt>
      <trkpt lat="42.46707" lon="2.22576">
        <ele>1860.29</ele>
        <time>2016-07-01T04:56:28Z</time>
      </trkpt>
      <trkpt lat="42.46709" lon="2.22581">
        <ele>1860.77</ele>
        <time>2016-07-01T04:56:33Z</time>
      </trkpt>
      <trkpt lat="42.46711" lon="2.22583">
        <ele>1861.25</ele>
        <time>2016-07-01T04:56:35Z</time>
      </trkpt>
      <trkpt lat="42.46715" lon="2.22588">
        <ele>1861.73</ele>
        <time>2016-07-01T04:56:40Z</time>
      </trkpt>
      <trkpt lat="42.46716" lon="2.22591">
        <ele>1861.73</ele>
        <time>2016-07-01T04:56:42Z</time>
      </trkpt>
      <trkpt lat="42.46718" lon="2.22592">
        <ele>1862.21</ele>
        <time>2016-07-01T04:56:44Z</time>
      </trkpt>
      <trkpt lat="42.46719" lon="2.22594">
        <ele>1862.21</ele>
        <time>2016-07-01T04:56:46Z</time>
      </trkpt>
      <trkpt lat="42.46725" lon="2.22601">
        <ele>1863.65</ele>
        <time>2016-07-01T04:56:54Z</time>
      </trkpt>
      <trkpt lat="42.46728" lon="2.22606">
        <ele>1864.61</ele>
        <time>2016-07-01T04:57:00Z</time>
      </trkpt>
      <trkpt lat="42.46734" lon="2.22615">
        <ele>1865.58</ele>
        <time>2016-07-01T04:57:13Z</time>
      </trkpt>
      <trkpt lat="42.46734" lon="2.22615">
        <ele>1866.54</ele>
        <time>2016-07-01T04:57:25Z</time>
      </trkpt>
      <trkpt lat="42.46735" lon="2.22615">
        <ele>1867.02</ele>
        <time>2016-07-01T04:57:52Z</time>
      </trkpt>
      <trkpt lat="42.46735" lon="2.22615">
        <ele>1867.02</ele>
        <time>2016-07-01T04:58:12Z</time>
      </trkpt>
      <trkpt lat="42.46735" lon="2.22615">
        <ele>1867.02</ele>
        <time>2016-07-01T04:58:32Z</time>
      </trkpt>
      <trkpt lat="42.46735" lon="2.22615">
        <ele>1867.02</ele>
        <time>2016-07-01T04:58:35Z</time>
      </trkpt>
      <trkpt lat="42.46738" lon="2.22615">
        <ele>1867.02</ele>
        <time>2016-07-01T04:58:38Z</time>
      </trkpt>
      <trkpt lat="42.46746" lon="2.22616">
        <ele>1867.02</ele>
        <time>2016-07-01T04:58:46Z</time>
      </trkpt>
      <trkpt lat="42.46751" lon="2.22618">
        <ele>1867.5</ele>
        <time>2016-07-01T04:58:50Z</time>
      </trkpt>
      <trkpt lat="42.46758" lon="2.22624">
        <ele>1868.46</ele>
        <time>2016-07-01T04:58:59Z</time>
      </trkpt>
      <trkpt lat="42.46766" lon="2.22631">
        <ele>1869.9</ele>
        <time>2016-07-01T04:59:07Z</time>
      </trkpt>
      <trkpt lat="42.46768" lon="2.22633">
        <ele>1870.38</ele>
        <time>2016-07-01T04:59:09Z</time>
      </trkpt>
      <trkpt lat="42.46769" lon="2.22635">
        <ele>1870.86</ele>
        <time>2016-07-01T04:59:11Z</time>
      </trkpt>
      <trkpt lat="42.46771" lon="2.22642">
        <ele>1871.34</ele>
        <time>2016-07-01T04:59:16Z</time>
      </trkpt>
      <trkpt lat="42.46775" lon="2.22657">
        <ele>1872.79</ele>
        <time>2016-07-01T04:59:26Z</time>
      </trkpt>
      <trkpt lat="42.46775" lon="2.22658">
        <ele>1873.75</ele>
        <time>2016-07-01T04:59:27Z</time>
      </trkpt>
      <trkpt lat="42.46776" lon="2.22661">
        <ele>1874.23</ele>
        <time>2016-07-01T04:59:30Z</time>
      </trkpt>
      <trkpt lat="42.46778" lon="2.2267">
        <ele>1874.71</ele>
        <time>2016-07-01T04:59:37Z</time>
      </trkpt>
      <trkpt lat="42.4678" lon="2.2268">
        <ele>1876.15</ele>
        <time>2016-07-01T04:59:46Z</time>
      </trkpt>
      <trkpt lat="42.46782" lon="2.22686">
        <ele>1876.63</ele>
        <time>2016-07-01T04:59:51Z</time>
      </trkpt>
      <trkpt lat="42.46786" lon="2.22688">
        <ele>1877.59</ele>
        <time>2016-07-01T04:59:55Z</time>
      </trkpt>
      <trkpt lat="42.46788" lon="2.22693">
        <ele>1878.07</ele>
        <time>2016-07-01T04:59:59Z</time>
      </trkpt>
      <trkpt lat="42.4679" lon="2.22693">
        <ele>1878.55</ele>
        <time>2016-07-01T05:00:01Z</time>
      </trkpt>
      <trkpt lat="42.46793" lon="2.22698">
        <ele>1879.03</ele>
        <time>2016-07-01T05:00:05Z</time>
      </trkpt>
      <trkpt lat="42.468" lon="2.22706">
        <ele>1880.48</ele>
        <time>2016-07-01T05:00:16Z</time>
      </trkpt>
      <trkpt lat="42.46801" lon="2.22707">
        <ele>1880.48</ele>
        <time>2016-07-01T05:00:18Z</time>
      </trkpt>
      <trkpt lat="42.46802" lon="2.22701">
        <ele>1881.44</ele>
        <time>2016-07-01T05:00:25Z</time>
      </trkpt>
      <trkpt lat="42.46801" lon="2.227">
        <ele>1881.92</ele>
        <time>2016-07-01T05:00:27Z</time>
      </trkpt>
      <trkpt lat="42.46795" lon="2.2269">
        <ele>1883.36</ele>
        <time>2016-07-01T05:00:37Z</time>
      </trkpt>
      <trkpt lat="42.46793" lon="2.22675">
        <ele>1884.8</ele>
        <time>2016-07-01T05:00:49Z</time>
      </trkpt>
      <trkpt lat="42.46793" lon="2.22661">
        <ele>1885.76</ele>
        <time>2016-07-01T05:01:01Z</time>
      </trkpt>
      <trkpt lat="42.46793" lon="2.2266">
        <ele>1886.24</ele>
        <time>2016-07-01T05:01:03Z</time>
      </trkpt>
      <trkpt lat="42.46793" lon="2.22659">
        <ele>1886.24</ele>
        <time>2016-07-01T05:01:11Z</time>
      </trkpt>
      <trkpt lat="42.46795" lon="2.22647">
        <ele>1886.72</ele>
        <time>2016-07-01T05:01:19Z</time>
      </trkpt>
      <trkpt lat="42.468" lon="2.22633">
        <ele>1888.17</ele>
        <time>2016-07-01T05:01:31Z</time>
      </trkpt>
      <trkpt lat="42.468" lon="2.22631">
        <ele>1888.65</ele>
        <time>2016-07-01T05:01:32Z</time>
      </trkpt>
      <trkpt lat="42.46803" lon="2.22622">
        <ele>1889.61</ele>
        <time>2016-07-01T05:01:40Z</time>
      </trkpt>
      <trkpt lat="42.46804" lon="2.22619">
        <ele>1890.09</ele>
        <time>2016-07-01T05:01:43Z</time>
      </trkpt>
      <trkpt lat="42.46805" lon="2.22615">
        <ele>1891.05</ele>
        <time>2016-07-01T05:01:46Z</time>
      </trkpt>
      <trkpt lat="42.46806" lon="2.22613">
        <ele>1890.57</ele>
        <time>2016-07-01T05:01:48Z</time>
      </trkpt>
      <trkpt lat="42.46809" lon="2.22601">
        <ele>1892.49</ele>
        <time>2016-07-01T05:01:57Z</time>
      </trkpt>
      <trkpt lat="42.46809" lon="2.22595">
        <ele>1892.97</ele>
        <time>2016-07-01T05:02:01Z</time>
      </trkpt>
      <trkpt lat="42.46811" lon="2.22592">
        <ele>1893.45</ele>
        <time>2016-07-01T05:02:05Z</time>
      </trkpt>
      <trkpt lat="42.46812" lon="2.22574">
        <ele>1895.86</ele>
        <time>2016-07-01T05:02:18Z</time>
      </trkpt>
      <trkpt lat="42.46813" lon="2.2257">
        <ele>1896.34</ele>
        <time>2016-07-01T05:02:21Z</time>
      </trkpt>
      <trkpt lat="42.46815" lon="2.22555">
        <ele>1898.26</ele>
        <time>2016-07-01T05:02:33Z</time>
      </trkpt>
      <trkpt lat="42.46814" lon="2.2255">
        <ele>1899.22</ele>
        <time>2016-07-01T05:02:38Z</time>
      </trkpt>
      <trkpt lat="42.46809" lon="2.22545">
        <ele>1899.7</ele>
        <time>2016-07-01T05:02:45Z</time>
      </trkpt>
      <trkpt lat="42.46805" lon="2.22544">
        <ele>1900.66</ele>
        <time>2016-07-01T05:02:49Z</time>
      </trkpt>
      <trkpt lat="42.46803" lon="2.22542">
        <ele>1901.14</ele>
        <time>2016-07-01T05:02:51Z</time>
      </trkpt>
      <trkpt lat="42.46796" lon="2.22539">
        <ele>1901.63</ele>
        <time>2016-07-01T05:02:59Z</time>
      </trkpt>
      <trkpt lat="42.46794" lon="2.22536">
        <ele>1902.11</ele>
        <time>2016-07-01T05:03:02Z</time>
      </trkpt>
      <trkpt lat="42.46789" lon="2.22536">
        <ele>1902.59</ele>
        <time>2016-07-01T05:03:07Z</time>
      </trkpt>
      <trkpt lat="42.46786" lon="2.22535">
        <ele>1903.07</ele>
        <time>2016-07-01T05:03:10Z</time>
      </trkpt>
      <trkpt lat="42.46783" lon="2.22534">
        <ele>1904.03</ele>
        <time>2016-07-01T05:03:12Z</time>
      </trkpt>
      <trkpt lat="42.4678" lon="2.22533">
        <ele>1904.03</ele>
        <time>2016-07-01T05:03:15Z</time>
      </trkpt>
      <trkpt lat="42.46768" lon="2.2252">
        <ele>1905.95</ele>
        <time>2016-07-01T05:03:30Z</time>
      </trkpt>
      <trkpt lat="42.46768" lon="2.22505">
        <ele>1907.39</ele>
        <time>2016-07-01T05:03:42Z</time>
      </trkpt>
      <trkpt lat="42.46769" lon="2.22497">
        <ele>1907.87</ele>
        <time>2016-07-01T05:03:48Z</time>
      </trkpt>
      <trkpt lat="42.46771" lon="2.22481">
        <ele>1909.32</ele>
        <time>2016-07-01T05:03:59Z</time>
      </trkpt>
      <trkpt lat="42.46771" lon="2.22464">
        <ele>1911.72</ele>
        <time>2016-07-01T05:04:11Z</time>
      </trkpt>
      <trkpt lat="42.46771" lon="2.22456">
        <ele>1912.68</ele>
        <time>2016-07-01T05:04:17Z</time>
      </trkpt>
      <trkpt lat="42.46765" lon="2.22443">
        <ele>1914.6</ele>
        <time>2016-07-01T05:04:28Z</time>
      </trkpt>
      <trkpt lat="42.46758" lon="2.22437">
        <ele>1915.56</ele>
        <time>2016-07-01T05:04:37Z</time>
      </trkpt>
      <trkpt lat="42.46755" lon="2.22435">
        <ele>1916.04</ele>
        <time>2016-07-01T05:04:40Z</time>
      </trkpt>
      <trkpt lat="42.46749" lon="2.22424">
        <ele>1917.97</ele>
        <time>2016-07-01T05:04:55Z</time>
      </trkpt>
      <trkpt lat="42.4675" lon="2.22424">
        <ele>1918.93</ele>
        <time>2016-07-01T05:05:16Z</time>
      </trkpt>
      <trkpt lat="42.4675" lon="2.22424">
        <ele>1918.93</ele>
        <time>2016-07-01T05:05:39Z</time>
      </trkpt>
      <trkpt lat="42.46744" lon="2.22415">
        <ele>1919.41</ele>
        <time>2016-07-01T05:05:48Z</time>
      </trkpt>
      <trkpt lat="42.46744" lon="2.2241">
        <ele>1919.41</ele>
        <time>2016-07-01T05:05:52Z</time>
      </trkpt>
      <trkpt lat="42.4674" lon="2.22399">
        <ele>1920.37</ele>
        <time>2016-07-01T05:06:01Z</time>
      </trkpt>
      <trkpt lat="42.46742" lon="2.22395">
        <ele>1920.85</ele>
        <time>2016-07-01T05:06:08Z</time>
      </trkpt>
      <trkpt lat="42.46744" lon="2.22398">
        <ele>1921.81</ele>
        <time>2016-07-01T05:06:11Z</time>
      </trkpt>
      <trkpt lat="42.46746" lon="2.22401">
        <ele>1922.29</ele>
        <time>2016-07-01T05:06:14Z</time>
      </trkpt>
      <trkpt lat="42.46748" lon="2.22407">
        <ele>1922.77</ele>
        <time>2016-07-01T05:06:18Z</time>
      </trkpt>
      <trkpt lat="42.4676" lon="2.22416">
        <ele>1923.74</ele>
        <time>2016-07-01T05:06:31Z</time>
      </trkpt>
      <trkpt lat="42.4676" lon="2.22417">
        <ele>1924.7</ele>
        <time>2016-07-01T05:06:32Z</time>
      </trkpt>
      <trkpt lat="42.46765" lon="2.22419">
        <ele>1925.18</ele>
        <time>2016-07-01T05:06:37Z</time>
      </trkpt>
      <trkpt lat="42.46777" lon="2.22421">
        <ele>1926.62</ele>
        <time>2016-07-01T05:06:49Z</time>
      </trkpt>
      <trkpt lat="42.4678" lon="2.22421">
        <ele>1927.1</ele>
        <time>2016-07-01T05:06:54Z</time>
      </trkpt>
      <trkpt lat="42.46791" lon="2.22427">
        <ele>1929.5</ele>
        <time>2016-07-01T05:07:07Z</time>
      </trkpt>
      <trkpt lat="42.46795" lon="2.22431">
        <ele>1930.46</ele>
        <time>2016-07-01T05:07:13Z</time>
      </trkpt>
      <trkpt lat="42.468" lon="2.22435">
        <ele>1931.91</ele>
        <time>2016-07-01T05:07:19Z</time>
      </trkpt>
      <trkpt lat="42.46805" lon="2.22448">
        <ele>1933.35</ele>
        <time>2016-07-01T05:07:31Z</time>
      </trkpt>
      <trkpt lat="42.46806" lon="2.22449">
        <ele>1933.83</ele>
        <time>2016-07-01T05:07:32Z</time>
      </trkpt>
      <trkpt lat="42.46805" lon="2.22453">
        <ele>1933.83</ele>
        <time>2016-07-01T05:07:35Z</time>
      </trkpt>
      <trkpt lat="42.46808" lon="2.22456">
        <ele>1934.79</ele>
        <time>2016-07-01T05:07:39Z</time>
      </trkpt>
      <trkpt lat="42.46815" lon="2.22464">
        <ele>1936.23</ele>
        <time>2016-07-01T05:07:48Z</time>
      </trkpt>
      <trkpt lat="42.4682" lon="2.22468">
        <ele>1937.19</ele>
        <time>2016-07-01T05:07:53Z</time>
      </trkpt>
      <trkpt lat="42.46825" lon="2.2247">
        <ele>1937.19</ele>
        <time>2016-07-01T05:07:58Z</time>
      </trkpt>
      <trkpt lat="42.46836" lon="2.22466">
        <ele>1939.6</ele>
        <time>2016-07-01T05:08:13Z</time>
      </trkpt>
      <trkpt lat="42.46848" lon="2.22458">
        <ele>1941.04</ele>
        <time>2016-07-01T05:08:26Z</time>
      </trkpt>
      <trkpt lat="42.46858" lon="2.22448">
        <ele>1942.48</ele>
        <time>2016-07-01T05:08:39Z</time>
      </trkpt>
      <trkpt lat="42.46869" lon="2.2244">
        <ele>1944.4</ele>
        <time>2016-07-01T05:08:50Z</time>
      </trkpt>
      <trkpt lat="42.46882" lon="2.22445">
        <ele>1946.33</ele>
        <time>2016-07-01T05:09:04Z</time>
      </trkpt>
      <trkpt lat="42.46884" lon="2.22452">
        <ele>1947.77</ele>
        <time>2016-07-01T05:09:10Z</time>
      </trkpt>
      <trkpt lat="42.46886" lon="2.22453">
        <ele>1948.25</ele>
        <time>2016-07-01T05:09:11Z</time>
      </trkpt>
      <trkpt lat="42.46887" lon="2.22454">
        <ele>1948.25</ele>
        <time>2016-07-01T05:09:12Z</time>
      </trkpt>
      <trkpt lat="42.46894" lon="2.22465">
        <ele>1949.69</ele>
        <time>2016-07-01T05:09:23Z</time>
      </trkpt>
      <trkpt lat="42.46898" lon="2.22473">
        <ele>1950.65</ele>
        <time>2016-07-01T05:09:31Z</time>
      </trkpt>
      <trkpt lat="42.46899" lon="2.22475">
        <ele>1950.65</ele>
        <time>2016-07-01T05:09:32Z</time>
      </trkpt>
      <trkpt lat="42.46899" lon="2.22477">
        <ele>1950.65</ele>
        <time>2016-07-01T05:09:33Z</time>
      </trkpt>
      <trkpt lat="42.46901" lon="2.2248">
        <ele>1951.13</ele>
        <time>2016-07-01T05:09:36Z</time>
      </trkpt>
      <trkpt lat="42.46906" lon="2.22492">
        <ele>1952.09</ele>
        <time>2016-07-01T05:09:46Z</time>
      </trkpt>
      <trkpt lat="42.46907" lon="2.22495">
        <ele>1953.06</ele>
        <time>2016-07-01T05:09:48Z</time>
      </trkpt>
      <trkpt lat="42.46906" lon="2.22497">
        <ele>1953.06</ele>
        <time>2016-07-01T05:09:49Z</time>
      </trkpt>
      <trkpt lat="42.46907" lon="2.22498">
        <ele>1953.06</ele>
        <time>2016-07-01T05:09:50Z</time>
      </trkpt>
      <trkpt lat="42.46907" lon="2.225">
        <ele>1953.06</ele>
        <time>2016-07-01T05:09:51Z</time>
      </trkpt>
      <trkpt lat="42.46909" lon="2.22502">
        <ele>1953.54</ele>
        <time>2016-07-01T05:09:54Z</time>
      </trkpt>
      <trkpt lat="42.46911" lon="2.22505">
        <ele>1953.54</ele>
        <time>2016-07-01T05:09:56Z</time>
      </trkpt>
      <trkpt lat="42.46912" lon="2.22506">
        <ele>1954.02</ele>
        <time>2016-07-01T05:09:57Z</time>
      </trkpt>
      <trkpt lat="42.46913" lon="2.22506">
        <ele>1954.02</ele>
        <time>2016-07-01T05:09:58Z</time>
      </trkpt>
      <trkpt lat="42.46918" lon="2.22505">
        <ele>1955.94</ele>
        <time>2016-07-01T05:10:08Z</time>
      </trkpt>
      <trkpt lat="42.46917" lon="2.22497">
        <ele>1956.9</ele>
        <time>2016-07-01T05:10:14Z</time>
      </trkpt>
      <trkpt lat="42.46917" lon="2.22496">
        <ele>1956.9</ele>
        <time>2016-07-01T05:10:15Z</time>
      </trkpt>
      <trkpt lat="42.46916" lon="2.22482">
        <ele>1958.82</ele>
        <time>2016-07-01T05:10:26Z</time>
      </trkpt>
      <trkpt lat="42.46915" lon="2.22478">
        <ele>1959.3</ele>
        <time>2016-07-01T05:10:29Z</time>
      </trkpt>
      <trkpt lat="42.46915" lon="2.22474">
        <ele>1959.78</ele>
        <time>2016-07-01T05:10:32Z</time>
      </trkpt>
      <trkpt lat="42.46915" lon="2.22467">
        <ele>1960.27</ele>
        <time>2016-07-01T05:10:37Z</time>
      </trkpt>
      <trkpt lat="42.46912" lon="2.22454">
        <ele>1961.71</ele>
        <time>2016-07-01T05:10:47Z</time>
      </trkpt>
      <trkpt lat="42.46911" lon="2.2244">
        <ele>1963.15</ele>
        <time>2016-07-01T05:10:59Z</time>
      </trkpt>
      <trkpt lat="42.46911" lon="2.22438">
        <ele>1963.63</ele>
        <time>2016-07-01T05:11:00Z</time>
      </trkpt>
      <trkpt lat="42.46912" lon="2.22435">
        <ele>1963.63</ele>
        <time>2016-07-01T05:11:02Z</time>
      </trkpt>
      <trkpt lat="42.4691" lon="2.22422">
        <ele>1964.59</ele>
        <time>2016-07-01T05:11:10Z</time>
      </trkpt>
      <trkpt lat="42.46909" lon="2.22421">
        <ele>1964.59</ele>
        <time>2016-07-01T05:11:11Z</time>
      </trkpt>
      <trkpt lat="42.46903" lon="2.22407">
        <ele>1966.99</ele>
        <time>2016-07-01T05:11:24Z</time>
      </trkpt>
      <trkpt lat="42.46901" lon="2.22402">
        <ele>1967.48</ele>
        <time>2016-07-01T05:11:28Z</time>
      </trkpt>
      <trkpt lat="42.46895" lon="2.22386">
        <ele>1969.4</ele>
        <time>2016-07-01T05:11:41Z</time>
      </trkpt>
      <trkpt lat="42.4689" lon="2.22375">
        <ele>1970.36</ele>
        <time>2016-07-01T05:11:50Z</time>
      </trkpt>
      <trkpt lat="42.46889" lon="2.22374">
        <ele>1970.84</ele>
        <time>2016-07-01T05:11:51Z</time>
      </trkpt>
      <trkpt lat="42.46888" lon="2.22372">
        <ele>1970.84</ele>
        <time>2016-07-01T05:11:53Z</time>
      </trkpt>
      <trkpt lat="42.46888" lon="2.22371">
        <ele>1970.84</ele>
        <time>2016-07-01T05:11:54Z</time>
      </trkpt>
      <trkpt lat="42.46887" lon="2.22369">
        <ele>1971.32</ele>
        <time>2016-07-01T05:11:56Z</time>
      </trkpt>
      <trkpt lat="42.46878" lon="2.2236">
        <ele>1973.24</ele>
        <time>2016-07-01T05:12:08Z</time>
      </trkpt>
      <trkpt lat="42.46871" lon="2.22348">
        <ele>1975.17</ele>
        <time>2016-07-01T05:12:21Z</time>
      </trkpt>
      <trkpt lat="42.46869" lon="2.22345">
        <ele>1975.65</ele>
        <time>2016-07-01T05:12:25Z</time>
      </trkpt>
      <trkpt lat="42.46869" lon="2.22343">
        <ele>1975.65</ele>
        <time>2016-07-01T05:12:26Z</time>
      </trkpt>
      <trkpt lat="42.46865" lon="2.22331">
        <ele>1977.09</ele>
        <time>2016-07-01T05:12:38Z</time>
      </trkpt>
      <trkpt lat="42.46858" lon="2.22317">
        <ele>1979.49</ele>
        <time>2016-07-01T05:12:50Z</time>
      </trkpt>
      <trkpt lat="42.46855" lon="2.22311">
        <ele>1979.97</ele>
        <time>2016-07-01T05:12:56Z</time>
      </trkpt>
      <trkpt lat="42.46849" lon="2.22296">
        <ele>1982.38</ele>
        <time>2016-07-01T05:13:09Z</time>
      </trkpt>
      <trkpt lat="42.46844" lon="2.22287">
        <ele>1983.34</ele>
        <time>2016-07-01T05:13:19Z</time>
      </trkpt>
      <trkpt lat="42.46843" lon="2.22286">
        <ele>1983.82</ele>
        <time>2016-07-01T05:13:20Z</time>
      </trkpt>
      <trkpt lat="42.46836" lon="2.22276">
        <ele>1985.74</ele>
        <time>2016-07-01T05:13:31Z</time>
      </trkpt>
      <trkpt lat="42.46834" lon="2.22274">
        <ele>1985.74</ele>
        <time>2016-07-01T05:13:34Z</time>
      </trkpt>
      <trkpt lat="42.46822" lon="2.22267">
        <ele>1987.66</ele>
        <time>2016-07-01T05:13:48Z</time>
      </trkpt>
      <trkpt lat="42.46811" lon="2.22259">
        <ele>1989.59</ele>
        <time>2016-07-01T05:14:01Z</time>
      </trkpt>
      <trkpt lat="42.46804" lon="2.22252">
        <ele>1991.03</ele>
        <time>2016-07-01T05:14:13Z</time>
      </trkpt>
      <trkpt lat="42.46807" lon="2.22249">
        <ele>1992.47</ele>
        <time>2016-07-01T05:14:19Z</time>
      </trkpt>
      <trkpt lat="42.46808" lon="2.22248">
        <ele>1992.47</ele>
        <time>2016-07-01T05:14:20Z</time>
      </trkpt>
      <trkpt lat="42.46809" lon="2.22249">
        <ele>1992.47</ele>
        <time>2016-07-01T05:14:21Z</time>
      </trkpt>
      <trkpt lat="42.46823" lon="2.22245">
        <ele>1993.91</ele>
        <time>2016-07-01T05:14:34Z</time>
      </trkpt>
      <trkpt lat="42.4683" lon="2.22241">
        <ele>1995.83</ele>
        <time>2016-07-01T05:14:43Z</time>
      </trkpt>
      <trkpt lat="42.4684" lon="2.22236">
        <ele>1997.28</ele>
        <time>2016-07-01T05:14:57Z</time>
      </trkpt>
      <trkpt lat="42.46847" lon="2.22235">
        <ele>1999.2</ele>
        <time>2016-07-01T05:15:09Z</time>
      </trkpt>
      <trkpt lat="42.4685" lon="2.22234">
        <ele>2000.64</ele>
        <time>2016-07-01T05:15:25Z</time>
      </trkpt>
      <trkpt lat="42.46864" lon="2.22231">
        <ele>2001.6</ele>
        <time>2016-07-01T05:15:36Z</time>
      </trkpt>
      <trkpt lat="42.46873" lon="2.22231">
        <ele>2003.52</ele>
        <time>2016-07-01T05:15:49Z</time>
      </trkpt>
      <trkpt lat="42.46875" lon="2.22231">
        <ele>2004.01</ele>
        <time>2016-07-01T05:15:53Z</time>
      </trkpt>
      <trkpt lat="42.46883" lon="2.22229">
        <ele>2005.45</ele>
        <time>2016-07-01T05:16:01Z</time>
      </trkpt>
      <trkpt lat="42.46903" lon="2.22225">
        <ele>2007.85</ele>
        <time>2016-07-01T05:16:16Z</time>
      </trkpt>
      <trkpt lat="42.46913" lon="2.22225">
        <ele>2009.29</ele>
        <time>2016-07-01T05:16:28Z</time>
      </trkpt>
      <trkpt lat="42.46916" lon="2.22225">
        <ele>2009.77</ele>
        <time>2016-07-01T05:16:32Z</time>
      </trkpt>
      <trkpt lat="42.46917" lon="2.22221">
        <ele>2010.73</ele>
        <time>2016-07-01T05:16:35Z</time>
      </trkpt>
      <trkpt lat="42.46918" lon="2.22218">
        <ele>2011.7</ele>
        <time>2016-07-01T05:16:40Z</time>
      </trkpt>
      <trkpt lat="42.46913" lon="2.22214">
        <ele>2015.06</ele>
        <time>2016-07-01T05:16:47Z</time>
      </trkpt>
      <trkpt lat="42.46906" lon="2.22208">
        <ele>2015.54</ele>
        <time>2016-07-01T05:16:59Z</time>
      </trkpt>
      <trkpt lat="42.46906" lon="2.22207">
        <ele>2015.54</ele>
        <time>2016-07-01T05:17:06Z</time>
      </trkpt>
      <trkpt lat="42.46908" lon="2.22199">
        <ele>2016.02</ele>
        <time>2016-07-01T05:17:16Z</time>
      </trkpt>
      <trkpt lat="42.4691" lon="2.22196">
        <ele>2016.98</ele>
        <time>2016-07-01T05:17:22Z</time>
      </trkpt>
      <trkpt lat="42.46915" lon="2.22192">
        <ele>2018.43</ele>
        <time>2016-07-01T05:17:33Z</time>
      </trkpt>
      <trkpt lat="42.46915" lon="2.2219">
        <ele>2018.43</ele>
        <time>2016-07-01T05:17:34Z</time>
      </trkpt>
      <trkpt lat="42.46915" lon="2.22182">
        <ele>2020.83</ele>
        <time>2016-07-01T05:17:45Z</time>
      </trkpt>
      <trkpt lat="42.46917" lon="2.22175">
        <ele>2024.19</ele>
        <time>2016-07-01T05:17:53Z</time>
      </trkpt>
      <trkpt lat="42.46918" lon="2.22175">
        <ele>2026.6</ele>
        <time>2016-07-01T05:18:04Z</time>
      </trkpt>
      <trkpt lat="42.46921" lon="2.22169">
        <ele>2027.08</ele>
        <time>2016-07-01T05:18:18Z</time>
      </trkpt>
      <trkpt lat="42.46924" lon="2.22163">
        <ele>2027.56</ele>
        <time>2016-07-01T05:18:28Z</time>
      </trkpt>
      <trkpt lat="42.46926" lon="2.22158">
        <ele>2029</ele>
        <time>2016-07-01T05:18:38Z</time>
      </trkpt>
      <trkpt lat="42.46929" lon="2.22152">
        <ele>2030.92</ele>
        <time>2016-07-01T05:18:50Z</time>
      </trkpt>
      <trkpt lat="42.46933" lon="2.22151">
        <ele>2032.84</ele>
        <time>2016-07-01T05:19:00Z</time>
      </trkpt>
      <trkpt lat="42.46934" lon="2.22144">
        <ele>2035.73</ele>
        <time>2016-07-01T05:19:11Z</time>
      </trkpt>
      <trkpt lat="42.46936" lon="2.22141">
        <ele>2039.09</ele>
        <time>2016-07-01T05:19:19Z</time>
      </trkpt>
      <trkpt lat="42.46936" lon="2.22141">
        <ele>2038.13</ele>
        <time>2016-07-01T05:19:41Z</time>
      </trkpt>
      <trkpt lat="42.46941" lon="2.22136">
        <ele>2038.13</ele>
        <time>2016-07-01T05:19:56Z</time>
      </trkpt>
      <trkpt lat="42.46945" lon="2.2213">
        <ele>2040.54</ele>
        <time>2016-07-01T05:20:08Z</time>
      </trkpt>
      <trkpt lat="42.46946" lon="2.22123">
        <ele>2042.94</ele>
        <time>2016-07-01T05:20:21Z</time>
      </trkpt>
      <trkpt lat="42.46946" lon="2.22122">
        <ele>2043.42</ele>
        <time>2016-07-01T05:20:22Z</time>
      </trkpt>
      <trkpt lat="42.46947" lon="2.22121">
        <ele>2043.42</ele>
        <time>2016-07-01T05:20:24Z</time>
      </trkpt>
      <trkpt lat="42.46947" lon="2.22118">
        <ele>2046.3</ele>
        <time>2016-07-01T05:20:31Z</time>
      </trkpt>
      <trkpt lat="42.4695" lon="2.22115">
        <ele>2049.67</ele>
        <time>2016-07-01T05:20:38Z</time>
      </trkpt>
      <trkpt lat="42.46953" lon="2.22109">
        <ele>2050.15</ele>
        <time>2016-07-01T05:20:50Z</time>
      </trkpt>
      <trkpt lat="42.46954" lon="2.22107">
        <ele>2050.63</ele>
        <time>2016-07-01T05:21:04Z</time>
      </trkpt>
      <trkpt lat="42.46956" lon="2.22101">
        <ele>2052.55</ele>
        <time>2016-07-01T05:21:17Z</time>
      </trkpt>
      <trkpt lat="42.4696" lon="2.22097">
        <ele>2053.99</ele>
        <time>2016-07-01T05:21:27Z</time>
      </trkpt>
      <trkpt lat="42.46963" lon="2.22092">
        <ele>2055.44</ele>
        <time>2016-07-01T05:21:35Z</time>
      </trkpt>
      <trkpt lat="42.46964" lon="2.22085">
        <ele>2057.36</ele>
        <time>2016-07-01T05:21:46Z</time>
      </trkpt>
      <trkpt lat="42.46962" lon="2.22083">
        <ele>2060.24</ele>
        <time>2016-07-01T05:21:53Z</time>
      </trkpt>
      <trkpt lat="42.46963" lon="2.22077">
        <ele>2063.13</ele>
        <time>2016-07-01T05:22:03Z</time>
      </trkpt>
      <trkpt lat="42.46967" lon="2.22069">
        <ele>2064.57</ele>
        <time>2016-07-01T05:22:16Z</time>
      </trkpt>
      <trkpt lat="42.46971" lon="2.22062">
        <ele>2065.53</ele>
        <time>2016-07-01T05:22:27Z</time>
      </trkpt>
      <trkpt lat="42.46973" lon="2.22056">
        <ele>2067.45</ele>
        <time>2016-07-01T05:22:38Z</time>
      </trkpt>
      <trkpt lat="42.46973" lon="2.22054">
        <ele>2068.89</ele>
        <time>2016-07-01T05:22:54Z</time>
      </trkpt>
      <trkpt lat="42.46973" lon="2.22049">
        <ele>2069.38</ele>
        <time>2016-07-01T05:22:59Z</time>
      </trkpt>
      <trkpt lat="42.46972" lon="2.22043">
        <ele>2070.82</ele>
        <time>2016-07-01T05:23:10Z</time>
      </trkpt>
      <trkpt lat="42.46976" lon="2.22037">
        <ele>2072.74</ele>
        <time>2016-07-01T05:23:20Z</time>
      </trkpt>
      <trkpt lat="42.46977" lon="2.22027">
        <ele>2074.66</ele>
        <time>2016-07-01T05:23:31Z</time>
      </trkpt>
      <trkpt lat="42.46978" lon="2.22021">
        <ele>2076.59</ele>
        <time>2016-07-01T05:23:43Z</time>
      </trkpt>
      <trkpt lat="42.4698" lon="2.22016">
        <ele>2078.51</ele>
        <time>2016-07-01T05:23:54Z</time>
      </trkpt>
      <trkpt lat="42.46979" lon="2.22011">
        <ele>2079.95</ele>
        <time>2016-07-01T05:24:11Z</time>
      </trkpt>
      <trkpt lat="42.46981" lon="2.22003">
        <ele>2081.87</ele>
        <time>2016-07-01T05:24:21Z</time>
      </trkpt>
      <trkpt lat="42.4698" lon="2.21996">
        <ele>2083.31</ele>
        <time>2016-07-01T05:24:29Z</time>
      </trkpt>
      <trkpt lat="42.46983" lon="2.21988">
        <ele>2084.76</ele>
        <time>2016-07-01T05:24:39Z</time>
      </trkpt>
      <trkpt lat="42.46983" lon="2.2198">
        <ele>2087.16</ele>
        <time>2016-07-01T05:24:52Z</time>
      </trkpt>
      <trkpt lat="42.4698" lon="2.21974">
        <ele>2089.08</ele>
        <time>2016-07-01T05:25:01Z</time>
      </trkpt>
      <trkpt lat="42.46979" lon="2.21967">
        <ele>2091.49</ele>
        <time>2016-07-01T05:25:14Z</time>
      </trkpt>
      <trkpt lat="42.46976" lon="2.21963">
        <ele>2093.41</ele>
        <time>2016-07-01T05:25:25Z</time>
      </trkpt>
      <trkpt lat="42.46972" lon="2.21959">
        <ele>2095.81</ele>
        <time>2016-07-01T05:25:38Z</time>
      </trkpt>
      <trkpt lat="42.46976" lon="2.21951">
        <ele>2097.25</ele>
        <time>2016-07-01T05:25:49Z</time>
      </trkpt>
      <trkpt lat="42.4697" lon="2.21947">
        <ele>2099.18</ele>
        <time>2016-07-01T05:26:01Z</time>
      </trkpt>
      <trkpt lat="42.46965" lon="2.21952">
        <ele>2100.14</ele>
        <time>2016-07-01T05:26:11Z</time>
      </trkpt>
      <trkpt lat="42.46961" lon="2.21956">
        <ele>2101.58</ele>
        <time>2016-07-01T05:26:18Z</time>
      </trkpt>
      <trkpt lat="42.4695" lon="2.21964">
        <ele>2103.02</ele>
        <time>2016-07-01T05:26:31Z</time>
      </trkpt>
      <trkpt lat="42.46949" lon="2.21964">
        <ele>2103.02</ele>
        <time>2016-07-01T05:26:32Z</time>
      </trkpt>
      <trkpt lat="42.46946" lon="2.21965">
        <ele>2103.5</ele>
        <time>2016-07-01T05:26:35Z</time>
      </trkpt>
      <trkpt lat="42.46935" lon="2.21959">
        <ele>2105.42</ele>
        <time>2016-07-01T05:26:48Z</time>
      </trkpt>
      <trkpt lat="42.46936" lon="2.21951">
        <ele>2106.39</ele>
        <time>2016-07-01T05:26:55Z</time>
      </trkpt>
      <trkpt lat="42.46944" lon="2.2194">
        <ele>2108.31</ele>
        <time>2016-07-01T05:27:08Z</time>
      </trkpt>
      <trkpt lat="42.46947" lon="2.21927">
        <ele>2110.23</ele>
        <time>2016-07-01T05:27:21Z</time>
      </trkpt>
      <trkpt lat="42.46949" lon="2.21916">
        <ele>2112.15</ele>
        <time>2016-07-01T05:27:32Z</time>
      </trkpt>
      <trkpt lat="42.46953" lon="2.21903">
        <ele>2114.08</ele>
        <time>2016-07-01T05:27:46Z</time>
      </trkpt>
      <trkpt lat="42.46953" lon="2.21893">
        <ele>2116</ele>
        <time>2016-07-01T05:27:57Z</time>
      </trkpt>
      <trkpt lat="42.46952" lon="2.21891">
        <ele>2116</ele>
        <time>2016-07-01T05:27:59Z</time>
      </trkpt>
      <trkpt lat="42.46952" lon="2.21883">
        <ele>2117.44</ele>
        <time>2016-07-01T05:28:07Z</time>
      </trkpt>
      <trkpt lat="42.46948" lon="2.21871">
        <ele>2118.88</ele>
        <time>2016-07-01T05:28:19Z</time>
      </trkpt>
      <trkpt lat="42.46943" lon="2.21854">
        <ele>2121.29</ele>
        <time>2016-07-01T05:28:33Z</time>
      </trkpt>
      <trkpt lat="42.46937" lon="2.21839">
        <ele>2122.73</ele>
        <time>2016-07-01T05:28:47Z</time>
      </trkpt>
      <trkpt lat="42.46935" lon="2.21837">
        <ele>2122.73</ele>
        <time>2016-07-01T05:28:49Z</time>
      </trkpt>
      <trkpt lat="42.46935" lon="2.21834">
        <ele>2123.21</ele>
        <time>2016-07-01T05:28:51Z</time>
      </trkpt>
      <trkpt lat="42.46927" lon="2.2182">
        <ele>2125.13</ele>
        <time>2016-07-01T05:29:05Z</time>
      </trkpt>
      <trkpt lat="42.46924" lon="2.21812">
        <ele>2125.61</ele>
        <time>2016-07-01T05:29:12Z</time>
      </trkpt>
      <trkpt lat="42.46918" lon="2.21799">
        <ele>2127.53</ele>
        <time>2016-07-01T05:29:24Z</time>
      </trkpt>
      <trkpt lat="42.46913" lon="2.21788">
        <ele>2128.98</ele>
        <time>2016-07-01T05:29:35Z</time>
      </trkpt>
      <trkpt lat="42.46911" lon="2.21785">
        <ele>2129.94</ele>
        <time>2016-07-01T05:29:38Z</time>
      </trkpt>
      <trkpt lat="42.46907" lon="2.21777">
        <ele>2130.9</ele>
        <time>2016-07-01T05:29:47Z</time>
      </trkpt>
      <trkpt lat="42.46899" lon="2.2176">
        <ele>2133.3</ele>
        <time>2016-07-01T05:30:03Z</time>
      </trkpt>
      <trkpt lat="42.46898" lon="2.21758">
        <ele>2133.78</ele>
        <time>2016-07-01T05:30:05Z</time>
      </trkpt>
      <trkpt lat="42.46897" lon="2.21756">
        <ele>2133.78</ele>
        <time>2016-07-01T05:30:07Z</time>
      </trkpt>
      <trkpt lat="42.4689" lon="2.21741">
        <ele>2135.23</ele>
        <time>2016-07-01T05:30:20Z</time>
      </trkpt>
      <trkpt lat="42.46885" lon="2.21733">
        <ele>2136.67</ele>
        <time>2016-07-01T05:30:28Z</time>
      </trkpt>
      <trkpt lat="42.4688" lon="2.21728">
        <ele>2137.15</ele>
        <time>2016-07-01T05:30:35Z</time>
      </trkpt>
      <trkpt lat="42.46878" lon="2.21724">
        <ele>2137.63</ele>
        <time>2016-07-01T05:30:39Z</time>
      </trkpt>
      <trkpt lat="42.46878" lon="2.21721">
        <ele>2138.11</ele>
        <time>2016-07-01T05:30:43Z</time>
      </trkpt>
      <trkpt lat="42.46882" lon="2.21718">
        <ele>2138.59</ele>
        <time>2016-07-01T05:30:47Z</time>
      </trkpt>
      <trkpt lat="42.46887" lon="2.2172">
        <ele>2140.03</ele>
        <time>2016-07-01T05:30:54Z</time>
      </trkpt>
      <trkpt lat="42.46892" lon="2.21724">
        <ele>2140.51</ele>
        <time>2016-07-01T05:30:59Z</time>
      </trkpt>
      <trkpt lat="42.46894" lon="2.21727">
        <ele>2140.51</ele>
        <time>2016-07-01T05:31:02Z</time>
      </trkpt>
      <trkpt lat="42.46895" lon="2.21729">
        <ele>2140.99</ele>
        <time>2016-07-01T05:31:04Z</time>
      </trkpt>
      <trkpt lat="42.46907" lon="2.21738">
        <ele>2141.95</ele>
        <time>2016-07-01T05:31:14Z</time>
      </trkpt>
      <trkpt lat="42.46913" lon="2.21747">
        <ele>2143.4</ele>
        <time>2016-07-01T05:31:25Z</time>
      </trkpt>
      <trkpt lat="42.46919" lon="2.21755">
        <ele>2144.36</ele>
        <time>2016-07-01T05:31:35Z</time>
      </trkpt>
      <trkpt lat="42.46928" lon="2.21762">
        <ele>2145.8</ele>
        <time>2016-07-01T05:31:44Z</time>
      </trkpt>
      <trkpt lat="42.46938" lon="2.21767">
        <ele>2147.24</ele>
        <time>2016-07-01T05:31:56Z</time>
      </trkpt>
      <trkpt lat="42.46951" lon="2.21765">
        <ele>2148.68</ele>
        <time>2016-07-01T05:32:10Z</time>
      </trkpt>
      <trkpt lat="42.46954" lon="2.21763">
        <ele>2149.65</ele>
        <time>2016-07-01T05:32:14Z</time>
      </trkpt>
      <trkpt lat="42.46963" lon="2.21757">
        <ele>2151.09</ele>
        <time>2016-07-01T05:32:26Z</time>
      </trkpt>
      <trkpt lat="42.46964" lon="2.21757">
        <ele>2151.57</ele>
        <time>2016-07-01T05:32:31Z</time>
      </trkpt>
      <trkpt lat="42.46975" lon="2.21748">
        <ele>2153.97</ele>
        <time>2016-07-01T05:32:45Z</time>
      </trkpt>
      <trkpt lat="42.4698" lon="2.21744">
        <ele>2154.45</ele>
        <time>2016-07-01T05:32:50Z</time>
      </trkpt>
      <trkpt lat="42.46987" lon="2.21739">
        <ele>2155.89</ele>
        <time>2016-07-01T05:32:59Z</time>
      </trkpt>
      <trkpt lat="42.46995" lon="2.21734">
        <ele>2156.86</ele>
        <time>2016-07-01T05:33:09Z</time>
      </trkpt>
      <trkpt lat="42.47" lon="2.21726">
        <ele>2158.3</ele>
        <time>2016-07-01T05:33:20Z</time>
      </trkpt>
      <trkpt lat="42.47005" lon="2.21717">
        <ele>2159.74</ele>
        <time>2016-07-01T05:33:31Z</time>
      </trkpt>
      <trkpt lat="42.47016" lon="2.21707">
        <ele>2162.14</ele>
        <time>2016-07-01T05:33:44Z</time>
      </trkpt>
      <trkpt lat="42.47024" lon="2.21701">
        <ele>2163.58</ele>
        <time>2016-07-01T05:33:56Z</time>
      </trkpt>
      <trkpt lat="42.4703" lon="2.21696">
        <ele>2164.55</ele>
        <time>2016-07-01T05:34:04Z</time>
      </trkpt>
      <trkpt lat="42.47037" lon="2.21688">
        <ele>2166.47</ele>
        <time>2016-07-01T05:34:14Z</time>
      </trkpt>
      <trkpt lat="42.47046" lon="2.21679">
        <ele>2167.91</ele>
        <time>2016-07-01T05:34:25Z</time>
      </trkpt>
      <trkpt lat="42.47054" lon="2.21673">
        <ele>2169.35</ele>
        <time>2016-07-01T05:34:36Z</time>
      </trkpt>
      <trkpt lat="42.47056" lon="2.21672">
        <ele>2169.35</ele>
        <time>2016-07-01T05:34:38Z</time>
      </trkpt>
      <trkpt lat="42.47065" lon="2.21667">
        <ele>2171.76</ele>
        <time>2016-07-01T05:34:51Z</time>
      </trkpt>
      <trkpt lat="42.47066" lon="2.21667">
        <ele>2171.76</ele>
        <time>2016-07-01T05:34:52Z</time>
      </trkpt>
      <trkpt lat="42.47074" lon="2.21671">
        <ele>2172.72</ele>
        <time>2016-07-01T05:35:02Z</time>
      </trkpt>
      <trkpt lat="42.47076" lon="2.21674">
        <ele>2172.72</ele>
        <time>2016-07-01T05:35:05Z</time>
      </trkpt>
      <trkpt lat="42.47081" lon="2.21673">
        <ele>2174.64</ele>
        <time>2016-07-01T05:35:16Z</time>
      </trkpt>
      <trkpt lat="42.4708" lon="2.21671">
        <ele>2174.64</ele>
        <time>2016-07-01T05:35:18Z</time>
      </trkpt>
      <trkpt lat="42.47074" lon="2.21661">
        <ele>2176.56</ele>
        <time>2016-07-01T05:35:29Z</time>
      </trkpt>
      <trkpt lat="42.47073" lon="2.21659">
        <ele>2176.56</ele>
        <time>2016-07-01T05:35:30Z</time>
      </trkpt>
      <trkpt lat="42.47072" lon="2.21658">
        <ele>2176.56</ele>
        <time>2016-07-01T05:35:31Z</time>
      </trkpt>
      <trkpt lat="42.47064" lon="2.21652">
        <ele>2178</ele>
        <time>2016-07-01T05:35:42Z</time>
      </trkpt>
      <trkpt lat="42.47055" lon="2.2165">
        <ele>2178.97</ele>
        <time>2016-07-01T05:35:53Z</time>
      </trkpt>
      <trkpt lat="42.47054" lon="2.2165">
        <ele>2179.93</ele>
        <time>2016-07-01T05:35:54Z</time>
      </trkpt>
      <trkpt lat="42.4705" lon="2.2165">
        <ele>2180.41</ele>
        <time>2016-07-01T05:35:59Z</time>
      </trkpt>
      <trkpt lat="42.47042" lon="2.2165">
        <ele>2182.33</ele>
        <time>2016-07-01T05:36:11Z</time>
      </trkpt>
      <trkpt lat="42.47038" lon="2.21651">
        <ele>2182.81</ele>
        <time>2016-07-01T05:36:16Z</time>
      </trkpt>
      <trkpt lat="42.47037" lon="2.21652">
        <ele>2183.29</ele>
        <time>2016-07-01T05:36:18Z</time>
      </trkpt>
      <trkpt lat="42.47031" lon="2.21651">
        <ele>2183.77</ele>
        <time>2016-07-01T05:36:24Z</time>
      </trkpt>
      <trkpt lat="42.47021" lon="2.21651">
        <ele>2185.69</ele>
        <time>2016-07-01T05:36:37Z</time>
      </trkpt>
      <trkpt lat="42.47019" lon="2.21652">
        <ele>2186.18</ele>
        <time>2016-07-01T05:36:39Z</time>
      </trkpt>
      <trkpt lat="42.47007" lon="2.21654">
        <ele>2188.1</ele>
        <time>2016-07-01T05:36:52Z</time>
      </trkpt>
      <trkpt lat="42.46995" lon="2.21654">
        <ele>2189.06</ele>
        <time>2016-07-01T05:37:04Z</time>
      </trkpt>
      <trkpt lat="42.46993" lon="2.21653">
        <ele>2189.54</ele>
        <time>2016-07-01T05:37:06Z</time>
      </trkpt>
      <trkpt lat="42.46981" lon="2.21652">
        <ele>2190.5</ele>
        <time>2016-07-01T05:37:18Z</time>
      </trkpt>
      <trkpt lat="42.46972" lon="2.21648">
        <ele>2192.9</ele>
        <time>2016-07-01T05:37:31Z</time>
      </trkpt>
      <trkpt lat="42.46963" lon="2.21642">
        <ele>2194.83</ele>
        <time>2016-07-01T05:37:43Z</time>
      </trkpt>
      <trkpt lat="42.4696" lon="2.21639">
        <ele>2195.31</ele>
        <time>2016-07-01T05:37:47Z</time>
      </trkpt>
      <trkpt lat="42.46955" lon="2.21633">
        <ele>2196.75</ele>
        <time>2016-07-01T05:37:57Z</time>
      </trkpt>
      <trkpt lat="42.46958" lon="2.21634">
        <ele>2197.71</ele>
        <time>2016-07-01T05:38:12Z</time>
      </trkpt>
      <trkpt lat="42.46961" lon="2.21631">
        <ele>2198.67</ele>
        <time>2016-07-01T05:38:24Z</time>
      </trkpt>
      <trkpt lat="42.46962" lon="2.21628">
        <ele>2199.63</ele>
        <time>2016-07-01T05:38:44Z</time>
      </trkpt>
      <trkpt lat="42.46963" lon="2.21629">
        <ele>2200.11</ele>
        <time>2016-07-01T05:39:09Z</time>
      </trkpt>
      <trkpt lat="42.46964" lon="2.21629">
        <ele>2200.11</ele>
        <time>2016-07-01T05:39:36Z</time>
      </trkpt>
      <trkpt lat="42.46964" lon="2.21628">
        <ele>2200.11</ele>
        <time>2016-07-01T05:40:01Z</time>
      </trkpt>
      <trkpt lat="42.46964" lon="2.21629">
        <ele>2200.11</ele>
        <time>2016-07-01T05:40:30Z</time>
      </trkpt>
      <trkpt lat="42.46964" lon="2.21629">
        <ele>2200.11</ele>
        <time>2016-07-01T05:40:46Z</time>
      </trkpt>
      <trkpt lat="42.46962" lon="2.2163">
        <ele>2201.08</ele>
        <time>2016-07-01T05:41:02Z</time>
      </trkpt>
      <trkpt lat="42.46957" lon="2.21629">
        <ele>2199.63</ele>
        <time>2016-07-01T05:41:12Z</time>
      </trkpt>
      <trkpt lat="42.46956" lon="2.21626">
        <ele>2199.63</ele>
        <time>2016-07-01T05:41:15Z</time>
      </trkpt>
      <trkpt lat="42.46955" lon="2.21622">
        <ele>2199.63</ele>
        <time>2016-07-01T05:41:18Z</time>
      </trkpt>
      <trkpt lat="42.46954" lon="2.21621">
        <ele>2199.63</ele>
        <time>2016-07-01T05:41:19Z</time>
      </trkpt>
      <trkpt lat="42.46953" lon="2.21618">
        <ele>2199.63</ele>
        <time>2016-07-01T05:41:21Z</time>
      </trkpt>
      <trkpt lat="42.46951" lon="2.21604">
        <ele>2200.59</ele>
        <time>2016-07-01T05:41:33Z</time>
      </trkpt>
      <trkpt lat="42.46951" lon="2.21603">
        <ele>2200.59</ele>
        <time>2016-07-01T05:41:34Z</time>
      </trkpt>
      <trkpt lat="42.46951" lon="2.21601">
        <ele>2200.59</ele>
        <time>2016-07-01T05:41:35Z</time>
      </trkpt>
      <trkpt lat="42.4695" lon="2.21599">
        <ele>2201.08</ele>
        <time>2016-07-01T05:41:37Z</time>
      </trkpt>
      <trkpt lat="42.46949" lon="2.21593">
        <ele>2201.56</ele>
        <time>2016-07-01T05:41:42Z</time>
      </trkpt>
      <trkpt lat="42.46949" lon="2.21583">
        <ele>2203</ele>
        <time>2016-07-01T05:41:53Z</time>
      </trkpt>
      <trkpt lat="42.46949" lon="2.21575">
        <ele>2203.48</ele>
        <time>2016-07-01T05:41:59Z</time>
      </trkpt>
      <trkpt lat="42.46949" lon="2.21574">
        <ele>2203.96</ele>
        <time>2016-07-01T05:42:01Z</time>
      </trkpt>
      <trkpt lat="42.46951" lon="2.21568">
        <ele>2204.92</ele>
        <time>2016-07-01T05:42:08Z</time>
      </trkpt>
      <trkpt lat="42.46957" lon="2.21568">
        <ele>2206.36</ele>
        <time>2016-07-01T05:42:15Z</time>
      </trkpt>
      <trkpt lat="42.46957" lon="2.21569">
        <ele>2206.36</ele>
        <time>2016-07-01T05:42:16Z</time>
      </trkpt>
      <trkpt lat="42.46958" lon="2.21573">
        <ele>2206.84</ele>
        <time>2016-07-01T05:42:20Z</time>
      </trkpt>
      <trkpt lat="42.46961" lon="2.21583">
        <ele>2207.81</ele>
        <time>2016-07-01T05:42:30Z</time>
      </trkpt>
      <trkpt lat="42.46963" lon="2.21585">
        <ele>2207.81</ele>
        <time>2016-07-01T05:42:32Z</time>
      </trkpt>
      <trkpt lat="42.46963" lon="2.21587">
        <ele>2208.77</ele>
        <time>2016-07-01T05:42:33Z</time>
      </trkpt>
      <trkpt lat="42.4697" lon="2.21591">
        <ele>2209.25</ele>
        <time>2016-07-01T05:42:40Z</time>
      </trkpt>
      <trkpt lat="42.46971" lon="2.21592">
        <ele>2209.25</ele>
        <time>2016-07-01T05:42:41Z</time>
      </trkpt>
      <trkpt lat="42.46972" lon="2.21592">
        <ele>2209.73</ele>
        <time>2016-07-01T05:42:42Z</time>
      </trkpt>
      <trkpt lat="42.46979" lon="2.21595">
        <ele>2210.69</ele>
        <time>2016-07-01T05:42:53Z</time>
      </trkpt>
      <trkpt lat="42.46989" lon="2.21597">
        <ele>2212.61</ele>
        <time>2016-07-01T05:43:05Z</time>
      </trkpt>
      <trkpt lat="42.47001" lon="2.21594">
        <ele>2214.05</ele>
        <time>2016-07-01T05:43:17Z</time>
      </trkpt>
      <trkpt lat="42.47009" lon="2.21591">
        <ele>2215.98</ele>
        <time>2016-07-01T05:43:28Z</time>
      </trkpt>
      <trkpt lat="42.4702" lon="2.21584">
        <ele>2217.42</ele>
        <time>2016-07-01T05:43:41Z</time>
      </trkpt>
      <trkpt lat="42.47032" lon="2.21577">
        <ele>2219.34</ele>
        <time>2016-07-01T05:43:55Z</time>
      </trkpt>
      <trkpt lat="42.47041" lon="2.21571">
        <ele>2220.78</ele>
        <time>2016-07-01T05:44:06Z</time>
      </trkpt>
      <trkpt lat="42.47048" lon="2.21569">
        <ele>2221.74</ele>
        <time>2016-07-01T05:44:13Z</time>
      </trkpt>
      <trkpt lat="42.47055" lon="2.21563">
        <ele>2223.67</ele>
        <time>2016-07-01T05:44:24Z</time>
      </trkpt>
      <trkpt lat="42.47063" lon="2.21557">
        <ele>2224.63</ele>
        <time>2016-07-01T05:44:36Z</time>
      </trkpt>
      <trkpt lat="42.47072" lon="2.21549">
        <ele>2226.55</ele>
        <time>2016-07-01T05:44:47Z</time>
      </trkpt>
      <trkpt lat="42.47082" lon="2.21542">
        <ele>2228.47</ele>
        <time>2016-07-01T05:44:58Z</time>
      </trkpt>
      <trkpt lat="42.47089" lon="2.21538">
        <ele>2229.43</ele>
        <time>2016-07-01T05:45:08Z</time>
      </trkpt>
      <trkpt lat="42.47093" lon="2.21535">
        <ele>2230.88</ele>
        <time>2016-07-01T05:45:15Z</time>
      </trkpt>
      <trkpt lat="42.47102" lon="2.2153">
        <ele>2231.84</ele>
        <time>2016-07-01T05:45:27Z</time>
      </trkpt>
      <trkpt lat="42.47103" lon="2.2153">
        <ele>2231.84</ele>
        <time>2016-07-01T05:45:28Z</time>
      </trkpt>
      <trkpt lat="42.4711" lon="2.21528">
        <ele>2233.76</ele>
        <time>2016-07-01T05:45:40Z</time>
      </trkpt>
      <trkpt lat="42.47118" lon="2.21525">
        <ele>2234.72</ele>
        <time>2016-07-01T05:45:50Z</time>
      </trkpt>
      <trkpt lat="42.47128" lon="2.21523">
        <ele>2235.68</ele>
        <time>2016-07-01T05:46:01Z</time>
      </trkpt>
      <trkpt lat="42.47132" lon="2.21523">
        <ele>2236.64</ele>
        <time>2016-07-01T05:46:06Z</time>
      </trkpt>
      <trkpt lat="42.47139" lon="2.21523">
        <ele>2237.61</ele>
        <time>2016-07-01T05:46:16Z</time>
      </trkpt>
      <trkpt lat="42.47147" lon="2.21523">
        <ele>2238.57</ele>
        <time>2016-07-01T05:46:24Z</time>
      </trkpt>
      <trkpt lat="42.47157" lon="2.21522">
        <ele>2240.49</ele>
        <time>2016-07-01T05:46:35Z</time>
      </trkpt>
      <trkpt lat="42.47167" lon="2.21524">
        <ele>2241.93</ele>
        <time>2016-07-01T05:46:46Z</time>
      </trkpt>
      <trkpt lat="42.47176" lon="2.21526">
        <ele>2243.85</ele>
        <time>2016-07-01T05:46:57Z</time>
      </trkpt>
      <trkpt lat="42.47185" lon="2.21528">
        <ele>2244.82</ele>
        <time>2016-07-01T05:47:07Z</time>
      </trkpt>
      <trkpt lat="42.47196" lon="2.21533">
        <ele>2246.74</ele>
        <time>2016-07-01T05:47:21Z</time>
      </trkpt>
      <trkpt lat="42.47202" lon="2.21536">
        <ele>2247.7</ele>
        <time>2016-07-01T05:47:28Z</time>
      </trkpt>
      <trkpt lat="42.47209" lon="2.21544">
        <ele>2249.62</ele>
        <time>2016-07-01T05:47:39Z</time>
      </trkpt>
      <trkpt lat="42.47218" lon="2.21552">
        <ele>2251.06</ele>
        <time>2016-07-01T05:47:53Z</time>
      </trkpt>
      <trkpt lat="42.47219" lon="2.21546">
        <ele>2252.99</ele>
        <time>2016-07-01T05:48:01Z</time>
      </trkpt>
      <trkpt lat="42.47214" lon="2.21534">
        <ele>2253.95</ele>
        <time>2016-07-01T05:48:13Z</time>
      </trkpt>
      <trkpt lat="42.47207" lon="2.2152">
        <ele>2255.87</ele>
        <time>2016-07-01T05:48:25Z</time>
      </trkpt>
      <trkpt lat="42.47201" lon="2.2151">
        <ele>2256.83</ele>
        <time>2016-07-01T05:48:36Z</time>
      </trkpt>
      <trkpt lat="42.47195" lon="2.215">
        <ele>2257.79</ele>
        <time>2016-07-01T05:48:46Z</time>
      </trkpt>
      <trkpt lat="42.47195" lon="2.21499">
        <ele>2258.75</ele>
        <time>2016-07-01T05:48:47Z</time>
      </trkpt>
      <trkpt lat="42.47193" lon="2.21498">
        <ele>2258.75</ele>
        <time>2016-07-01T05:48:49Z</time>
      </trkpt>
      <trkpt lat="42.47192" lon="2.21496">
        <ele>2258.75</ele>
        <time>2016-07-01T05:48:51Z</time>
      </trkpt>
      <trkpt lat="42.47191" lon="2.21495">
        <ele>2259.24</ele>
        <time>2016-07-01T05:48:52Z</time>
      </trkpt>
      <trkpt lat="42.47189" lon="2.21493">
        <ele>2259.24</ele>
        <time>2016-07-01T05:48:55Z</time>
      </trkpt>
      <trkpt lat="42.47188" lon="2.21492">
        <ele>2259.72</ele>
        <time>2016-07-01T05:48:56Z</time>
      </trkpt>
      <trkpt lat="42.47186" lon="2.21491">
        <ele>2259.72</ele>
        <time>2016-07-01T05:48:58Z</time>
      </trkpt>
      <trkpt lat="42.47184" lon="2.21489">
        <ele>2260.2</ele>
        <time>2016-07-01T05:49:00Z</time>
      </trkpt>
      <trkpt lat="42.47182" lon="2.21488">
        <ele>2260.2</ele>
        <time>2016-07-01T05:49:03Z</time>
      </trkpt>
      <trkpt lat="42.47181" lon="2.21487">
        <ele>2261.16</ele>
        <time>2016-07-01T05:49:04Z</time>
      </trkpt>
      <trkpt lat="42.4718" lon="2.21486">
        <ele>2260.68</ele>
        <time>2016-07-01T05:49:05Z</time>
      </trkpt>
      <trkpt lat="42.47179" lon="2.21485">
        <ele>2261.16</ele>
        <time>2016-07-01T05:49:06Z</time>
      </trkpt>
      <trkpt lat="42.47178" lon="2.21485">
        <ele>2261.16</ele>
        <time>2016-07-01T05:49:07Z</time>
      </trkpt>
      <trkpt lat="42.47176" lon="2.21483">
        <ele>2261.64</ele>
        <time>2016-07-01T05:49:09Z</time>
      </trkpt>
      <trkpt lat="42.47165" lon="2.21473">
        <ele>2263.08</ele>
        <time>2016-07-01T05:49:22Z</time>
      </trkpt>
      <trkpt lat="42.47164" lon="2.21472">
        <ele>2263.56</ele>
        <time>2016-07-01T05:49:24Z</time>
      </trkpt>
      <trkpt lat="42.47162" lon="2.2147">
        <ele>2263.56</ele>
        <time>2016-07-01T05:49:26Z</time>
      </trkpt>
      <trkpt lat="42.47153" lon="2.21462">
        <ele>2265.48</ele>
        <time>2016-07-01T05:49:37Z</time>
      </trkpt>
      <trkpt lat="42.4715" lon="2.21461">
        <ele>2265.96</ele>
        <time>2016-07-01T05:49:41Z</time>
      </trkpt>
      <trkpt lat="42.47148" lon="2.2146">
        <ele>2265.96</ele>
        <time>2016-07-01T05:49:43Z</time>
      </trkpt>
      <trkpt lat="42.4714" lon="2.21454">
        <ele>2267.89</ele>
        <time>2016-07-01T05:49:54Z</time>
      </trkpt>
      <trkpt lat="42.47137" lon="2.21452">
        <ele>2268.37</ele>
        <time>2016-07-01T05:49:57Z</time>
      </trkpt>
      <trkpt lat="42.47136" lon="2.21452">
        <ele>2268.85</ele>
        <time>2016-07-01T05:49:59Z</time>
      </trkpt>
      <trkpt lat="42.47129" lon="2.21449">
        <ele>2269.81</ele>
        <time>2016-07-01T05:50:06Z</time>
      </trkpt>
      <trkpt lat="42.4712" lon="2.21446">
        <ele>2271.25</ele>
        <time>2016-07-01T05:50:17Z</time>
      </trkpt>
      <trkpt lat="42.4711" lon="2.21445">
        <ele>2273.17</ele>
        <time>2016-07-01T05:50:29Z</time>
      </trkpt>
      <trkpt lat="42.471" lon="2.21445">
        <ele>2275.1</ele>
        <time>2016-07-01T05:50:40Z</time>
      </trkpt>
      <trkpt lat="42.47091" lon="2.21448">
        <ele>2276.54</ele>
        <time>2016-07-01T05:50:51Z</time>
      </trkpt>
      <trkpt lat="42.47081" lon="2.21448">
        <ele>2277.98</ele>
        <time>2016-07-01T05:51:02Z</time>
      </trkpt>
      <trkpt lat="42.47074" lon="2.21448">
        <ele>2278.94</ele>
        <time>2016-07-01T05:51:11Z</time>
      </trkpt>
      <trkpt lat="42.47068" lon="2.21447">
        <ele>2280.38</ele>
        <time>2016-07-01T05:51:18Z</time>
      </trkpt>
      <trkpt lat="42.4706" lon="2.21447">
        <ele>2281.35</ele>
        <time>2016-07-01T05:51:28Z</time>
      </trkpt>
      <trkpt lat="42.47053" lon="2.21445">
        <ele>2283.27</ele>
        <time>2016-07-01T05:51:38Z</time>
      </trkpt>
      <trkpt lat="42.4705" lon="2.21443">
        <ele>2284.23</ele>
        <time>2016-07-01T05:51:50Z</time>
      </trkpt>
      <trkpt lat="42.47049" lon="2.21443">
        <ele>2284.23</ele>
        <time>2016-07-01T05:52:07Z</time>
      </trkpt>
      <trkpt lat="42.4705" lon="2.21442">
        <ele>2284.23</ele>
        <time>2016-07-01T05:52:15Z</time>
      </trkpt>
      <trkpt lat="42.47051" lon="2.21441">
        <ele>2284.23</ele>
        <time>2016-07-01T05:52:16Z</time>
      </trkpt>
      <trkpt lat="42.47055" lon="2.21437">
        <ele>2284.23</ele>
        <time>2016-07-01T05:52:22Z</time>
      </trkpt>
      <trkpt lat="42.47065" lon="2.21435">
        <ele>2285.67</ele>
        <time>2016-07-01T05:52:33Z</time>
      </trkpt>
      <trkpt lat="42.47067" lon="2.21434">
        <ele>2286.15</ele>
        <time>2016-07-01T05:52:36Z</time>
      </trkpt>
      <trkpt lat="42.47068" lon="2.21433">
        <ele>2286.15</ele>
        <time>2016-07-01T05:52:37Z</time>
      </trkpt>
      <trkpt lat="42.47073" lon="2.21432">
        <ele>2286.63</ele>
        <time>2016-07-01T05:52:41Z</time>
      </trkpt>
      <trkpt lat="42.47085" lon="2.21424">
        <ele>2288.08</ele>
        <time>2016-07-01T05:52:53Z</time>
      </trkpt>
      <trkpt lat="42.47089" lon="2.21422">
        <ele>2288.08</ele>
        <time>2016-07-01T05:52:57Z</time>
      </trkpt>
      <trkpt lat="42.47097" lon="2.21418">
        <ele>2289.04</ele>
        <time>2016-07-01T05:53:07Z</time>
      </trkpt>
      <trkpt lat="42.47106" lon="2.2141">
        <ele>2290.96</ele>
        <time>2016-07-01T05:53:19Z</time>
      </trkpt>
      <trkpt lat="42.47115" lon="2.21403">
        <ele>2292.4</ele>
        <time>2016-07-01T05:53:30Z</time>
      </trkpt>
      <trkpt lat="42.47124" lon="2.21397">
        <ele>2294.32</ele>
        <time>2016-07-01T05:53:41Z</time>
      </trkpt>
      <trkpt lat="42.47127" lon="2.21396">
        <ele>2294.32</ele>
        <time>2016-07-01T05:53:43Z</time>
      </trkpt>
      <trkpt lat="42.47127" lon="2.21396">
        <ele>2294.32</ele>
        <time>2016-07-01T05:53:44Z</time>
      </trkpt>
      <trkpt lat="42.47129" lon="2.21395">
        <ele>2294.8</ele>
        <time>2016-07-01T05:53:46Z</time>
      </trkpt>
      <trkpt lat="42.47137" lon="2.21392">
        <ele>2295.77</ele>
        <time>2016-07-01T05:53:57Z</time>
      </trkpt>
      <trkpt lat="42.47145" lon="2.2139">
        <ele>2297.69</ele>
        <time>2016-07-01T05:54:08Z</time>
      </trkpt>
      <trkpt lat="42.47156" lon="2.21389">
        <ele>2299.61</ele>
        <time>2016-07-01T05:54:20Z</time>
      </trkpt>
      <trkpt lat="42.47166" lon="2.21389">
        <ele>2301.05</ele>
        <time>2016-07-01T05:54:32Z</time>
      </trkpt>
      <trkpt lat="42.47176" lon="2.2139">
        <ele>2302.49</ele>
        <time>2016-07-01T05:54:43Z</time>
      </trkpt>
      <trkpt lat="42.47177" lon="2.2139">
        <ele>2302.49</ele>
        <time>2016-07-01T05:54:45Z</time>
      </trkpt>
      <trkpt lat="42.47183" lon="2.21391">
        <ele>2304.42</ele>
        <time>2016-07-01T05:54:57Z</time>
      </trkpt>
      <trkpt lat="42.47191" lon="2.2139">
        <ele>2305.38</ele>
        <time>2016-07-01T05:55:09Z</time>
      </trkpt>
      <trkpt lat="42.47202" lon="2.21392">
        <ele>2306.82</ele>
        <time>2016-07-01T05:55:20Z</time>
      </trkpt>
      <trkpt lat="42.47208" lon="2.21393">
        <ele>2307.78</ele>
        <time>2016-07-01T05:55:27Z</time>
      </trkpt>
      <trkpt lat="42.47215" lon="2.21395">
        <ele>2308.74</ele>
        <time>2016-07-01T05:55:36Z</time>
      </trkpt>
      <trkpt lat="42.47217" lon="2.21394">
        <ele>2309.7</ele>
        <time>2016-07-01T05:55:39Z</time>
      </trkpt>
      <trkpt lat="42.47219" lon="2.21394">
        <ele>2309.7</ele>
        <time>2016-07-01T05:55:40Z</time>
      </trkpt>
      <trkpt lat="42.47225" lon="2.21394">
        <ele>2310.67</ele>
        <time>2016-07-01T05:55:47Z</time>
      </trkpt>
      <trkpt lat="42.47227" lon="2.21395">
        <ele>2310.67</ele>
        <time>2016-07-01T05:55:48Z</time>
      </trkpt>
      <trkpt lat="42.47233" lon="2.21395">
        <ele>2312.11</ele>
        <time>2016-07-01T05:55:57Z</time>
      </trkpt>
      <trkpt lat="42.47235" lon="2.21395">
        <ele>2312.11</ele>
        <time>2016-07-01T05:56:00Z</time>
      </trkpt>
      <trkpt lat="42.47236" lon="2.21396">
        <ele>2312.59</ele>
        <time>2016-07-01T05:56:01Z</time>
      </trkpt>
      <trkpt lat="42.47239" lon="2.21396">
        <ele>2312.59</ele>
        <time>2016-07-01T05:56:04Z</time>
      </trkpt>
      <trkpt lat="42.47243" lon="2.21397">
        <ele>2313.55</ele>
        <time>2016-07-01T05:56:08Z</time>
      </trkpt>
      <trkpt lat="42.47247" lon="2.21397">
        <ele>2314.03</ele>
        <time>2016-07-01T05:56:13Z</time>
      </trkpt>
      <trkpt lat="42.47248" lon="2.21397">
        <ele>2314.03</ele>
        <time>2016-07-01T05:56:14Z</time>
      </trkpt>
      <trkpt lat="42.47257" lon="2.214">
        <ele>2315.47</ele>
        <time>2016-07-01T05:56:25Z</time>
      </trkpt>
      <trkpt lat="42.47267" lon="2.21401">
        <ele>2317.4</ele>
        <time>2016-07-01T05:56:37Z</time>
      </trkpt>
      <trkpt lat="42.47268" lon="2.21401">
        <ele>2317.4</ele>
        <time>2016-07-01T05:56:38Z</time>
      </trkpt>
      <trkpt lat="42.47279" lon="2.21403">
        <ele>2319.32</ele>
        <time>2016-07-01T05:56:50Z</time>
      </trkpt>
      <trkpt lat="42.47281" lon="2.21404">
        <ele>2319.32</ele>
        <time>2016-07-01T05:56:53Z</time>
      </trkpt>
      <trkpt lat="42.47283" lon="2.21405">
        <ele>2319.8</ele>
        <time>2016-07-01T05:56:56Z</time>
      </trkpt>
      <trkpt lat="42.47293" lon="2.2141">
        <ele>2321.24</ele>
        <time>2016-07-01T05:57:09Z</time>
      </trkpt>
      <trkpt lat="42.47294" lon="2.2141">
        <ele>2321.24</ele>
        <time>2016-07-01T05:57:10Z</time>
      </trkpt>
      <trkpt lat="42.47299" lon="2.21415">
        <ele>2322.68</ele>
        <time>2016-07-01T05:57:17Z</time>
      </trkpt>
      <trkpt lat="42.47306" lon="2.21424">
        <ele>2323.64</ele>
        <time>2016-07-01T05:57:28Z</time>
      </trkpt>
      <trkpt lat="42.47314" lon="2.21433">
        <ele>2325.57</ele>
        <time>2016-07-01T05:57:41Z</time>
      </trkpt>
      <trkpt lat="42.4732" lon="2.21442">
        <ele>2327.01</ele>
        <time>2016-07-01T05:57:52Z</time>
      </trkpt>
      <trkpt lat="42.47325" lon="2.21449">
        <ele>2328.93</ele>
        <time>2016-07-01T05:58:01Z</time>
      </trkpt>
      <trkpt lat="42.4733" lon="2.21458">
        <ele>2329.89</ele>
        <time>2016-07-01T05:58:12Z</time>
      </trkpt>
      <trkpt lat="42.47334" lon="2.21464">
        <ele>2330.85</ele>
        <time>2016-07-01T05:58:19Z</time>
      </trkpt>
      <trkpt lat="42.47339" lon="2.21475">
        <ele>2332.78</ele>
        <time>2016-07-01T05:58:30Z</time>
      </trkpt>
      <trkpt lat="42.47342" lon="2.2148">
        <ele>2333.26</ele>
        <time>2016-07-01T05:58:35Z</time>
      </trkpt>
      <trkpt lat="42.47345" lon="2.21484">
        <ele>2333.74</ele>
        <time>2016-07-01T05:58:40Z</time>
      </trkpt>
      <trkpt lat="42.47346" lon="2.21485">
        <ele>2333.74</ele>
        <time>2016-07-01T05:58:42Z</time>
      </trkpt>
      <trkpt lat="42.47346" lon="2.21487">
        <ele>2334.7</ele>
        <time>2016-07-01T05:58:43Z</time>
      </trkpt>
      <trkpt lat="42.47348" lon="2.21496">
        <ele>2335.66</ele>
        <time>2016-07-01T05:58:52Z</time>
      </trkpt>
      <trkpt lat="42.47347" lon="2.21506">
        <ele>2336.62</ele>
        <time>2016-07-01T05:59:02Z</time>
      </trkpt>
      <trkpt lat="42.47346" lon="2.21505">
        <ele>2338.06</ele>
        <time>2016-07-01T05:59:27Z</time>
      </trkpt>
      <trkpt lat="42.47347" lon="2.21505">
        <ele>2338.06</ele>
        <time>2016-07-01T05:59:45Z</time>
      </trkpt>
      <trkpt lat="42.47347" lon="2.21505">
        <ele>2338.06</ele>
        <time>2016-07-01T06:00:12Z</time>
      </trkpt>
      <trkpt lat="42.47348" lon="2.21507">
        <ele>2339.02</ele>
        <time>2016-07-01T06:00:34Z</time>
      </trkpt>
      <trkpt lat="42.47349" lon="2.21507">
        <ele>2339.02</ele>
        <time>2016-07-01T06:00:35Z</time>
      </trkpt>
      <trkpt lat="42.47352" lon="2.21503">
        <ele>2339.02</ele>
        <time>2016-07-01T06:00:42Z</time>
      </trkpt>
      <trkpt lat="42.47352" lon="2.21502">
        <ele>2339.02</ele>
        <time>2016-07-01T06:00:43Z</time>
      </trkpt>
      <trkpt lat="42.47348" lon="2.21488">
        <ele>2340.47</ele>
        <time>2016-07-01T06:00:56Z</time>
      </trkpt>
      <trkpt lat="42.47348" lon="2.21488">
        <ele>2341.43</ele>
        <time>2016-07-01T06:01:21Z</time>
      </trkpt>
      <trkpt lat="42.4735" lon="2.21479">
        <ele>2341.91</ele>
        <time>2016-07-01T06:01:37Z</time>
      </trkpt>
      <trkpt lat="42.47346" lon="2.2146">
        <ele>2343.35</ele>
        <time>2016-07-01T06:01:50Z</time>
      </trkpt>
      <trkpt lat="42.47346" lon="2.21459">
        <ele>2343.83</ele>
        <time>2016-07-01T06:01:51Z</time>
      </trkpt>
      <trkpt lat="42.47346" lon="2.21457">
        <ele>2343.83</ele>
        <time>2016-07-01T06:01:52Z</time>
      </trkpt>
      <trkpt lat="42.47346" lon="2.21453">
        <ele>2344.31</ele>
        <time>2016-07-01T06:01:55Z</time>
      </trkpt>
      <trkpt lat="42.47345" lon="2.2145">
        <ele>2344.31</ele>
        <time>2016-07-01T06:01:57Z</time>
      </trkpt>
      <trkpt lat="42.47344" lon="2.21449">
        <ele>2344.31</ele>
        <time>2016-07-01T06:01:58Z</time>
      </trkpt>
      <trkpt lat="42.47343" lon="2.21439">
        <ele>2345.27</ele>
        <time>2016-07-01T06:02:06Z</time>
      </trkpt>
      <trkpt lat="42.47343" lon="2.21438">
        <ele>2346.23</ele>
        <time>2016-07-01T06:02:07Z</time>
      </trkpt>
      <trkpt lat="42.47342" lon="2.21423">
        <ele>2347.68</ele>
        <time>2016-07-01T06:02:19Z</time>
      </trkpt>
      <trkpt lat="42.47342" lon="2.21416">
        <ele>2349.12</ele>
        <time>2016-07-01T06:02:26Z</time>
      </trkpt>
      <trkpt lat="42.47339" lon="2.21404">
        <ele>2350.56</ele>
        <time>2016-07-01T06:02:36Z</time>
      </trkpt>
      <trkpt lat="42.47338" lon="2.21396">
        <ele>2351.52</ele>
        <time>2016-07-01T06:02:44Z</time>
      </trkpt>
      <trkpt lat="42.47336" lon="2.21383">
        <ele>2353.44</ele>
        <time>2016-07-01T06:02:56Z</time>
      </trkpt>
      <trkpt lat="42.47336" lon="2.21381">
        <ele>2353.93</ele>
        <time>2016-07-01T06:02:58Z</time>
      </trkpt>
      <trkpt lat="42.47333" lon="2.21369">
        <ele>2355.85</ele>
        <time>2016-07-01T06:03:09Z</time>
      </trkpt>
      <trkpt lat="42.47331" lon="2.21361">
        <ele>2356.33</ele>
        <time>2016-07-01T06:03:16Z</time>
      </trkpt>
      <trkpt lat="42.4733" lon="2.2136">
        <ele>2356.81</ele>
        <time>2016-07-01T06:03:17Z</time>
      </trkpt>
      <trkpt lat="42.47329" lon="2.21358">
        <ele>2356.81</ele>
        <time>2016-07-01T06:03:19Z</time>
      </trkpt>
      <trkpt lat="42.47328" lon="2.21355">
        <ele>2357.77</ele>
        <time>2016-07-01T06:03:21Z</time>
      </trkpt>
      <trkpt lat="42.47326" lon="2.21348">
        <ele>2358.73</ele>
        <time>2016-07-01T06:03:28Z</time>
      </trkpt>
      <trkpt lat="42.47326" lon="2.21346">
        <ele>2358.73</ele>
        <time>2016-07-01T06:03:30Z</time>
      </trkpt>
      <trkpt lat="42.47319" lon="2.21336">
        <ele>2360.65</ele>
        <time>2016-07-01T06:03:41Z</time>
      </trkpt>
      <trkpt lat="42.47318" lon="2.21334">
        <ele>2360.65</ele>
        <time>2016-07-01T06:03:43Z</time>
      </trkpt>
      <trkpt lat="42.47309" lon="2.21326">
        <ele>2362.1</ele>
        <time>2016-07-01T06:03:55Z</time>
      </trkpt>
      <trkpt lat="42.47308" lon="2.21325">
        <ele>2362.1</ele>
        <time>2016-07-01T06:03:56Z</time>
      </trkpt>
      <trkpt lat="42.47303" lon="2.21324">
        <ele>2362.58</ele>
        <time>2016-07-01T06:04:01Z</time>
      </trkpt>
      <trkpt lat="42.47293" lon="2.2132">
        <ele>2364.5</ele>
        <time>2016-07-01T06:04:12Z</time>
      </trkpt>
      <trkpt lat="42.47291" lon="2.21319">
        <ele>2364.5</ele>
        <time>2016-07-01T06:04:14Z</time>
      </trkpt>
      <trkpt lat="42.4729" lon="2.21318">
        <ele>2364.98</ele>
        <time>2016-07-01T06:04:15Z</time>
      </trkpt>
      <trkpt lat="42.47287" lon="2.21314">
        <ele>2365.46</ele>
        <time>2016-07-01T06:04:19Z</time>
      </trkpt>
      <trkpt lat="42.47285" lon="2.21313">
        <ele>2365.46</ele>
        <time>2016-07-01T06:04:21Z</time>
      </trkpt>
      <trkpt lat="42.47283" lon="2.21308">
        <ele>2365.94</ele>
        <time>2016-07-01T06:04:25Z</time>
      </trkpt>
      <trkpt lat="42.47283" lon="2.21306">
        <ele>2365.94</ele>
        <time>2016-07-01T06:04:26Z</time>
      </trkpt>
      <trkpt lat="42.47275" lon="2.21294">
        <ele>2366.9</ele>
        <time>2016-07-01T06:04:37Z</time>
      </trkpt>
      <trkpt lat="42.47275" lon="2.21292">
        <ele>2366.9</ele>
        <time>2016-07-01T06:04:39Z</time>
      </trkpt>
      <trkpt lat="42.47273" lon="2.2129">
        <ele>2366.9</ele>
        <time>2016-07-01T06:04:44Z</time>
      </trkpt>
      <trkpt lat="42.47271" lon="2.21291">
        <ele>2366.9</ele>
        <time>2016-07-01T06:04:46Z</time>
      </trkpt>
      <trkpt lat="42.47269" lon="2.21291">
        <ele>2366.9</ele>
        <time>2016-07-01T06:04:47Z</time>
      </trkpt>
      <trkpt lat="42.47268" lon="2.2129">
        <ele>2366.9</ele>
        <time>2016-07-01T06:04:48Z</time>
      </trkpt>
      <trkpt lat="42.47267" lon="2.21289">
        <ele>2366.9</ele>
        <time>2016-07-01T06:04:49Z</time>
      </trkpt>
      <trkpt lat="42.47266" lon="2.21289">
        <ele>2366.9</ele>
        <time>2016-07-01T06:04:50Z</time>
      </trkpt>
      <trkpt lat="42.4726" lon="2.21285">
        <ele>2366.9</ele>
        <time>2016-07-01T06:04:57Z</time>
      </trkpt>
      <trkpt lat="42.47259" lon="2.21284">
        <ele>2366.9</ele>
        <time>2016-07-01T06:04:58Z</time>
      </trkpt>
      <trkpt lat="42.47257" lon="2.21283">
        <ele>2365.94</ele>
        <time>2016-07-01T06:04:59Z</time>
      </trkpt>
      <trkpt lat="42.47256" lon="2.21283">
        <ele>2365.94</ele>
        <time>2016-07-01T06:05:00Z</time>
      </trkpt>
      <trkpt lat="42.47255" lon="2.21283">
        <ele>2365.46</ele>
        <time>2016-07-01T06:05:01Z</time>
      </trkpt>
      <trkpt lat="42.47254" lon="2.21282">
        <ele>2365.46</ele>
        <time>2016-07-01T06:05:02Z</time>
      </trkpt>
      <trkpt lat="42.47235" lon="2.21282">
        <ele>2364.02</ele>
        <time>2016-07-01T06:05:16Z</time>
      </trkpt>
      <trkpt lat="42.4722" lon="2.21275">
        <ele>2362.58</ele>
        <time>2016-07-01T06:05:28Z</time>
      </trkpt>
      <trkpt lat="42.4722" lon="2.21273">
        <ele>2362.58</ele>
        <time>2016-07-01T06:05:29Z</time>
      </trkpt>
      <trkpt lat="42.47217" lon="2.21269">
        <ele>2361.14</ele>
        <time>2016-07-01T06:05:43Z</time>
      </trkpt>
      <trkpt lat="42.47218" lon="2.2127">
        <ele>2361.14</ele>
        <time>2016-07-01T06:06:04Z</time>
      </trkpt>
      <trkpt lat="42.47218" lon="2.2127">
        <ele>2361.14</ele>
        <time>2016-07-01T06:06:31Z</time>
      </trkpt>
      <trkpt lat="42.47218" lon="2.21266">
        <ele>2360.65</ele>
        <time>2016-07-01T06:06:43Z</time>
      </trkpt>
      <trkpt lat="42.47222" lon="2.21248">
        <ele>2360.65</ele>
        <time>2016-07-01T06:06:54Z</time>
      </trkpt>
      <trkpt lat="42.47222" lon="2.21246">
        <ele>2360.65</ele>
        <time>2016-07-01T06:06:55Z</time>
      </trkpt>
      <trkpt lat="42.4723" lon="2.2123">
        <ele>2359.69</ele>
        <time>2016-07-01T06:07:05Z</time>
      </trkpt>
      <trkpt lat="42.47232" lon="2.21226">
        <ele>2359.21</ele>
        <time>2016-07-01T06:07:09Z</time>
      </trkpt>
      <trkpt lat="42.47233" lon="2.21223">
        <ele>2358.73</ele>
        <time>2016-07-01T06:07:11Z</time>
      </trkpt>
      <trkpt lat="42.47234" lon="2.21222">
        <ele>2358.73</ele>
        <time>2016-07-01T06:07:12Z</time>
      </trkpt>
      <trkpt lat="42.47235" lon="2.21221">
        <ele>2358.73</ele>
        <time>2016-07-01T06:07:13Z</time>
      </trkpt>
      <trkpt lat="42.47236" lon="2.2122">
        <ele>2358.73</ele>
        <time>2016-07-01T06:07:14Z</time>
      </trkpt>
      <trkpt lat="42.47237" lon="2.21219">
        <ele>2358.73</ele>
        <time>2016-07-01T06:07:15Z</time>
      </trkpt>
      <trkpt lat="42.47237" lon="2.21218">
        <ele>2358.73</ele>
        <time>2016-07-01T06:07:16Z</time>
      </trkpt>
      <trkpt lat="42.47238" lon="2.21216">
        <ele>2358.25</ele>
        <time>2016-07-01T06:07:17Z</time>
      </trkpt>
      <trkpt lat="42.47238" lon="2.21215">
        <ele>2358.25</ele>
        <time>2016-07-01T06:07:18Z</time>
      </trkpt>
      <trkpt lat="42.47239" lon="2.21213">
        <ele>2358.25</ele>
        <time>2016-07-01T06:07:19Z</time>
      </trkpt>
      <trkpt lat="42.4724" lon="2.21211">
        <ele>2358.25</ele>
        <time>2016-07-01T06:07:20Z</time>
      </trkpt>
      <trkpt lat="42.4724" lon="2.2121">
        <ele>2358.25</ele>
        <time>2016-07-01T06:07:21Z</time>
      </trkpt>
      <trkpt lat="42.47241" lon="2.21209">
        <ele>2358.25</ele>
        <time>2016-07-01T06:07:22Z</time>
      </trkpt>
      <trkpt lat="42.47242" lon="2.21207">
        <ele>2357.29</ele>
        <time>2016-07-01T06:07:23Z</time>
      </trkpt>
      <trkpt lat="42.47243" lon="2.21205">
        <ele>2357.29</ele>
        <time>2016-07-01T06:07:24Z</time>
      </trkpt>
      <trkpt lat="42.47244" lon="2.21204">
        <ele>2357.29</ele>
        <time>2016-07-01T06:07:25Z</time>
      </trkpt>
      <trkpt lat="42.47245" lon="2.21201">
        <ele>2356.81</ele>
        <time>2016-07-01T06:07:27Z</time>
      </trkpt>
      <trkpt lat="42.47246" lon="2.212">
        <ele>2356.81</ele>
        <time>2016-07-01T06:07:28Z</time>
      </trkpt>
      <trkpt lat="42.47247" lon="2.21199">
        <ele>2356.81</ele>
        <time>2016-07-01T06:07:29Z</time>
      </trkpt>
      <trkpt lat="42.47248" lon="2.21197">
        <ele>2356.33</ele>
        <time>2016-07-01T06:07:30Z</time>
      </trkpt>
      <trkpt lat="42.47248" lon="2.21196">
        <ele>2356.33</ele>
        <time>2016-07-01T06:07:31Z</time>
      </trkpt>
      <trkpt lat="42.47252" lon="2.21187">
        <ele>2355.37</ele>
        <time>2016-07-01T06:07:36Z</time>
      </trkpt>
      <trkpt lat="42.4726" lon="2.2117">
        <ele>2352.96</ele>
        <time>2016-07-01T06:07:46Z</time>
      </trkpt>
      <trkpt lat="42.4726" lon="2.21168">
        <ele>2352.96</ele>
        <time>2016-07-01T06:07:47Z</time>
      </trkpt>
      <trkpt lat="42.4726" lon="2.21167">
        <ele>2352.96</ele>
        <time>2016-07-01T06:07:48Z</time>
      </trkpt>
      <trkpt lat="42.47258" lon="2.21158">
        <ele>2350.08</ele>
        <time>2016-07-01T06:07:53Z</time>
      </trkpt>
      <trkpt lat="42.47256" lon="2.21151">
        <ele>2346.23</ele>
        <time>2016-07-01T06:07:57Z</time>
      </trkpt>
      <trkpt lat="42.47257" lon="2.21142">
        <ele>2343.83</ele>
        <time>2016-07-01T06:08:02Z</time>
      </trkpt>
      <trkpt lat="42.4726" lon="2.21116">
        <ele>2342.39</ele>
        <time>2016-07-01T06:08:17Z</time>
      </trkpt>
      <trkpt lat="42.47262" lon="2.21105">
        <ele>2339.02</ele>
        <time>2016-07-01T06:08:23Z</time>
      </trkpt>
      <trkpt lat="42.47261" lon="2.211">
        <ele>2335.18</ele>
        <time>2016-07-01T06:08:27Z</time>
      </trkpt>
      <trkpt lat="42.47258" lon="2.2109">
        <ele>2332.78</ele>
        <time>2016-07-01T06:08:33Z</time>
      </trkpt>
      <trkpt lat="42.47259" lon="2.21077">
        <ele>2332.78</ele>
        <time>2016-07-01T06:08:41Z</time>
      </trkpt>
      <trkpt lat="42.4726" lon="2.21074">
        <ele>2332.78</ele>
        <time>2016-07-01T06:08:43Z</time>
      </trkpt>
      <trkpt lat="42.47266" lon="2.21066">
        <ele>2331.81</ele>
        <time>2016-07-01T06:08:51Z</time>
      </trkpt>
      <trkpt lat="42.47267" lon="2.21062">
        <ele>2330.37</ele>
        <time>2016-07-01T06:08:54Z</time>
      </trkpt>
      <trkpt lat="42.4727" lon="2.21057">
        <ele>2327.01</ele>
        <time>2016-07-01T06:08:59Z</time>
      </trkpt>
      <trkpt lat="42.47274" lon="2.21053">
        <ele>2323.64</ele>
        <time>2016-07-01T06:09:03Z</time>
      </trkpt>
      <trkpt lat="42.47275" lon="2.2105">
        <ele>2322.68</ele>
        <time>2016-07-01T06:09:05Z</time>
      </trkpt>
      <trkpt lat="42.47277" lon="2.21041">
        <ele>2322.2</ele>
        <time>2016-07-01T06:09:11Z</time>
      </trkpt>
      <trkpt lat="42.47282" lon="2.21032">
        <ele>2321.72</ele>
        <time>2016-07-01T06:09:17Z</time>
      </trkpt>
      <trkpt lat="42.47282" lon="2.21027">
        <ele>2321.24</ele>
        <time>2016-07-01T06:09:21Z</time>
      </trkpt>
      <trkpt lat="42.47284" lon="2.21024">
        <ele>2320.28</ele>
        <time>2016-07-01T06:09:24Z</time>
      </trkpt>
      <trkpt lat="42.47283" lon="2.21008">
        <ele>2317.4</ele>
        <time>2016-07-01T06:09:34Z</time>
      </trkpt>
      <trkpt lat="42.47284" lon="2.21002">
        <ele>2314.03</ele>
        <time>2016-07-01T06:09:38Z</time>
      </trkpt>
      <trkpt lat="42.47284" lon="2.21">
        <ele>2313.07</ele>
        <time>2016-07-01T06:09:39Z</time>
      </trkpt>
      <trkpt lat="42.47288" lon="2.20994">
        <ele>2310.19</ele>
        <time>2016-07-01T06:09:44Z</time>
      </trkpt>
      <trkpt lat="42.47295" lon="2.20987">
        <ele>2309.7</ele>
        <time>2016-07-01T06:09:50Z</time>
      </trkpt>
      <trkpt lat="42.47298" lon="2.20985">
        <ele>2309.7</ele>
        <time>2016-07-01T06:09:53Z</time>
      </trkpt>
      <trkpt lat="42.47306" lon="2.20976">
        <ele>2307.78</ele>
        <time>2016-07-01T06:10:01Z</time>
      </trkpt>
      <trkpt lat="42.47311" lon="2.20968">
        <ele>2303.94</ele>
        <time>2016-07-01T06:10:07Z</time>
      </trkpt>
      <trkpt lat="42.47312" lon="2.20967">
        <ele>2303.46</ele>
        <time>2016-07-01T06:10:08Z</time>
      </trkpt>
      <trkpt lat="42.47317" lon="2.20955">
        <ele>2300.09</ele>
        <time>2016-07-01T06:10:18Z</time>
      </trkpt>
      <trkpt lat="42.47323" lon="2.20947">
        <ele>2300.09</ele>
        <time>2016-07-01T06:10:30Z</time>
      </trkpt>
      <trkpt lat="42.47323" lon="2.20944">
        <ele>2298.65</ele>
        <time>2016-07-01T06:10:42Z</time>
      </trkpt>
      <trkpt lat="42.47323" lon="2.20942">
        <ele>2298.17</ele>
        <time>2016-07-01T06:10:55Z</time>
      </trkpt>
      <trkpt lat="42.47324" lon="2.20932">
        <ele>2296.73</ele>
        <time>2016-07-01T06:11:05Z</time>
      </trkpt>
      <trkpt lat="42.47325" lon="2.20921">
        <ele>2292.4</ele>
        <time>2016-07-01T06:11:13Z</time>
      </trkpt>
      <trkpt lat="42.47326" lon="2.20919">
        <ele>2289.52</ele>
        <time>2016-07-01T06:11:17Z</time>
      </trkpt>
      <trkpt lat="42.47327" lon="2.20914">
        <ele>2288.56</ele>
        <time>2016-07-01T06:11:25Z</time>
      </trkpt>
      <trkpt lat="42.47329" lon="2.20908">
        <ele>2288.56</ele>
        <time>2016-07-01T06:11:29Z</time>
      </trkpt>
      <trkpt lat="42.47335" lon="2.20902">
        <ele>2288.08</ele>
        <time>2016-07-01T06:11:39Z</time>
      </trkpt>
      <trkpt lat="42.47335" lon="2.20901">
        <ele>2287.59</ele>
        <time>2016-07-01T06:12:04Z</time>
      </trkpt>
      <trkpt lat="42.47333" lon="2.20894">
        <ele>2286.63</ele>
        <time>2016-07-01T06:12:20Z</time>
      </trkpt>
      <trkpt lat="42.47332" lon="2.20893">
        <ele>2286.63</ele>
        <time>2016-07-01T06:12:22Z</time>
      </trkpt>
      <trkpt lat="42.47333" lon="2.20887">
        <ele>2285.67</ele>
        <time>2016-07-01T06:12:27Z</time>
      </trkpt>
      <trkpt lat="42.47335" lon="2.20885">
        <ele>2285.19</ele>
        <time>2016-07-01T06:12:29Z</time>
      </trkpt>
      <trkpt lat="42.47341" lon="2.20882">
        <ele>2284.23</ele>
        <time>2016-07-01T06:12:35Z</time>
      </trkpt>
      <trkpt lat="42.4735" lon="2.20878">
        <ele>2282.79</ele>
        <time>2016-07-01T06:12:44Z</time>
      </trkpt>
      <trkpt lat="42.47355" lon="2.20875">
        <ele>2282.31</ele>
        <time>2016-07-01T06:12:49Z</time>
      </trkpt>
      <trkpt lat="42.47369" lon="2.20872">
        <ele>2280.38</ele>
        <time>2016-07-01T06:13:01Z</time>
      </trkpt>
      <trkpt lat="42.47372" lon="2.2087">
        <ele>2280.38</ele>
        <time>2016-07-01T06:13:04Z</time>
      </trkpt>
      <trkpt lat="42.47373" lon="2.20869">
        <ele>2279.9</ele>
        <time>2016-07-01T06:13:05Z</time>
      </trkpt>
      <trkpt lat="42.47374" lon="2.20868">
        <ele>2279.9</ele>
        <time>2016-07-01T06:13:06Z</time>
      </trkpt>
      <trkpt lat="42.47374" lon="2.20866">
        <ele>2279.9</ele>
        <time>2016-07-01T06:13:08Z</time>
      </trkpt>
      <trkpt lat="42.47373" lon="2.20865">
        <ele>2279.42</ele>
        <time>2016-07-01T06:13:09Z</time>
      </trkpt>
      <trkpt lat="42.47372" lon="2.20864">
        <ele>2279.42</ele>
        <time>2016-07-01T06:13:10Z</time>
      </trkpt>
      <trkpt lat="42.47371" lon="2.20863">
        <ele>2278.94</ele>
        <time>2016-07-01T06:13:11Z</time>
      </trkpt>
      <trkpt lat="42.4737" lon="2.20862">
        <ele>2278.94</ele>
        <time>2016-07-01T06:13:12Z</time>
      </trkpt>
      <trkpt lat="42.47369" lon="2.20861">
        <ele>2278.94</ele>
        <time>2016-07-01T06:13:13Z</time>
      </trkpt>
      <trkpt lat="42.47369" lon="2.2086">
        <ele>2278.46</ele>
        <time>2016-07-01T06:13:14Z</time>
      </trkpt>
      <trkpt lat="42.47368" lon="2.20859">
        <ele>2277.98</ele>
        <time>2016-07-01T06:13:15Z</time>
      </trkpt>
      <trkpt lat="42.47363" lon="2.20853">
        <ele>2274.62</ele>
        <time>2016-07-01T06:13:20Z</time>
      </trkpt>
      <trkpt lat="42.47354" lon="2.20845">
        <ele>2271.73</ele>
        <time>2016-07-01T06:13:27Z</time>
      </trkpt>
      <trkpt lat="42.4734" lon="2.20833">
        <ele>2271.73</ele>
        <time>2016-07-01T06:13:40Z</time>
      </trkpt>
      <trkpt lat="42.47336" lon="2.2083">
        <ele>2271.73</ele>
        <time>2016-07-01T06:13:43Z</time>
      </trkpt>
      <trkpt lat="42.47335" lon="2.20827">
        <ele>2271.25</ele>
        <time>2016-07-01T06:13:45Z</time>
      </trkpt>
      <trkpt lat="42.47339" lon="2.20818">
        <ele>2269.81</ele>
        <time>2016-07-01T06:13:52Z</time>
      </trkpt>
      <trkpt lat="42.47338" lon="2.20817">
        <ele>2269.81</ele>
        <time>2016-07-01T06:13:54Z</time>
      </trkpt>
      <trkpt lat="42.47333" lon="2.20815">
        <ele>2265</ele>
        <time>2016-07-01T06:13:59Z</time>
      </trkpt>
      <trkpt lat="42.47332" lon="2.20815">
        <ele>2264.52</ele>
        <time>2016-07-01T06:14:00Z</time>
      </trkpt>
      <trkpt lat="42.47329" lon="2.20811">
        <ele>2262.12</ele>
        <time>2016-07-01T06:14:03Z</time>
      </trkpt>
      <trkpt lat="42.47329" lon="2.20805">
        <ele>2261.16</ele>
        <time>2016-07-01T06:14:07Z</time>
      </trkpt>
      <trkpt lat="42.47333" lon="2.20797">
        <ele>2260.68</ele>
        <time>2016-07-01T06:14:13Z</time>
      </trkpt>
      <trkpt lat="42.47332" lon="2.2079">
        <ele>2260.68</ele>
        <time>2016-07-01T06:14:18Z</time>
      </trkpt>
      <trkpt lat="42.47338" lon="2.2078">
        <ele>2258.75</ele>
        <time>2016-07-01T06:14:27Z</time>
      </trkpt>
      <trkpt lat="42.47341" lon="2.20776">
        <ele>2255.39</ele>
        <time>2016-07-01T06:14:31Z</time>
      </trkpt>
      <trkpt lat="42.47344" lon="2.20772">
        <ele>2252.51</ele>
        <time>2016-07-01T06:14:34Z</time>
      </trkpt>
      <trkpt lat="42.47349" lon="2.20762">
        <ele>2250.58</ele>
        <time>2016-07-01T06:14:42Z</time>
      </trkpt>
      <trkpt lat="42.47353" lon="2.20755">
        <ele>2250.1</ele>
        <time>2016-07-01T06:14:48Z</time>
      </trkpt>
      <trkpt lat="42.47357" lon="2.20751">
        <ele>2248.66</ele>
        <time>2016-07-01T06:14:58Z</time>
      </trkpt>
      <trkpt lat="42.47358" lon="2.2075">
        <ele>2248.66</ele>
        <time>2016-07-01T06:15:00Z</time>
      </trkpt>
      <trkpt lat="42.47363" lon="2.20739">
        <ele>2243.85</ele>
        <time>2016-07-01T06:15:08Z</time>
      </trkpt>
      <trkpt lat="42.47364" lon="2.20733">
        <ele>2240.49</ele>
        <time>2016-07-01T06:15:12Z</time>
      </trkpt>
      <trkpt lat="42.47365" lon="2.20732">
        <ele>2239.53</ele>
        <time>2016-07-01T06:15:13Z</time>
      </trkpt>
      <trkpt lat="42.47366" lon="2.2073">
        <ele>2239.53</ele>
        <time>2016-07-01T06:15:15Z</time>
      </trkpt>
      <trkpt lat="42.47369" lon="2.20728">
        <ele>2238.57</ele>
        <time>2016-07-01T06:15:18Z</time>
      </trkpt>
      <trkpt lat="42.47374" lon="2.20721">
        <ele>2238.57</ele>
        <time>2016-07-01T06:15:24Z</time>
      </trkpt>
      <trkpt lat="42.47375" lon="2.20717">
        <ele>2238.09</ele>
        <time>2016-07-01T06:15:27Z</time>
      </trkpt>
      <trkpt lat="42.47378" lon="2.20714">
        <ele>2238.09</ele>
        <time>2016-07-01T06:15:30Z</time>
      </trkpt>
      <trkpt lat="42.47382" lon="2.20702">
        <ele>2234.24</ele>
        <time>2016-07-01T06:15:40Z</time>
      </trkpt>
      <trkpt lat="42.47383" lon="2.20701">
        <ele>2233.28</ele>
        <time>2016-07-01T06:15:41Z</time>
      </trkpt>
      <trkpt lat="42.47384" lon="2.20699">
        <ele>2231.36</ele>
        <time>2016-07-01T06:15:43Z</time>
      </trkpt>
      <trkpt lat="42.47389" lon="2.20691">
        <ele>2227.03</ele>
        <time>2016-07-01T06:15:50Z</time>
      </trkpt>
      <trkpt lat="42.47394" lon="2.2068">
        <ele>2227.03</ele>
        <time>2016-07-01T06:15:59Z</time>
      </trkpt>
      <trkpt lat="42.47397" lon="2.20678">
        <ele>2226.55</ele>
        <time>2016-07-01T06:16:03Z</time>
      </trkpt>
      <trkpt lat="42.47402" lon="2.20667">
        <ele>2222.22</ele>
        <time>2016-07-01T06:16:13Z</time>
      </trkpt>
      <trkpt lat="42.47403" lon="2.20665">
        <ele>2220.3</ele>
        <time>2016-07-01T06:16:15Z</time>
      </trkpt>
      <trkpt lat="42.47404" lon="2.20656">
        <ele>2216.46</ele>
        <time>2016-07-01T06:16:22Z</time>
      </trkpt>
      <trkpt lat="42.47405" lon="2.20655">
        <ele>2216.46</ele>
        <time>2016-07-01T06:16:23Z</time>
      </trkpt>
      <trkpt lat="42.47406" lon="2.20653">
        <ele>2216.46</ele>
        <time>2016-07-01T06:16:25Z</time>
      </trkpt>
      <trkpt lat="42.47408" lon="2.20652">
        <ele>2216.46</ele>
        <time>2016-07-01T06:16:27Z</time>
      </trkpt>
      <trkpt lat="42.47414" lon="2.20639">
        <ele>2215.01</ele>
        <time>2016-07-01T06:16:39Z</time>
      </trkpt>
      <trkpt lat="42.47413" lon="2.20632">
        <ele>2213.57</ele>
        <time>2016-07-01T06:16:47Z</time>
      </trkpt>
      <trkpt lat="42.47414" lon="2.20629">
        <ele>2213.09</ele>
        <time>2016-07-01T06:16:49Z</time>
      </trkpt>
      <trkpt lat="42.47419" lon="2.20623">
        <ele>2209.25</ele>
        <time>2016-07-01T06:16:54Z</time>
      </trkpt>
      <trkpt lat="42.47421" lon="2.20621">
        <ele>2205.88</ele>
        <time>2016-07-01T06:16:58Z</time>
      </trkpt>
      <trkpt lat="42.47422" lon="2.20617">
        <ele>2205.4</ele>
        <time>2016-07-01T06:17:01Z</time>
      </trkpt>
      <trkpt lat="42.47422" lon="2.2061">
        <ele>2204.92</ele>
        <time>2016-07-01T06:17:05Z</time>
      </trkpt>
      <trkpt lat="42.47425" lon="2.20606">
        <ele>2204.92</ele>
        <time>2016-07-01T06:17:09Z</time>
      </trkpt>
      <trkpt lat="42.47428" lon="2.20605">
        <ele>2204.92</ele>
        <time>2016-07-01T06:17:12Z</time>
      </trkpt>
      <trkpt lat="42.47429" lon="2.20602">
        <ele>2204.92</ele>
        <time>2016-07-01T06:17:14Z</time>
      </trkpt>
      <trkpt lat="42.4743" lon="2.20599">
        <ele>2204.44</ele>
        <time>2016-07-01T06:17:17Z</time>
      </trkpt>
      <trkpt lat="42.47432" lon="2.20594">
        <ele>2203.48</ele>
        <time>2016-07-01T06:17:21Z</time>
      </trkpt>
      <trkpt lat="42.47436" lon="2.20586">
        <ele>2199.15</ele>
        <time>2016-07-01T06:17:27Z</time>
      </trkpt>
      <trkpt lat="42.47438" lon="2.20584">
        <ele>2196.75</ele>
        <time>2016-07-01T06:17:29Z</time>
      </trkpt>
      <trkpt lat="42.4744" lon="2.20576">
        <ele>2193.39</ele>
        <time>2016-07-01T06:17:38Z</time>
      </trkpt>
      <trkpt lat="42.47442" lon="2.20556">
        <ele>2191.94</ele>
        <time>2016-07-01T06:17:51Z</time>
      </trkpt>
      <trkpt lat="42.47444" lon="2.2055">
        <ele>2189.54</ele>
        <time>2016-07-01T06:17:57Z</time>
      </trkpt>
      <trkpt lat="42.47445" lon="2.20544">
        <ele>2185.21</ele>
        <time>2016-07-01T06:18:02Z</time>
      </trkpt>
      <trkpt lat="42.47445" lon="2.20534">
        <ele>2183.77</ele>
        <time>2016-07-01T06:18:10Z</time>
      </trkpt>
      <trkpt lat="42.47444" lon="2.20527">
        <ele>2183.29</ele>
        <time>2016-07-01T06:18:15Z</time>
      </trkpt>
      <trkpt lat="42.47444" lon="2.20521">
        <ele>2183.29</ele>
        <time>2016-07-01T06:18:19Z</time>
      </trkpt>
      <trkpt lat="42.47445" lon="2.20519">
        <ele>2182.33</ele>
        <time>2016-07-01T06:18:21Z</time>
      </trkpt>
      <trkpt lat="42.47445" lon="2.20517">
        <ele>2182.33</ele>
        <time>2016-07-01T06:18:23Z</time>
      </trkpt>
      <trkpt lat="42.47448" lon="2.20515">
        <ele>2181.85</ele>
        <time>2016-07-01T06:18:25Z</time>
      </trkpt>
      <trkpt lat="42.47451" lon="2.20505">
        <ele>2178.48</ele>
        <time>2016-07-01T06:18:32Z</time>
      </trkpt>
      <trkpt lat="42.47452" lon="2.20504">
        <ele>2177.52</ele>
        <time>2016-07-01T06:18:33Z</time>
      </trkpt>
      <trkpt lat="42.47453" lon="2.20501">
        <ele>2175.6</ele>
        <time>2016-07-01T06:18:36Z</time>
      </trkpt>
      <trkpt lat="42.47453" lon="2.20497">
        <ele>2175.12</ele>
        <time>2016-07-01T06:18:38Z</time>
      </trkpt>
      <trkpt lat="42.47456" lon="2.20494">
        <ele>2174.16</ele>
        <time>2016-07-01T06:18:42Z</time>
      </trkpt>
      <trkpt lat="42.47459" lon="2.20483">
        <ele>2173.68</ele>
        <time>2016-07-01T06:18:55Z</time>
      </trkpt>
      <trkpt lat="42.47465" lon="2.2048">
        <ele>2172.72</ele>
        <time>2016-07-01T06:19:06Z</time>
      </trkpt>
      <trkpt lat="42.47465" lon="2.2048">
        <ele>2172.72</ele>
        <time>2016-07-01T06:19:07Z</time>
      </trkpt>
      <trkpt lat="42.47468" lon="2.20471">
        <ele>2168.87</ele>
        <time>2016-07-01T06:19:15Z</time>
      </trkpt>
      <trkpt lat="42.4747" lon="2.20469">
        <ele>2167.43</ele>
        <time>2016-07-01T06:19:17Z</time>
      </trkpt>
      <trkpt lat="42.47476" lon="2.20466">
        <ele>2165.51</ele>
        <time>2016-07-01T06:19:24Z</time>
      </trkpt>
      <trkpt lat="42.47483" lon="2.20459">
        <ele>2165.03</ele>
        <time>2016-07-01T06:19:34Z</time>
      </trkpt>
      <trkpt lat="42.47484" lon="2.20449">
        <ele>2161.18</ele>
        <time>2016-07-01T06:19:41Z</time>
      </trkpt>
      <trkpt lat="42.47487" lon="2.20441">
        <ele>2157.82</ele>
        <time>2016-07-01T06:19:46Z</time>
      </trkpt>
      <trkpt lat="42.47488" lon="2.20437">
        <ele>2157.34</ele>
        <time>2016-07-01T06:19:49Z</time>
      </trkpt>
      <trkpt lat="42.47491" lon="2.20429">
        <ele>2157.34</ele>
        <time>2016-07-01T06:19:58Z</time>
      </trkpt>
      <trkpt lat="42.47496" lon="2.20422">
        <ele>2155.89</ele>
        <time>2016-07-01T06:20:09Z</time>
      </trkpt>
      <trkpt lat="42.47501" lon="2.2042">
        <ele>2152.53</ele>
        <time>2016-07-01T06:20:16Z</time>
      </trkpt>
      <trkpt lat="42.47503" lon="2.20415">
        <ele>2148.68</ele>
        <time>2016-07-01T06:20:21Z</time>
      </trkpt>
      <trkpt lat="42.47508" lon="2.20405">
        <ele>2146.76</ele>
        <time>2016-07-01T06:20:33Z</time>
      </trkpt>
      <trkpt lat="42.47508" lon="2.20403">
        <ele>2146.76</ele>
        <time>2016-07-01T06:20:35Z</time>
      </trkpt>
      <trkpt lat="42.47512" lon="2.20397">
        <ele>2146.28</ele>
        <time>2016-07-01T06:20:41Z</time>
      </trkpt>
      <trkpt lat="42.47514" lon="2.2039">
        <ele>2144.84</ele>
        <time>2016-07-01T06:20:47Z</time>
      </trkpt>
      <trkpt lat="42.47512" lon="2.20381">
        <ele>2143.88</ele>
        <time>2016-07-01T06:20:53Z</time>
      </trkpt>
      <trkpt lat="42.47514" lon="2.20377">
        <ele>2141.95</ele>
        <time>2016-07-01T06:21:03Z</time>
      </trkpt>
      <trkpt lat="42.47515" lon="2.20377">
        <ele>2141.95</ele>
        <time>2016-07-01T06:21:04Z</time>
      </trkpt>
      <trkpt lat="42.47518" lon="2.20373">
        <ele>2138.11</ele>
        <time>2016-07-01T06:21:10Z</time>
      </trkpt>
      <trkpt lat="42.47522" lon="2.20372">
        <ele>2135.71</ele>
        <time>2016-07-01T06:21:15Z</time>
      </trkpt>
      <trkpt lat="42.47523" lon="2.20369">
        <ele>2135.71</ele>
        <time>2016-07-01T06:21:19Z</time>
      </trkpt>
      <trkpt lat="42.47522" lon="2.20358">
        <ele>2134.74</ele>
        <time>2016-07-01T06:21:29Z</time>
      </trkpt>
      <trkpt lat="42.47521" lon="2.20355">
        <ele>2134.26</ele>
        <time>2016-07-01T06:21:31Z</time>
      </trkpt>
      <trkpt lat="42.47527" lon="2.20352">
        <ele>2133.3</ele>
        <time>2016-07-01T06:21:39Z</time>
      </trkpt>
      <trkpt lat="42.47528" lon="2.20352">
        <ele>2132.82</ele>
        <time>2016-07-01T06:21:41Z</time>
      </trkpt>
      <trkpt lat="42.4753" lon="2.20345">
        <ele>2130.9</ele>
        <time>2016-07-01T06:21:52Z</time>
      </trkpt>
      <trkpt lat="42.47534" lon="2.2034">
        <ele>2128.98</ele>
        <time>2016-07-01T06:21:59Z</time>
      </trkpt>
      <trkpt lat="42.47536" lon="2.20334">
        <ele>2125.13</ele>
        <time>2016-07-01T06:22:04Z</time>
      </trkpt>
      <trkpt lat="42.47534" lon="2.20329">
        <ele>2122.25</ele>
        <time>2016-07-01T06:22:08Z</time>
      </trkpt>
      <trkpt lat="42.47538" lon="2.20325">
        <ele>2121.77</ele>
        <time>2016-07-01T06:22:14Z</time>
      </trkpt>
      <trkpt lat="42.4754" lon="2.20318">
        <ele>2121.77</ele>
        <time>2016-07-01T06:22:19Z</time>
      </trkpt>
      <trkpt lat="42.47542" lon="2.20313">
        <ele>2121.29</ele>
        <time>2016-07-01T06:22:24Z</time>
      </trkpt>
      <trkpt lat="42.47541" lon="2.20303">
        <ele>2119.84</ele>
        <time>2016-07-01T06:22:34Z</time>
      </trkpt>
      <trkpt lat="42.47543" lon="2.203">
        <ele>2119.36</ele>
        <time>2016-07-01T06:22:38Z</time>
      </trkpt>
      <trkpt lat="42.47544" lon="2.20298">
        <ele>2118.4</ele>
        <time>2016-07-01T06:22:40Z</time>
      </trkpt>
      <trkpt lat="42.47547" lon="2.20295">
        <ele>2117.92</ele>
        <time>2016-07-01T06:22:43Z</time>
      </trkpt>
      <trkpt lat="42.47549" lon="2.2029">
        <ele>2117.44</ele>
        <time>2016-07-01T06:22:47Z</time>
      </trkpt>
      <trkpt lat="42.47549" lon="2.20285">
        <ele>2116</ele>
        <time>2016-07-01T06:22:52Z</time>
      </trkpt>
      <trkpt lat="42.4755" lon="2.20282">
        <ele>2116</ele>
        <time>2016-07-01T06:22:54Z</time>
      </trkpt>
      <trkpt lat="42.47553" lon="2.20275">
        <ele>2115.04</ele>
        <time>2016-07-01T06:23:00Z</time>
      </trkpt>
      <trkpt lat="42.47556" lon="2.20261">
        <ele>2113.6</ele>
        <time>2016-07-01T06:23:09Z</time>
      </trkpt>
      <trkpt lat="42.47557" lon="2.20258">
        <ele>2112.63</ele>
        <time>2016-07-01T06:23:11Z</time>
      </trkpt>
      <trkpt lat="42.47558" lon="2.20253">
        <ele>2112.15</ele>
        <time>2016-07-01T06:23:14Z</time>
      </trkpt>
      <trkpt lat="42.47562" lon="2.2024">
        <ele>2111.19</ele>
        <time>2016-07-01T06:23:23Z</time>
      </trkpt>
      <trkpt lat="42.47565" lon="2.20223">
        <ele>2109.27</ele>
        <time>2016-07-01T06:23:37Z</time>
      </trkpt>
      <trkpt lat="42.47568" lon="2.20214">
        <ele>2107.35</ele>
        <time>2016-07-01T06:23:47Z</time>
      </trkpt>
      <trkpt lat="42.47568" lon="2.20206">
        <ele>2104.46</ele>
        <time>2016-07-01T06:23:52Z</time>
      </trkpt>
      <trkpt lat="42.47569" lon="2.20194">
        <ele>2102.06</ele>
        <time>2016-07-01T06:24:03Z</time>
      </trkpt>
      <trkpt lat="42.4757" lon="2.20185">
        <ele>2102.06</ele>
        <time>2016-07-01T06:24:12Z</time>
      </trkpt>
      <trkpt lat="42.47572" lon="2.20176">
        <ele>2100.62</ele>
        <time>2016-07-01T06:24:21Z</time>
      </trkpt>
      <trkpt lat="42.47572" lon="2.20172">
        <ele>2100.14</ele>
        <time>2016-07-01T06:24:24Z</time>
      </trkpt>
      <trkpt lat="42.47576" lon="2.20163">
        <ele>2099.18</ele>
        <time>2016-07-01T06:24:31Z</time>
      </trkpt>
      <trkpt lat="42.47577" lon="2.20145">
        <ele>2095.81</ele>
        <time>2016-07-01T06:24:44Z</time>
      </trkpt>
      <trkpt lat="42.47577" lon="2.20143">
        <ele>2096.29</ele>
        <time>2016-07-01T06:24:46Z</time>
      </trkpt>
      <trkpt lat="42.47575" lon="2.20124">
        <ele>2093.89</ele>
        <time>2016-07-01T06:24:59Z</time>
      </trkpt>
      <trkpt lat="42.47575" lon="2.20123">
        <ele>2093.41</ele>
        <time>2016-07-01T06:25:01Z</time>
      </trkpt>
      <trkpt lat="42.47576" lon="2.20118">
        <ele>2092.45</ele>
        <time>2016-07-01T06:25:15Z</time>
      </trkpt>
      <trkpt lat="42.47576" lon="2.20116">
        <ele>2091.49</ele>
        <time>2016-07-01T06:25:16Z</time>
      </trkpt>
      <trkpt lat="42.47578" lon="2.201">
        <ele>2090.04</ele>
        <time>2016-07-01T06:25:29Z</time>
      </trkpt>
      <trkpt lat="42.47579" lon="2.20099">
        <ele>2090.04</ele>
        <time>2016-07-01T06:25:30Z</time>
      </trkpt>
      <trkpt lat="42.4758" lon="2.20092">
        <ele>2089.08</ele>
        <time>2016-07-01T06:25:42Z</time>
      </trkpt>
      <trkpt lat="42.47579" lon="2.20091">
        <ele>2088.6</ele>
        <time>2016-07-01T06:26:08Z</time>
      </trkpt>
      <trkpt lat="42.4758" lon="2.2009">
        <ele>2088.6</ele>
        <time>2016-07-01T06:26:38Z</time>
      </trkpt>
      <trkpt lat="42.47582" lon="2.20082">
        <ele>2087.64</ele>
        <time>2016-07-01T06:26:46Z</time>
      </trkpt>
      <trkpt lat="42.47581" lon="2.20078">
        <ele>2087.64</ele>
        <time>2016-07-01T06:26:49Z</time>
      </trkpt>
      <trkpt lat="42.47583" lon="2.20076">
        <ele>2087.64</ele>
        <time>2016-07-01T06:26:51Z</time>
      </trkpt>
      <trkpt lat="42.47584" lon="2.2007">
        <ele>2087.16</ele>
        <time>2016-07-01T06:26:56Z</time>
      </trkpt>
      <trkpt lat="42.47588" lon="2.20065">
        <ele>2086.68</ele>
        <time>2016-07-01T06:27:01Z</time>
      </trkpt>
      <trkpt lat="42.47588" lon="2.20062">
        <ele>2086.68</ele>
        <time>2016-07-01T06:27:03Z</time>
      </trkpt>
      <trkpt lat="42.47592" lon="2.20055">
        <ele>2086.2</ele>
        <time>2016-07-01T06:27:09Z</time>
      </trkpt>
      <trkpt lat="42.47595" lon="2.20047">
        <ele>2085.72</ele>
        <time>2016-07-01T06:27:15Z</time>
      </trkpt>
      <trkpt lat="42.47598" lon="2.20041">
        <ele>2085.24</ele>
        <time>2016-07-01T06:27:20Z</time>
      </trkpt>
      <trkpt lat="42.476" lon="2.20038">
        <ele>2084.28</ele>
        <time>2016-07-01T06:27:23Z</time>
      </trkpt>
      <trkpt lat="42.47605" lon="2.20032">
        <ele>2083.31</ele>
        <time>2016-07-01T06:27:29Z</time>
      </trkpt>
      <trkpt lat="42.47608" lon="2.20027">
        <ele>2082.83</ele>
        <time>2016-07-01T06:27:34Z</time>
      </trkpt>
      <trkpt lat="42.47611" lon="2.2002">
        <ele>2081.87</ele>
        <time>2016-07-01T06:27:39Z</time>
      </trkpt>
      <trkpt lat="42.47615" lon="2.20018">
        <ele>2081.39</ele>
        <time>2016-07-01T06:27:42Z</time>
      </trkpt>
      <trkpt lat="42.4762" lon="2.20012">
        <ele>2080.43</ele>
        <time>2016-07-01T06:27:48Z</time>
      </trkpt>
      <trkpt lat="42.47625" lon="2.20006">
        <ele>2079.95</ele>
        <time>2016-07-01T06:27:54Z</time>
      </trkpt>
      <trkpt lat="42.47632" lon="2.20001">
        <ele>2078.03</ele>
        <time>2016-07-01T06:28:01Z</time>
      </trkpt>
      <trkpt lat="42.47645" lon="2.19989">
        <ele>2076.1</ele>
        <time>2016-07-01T06:28:15Z</time>
      </trkpt>
      <trkpt lat="42.47645" lon="2.19988">
        <ele>2075.62</ele>
        <time>2016-07-01T06:28:17Z</time>
      </trkpt>
      <trkpt lat="42.47645" lon="2.19986">
        <ele>2075.62</ele>
        <time>2016-07-01T06:28:18Z</time>
      </trkpt>
      <trkpt lat="42.47658" lon="2.19975">
        <ele>2074.66</ele>
        <time>2016-07-01T06:28:29Z</time>
      </trkpt>
      <trkpt lat="42.47661" lon="2.1997">
        <ele>2074.18</ele>
        <time>2016-07-01T06:28:34Z</time>
      </trkpt>
      <trkpt lat="42.47664" lon="2.19968">
        <ele>2073.7</ele>
        <time>2016-07-01T06:28:37Z</time>
      </trkpt>
      <trkpt lat="42.4767" lon="2.19953">
        <ele>2071.78</ele>
        <time>2016-07-01T06:28:47Z</time>
      </trkpt>
      <trkpt lat="42.47677" lon="2.19945">
        <ele>2071.3</ele>
        <time>2016-07-01T06:28:54Z</time>
      </trkpt>
      <trkpt lat="42.47681" lon="2.19939">
        <ele>2070.82</ele>
        <time>2016-07-01T06:28:59Z</time>
      </trkpt>
      <trkpt lat="42.47683" lon="2.19935">
        <ele>2070.34</ele>
        <time>2016-07-01T06:29:02Z</time>
      </trkpt>
      <trkpt lat="42.4769" lon="2.19928">
        <ele>2069.86</ele>
        <time>2016-07-01T06:29:09Z</time>
      </trkpt>
      <trkpt lat="42.47699" lon="2.19919">
        <ele>2068.41</ele>
        <time>2016-07-01T06:29:19Z</time>
      </trkpt>
      <trkpt lat="42.47703" lon="2.19915">
        <ele>2067.93</ele>
        <time>2016-07-01T06:29:25Z</time>
      </trkpt>
      <trkpt lat="42.47709" lon="2.19909">
        <ele>2067.45</ele>
        <time>2016-07-01T06:29:30Z</time>
      </trkpt>
      <trkpt lat="42.47718" lon="2.19899">
        <ele>2066.97</ele>
        <time>2016-07-01T06:29:39Z</time>
      </trkpt>
      <trkpt lat="42.47729" lon="2.19887">
        <ele>2066.49</ele>
        <time>2016-07-01T06:29:49Z</time>
      </trkpt>
      <trkpt lat="42.47747" lon="2.19878">
        <ele>2065.05</ele>
        <time>2016-07-01T06:30:03Z</time>
      </trkpt>
      <trkpt lat="42.47752" lon="2.19875">
        <ele>2065.05</ele>
        <time>2016-07-01T06:30:07Z</time>
      </trkpt>
      <trkpt lat="42.47759" lon="2.19869">
        <ele>2064.57</ele>
        <time>2016-07-01T06:30:13Z</time>
      </trkpt>
      <trkpt lat="42.47772" lon="2.1986">
        <ele>2063.61</ele>
        <time>2016-07-01T06:30:23Z</time>
      </trkpt>
      <trkpt lat="42.47789" lon="2.19851">
        <ele>2063.13</ele>
        <time>2016-07-01T06:30:36Z</time>
      </trkpt>
      <trkpt lat="42.47806" lon="2.19839">
        <ele>2062.17</ele>
        <time>2016-07-01T06:30:49Z</time>
      </trkpt>
      <trkpt lat="42.47816" lon="2.19827">
        <ele>2061.68</ele>
        <time>2016-07-01T06:30:58Z</time>
      </trkpt>
      <trkpt lat="42.47819" lon="2.19816">
        <ele>2061.2</ele>
        <time>2016-07-01T06:31:05Z</time>
      </trkpt>
      <trkpt lat="42.47822" lon="2.19809">
        <ele>2059.76</ele>
        <time>2016-07-01T06:31:11Z</time>
      </trkpt>
      <trkpt lat="42.47827" lon="2.19788">
        <ele>2055.92</ele>
        <time>2016-07-01T06:31:24Z</time>
      </trkpt>
      <trkpt lat="42.47828" lon="2.19782">
        <ele>2053.03</ele>
        <time>2016-07-01T06:31:28Z</time>
      </trkpt>
      <trkpt lat="42.47831" lon="2.19773">
        <ele>2049.67</ele>
        <time>2016-07-01T06:31:34Z</time>
      </trkpt>
      <trkpt lat="42.47835" lon="2.19763">
        <ele>2049.19</ele>
        <time>2016-07-01T06:31:41Z</time>
      </trkpt>
      <trkpt lat="42.47838" lon="2.19753">
        <ele>2048.71</ele>
        <time>2016-07-01T06:31:48Z</time>
      </trkpt>
      <trkpt lat="42.4784" lon="2.19751">
        <ele>2047.75</ele>
        <time>2016-07-01T06:31:50Z</time>
      </trkpt>
      <trkpt lat="42.47841" lon="2.19749">
        <ele>2046.78</ele>
        <time>2016-07-01T06:31:52Z</time>
      </trkpt>
      <trkpt lat="42.47845" lon="2.19745">
        <ele>2042.46</ele>
        <time>2016-07-01T06:31:57Z</time>
      </trkpt>
      <trkpt lat="42.4785" lon="2.19741">
        <ele>2039.09</ele>
        <time>2016-07-01T06:32:03Z</time>
      </trkpt>
      <trkpt lat="42.47851" lon="2.19739">
        <ele>2038.61</ele>
        <time>2016-07-01T06:32:05Z</time>
      </trkpt>
      <trkpt lat="42.47857" lon="2.19737">
        <ele>2038.61</ele>
        <time>2016-07-01T06:32:11Z</time>
      </trkpt>
      <trkpt lat="42.47851" lon="2.19724">
        <ele>2037.17</ele>
        <time>2016-07-01T06:32:19Z</time>
      </trkpt>
      <trkpt lat="42.47851" lon="2.19719">
        <ele>2036.21</ele>
        <time>2016-07-01T06:32:22Z</time>
      </trkpt>
      <trkpt lat="42.47848" lon="2.19698">
        <ele>2034.77</ele>
        <time>2016-07-01T06:32:34Z</time>
      </trkpt>
      <trkpt lat="42.47846" lon="2.19672">
        <ele>2032.36</ele>
        <time>2016-07-01T06:32:48Z</time>
      </trkpt>
      <trkpt lat="42.47853" lon="2.19654">
        <ele>2030.44</ele>
        <time>2016-07-01T06:32:59Z</time>
      </trkpt>
      <trkpt lat="42.47852" lon="2.19646">
        <ele>2029.96</ele>
        <time>2016-07-01T06:33:03Z</time>
      </trkpt>
      <trkpt lat="42.47853" lon="2.1964">
        <ele>2028.52</ele>
        <time>2016-07-01T06:33:07Z</time>
      </trkpt>
      <trkpt lat="42.47852" lon="2.19635">
        <ele>2028.52</ele>
        <time>2016-07-01T06:33:09Z</time>
      </trkpt>
      <trkpt lat="42.47851" lon="2.19633">
        <ele>2028.04</ele>
        <time>2016-07-01T06:33:10Z</time>
      </trkpt>
      <trkpt lat="42.47852" lon="2.19631">
        <ele>2028.04</ele>
        <time>2016-07-01T06:33:11Z</time>
      </trkpt>
      <trkpt lat="42.47852" lon="2.19629">
        <ele>2028.04</ele>
        <time>2016-07-01T06:33:12Z</time>
      </trkpt>
      <trkpt lat="42.47852" lon="2.19627">
        <ele>2027.56</ele>
        <time>2016-07-01T06:33:13Z</time>
      </trkpt>
      <trkpt lat="42.47852" lon="2.19625">
        <ele>2027.56</ele>
        <time>2016-07-01T06:33:14Z</time>
      </trkpt>
      <trkpt lat="42.47852" lon="2.19623">
        <ele>2027.56</ele>
        <time>2016-07-01T06:33:15Z</time>
      </trkpt>
      <trkpt lat="42.47853" lon="2.19622">
        <ele>2027.08</ele>
        <time>2016-07-01T06:33:16Z</time>
      </trkpt>
      <trkpt lat="42.47854" lon="2.1962">
        <ele>2027.08</ele>
        <time>2016-07-01T06:33:17Z</time>
      </trkpt>
      <trkpt lat="42.47854" lon="2.19618">
        <ele>2027.08</ele>
        <time>2016-07-01T06:33:18Z</time>
      </trkpt>
      <trkpt lat="42.47854" lon="2.19615">
        <ele>2027.08</ele>
        <time>2016-07-01T06:33:19Z</time>
      </trkpt>
      <trkpt lat="42.47855" lon="2.19613">
        <ele>2026.12</ele>
        <time>2016-07-01T06:33:20Z</time>
      </trkpt>
      <trkpt lat="42.47856" lon="2.19612">
        <ele>2026.12</ele>
        <time>2016-07-01T06:33:21Z</time>
      </trkpt>
      <trkpt lat="42.47855" lon="2.1961">
        <ele>2026.12</ele>
        <time>2016-07-01T06:33:22Z</time>
      </trkpt>
      <trkpt lat="42.47856" lon="2.19608">
        <ele>2026.12</ele>
        <time>2016-07-01T06:33:23Z</time>
      </trkpt>
      <trkpt lat="42.47857" lon="2.19607">
        <ele>2025.64</ele>
        <time>2016-07-01T06:33:24Z</time>
      </trkpt>
      <trkpt lat="42.47857" lon="2.19605">
        <ele>2025.64</ele>
        <time>2016-07-01T06:33:25Z</time>
      </trkpt>
      <trkpt lat="42.47858" lon="2.19603">
        <ele>2025.64</ele>
        <time>2016-07-01T06:33:26Z</time>
      </trkpt>
      <trkpt lat="42.47858" lon="2.19601">
        <ele>2025.15</ele>
        <time>2016-07-01T06:33:27Z</time>
      </trkpt>
      <trkpt lat="42.47859" lon="2.196">
        <ele>2025.15</ele>
        <time>2016-07-01T06:33:28Z</time>
      </trkpt>
      <trkpt lat="42.4786" lon="2.19598">
        <ele>2025.15</ele>
        <time>2016-07-01T06:33:29Z</time>
      </trkpt>
      <trkpt lat="42.4786" lon="2.19596">
        <ele>2025.15</ele>
        <time>2016-07-01T06:33:30Z</time>
      </trkpt>
      <trkpt lat="42.4786" lon="2.19593">
        <ele>2024.67</ele>
        <time>2016-07-01T06:33:31Z</time>
      </trkpt>
      <trkpt lat="42.4786" lon="2.19591">
        <ele>2024.67</ele>
        <time>2016-07-01T06:33:32Z</time>
      </trkpt>
      <trkpt lat="42.4786" lon="2.19589">
        <ele>2024.67</ele>
        <time>2016-07-01T06:33:33Z</time>
      </trkpt>
      <trkpt lat="42.4786" lon="2.19588">
        <ele>2024.19</ele>
        <time>2016-07-01T06:33:34Z</time>
      </trkpt>
      <trkpt lat="42.47861" lon="2.19586">
        <ele>2024.19</ele>
        <time>2016-07-01T06:33:35Z</time>
      </trkpt>
      <trkpt lat="42.47862" lon="2.19584">
        <ele>2024.19</ele>
        <time>2016-07-01T06:33:36Z</time>
      </trkpt>
      <trkpt lat="42.47863" lon="2.19584">
        <ele>2024.19</ele>
        <time>2016-07-01T06:33:37Z</time>
      </trkpt>
      <trkpt lat="42.47864" lon="2.19582">
        <ele>2023.71</ele>
        <time>2016-07-01T06:33:38Z</time>
      </trkpt>
      <trkpt lat="42.47865" lon="2.19581">
        <ele>2023.71</ele>
        <time>2016-07-01T06:33:39Z</time>
      </trkpt>
      <trkpt lat="42.47866" lon="2.19579">
        <ele>2023.71</ele>
        <time>2016-07-01T06:33:40Z</time>
      </trkpt>
      <trkpt lat="42.47867" lon="2.19578">
        <ele>2023.23</ele>
        <time>2016-07-01T06:33:41Z</time>
      </trkpt>
      <trkpt lat="42.47869" lon="2.19577">
        <ele>2023.23</ele>
        <time>2016-07-01T06:33:42Z</time>
      </trkpt>
      <trkpt lat="42.47872" lon="2.19577">
        <ele>2023.23</ele>
        <time>2016-07-01T06:33:43Z</time>
      </trkpt>
      <trkpt lat="42.47874" lon="2.19576">
        <ele>2022.27</ele>
        <time>2016-07-01T06:33:44Z</time>
      </trkpt>
      <trkpt lat="42.47874" lon="2.19574">
        <ele>2022.27</ele>
        <time>2016-07-01T06:33:45Z</time>
      </trkpt>
      <trkpt lat="42.47873" lon="2.19572">
        <ele>2022.27</ele>
        <time>2016-07-01T06:33:46Z</time>
      </trkpt>
      <trkpt lat="42.47873" lon="2.19569">
        <ele>2021.79</ele>
        <time>2016-07-01T06:33:47Z</time>
      </trkpt>
      <trkpt lat="42.47873" lon="2.19568">
        <ele>2021.79</ele>
        <time>2016-07-01T06:33:48Z</time>
      </trkpt>
      <trkpt lat="42.47874" lon="2.19566">
        <ele>2021.79</ele>
        <time>2016-07-01T06:33:49Z</time>
      </trkpt>
      <trkpt lat="42.47882" lon="2.19554">
        <ele>2020.35</ele>
        <time>2016-07-01T06:33:57Z</time>
      </trkpt>
      <trkpt lat="42.47887" lon="2.19543">
        <ele>2019.39</ele>
        <time>2016-07-01T06:34:04Z</time>
      </trkpt>
      <trkpt lat="42.4789" lon="2.19539">
        <ele>2018.43</ele>
        <time>2016-07-01T06:34:07Z</time>
      </trkpt>
      <trkpt lat="42.47891" lon="2.19538">
        <ele>2017.94</ele>
        <time>2016-07-01T06:34:08Z</time>
      </trkpt>
      <trkpt lat="42.47898" lon="2.19522">
        <ele>2016.5</ele>
        <time>2016-07-01T06:34:17Z</time>
      </trkpt>
      <trkpt lat="42.47898" lon="2.1952">
        <ele>2016.5</ele>
        <time>2016-07-01T06:34:18Z</time>
      </trkpt>
      <trkpt lat="42.47899" lon="2.19519">
        <ele>2016.5</ele>
        <time>2016-07-01T06:34:19Z</time>
      </trkpt>
      <trkpt lat="42.479" lon="2.19517">
        <ele>2016.02</ele>
        <time>2016-07-01T06:34:20Z</time>
      </trkpt>
      <trkpt lat="42.479" lon="2.19515">
        <ele>2016.02</ele>
        <time>2016-07-01T06:34:21Z</time>
      </trkpt>
      <trkpt lat="42.479" lon="2.19514">
        <ele>2016.02</ele>
        <time>2016-07-01T06:34:22Z</time>
      </trkpt>
      <trkpt lat="42.47901" lon="2.19512">
        <ele>2015.06</ele>
        <time>2016-07-01T06:34:23Z</time>
      </trkpt>
      <trkpt lat="42.47911" lon="2.19496">
        <ele>2013.14</ele>
        <time>2016-07-01T06:34:34Z</time>
      </trkpt>
      <trkpt lat="42.47918" lon="2.1948">
        <ele>2011.22</ele>
        <time>2016-07-01T06:34:43Z</time>
      </trkpt>
      <trkpt lat="42.47919" lon="2.19479">
        <ele>2011.22</ele>
        <time>2016-07-01T06:34:44Z</time>
      </trkpt>
      <trkpt lat="42.47919" lon="2.19478">
        <ele>2011.22</ele>
        <time>2016-07-01T06:34:45Z</time>
      </trkpt>
      <trkpt lat="42.4792" lon="2.19476">
        <ele>2011.22</ele>
        <time>2016-07-01T06:34:46Z</time>
      </trkpt>
      <trkpt lat="42.47921" lon="2.19475">
        <ele>2010.73</ele>
        <time>2016-07-01T06:34:47Z</time>
      </trkpt>
      <trkpt lat="42.47922" lon="2.19474">
        <ele>2010.73</ele>
        <time>2016-07-01T06:34:48Z</time>
      </trkpt>
      <trkpt lat="42.4793" lon="2.1946">
        <ele>2008.81</ele>
        <time>2016-07-01T06:34:57Z</time>
      </trkpt>
      <trkpt lat="42.47931" lon="2.19459">
        <ele>2008.81</ele>
        <time>2016-07-01T06:34:58Z</time>
      </trkpt>
      <trkpt lat="42.47932" lon="2.19457">
        <ele>2008.81</ele>
        <time>2016-07-01T06:34:59Z</time>
      </trkpt>
      <trkpt lat="42.47933" lon="2.19455">
        <ele>2008.33</ele>
        <time>2016-07-01T06:35:00Z</time>
      </trkpt>
      <trkpt lat="42.47933" lon="2.19454">
        <ele>2008.33</ele>
        <time>2016-07-01T06:35:01Z</time>
      </trkpt>
      <trkpt lat="42.47934" lon="2.19453">
        <ele>2008.33</ele>
        <time>2016-07-01T06:35:02Z</time>
      </trkpt>
      <trkpt lat="42.47937" lon="2.19443">
        <ele>2007.37</ele>
        <time>2016-07-01T06:35:09Z</time>
      </trkpt>
      <trkpt lat="42.47937" lon="2.19441">
        <ele>2006.89</ele>
        <time>2016-07-01T06:35:10Z</time>
      </trkpt>
      <trkpt lat="42.47936" lon="2.1944">
        <ele>2006.89</ele>
        <time>2016-07-01T06:35:11Z</time>
      </trkpt>
      <trkpt lat="42.47923" lon="2.19424">
        <ele>2004.01</ele>
        <time>2016-07-01T06:35:23Z</time>
      </trkpt>
      <trkpt lat="42.47904" lon="2.19407">
        <ele>2002.08</ele>
        <time>2016-07-01T06:35:35Z</time>
      </trkpt>
      <trkpt lat="42.479" lon="2.19403">
        <ele>2002.08</ele>
        <time>2016-07-01T06:35:38Z</time>
      </trkpt>
      <trkpt lat="42.47897" lon="2.19401">
        <ele>2001.12</ele>
        <time>2016-07-01T06:35:40Z</time>
      </trkpt>
      <trkpt lat="42.47896" lon="2.19398">
        <ele>2001.12</ele>
        <time>2016-07-01T06:35:41Z</time>
      </trkpt>
      <trkpt lat="42.47895" lon="2.19396">
        <ele>2001.12</ele>
        <time>2016-07-01T06:35:42Z</time>
      </trkpt>
      <trkpt lat="42.47894" lon="2.19394">
        <ele>2000.64</ele>
        <time>2016-07-01T06:35:43Z</time>
      </trkpt>
      <trkpt lat="42.47892" lon="2.19393">
        <ele>2000.64</ele>
        <time>2016-07-01T06:35:44Z</time>
      </trkpt>
      <trkpt lat="42.4789" lon="2.19393">
        <ele>2000.64</ele>
        <time>2016-07-01T06:35:45Z</time>
      </trkpt>
      <trkpt lat="42.47888" lon="2.19393">
        <ele>2000.64</ele>
        <time>2016-07-01T06:35:46Z</time>
      </trkpt>
      <trkpt lat="42.47887" lon="2.19393">
        <ele>2000.16</ele>
        <time>2016-07-01T06:35:47Z</time>
      </trkpt>
      <trkpt lat="42.47883" lon="2.19389">
        <ele>1999.2</ele>
        <time>2016-07-01T06:35:51Z</time>
      </trkpt>
      <trkpt lat="42.47883" lon="2.19388">
        <ele>1999.2</ele>
        <time>2016-07-01T06:35:52Z</time>
      </trkpt>
      <trkpt lat="42.47882" lon="2.19386">
        <ele>1999.2</ele>
        <time>2016-07-01T06:35:53Z</time>
      </trkpt>
      <trkpt lat="42.47882" lon="2.19384">
        <ele>1999.2</ele>
        <time>2016-07-01T06:35:54Z</time>
      </trkpt>
      <trkpt lat="42.47884" lon="2.19381">
        <ele>1998.24</ele>
        <time>2016-07-01T06:36:05Z</time>
      </trkpt>
      <trkpt lat="42.47886" lon="2.19381">
        <ele>1997.76</ele>
        <time>2016-07-01T06:36:07Z</time>
      </trkpt>
      <trkpt lat="42.47895" lon="2.19383">
        <ele>1996.8</ele>
        <time>2016-07-01T06:36:16Z</time>
      </trkpt>
      <trkpt lat="42.47898" lon="2.19383">
        <ele>1996.32</ele>
        <time>2016-07-01T06:36:18Z</time>
      </trkpt>
      <trkpt lat="42.47899" lon="2.19383">
        <ele>1995.83</ele>
        <time>2016-07-01T06:36:19Z</time>
      </trkpt>
      <trkpt lat="42.47903" lon="2.19384">
        <ele>1995.83</ele>
        <time>2016-07-01T06:36:22Z</time>
      </trkpt>
      <trkpt lat="42.47905" lon="2.19384">
        <ele>1995.35</ele>
        <time>2016-07-01T06:36:23Z</time>
      </trkpt>
      <trkpt lat="42.4792" lon="2.19386">
        <ele>1993.43</ele>
        <time>2016-07-01T06:36:33Z</time>
      </trkpt>
      <trkpt lat="42.47923" lon="2.19385">
        <ele>1993.43</ele>
        <time>2016-07-01T06:36:34Z</time>
      </trkpt>
      <trkpt lat="42.47925" lon="2.19385">
        <ele>1993.43</ele>
        <time>2016-07-01T06:36:35Z</time>
      </trkpt>
      <trkpt lat="42.47928" lon="2.19384">
        <ele>1993.43</ele>
        <time>2016-07-01T06:36:36Z</time>
      </trkpt>
      <trkpt lat="42.4793" lon="2.19384">
        <ele>1992.95</ele>
        <time>2016-07-01T06:36:37Z</time>
      </trkpt>
      <trkpt lat="42.47931" lon="2.19384">
        <ele>1992.95</ele>
        <time>2016-07-01T06:36:38Z</time>
      </trkpt>
      <trkpt lat="42.47933" lon="2.19382">
        <ele>1992.95</ele>
        <time>2016-07-01T06:36:39Z</time>
      </trkpt>
      <trkpt lat="42.47934" lon="2.19381">
        <ele>1992.95</ele>
        <time>2016-07-01T06:36:40Z</time>
      </trkpt>
      <trkpt lat="42.47935" lon="2.1938">
        <ele>1992.47</ele>
        <time>2016-07-01T06:36:41Z</time>
      </trkpt>
      <trkpt lat="42.47945" lon="2.19374">
        <ele>1991.99</ele>
        <time>2016-07-01T06:36:50Z</time>
      </trkpt>
      <trkpt lat="42.47948" lon="2.19373">
        <ele>1991.99</ele>
        <time>2016-07-01T06:36:52Z</time>
      </trkpt>
      <trkpt lat="42.4795" lon="2.19371">
        <ele>1991.99</ele>
        <time>2016-07-01T06:36:54Z</time>
      </trkpt>
      <trkpt lat="42.47951" lon="2.19371">
        <ele>1991.99</ele>
        <time>2016-07-01T06:36:55Z</time>
      </trkpt>
      <trkpt lat="42.47953" lon="2.1937">
        <ele>1991.99</ele>
        <time>2016-07-01T06:36:56Z</time>
      </trkpt>
      <trkpt lat="42.47954" lon="2.19369">
        <ele>1991.99</ele>
        <time>2016-07-01T06:36:57Z</time>
      </trkpt>
      <trkpt lat="42.47955" lon="2.19367">
        <ele>1991.99</ele>
        <time>2016-07-01T06:36:58Z</time>
      </trkpt>
      <trkpt lat="42.47956" lon="2.19365">
        <ele>1991.99</ele>
        <time>2016-07-01T06:36:59Z</time>
      </trkpt>
      <trkpt lat="42.47958" lon="2.19363">
        <ele>1991.51</ele>
        <time>2016-07-01T06:37:01Z</time>
      </trkpt>
      <trkpt lat="42.47958" lon="2.19362">
        <ele>1991.51</ele>
        <time>2016-07-01T06:37:02Z</time>
      </trkpt>
      <trkpt lat="42.47959" lon="2.1936">
        <ele>1991.51</ele>
        <time>2016-07-01T06:37:03Z</time>
      </trkpt>
      <trkpt lat="42.47969" lon="2.19353">
        <ele>1991.51</ele>
        <time>2016-07-01T06:37:11Z</time>
      </trkpt>
      <trkpt lat="42.4797" lon="2.19353">
        <ele>1991.51</ele>
        <time>2016-07-01T06:37:12Z</time>
      </trkpt>
      <trkpt lat="42.47971" lon="2.19352">
        <ele>1991.51</ele>
        <time>2016-07-01T06:37:13Z</time>
      </trkpt>
      <trkpt lat="42.47972" lon="2.19351">
        <ele>1991.51</ele>
        <time>2016-07-01T06:37:14Z</time>
      </trkpt>
      <trkpt lat="42.47974" lon="2.19349">
        <ele>1991.51</ele>
        <time>2016-07-01T06:37:15Z</time>
      </trkpt>
      <trkpt lat="42.47983" lon="2.19342">
        <ele>1992.95</ele>
        <time>2016-07-01T06:37:24Z</time>
      </trkpt>
      <trkpt lat="42.47995" lon="2.19332">
        <ele>1993.43</ele>
        <time>2016-07-01T06:37:37Z</time>
      </trkpt>
      <trkpt lat="42.47998" lon="2.19331">
        <ele>1994.87</ele>
        <time>2016-07-01T06:37:44Z</time>
      </trkpt>
      <trkpt lat="42.48001" lon="2.1933">
        <ele>1995.35</ele>
        <time>2016-07-01T06:37:49Z</time>
      </trkpt>
      <trkpt lat="42.4801" lon="2.19323">
        <ele>1996.8</ele>
        <time>2016-07-01T06:37:59Z</time>
      </trkpt>
      <trkpt lat="42.48018" lon="2.19326">
        <ele>1998.72</ele>
        <time>2016-07-01T06:38:09Z</time>
      </trkpt>
      <trkpt lat="42.48019" lon="2.19329">
        <ele>1999.2</ele>
        <time>2016-07-01T06:38:13Z</time>
      </trkpt>
      <trkpt lat="42.48022" lon="2.19325">
        <ele>1999.68</ele>
        <time>2016-07-01T06:38:18Z</time>
      </trkpt>
      <trkpt lat="42.48024" lon="2.19317">
        <ele>2000.16</ele>
        <time>2016-07-01T06:38:23Z</time>
      </trkpt>
      <trkpt lat="42.48032" lon="2.19305">
        <ele>2000.16</ele>
        <time>2016-07-01T06:38:33Z</time>
      </trkpt>
      <trkpt lat="42.48039" lon="2.193">
        <ele>2000.16</ele>
        <time>2016-07-01T06:38:40Z</time>
      </trkpt>
      <trkpt lat="42.4805" lon="2.19283">
        <ele>2000.16</ele>
        <time>2016-07-01T06:38:52Z</time>
      </trkpt>
      <trkpt lat="42.48064" lon="2.19278">
        <ele>1997.76</ele>
        <time>2016-07-01T06:39:03Z</time>
      </trkpt>
      <trkpt lat="42.48069" lon="2.19277">
        <ele>1997.28</ele>
        <time>2016-07-01T06:39:06Z</time>
      </trkpt>
      <trkpt lat="42.4808" lon="2.19271">
        <ele>1995.35</ele>
        <time>2016-07-01T06:39:18Z</time>
      </trkpt>
      <trkpt lat="42.48096" lon="2.19259">
        <ele>1993.91</ele>
        <time>2016-07-01T06:39:30Z</time>
      </trkpt>
      <trkpt lat="42.48107" lon="2.19252">
        <ele>1992.47</ele>
        <time>2016-07-01T06:39:40Z</time>
      </trkpt>
      <trkpt lat="42.48109" lon="2.19249">
        <ele>1991.99</ele>
        <time>2016-07-01T06:39:43Z</time>
      </trkpt>
      <trkpt lat="42.48123" lon="2.19248">
        <ele>1991.03</ele>
        <time>2016-07-01T06:39:55Z</time>
      </trkpt>
      <trkpt lat="42.48134" lon="2.19244">
        <ele>1990.07</ele>
        <time>2016-07-01T06:40:06Z</time>
      </trkpt>
      <trkpt lat="42.48134" lon="2.19245">
        <ele>1990.07</ele>
        <time>2016-07-01T06:40:07Z</time>
      </trkpt>
      <trkpt lat="42.48151" lon="2.1925">
        <ele>1989.59</ele>
        <time>2016-07-01T06:40:19Z</time>
      </trkpt>
      <trkpt lat="42.4817" lon="2.19248">
        <ele>1987.66</ele>
        <time>2016-07-01T06:40:32Z</time>
      </trkpt>
      <trkpt lat="42.48181" lon="2.19244">
        <ele>1986.7</ele>
        <time>2016-07-01T06:40:39Z</time>
      </trkpt>
      <trkpt lat="42.48186" lon="2.19238">
        <ele>1986.7</ele>
        <time>2016-07-01T06:40:43Z</time>
      </trkpt>
      <trkpt lat="42.48191" lon="2.19233">
        <ele>1985.74</ele>
        <time>2016-07-01T06:40:47Z</time>
      </trkpt>
      <trkpt lat="42.48193" lon="2.19227">
        <ele>1985.26</ele>
        <time>2016-07-01T06:40:51Z</time>
      </trkpt>
      <trkpt lat="42.482" lon="2.19213">
        <ele>1983.82</ele>
        <time>2016-07-01T06:40:59Z</time>
      </trkpt>
      <trkpt lat="42.48213" lon="2.19197">
        <ele>1981.41</ele>
        <time>2016-07-01T06:41:11Z</time>
      </trkpt>
      <trkpt lat="42.48215" lon="2.19195">
        <ele>1981.41</ele>
        <time>2016-07-01T06:41:13Z</time>
      </trkpt>
      <trkpt lat="42.48218" lon="2.19187">
        <ele>1979.97</ele>
        <time>2016-07-01T06:41:17Z</time>
      </trkpt>
      <trkpt lat="42.48219" lon="2.19185">
        <ele>1979.97</ele>
        <time>2016-07-01T06:41:18Z</time>
      </trkpt>
      <trkpt lat="42.4822" lon="2.19184">
        <ele>1979.97</ele>
        <time>2016-07-01T06:41:19Z</time>
      </trkpt>
      <trkpt lat="42.48221" lon="2.19182">
        <ele>1979.49</ele>
        <time>2016-07-01T06:41:20Z</time>
      </trkpt>
      <trkpt lat="42.48223" lon="2.19181">
        <ele>1979.49</ele>
        <time>2016-07-01T06:41:21Z</time>
      </trkpt>
      <trkpt lat="42.48226" lon="2.19177">
        <ele>1979.01</ele>
        <time>2016-07-01T06:41:24Z</time>
      </trkpt>
      <trkpt lat="42.48226" lon="2.19175">
        <ele>1979.01</ele>
        <time>2016-07-01T06:41:25Z</time>
      </trkpt>
      <trkpt lat="42.48227" lon="2.19171">
        <ele>1978.53</ele>
        <time>2016-07-01T06:41:27Z</time>
      </trkpt>
      <trkpt lat="42.48228" lon="2.1917">
        <ele>1978.53</ele>
        <time>2016-07-01T06:41:28Z</time>
      </trkpt>
      <trkpt lat="42.48228" lon="2.19169">
        <ele>1978.53</ele>
        <time>2016-07-01T06:41:29Z</time>
      </trkpt>
      <trkpt lat="42.48229" lon="2.19168">
        <ele>1978.53</ele>
        <time>2016-07-01T06:41:30Z</time>
      </trkpt>
      <trkpt lat="42.4823" lon="2.19167">
        <ele>1978.05</ele>
        <time>2016-07-01T06:41:31Z</time>
      </trkpt>
      <trkpt lat="42.48236" lon="2.19163">
        <ele>1977.57</ele>
        <time>2016-07-01T06:41:36Z</time>
      </trkpt>
      <trkpt lat="42.48238" lon="2.19162">
        <ele>1977.57</ele>
        <time>2016-07-01T06:41:37Z</time>
      </trkpt>
      <trkpt lat="42.48254" lon="2.19154">
        <ele>1976.13</ele>
        <time>2016-07-01T06:41:49Z</time>
      </trkpt>
      <trkpt lat="42.48267" lon="2.19153">
        <ele>1976.13</ele>
        <time>2016-07-01T06:41:58Z</time>
      </trkpt>
      <trkpt lat="42.48268" lon="2.19153">
        <ele>1976.13</ele>
        <time>2016-07-01T06:41:59Z</time>
      </trkpt>
      <trkpt lat="42.4828" lon="2.19156">
        <ele>1976.13</ele>
        <time>2016-07-01T06:42:09Z</time>
      </trkpt>
      <trkpt lat="42.48289" lon="2.19155">
        <ele>1977.57</ele>
        <time>2016-07-01T06:42:17Z</time>
      </trkpt>
      <trkpt lat="42.483" lon="2.19153">
        <ele>1979.49</ele>
        <time>2016-07-01T06:42:28Z</time>
      </trkpt>
      <trkpt lat="42.48309" lon="2.19152">
        <ele>1979.97</ele>
        <time>2016-07-01T06:42:37Z</time>
      </trkpt>
      <trkpt lat="42.48321" lon="2.19149">
        <ele>1979.49</ele>
        <time>2016-07-01T06:42:45Z</time>
      </trkpt>
      <trkpt lat="42.48328" lon="2.19147">
        <ele>1979.49</ele>
        <time>2016-07-01T06:42:50Z</time>
      </trkpt>
      <trkpt lat="42.48339" lon="2.19141">
        <ele>1977.09</ele>
        <time>2016-07-01T06:43:00Z</time>
      </trkpt>
      <trkpt lat="42.4834" lon="2.1914">
        <ele>1975.65</ele>
        <time>2016-07-01T06:43:01Z</time>
      </trkpt>
      <trkpt lat="42.48341" lon="2.19138">
        <ele>1975.17</ele>
        <time>2016-07-01T06:43:02Z</time>
      </trkpt>
      <trkpt lat="42.48342" lon="2.19136">
        <ele>1973.24</ele>
        <time>2016-07-01T06:43:04Z</time>
      </trkpt>
      <trkpt lat="42.48344" lon="2.19135">
        <ele>1971.32</ele>
        <time>2016-07-01T06:43:06Z</time>
      </trkpt>
      <trkpt lat="42.48347" lon="2.19132">
        <ele>1969.4</ele>
        <time>2016-07-01T06:43:09Z</time>
      </trkpt>
      <trkpt lat="42.48348" lon="2.1913">
        <ele>1969.4</ele>
        <time>2016-07-01T06:43:10Z</time>
      </trkpt>
      <trkpt lat="42.48348" lon="2.19129">
        <ele>1968.92</ele>
        <time>2016-07-01T06:43:11Z</time>
      </trkpt>
      <trkpt lat="42.48348" lon="2.19127">
        <ele>1968.92</ele>
        <time>2016-07-01T06:43:12Z</time>
      </trkpt>
      <trkpt lat="42.48348" lon="2.19126">
        <ele>1968.92</ele>
        <time>2016-07-01T06:43:13Z</time>
      </trkpt>
      <trkpt lat="42.48349" lon="2.19125">
        <ele>1968.92</ele>
        <time>2016-07-01T06:43:14Z</time>
      </trkpt>
      <trkpt lat="42.4835" lon="2.19124">
        <ele>1968.92</ele>
        <time>2016-07-01T06:43:15Z</time>
      </trkpt>
      <trkpt lat="42.48351" lon="2.19123">
        <ele>1968.92</ele>
        <time>2016-07-01T06:43:16Z</time>
      </trkpt>
      <trkpt lat="42.48351" lon="2.19121">
        <ele>1968.92</ele>
        <time>2016-07-01T06:43:17Z</time>
      </trkpt>
      <trkpt lat="42.48354" lon="2.19118">
        <ele>1968.44</ele>
        <time>2016-07-01T06:43:20Z</time>
      </trkpt>
      <trkpt lat="42.48355" lon="2.19117">
        <ele>1968.44</ele>
        <time>2016-07-01T06:43:21Z</time>
      </trkpt>
      <trkpt lat="42.48355" lon="2.19115">
        <ele>1968.44</ele>
        <time>2016-07-01T06:43:22Z</time>
      </trkpt>
      <trkpt lat="42.48354" lon="2.19114">
        <ele>1968.44</ele>
        <time>2016-07-01T06:43:23Z</time>
      </trkpt>
      <trkpt lat="42.48358" lon="2.19108">
        <ele>1966.99</ele>
        <time>2016-07-01T06:43:29Z</time>
      </trkpt>
      <trkpt lat="42.48358" lon="2.19107">
        <ele>1966.51</ele>
        <time>2016-07-01T06:43:30Z</time>
      </trkpt>
      <trkpt lat="42.48361" lon="2.19103">
        <ele>1966.03</ele>
        <time>2016-07-01T06:43:34Z</time>
      </trkpt>
      <trkpt lat="42.48362" lon="2.19102">
        <ele>1965.55</ele>
        <time>2016-07-01T06:43:35Z</time>
      </trkpt>
      <trkpt lat="42.48362" lon="2.191">
        <ele>1965.55</ele>
        <time>2016-07-01T06:43:36Z</time>
      </trkpt>
      <trkpt lat="42.48362" lon="2.19098">
        <ele>1965.07</ele>
        <time>2016-07-01T06:43:37Z</time>
      </trkpt>
      <trkpt lat="42.48363" lon="2.19097">
        <ele>1965.07</ele>
        <time>2016-07-01T06:43:38Z</time>
      </trkpt>
      <trkpt lat="42.48362" lon="2.19094">
        <ele>1963.15</ele>
        <time>2016-07-01T06:43:40Z</time>
      </trkpt>
      <trkpt lat="42.48362" lon="2.19092">
        <ele>1962.19</ele>
        <time>2016-07-01T06:43:41Z</time>
      </trkpt>
      <trkpt lat="42.48362" lon="2.19091">
        <ele>1961.71</ele>
        <time>2016-07-01T06:43:42Z</time>
      </trkpt>
      <trkpt lat="42.48362" lon="2.19089">
        <ele>1960.75</ele>
        <time>2016-07-01T06:43:43Z</time>
      </trkpt>
      <trkpt lat="42.48362" lon="2.19087">
        <ele>1959.78</ele>
        <time>2016-07-01T06:43:44Z</time>
      </trkpt>
      <trkpt lat="42.48363" lon="2.19086">
        <ele>1959.3</ele>
        <time>2016-07-01T06:43:45Z</time>
      </trkpt>
      <trkpt lat="42.48363" lon="2.19084">
        <ele>1958.34</ele>
        <time>2016-07-01T06:43:46Z</time>
      </trkpt>
      <trkpt lat="42.48363" lon="2.19082">
        <ele>1957.86</ele>
        <time>2016-07-01T06:43:47Z</time>
      </trkpt>
      <trkpt lat="42.48365" lon="2.19079">
        <ele>1957.38</ele>
        <time>2016-07-01T06:43:50Z</time>
      </trkpt>
      <trkpt lat="42.48366" lon="2.19077">
        <ele>1956.9</ele>
        <time>2016-07-01T06:43:51Z</time>
      </trkpt>
      <trkpt lat="42.48366" lon="2.19076">
        <ele>1956.9</ele>
        <time>2016-07-01T06:43:52Z</time>
      </trkpt>
      <trkpt lat="42.48366" lon="2.19074">
        <ele>1956.9</ele>
        <time>2016-07-01T06:43:53Z</time>
      </trkpt>
      <trkpt lat="42.48366" lon="2.19072">
        <ele>1956.9</ele>
        <time>2016-07-01T06:43:54Z</time>
      </trkpt>
      <trkpt lat="42.48367" lon="2.1907">
        <ele>1956.9</ele>
        <time>2016-07-01T06:43:56Z</time>
      </trkpt>
      <trkpt lat="42.48367" lon="2.19068">
        <ele>1956.9</ele>
        <time>2016-07-01T06:43:57Z</time>
      </trkpt>
      <trkpt lat="42.48367" lon="2.19066">
        <ele>1956.9</ele>
        <time>2016-07-01T06:43:58Z</time>
      </trkpt>
      <trkpt lat="42.48368" lon="2.19065">
        <ele>1956.9</ele>
        <time>2016-07-01T06:43:59Z</time>
      </trkpt>
      <trkpt lat="42.48368" lon="2.19064">
        <ele>1956.9</ele>
        <time>2016-07-01T06:44:00Z</time>
      </trkpt>
      <trkpt lat="42.48368" lon="2.19062">
        <ele>1956.9</ele>
        <time>2016-07-01T06:44:01Z</time>
      </trkpt>
      <trkpt lat="42.48368" lon="2.1906">
        <ele>1956.9</ele>
        <time>2016-07-01T06:44:02Z</time>
      </trkpt>
      <trkpt lat="42.48369" lon="2.19059">
        <ele>1956.9</ele>
        <time>2016-07-01T06:44:03Z</time>
      </trkpt>
      <trkpt lat="42.48371" lon="2.19057">
        <ele>1956.42</ele>
        <time>2016-07-01T06:44:05Z</time>
      </trkpt>
      <trkpt lat="42.48371" lon="2.19056">
        <ele>1955.94</ele>
        <time>2016-07-01T06:44:06Z</time>
      </trkpt>
      <trkpt lat="42.48372" lon="2.19055">
        <ele>1955.46</ele>
        <time>2016-07-01T06:44:07Z</time>
      </trkpt>
      <trkpt lat="42.48373" lon="2.19053">
        <ele>1955.46</ele>
        <time>2016-07-01T06:44:08Z</time>
      </trkpt>
      <trkpt lat="42.48373" lon="2.19051">
        <ele>1955.46</ele>
        <time>2016-07-01T06:44:09Z</time>
      </trkpt>
      <trkpt lat="42.48373" lon="2.1905">
        <ele>1954.98</ele>
        <time>2016-07-01T06:44:10Z</time>
      </trkpt>
      <trkpt lat="42.48375" lon="2.19049">
        <ele>1954.98</ele>
        <time>2016-07-01T06:44:11Z</time>
      </trkpt>
      <trkpt lat="42.48376" lon="2.19047">
        <ele>1954.5</ele>
        <time>2016-07-01T06:44:13Z</time>
      </trkpt>
      <trkpt lat="42.48376" lon="2.19045">
        <ele>1954.5</ele>
        <time>2016-07-01T06:44:14Z</time>
      </trkpt>
      <trkpt lat="42.48377" lon="2.19045">
        <ele>1954.02</ele>
        <time>2016-07-01T06:44:15Z</time>
      </trkpt>
      <trkpt lat="42.48378" lon="2.19044">
        <ele>1954.02</ele>
        <time>2016-07-01T06:44:16Z</time>
      </trkpt>
      <trkpt lat="42.48379" lon="2.19042">
        <ele>1953.06</ele>
        <time>2016-07-01T06:44:17Z</time>
      </trkpt>
      <trkpt lat="42.4838" lon="2.19041">
        <ele>1953.54</ele>
        <time>2016-07-01T06:44:18Z</time>
      </trkpt>
      <trkpt lat="42.4838" lon="2.1904">
        <ele>1952.09</ele>
        <time>2016-07-01T06:44:19Z</time>
      </trkpt>
      <trkpt lat="42.48382" lon="2.19038">
        <ele>1950.65</ele>
        <time>2016-07-01T06:44:21Z</time>
      </trkpt>
      <trkpt lat="42.48384" lon="2.19034">
        <ele>1946.81</ele>
        <time>2016-07-01T06:44:25Z</time>
      </trkpt>
      <trkpt lat="42.48385" lon="2.1903">
        <ele>1945.85</ele>
        <time>2016-07-01T06:44:28Z</time>
      </trkpt>
      <trkpt lat="42.48385" lon="2.19029">
        <ele>1944.88</ele>
        <time>2016-07-01T06:44:29Z</time>
      </trkpt>
      <trkpt lat="42.48393" lon="2.19021">
        <ele>1944.4</ele>
        <time>2016-07-01T06:44:40Z</time>
      </trkpt>
      <trkpt lat="42.48394" lon="2.19019">
        <ele>1943.92</ele>
        <time>2016-07-01T06:44:43Z</time>
      </trkpt>
      <trkpt lat="42.48395" lon="2.19014">
        <ele>1943.44</ele>
        <time>2016-07-01T06:44:48Z</time>
      </trkpt>
      <trkpt lat="42.48396" lon="2.19011">
        <ele>1942.96</ele>
        <time>2016-07-01T06:44:51Z</time>
      </trkpt>
      <trkpt lat="42.48396" lon="2.1901">
        <ele>1942.96</ele>
        <time>2016-07-01T06:44:52Z</time>
      </trkpt>
      <trkpt lat="42.48397" lon="2.19009">
        <ele>1942</ele>
        <time>2016-07-01T06:44:53Z</time>
      </trkpt>
      <trkpt lat="42.48398" lon="2.19007">
        <ele>1941.52</ele>
        <time>2016-07-01T06:44:55Z</time>
      </trkpt>
      <trkpt lat="42.48399" lon="2.19005">
        <ele>1938.64</ele>
        <time>2016-07-01T06:45:00Z</time>
      </trkpt>
      <trkpt lat="42.48402" lon="2.18997">
        <ele>1935.75</ele>
        <time>2016-07-01T06:45:08Z</time>
      </trkpt>
      <trkpt lat="42.48402" lon="2.18994">
        <ele>1935.75</ele>
        <time>2016-07-01T06:45:11Z</time>
      </trkpt>
      <trkpt lat="42.48402" lon="2.1899">
        <ele>1935.27</ele>
        <time>2016-07-01T06:45:14Z</time>
      </trkpt>
      <trkpt lat="42.48405" lon="2.18989">
        <ele>1934.79</ele>
        <time>2016-07-01T06:45:17Z</time>
      </trkpt>
      <trkpt lat="42.48408" lon="2.18987">
        <ele>1934.31</ele>
        <time>2016-07-01T06:45:20Z</time>
      </trkpt>
      <trkpt lat="42.4841" lon="2.18981">
        <ele>1933.35</ele>
        <time>2016-07-01T06:45:25Z</time>
      </trkpt>
      <trkpt lat="42.48414" lon="2.18975">
        <ele>1929.98</ele>
        <time>2016-07-01T06:45:32Z</time>
      </trkpt>
      <trkpt lat="42.48415" lon="2.18974">
        <ele>1929.02</ele>
        <time>2016-07-01T06:45:33Z</time>
      </trkpt>
      <trkpt lat="42.48416" lon="2.18971">
        <ele>1926.14</ele>
        <time>2016-07-01T06:45:37Z</time>
      </trkpt>
      <trkpt lat="42.48427" lon="2.18965">
        <ele>1924.22</ele>
        <time>2016-07-01T06:45:49Z</time>
      </trkpt>
      <trkpt lat="42.48433" lon="2.18957">
        <ele>1923.25</ele>
        <time>2016-07-01T06:45:59Z</time>
      </trkpt>
      <trkpt lat="42.48437" lon="2.18954">
        <ele>1922.29</ele>
        <time>2016-07-01T06:46:03Z</time>
      </trkpt>
      <trkpt lat="42.48449" lon="2.18951">
        <ele>1918.93</ele>
        <time>2016-07-01T06:46:12Z</time>
      </trkpt>
      <trkpt lat="42.4845" lon="2.18951">
        <ele>1917.97</ele>
        <time>2016-07-01T06:46:13Z</time>
      </trkpt>
      <trkpt lat="42.48452" lon="2.18949">
        <ele>1916.53</ele>
        <time>2016-07-01T06:46:15Z</time>
      </trkpt>
      <trkpt lat="42.48455" lon="2.18941">
        <ele>1913.64</ele>
        <time>2016-07-01T06:46:20Z</time>
      </trkpt>
      <trkpt lat="42.48456" lon="2.18934">
        <ele>1914.12</ele>
        <time>2016-07-01T06:46:25Z</time>
      </trkpt>
      <trkpt lat="42.48462" lon="2.18928">
        <ele>1913.64</ele>
        <time>2016-07-01T06:46:31Z</time>
      </trkpt>
      <trkpt lat="42.48462" lon="2.18926">
        <ele>1913.64</ele>
        <time>2016-07-01T06:46:32Z</time>
      </trkpt>
      <trkpt lat="42.48462" lon="2.18925">
        <ele>1912.68</ele>
        <time>2016-07-01T06:46:33Z</time>
      </trkpt>
      <trkpt lat="42.48463" lon="2.18923">
        <ele>1912.68</ele>
        <time>2016-07-01T06:46:34Z</time>
      </trkpt>
      <trkpt lat="42.48464" lon="2.18922">
        <ele>1912.2</ele>
        <time>2016-07-01T06:46:36Z</time>
      </trkpt>
      <trkpt lat="42.48468" lon="2.18921">
        <ele>1912.2</ele>
        <time>2016-07-01T06:46:38Z</time>
      </trkpt>
      <trkpt lat="42.48469" lon="2.1892">
        <ele>1912.2</ele>
        <time>2016-07-01T06:46:39Z</time>
      </trkpt>
      <trkpt lat="42.4847" lon="2.18919">
        <ele>1911.72</ele>
        <time>2016-07-01T06:46:40Z</time>
      </trkpt>
      <trkpt lat="42.48472" lon="2.18917">
        <ele>1911.72</ele>
        <time>2016-07-01T06:46:42Z</time>
      </trkpt>
      <trkpt lat="42.48474" lon="2.18916">
        <ele>1911.24</ele>
        <time>2016-07-01T06:46:43Z</time>
      </trkpt>
      <trkpt lat="42.48475" lon="2.18914">
        <ele>1911.24</ele>
        <time>2016-07-01T06:46:44Z</time>
      </trkpt>
      <trkpt lat="42.48475" lon="2.18913">
        <ele>1911.24</ele>
        <time>2016-07-01T06:46:45Z</time>
      </trkpt>
      <trkpt lat="42.48476" lon="2.18911">
        <ele>1910.76</ele>
        <time>2016-07-01T06:46:46Z</time>
      </trkpt>
      <trkpt lat="42.48478" lon="2.18911">
        <ele>1910.76</ele>
        <time>2016-07-01T06:46:47Z</time>
      </trkpt>
      <trkpt lat="42.4848" lon="2.18911">
        <ele>1910.76</ele>
        <time>2016-07-01T06:46:48Z</time>
      </trkpt>
      <trkpt lat="42.48482" lon="2.18911">
        <ele>1910.28</ele>
        <time>2016-07-01T06:46:49Z</time>
      </trkpt>
      <trkpt lat="42.48482" lon="2.1891">
        <ele>1910.28</ele>
        <time>2016-07-01T06:46:50Z</time>
      </trkpt>
      <trkpt lat="42.4849" lon="2.18907">
        <ele>1909.8</ele>
        <time>2016-07-01T06:46:56Z</time>
      </trkpt>
      <trkpt lat="42.485" lon="2.18908">
        <ele>1909.32</ele>
        <time>2016-07-01T06:47:01Z</time>
      </trkpt>
      <trkpt lat="42.48509" lon="2.189">
        <ele>1907.87</ele>
        <time>2016-07-01T06:47:10Z</time>
      </trkpt>
      <trkpt lat="42.4851" lon="2.18899">
        <ele>1907.87</ele>
        <time>2016-07-01T06:47:11Z</time>
      </trkpt>
      <trkpt lat="42.48512" lon="2.18897">
        <ele>1907.87</ele>
        <time>2016-07-01T06:47:13Z</time>
      </trkpt>
      <trkpt lat="42.48514" lon="2.18897">
        <ele>1907.39</ele>
        <time>2016-07-01T06:47:14Z</time>
      </trkpt>
      <trkpt lat="42.48515" lon="2.18897">
        <ele>1907.39</ele>
        <time>2016-07-01T06:47:15Z</time>
      </trkpt>
      <trkpt lat="42.48517" lon="2.18898">
        <ele>1907.39</ele>
        <time>2016-07-01T06:47:16Z</time>
      </trkpt>
      <trkpt lat="42.48519" lon="2.18898">
        <ele>1907.39</ele>
        <time>2016-07-01T06:47:17Z</time>
      </trkpt>
      <trkpt lat="42.4852" lon="2.18899">
        <ele>1907.39</ele>
        <time>2016-07-01T06:47:18Z</time>
      </trkpt>
      <trkpt lat="42.48527" lon="2.1889">
        <ele>1907.39</ele>
        <time>2016-07-01T06:47:28Z</time>
      </trkpt>
      <trkpt lat="42.48536" lon="2.18883">
        <ele>1906.91</ele>
        <time>2016-07-01T06:47:37Z</time>
      </trkpt>
      <trkpt lat="42.48538" lon="2.18871">
        <ele>1906.91</ele>
        <time>2016-07-01T06:47:46Z</time>
      </trkpt>
      <trkpt lat="42.48546" lon="2.1887">
        <ele>1906.91</ele>
        <time>2016-07-01T06:47:52Z</time>
      </trkpt>
      <trkpt lat="42.48548" lon="2.1887">
        <ele>1906.91</ele>
        <time>2016-07-01T06:47:53Z</time>
      </trkpt>
      <trkpt lat="42.48563" lon="2.1887">
        <ele>1906.91</ele>
        <time>2016-07-01T06:48:05Z</time>
      </trkpt>
      <trkpt lat="42.48572" lon="2.1887">
        <ele>1906.43</ele>
        <time>2016-07-01T06:48:12Z</time>
      </trkpt>
      <trkpt lat="42.48583" lon="2.18872">
        <ele>1905.95</ele>
        <time>2016-07-01T06:48:22Z</time>
      </trkpt>
      <trkpt lat="42.48594" lon="2.18877">
        <ele>1905.47</ele>
        <time>2016-07-01T06:48:32Z</time>
      </trkpt>
      <trkpt lat="42.48605" lon="2.18878">
        <ele>1904.51</ele>
        <time>2016-07-01T06:48:41Z</time>
      </trkpt>
      <trkpt lat="42.48616" lon="2.18877">
        <ele>1904.51</ele>
        <time>2016-07-01T06:48:49Z</time>
      </trkpt>
      <trkpt lat="42.48618" lon="2.18876">
        <ele>1904.51</ele>
        <time>2016-07-01T06:48:50Z</time>
      </trkpt>
      <trkpt lat="42.4862" lon="2.18876">
        <ele>1904.51</ele>
        <time>2016-07-01T06:48:51Z</time>
      </trkpt>
      <trkpt lat="42.48621" lon="2.18875">
        <ele>1904.51</ele>
        <time>2016-07-01T06:48:52Z</time>
      </trkpt>
      <trkpt lat="42.48628" lon="2.1887">
        <ele>1904.51</ele>
        <time>2016-07-01T06:48:58Z</time>
      </trkpt>
      <trkpt lat="42.48629" lon="2.18869">
        <ele>1904.03</ele>
        <time>2016-07-01T06:48:59Z</time>
      </trkpt>
      <trkpt lat="42.48632" lon="2.18865">
        <ele>1903.55</ele>
        <time>2016-07-01T06:49:03Z</time>
      </trkpt>
      <trkpt lat="42.48633" lon="2.18864">
        <ele>1903.55</ele>
        <time>2016-07-01T06:49:04Z</time>
      </trkpt>
      <trkpt lat="42.48634" lon="2.18862">
        <ele>1903.07</ele>
        <time>2016-07-01T06:49:06Z</time>
      </trkpt>
      <trkpt lat="42.48636" lon="2.18861">
        <ele>1903.07</ele>
        <time>2016-07-01T06:49:07Z</time>
      </trkpt>
      <trkpt lat="42.48637" lon="2.18858">
        <ele>1902.11</ele>
        <time>2016-07-01T06:49:10Z</time>
      </trkpt>
      <trkpt lat="42.48638" lon="2.18856">
        <ele>1901.63</ele>
        <time>2016-07-01T06:49:12Z</time>
      </trkpt>
      <trkpt lat="42.4864" lon="2.18855">
        <ele>1901.63</ele>
        <time>2016-07-01T06:49:13Z</time>
      </trkpt>
      <trkpt lat="42.4864" lon="2.18854">
        <ele>1901.14</ele>
        <time>2016-07-01T06:49:14Z</time>
      </trkpt>
      <trkpt lat="42.48641" lon="2.18851">
        <ele>1900.66</ele>
        <time>2016-07-01T06:49:16Z</time>
      </trkpt>
      <trkpt lat="42.48642" lon="2.18851">
        <ele>1900.66</ele>
        <time>2016-07-01T06:49:17Z</time>
      </trkpt>
      <trkpt lat="42.48643" lon="2.18849">
        <ele>1899.7</ele>
        <time>2016-07-01T06:49:19Z</time>
      </trkpt>
      <trkpt lat="42.48643" lon="2.18848">
        <ele>1899.22</ele>
        <time>2016-07-01T06:49:20Z</time>
      </trkpt>
      <trkpt lat="42.48645" lon="2.18846">
        <ele>1896.34</ele>
        <time>2016-07-01T06:49:24Z</time>
      </trkpt>
      <trkpt lat="42.48645" lon="2.18844">
        <ele>1895.38</ele>
        <time>2016-07-01T06:49:25Z</time>
      </trkpt>
      <trkpt lat="42.48645" lon="2.18842">
        <ele>1894.9</ele>
        <time>2016-07-01T06:49:26Z</time>
      </trkpt>
      <trkpt lat="42.48647" lon="2.1884">
        <ele>1893.45</ele>
        <time>2016-07-01T06:49:28Z</time>
      </trkpt>
      <trkpt lat="42.48648" lon="2.18839">
        <ele>1893.93</ele>
        <time>2016-07-01T06:49:29Z</time>
      </trkpt>
      <trkpt lat="42.48648" lon="2.18838">
        <ele>1892.97</ele>
        <time>2016-07-01T06:49:30Z</time>
      </trkpt>
      <trkpt lat="42.4865" lon="2.18833">
        <ele>1892.49</ele>
        <time>2016-07-01T06:49:34Z</time>
      </trkpt>
      <trkpt lat="42.4865" lon="2.18832">
        <ele>1892.49</ele>
        <time>2016-07-01T06:49:35Z</time>
      </trkpt>
      <trkpt lat="42.48651" lon="2.18831">
        <ele>1892.49</ele>
        <time>2016-07-01T06:49:36Z</time>
      </trkpt>
      <trkpt lat="42.48653" lon="2.18824">
        <ele>1892.01</ele>
        <time>2016-07-01T06:49:40Z</time>
      </trkpt>
      <trkpt lat="42.48653" lon="2.18822">
        <ele>1892.01</ele>
        <time>2016-07-01T06:49:41Z</time>
      </trkpt>
      <trkpt lat="42.48654" lon="2.18821">
        <ele>1892.01</ele>
        <time>2016-07-01T06:49:42Z</time>
      </trkpt>
      <trkpt lat="42.48655" lon="2.1882">
        <ele>1891.53</ele>
        <time>2016-07-01T06:49:43Z</time>
      </trkpt>
      <trkpt lat="42.48655" lon="2.18818">
        <ele>1891.53</ele>
        <time>2016-07-01T06:49:44Z</time>
      </trkpt>
      <trkpt lat="42.48655" lon="2.18817">
        <ele>1891.53</ele>
        <time>2016-07-01T06:49:45Z</time>
      </trkpt>
      <trkpt lat="42.48656" lon="2.18815">
        <ele>1890.57</ele>
        <time>2016-07-01T06:49:46Z</time>
      </trkpt>
      <trkpt lat="42.48657" lon="2.18814">
        <ele>1890.57</ele>
        <time>2016-07-01T06:49:47Z</time>
      </trkpt>
      <trkpt lat="42.48657" lon="2.18812">
        <ele>1890.57</ele>
        <time>2016-07-01T06:49:48Z</time>
      </trkpt>
      <trkpt lat="42.48657" lon="2.18811">
        <ele>1890.09</ele>
        <time>2016-07-01T06:49:49Z</time>
      </trkpt>
      <trkpt lat="42.48659" lon="2.18806">
        <ele>1888.17</ele>
        <time>2016-07-01T06:49:53Z</time>
      </trkpt>
      <trkpt lat="42.48662" lon="2.18802">
        <ele>1885.28</ele>
        <time>2016-07-01T06:49:57Z</time>
      </trkpt>
      <trkpt lat="42.48662" lon="2.188">
        <ele>1884.8</ele>
        <time>2016-07-01T06:49:58Z</time>
      </trkpt>
      <trkpt lat="42.48663" lon="2.18799">
        <ele>1884.8</ele>
        <time>2016-07-01T06:49:59Z</time>
      </trkpt>
      <trkpt lat="42.48664" lon="2.18796">
        <ele>1883.36</ele>
        <time>2016-07-01T06:50:01Z</time>
      </trkpt>
      <trkpt lat="42.48664" lon="2.18795">
        <ele>1883.84</ele>
        <time>2016-07-01T06:50:02Z</time>
      </trkpt>
      <trkpt lat="42.48665" lon="2.18793">
        <ele>1883.84</ele>
        <time>2016-07-01T06:50:03Z</time>
      </trkpt>
      <trkpt lat="42.48665" lon="2.18792">
        <ele>1883.84</ele>
        <time>2016-07-01T06:50:04Z</time>
      </trkpt>
      <trkpt lat="42.48666" lon="2.1879">
        <ele>1883.84</ele>
        <time>2016-07-01T06:50:05Z</time>
      </trkpt>
      <trkpt lat="42.48667" lon="2.18788">
        <ele>1883.84</ele>
        <time>2016-07-01T06:50:06Z</time>
      </trkpt>
      <trkpt lat="42.48668" lon="2.18785">
        <ele>1883.84</ele>
        <time>2016-07-01T06:50:08Z</time>
      </trkpt>
      <trkpt lat="42.48669" lon="2.18783">
        <ele>1882.88</ele>
        <time>2016-07-01T06:50:09Z</time>
      </trkpt>
      <trkpt lat="42.4867" lon="2.1878">
        <ele>1882.88</ele>
        <time>2016-07-01T06:50:11Z</time>
      </trkpt>
      <trkpt lat="42.48671" lon="2.18779">
        <ele>1882.88</ele>
        <time>2016-07-01T06:50:12Z</time>
      </trkpt>
      <trkpt lat="42.48671" lon="2.18776">
        <ele>1882.4</ele>
        <time>2016-07-01T06:50:14Z</time>
      </trkpt>
      <trkpt lat="42.48672" lon="2.18774">
        <ele>1882.4</ele>
        <time>2016-07-01T06:50:15Z</time>
      </trkpt>
      <trkpt lat="42.48674" lon="2.18772">
        <ele>1882.4</ele>
        <time>2016-07-01T06:50:17Z</time>
      </trkpt>
      <trkpt lat="42.48675" lon="2.18771">
        <ele>1882.4</ele>
        <time>2016-07-01T06:50:18Z</time>
      </trkpt>
      <trkpt lat="42.48678" lon="2.18767">
        <ele>1881.92</ele>
        <time>2016-07-01T06:50:21Z</time>
      </trkpt>
      <trkpt lat="42.48682" lon="2.18764">
        <ele>1881.44</ele>
        <time>2016-07-01T06:50:24Z</time>
      </trkpt>
      <trkpt lat="42.48684" lon="2.18762">
        <ele>1880.48</ele>
        <time>2016-07-01T06:50:26Z</time>
      </trkpt>
      <trkpt lat="42.48686" lon="2.18759">
        <ele>1880.96</ele>
        <time>2016-07-01T06:50:28Z</time>
      </trkpt>
      <trkpt lat="42.48686" lon="2.18757">
        <ele>1880</ele>
        <time>2016-07-01T06:50:29Z</time>
      </trkpt>
      <trkpt lat="42.48687" lon="2.18756">
        <ele>1880.48</ele>
        <time>2016-07-01T06:50:30Z</time>
      </trkpt>
      <trkpt lat="42.48689" lon="2.18756">
        <ele>1880.48</ele>
        <time>2016-07-01T06:50:31Z</time>
      </trkpt>
      <trkpt lat="42.48689" lon="2.18754">
        <ele>1879.51</ele>
        <time>2016-07-01T06:50:32Z</time>
      </trkpt>
      <trkpt lat="42.48691" lon="2.18753">
        <ele>1879.51</ele>
        <time>2016-07-01T06:50:33Z</time>
      </trkpt>
      <trkpt lat="42.48692" lon="2.18751">
        <ele>1879.51</ele>
        <time>2016-07-01T06:50:34Z</time>
      </trkpt>
      <trkpt lat="42.48693" lon="2.1875">
        <ele>1879.51</ele>
        <time>2016-07-01T06:50:35Z</time>
      </trkpt>
      <trkpt lat="42.48693" lon="2.18748">
        <ele>1879.03</ele>
        <time>2016-07-01T06:50:36Z</time>
      </trkpt>
      <trkpt lat="42.48697" lon="2.18743">
        <ele>1878.55</ele>
        <time>2016-07-01T06:50:40Z</time>
      </trkpt>
      <trkpt lat="42.48699" lon="2.18743">
        <ele>1878.55</ele>
        <time>2016-07-01T06:50:41Z</time>
      </trkpt>
      <trkpt lat="42.487" lon="2.18743">
        <ele>1878.55</ele>
        <time>2016-07-01T06:50:42Z</time>
      </trkpt>
      <trkpt lat="42.48701" lon="2.18742">
        <ele>1877.59</ele>
        <time>2016-07-01T06:50:43Z</time>
      </trkpt>
      <trkpt lat="42.48703" lon="2.18741">
        <ele>1878.07</ele>
        <time>2016-07-01T06:50:44Z</time>
      </trkpt>
      <trkpt lat="42.48706" lon="2.18742">
        <ele>1877.11</ele>
        <time>2016-07-01T06:50:45Z</time>
      </trkpt>
      <trkpt lat="42.48707" lon="2.18742">
        <ele>1877.59</ele>
        <time>2016-07-01T06:50:46Z</time>
      </trkpt>
      <trkpt lat="42.48716" lon="2.1874">
        <ele>1874.23</ele>
        <time>2016-07-01T06:50:52Z</time>
      </trkpt>
      <trkpt lat="42.48718" lon="2.18737">
        <ele>1871.82</ele>
        <time>2016-07-01T06:50:55Z</time>
      </trkpt>
      <trkpt lat="42.4872" lon="2.18737">
        <ele>1870.86</ele>
        <time>2016-07-01T06:50:56Z</time>
      </trkpt>
      <trkpt lat="42.48723" lon="2.18737">
        <ele>1870.38</ele>
        <time>2016-07-01T06:50:57Z</time>
      </trkpt>
      <trkpt lat="42.48725" lon="2.18737">
        <ele>1869.9</ele>
        <time>2016-07-01T06:50:58Z</time>
      </trkpt>
      <trkpt lat="42.48727" lon="2.18738">
        <ele>1870.38</ele>
        <time>2016-07-01T06:50:59Z</time>
      </trkpt>
      <trkpt lat="42.48729" lon="2.18738">
        <ele>1869.42</ele>
        <time>2016-07-01T06:51:00Z</time>
      </trkpt>
      <trkpt lat="42.4873" lon="2.18738">
        <ele>1869.9</ele>
        <time>2016-07-01T06:51:01Z</time>
      </trkpt>
      <trkpt lat="42.48731" lon="2.18737">
        <ele>1868.94</ele>
        <time>2016-07-01T06:51:02Z</time>
      </trkpt>
      <trkpt lat="42.48733" lon="2.18737">
        <ele>1869.42</ele>
        <time>2016-07-01T06:51:03Z</time>
      </trkpt>
      <trkpt lat="42.48735" lon="2.18736">
        <ele>1869.42</ele>
        <time>2016-07-01T06:51:04Z</time>
      </trkpt>
      <trkpt lat="42.48737" lon="2.18736">
        <ele>1869.42</ele>
        <time>2016-07-01T06:51:05Z</time>
      </trkpt>
      <trkpt lat="42.48738" lon="2.18735">
        <ele>1869.42</ele>
        <time>2016-07-01T06:51:06Z</time>
      </trkpt>
      <trkpt lat="42.48739" lon="2.18733">
        <ele>1869.42</ele>
        <time>2016-07-01T06:51:08Z</time>
      </trkpt>
      <trkpt lat="42.48739" lon="2.1873">
        <ele>1869.42</ele>
        <time>2016-07-01T06:51:09Z</time>
      </trkpt>
      <trkpt lat="42.4874" lon="2.18727">
        <ele>1869.42</ele>
        <time>2016-07-01T06:51:10Z</time>
      </trkpt>
      <trkpt lat="42.48741" lon="2.18727">
        <ele>1869.42</ele>
        <time>2016-07-01T06:51:11Z</time>
      </trkpt>
      <trkpt lat="42.48741" lon="2.18726">
        <ele>1869.42</ele>
        <time>2016-07-01T06:51:12Z</time>
      </trkpt>
      <trkpt lat="42.48741" lon="2.18723">
        <ele>1869.42</ele>
        <time>2016-07-01T06:51:13Z</time>
      </trkpt>
      <trkpt lat="42.48741" lon="2.18717">
        <ele>1869.42</ele>
        <time>2016-07-01T06:51:16Z</time>
      </trkpt>
      <trkpt lat="42.48742" lon="2.18711">
        <ele>1868.46</ele>
        <time>2016-07-01T06:51:20Z</time>
      </trkpt>
      <trkpt lat="42.48745" lon="2.18707">
        <ele>1867.5</ele>
        <time>2016-07-01T06:51:26Z</time>
      </trkpt>
      <trkpt lat="42.48746" lon="2.18703">
        <ele>1867.02</ele>
        <time>2016-07-01T06:51:29Z</time>
      </trkpt>
      <trkpt lat="42.48748" lon="2.18699">
        <ele>1863.17</ele>
        <time>2016-07-01T06:51:33Z</time>
      </trkpt>
      <trkpt lat="42.48752" lon="2.18697">
        <ele>1859.81</ele>
        <time>2016-07-01T06:51:37Z</time>
      </trkpt>
      <trkpt lat="42.48757" lon="2.18691">
        <ele>1858.85</ele>
        <time>2016-07-01T06:51:47Z</time>
      </trkpt>
      <trkpt lat="42.48759" lon="2.18682">
        <ele>1858.37</ele>
        <time>2016-07-01T06:51:56Z</time>
      </trkpt>
      <trkpt lat="42.48761" lon="2.18679">
        <ele>1857.89</ele>
        <time>2016-07-01T06:51:59Z</time>
      </trkpt>
      <trkpt lat="42.48761" lon="2.18676">
        <ele>1857.4</ele>
        <time>2016-07-01T06:52:02Z</time>
      </trkpt>
      <trkpt lat="42.48762" lon="2.18675">
        <ele>1856.44</ele>
        <time>2016-07-01T06:52:03Z</time>
      </trkpt>
      <trkpt lat="42.48762" lon="2.18673">
        <ele>1856.44</ele>
        <time>2016-07-01T06:52:04Z</time>
      </trkpt>
      <trkpt lat="42.48763" lon="2.18665">
        <ele>1853.56</ele>
        <time>2016-07-01T06:52:13Z</time>
      </trkpt>
      <trkpt lat="42.48763" lon="2.18663">
        <ele>1853.08</ele>
        <time>2016-07-01T06:52:14Z</time>
      </trkpt>
      <trkpt lat="42.48766" lon="2.18658">
        <ele>1849.71</ele>
        <time>2016-07-01T06:52:18Z</time>
      </trkpt>
      <trkpt lat="42.48766" lon="2.18656">
        <ele>1849.23</ele>
        <time>2016-07-01T06:52:19Z</time>
      </trkpt>
      <trkpt lat="42.48767" lon="2.18655">
        <ele>1848.27</ele>
        <time>2016-07-01T06:52:20Z</time>
      </trkpt>
      <trkpt lat="42.48767" lon="2.18653">
        <ele>1847.31</ele>
        <time>2016-07-01T06:52:22Z</time>
      </trkpt>
      <trkpt lat="42.48768" lon="2.18651">
        <ele>1848.27</ele>
        <time>2016-07-01T06:52:23Z</time>
      </trkpt>
      <trkpt lat="42.48768" lon="2.18649">
        <ele>1846.83</ele>
        <time>2016-07-01T06:52:24Z</time>
      </trkpt>
      <trkpt lat="42.48768" lon="2.18648">
        <ele>1847.31</ele>
        <time>2016-07-01T06:52:25Z</time>
      </trkpt>
      <trkpt lat="42.48768" lon="2.18646">
        <ele>1847.31</ele>
        <time>2016-07-01T06:52:26Z</time>
      </trkpt>
      <trkpt lat="42.48768" lon="2.18644">
        <ele>1847.31</ele>
        <time>2016-07-01T06:52:27Z</time>
      </trkpt>
      <trkpt lat="42.48769" lon="2.18642">
        <ele>1847.79</ele>
        <time>2016-07-01T06:52:28Z</time>
      </trkpt>
      <trkpt lat="42.48769" lon="2.1864">
        <ele>1847.31</ele>
        <time>2016-07-01T06:52:29Z</time>
      </trkpt>
      <trkpt lat="42.4877" lon="2.18639">
        <ele>1847.31</ele>
        <time>2016-07-01T06:52:30Z</time>
      </trkpt>
      <trkpt lat="42.48771" lon="2.18637">
        <ele>1847.31</ele>
        <time>2016-07-01T06:52:31Z</time>
      </trkpt>
      <trkpt lat="42.48772" lon="2.18634">
        <ele>1847.31</ele>
        <time>2016-07-01T06:52:33Z</time>
      </trkpt>
      <trkpt lat="42.48772" lon="2.18633">
        <ele>1847.31</ele>
        <time>2016-07-01T06:52:34Z</time>
      </trkpt>
      <trkpt lat="42.48772" lon="2.18631">
        <ele>1847.31</ele>
        <time>2016-07-01T06:52:35Z</time>
      </trkpt>
      <trkpt lat="42.48773" lon="2.1863">
        <ele>1847.31</ele>
        <time>2016-07-01T06:52:36Z</time>
      </trkpt>
      <trkpt lat="42.48775" lon="2.1863">
        <ele>1847.31</ele>
        <time>2016-07-01T06:52:37Z</time>
      </trkpt>
      <trkpt lat="42.48778" lon="2.18628">
        <ele>1847.31</ele>
        <time>2016-07-01T06:52:39Z</time>
      </trkpt>
      <trkpt lat="42.48779" lon="2.18628">
        <ele>1847.31</ele>
        <time>2016-07-01T06:52:40Z</time>
      </trkpt>
      <trkpt lat="42.4878" lon="2.18627">
        <ele>1847.31</ele>
        <time>2016-07-01T06:52:41Z</time>
      </trkpt>
      <trkpt lat="42.48783" lon="2.18625">
        <ele>1847.31</ele>
        <time>2016-07-01T06:52:44Z</time>
      </trkpt>
      <trkpt lat="42.48785" lon="2.18625">
        <ele>1847.31</ele>
        <time>2016-07-01T06:52:45Z</time>
      </trkpt>
      <trkpt lat="42.48786" lon="2.18625">
        <ele>1846.83</ele>
        <time>2016-07-01T06:52:46Z</time>
      </trkpt>
      <trkpt lat="42.48789" lon="2.18623">
        <ele>1846.83</ele>
        <time>2016-07-01T06:52:49Z</time>
      </trkpt>
      <trkpt lat="42.4879" lon="2.18623">
        <ele>1846.35</ele>
        <time>2016-07-01T06:52:50Z</time>
      </trkpt>
      <trkpt lat="42.48799" lon="2.18619">
        <ele>1844.43</ele>
        <time>2016-07-01T06:53:01Z</time>
      </trkpt>
      <trkpt lat="42.48801" lon="2.18616">
        <ele>1841.06</ele>
        <time>2016-07-01T06:53:05Z</time>
      </trkpt>
      <trkpt lat="42.48808" lon="2.18613">
        <ele>1837.7</ele>
        <time>2016-07-01T06:53:12Z</time>
      </trkpt>
      <trkpt lat="42.48811" lon="2.18609">
        <ele>1837.7</ele>
        <time>2016-07-01T06:53:19Z</time>
      </trkpt>
      <trkpt lat="42.48814" lon="2.18599">
        <ele>1837.22</ele>
        <time>2016-07-01T06:53:27Z</time>
      </trkpt>
      <trkpt lat="42.4883" lon="2.18606">
        <ele>1834.81</ele>
        <time>2016-07-01T06:53:36Z</time>
      </trkpt>
      <trkpt lat="42.48833" lon="2.18603">
        <ele>1832.89</ele>
        <time>2016-07-01T06:53:39Z</time>
      </trkpt>
      <trkpt lat="42.48836" lon="2.18601">
        <ele>1831.45</ele>
        <time>2016-07-01T06:53:41Z</time>
      </trkpt>
      <trkpt lat="42.48837" lon="2.18601">
        <ele>1830.97</ele>
        <time>2016-07-01T06:53:42Z</time>
      </trkpt>
      <trkpt lat="42.48835" lon="2.18597">
        <ele>1830.01</ele>
        <time>2016-07-01T06:53:43Z</time>
      </trkpt>
      <trkpt lat="42.48836" lon="2.18595">
        <ele>1829.53</ele>
        <time>2016-07-01T06:53:44Z</time>
      </trkpt>
      <trkpt lat="42.48835" lon="2.18593">
        <ele>1830.49</ele>
        <time>2016-07-01T06:53:45Z</time>
      </trkpt>
      <trkpt lat="42.48836" lon="2.18592">
        <ele>1829.05</ele>
        <time>2016-07-01T06:53:46Z</time>
      </trkpt>
      <trkpt lat="42.48849" lon="2.18587">
        <ele>1829.05</ele>
        <time>2016-07-01T06:53:57Z</time>
      </trkpt>
      <trkpt lat="42.48855" lon="2.18582">
        <ele>1829.05</ele>
        <time>2016-07-01T06:54:04Z</time>
      </trkpt>
      <trkpt lat="42.48866" lon="2.18583">
        <ele>1827.6</ele>
        <time>2016-07-01T06:54:13Z</time>
      </trkpt>
      <trkpt lat="42.48883" lon="2.18583">
        <ele>1825.68</ele>
        <time>2016-07-01T06:54:27Z</time>
      </trkpt>
      <trkpt lat="42.48887" lon="2.18582">
        <ele>1824.24</ele>
        <time>2016-07-01T06:54:31Z</time>
      </trkpt>
      <trkpt lat="42.48888" lon="2.18581">
        <ele>1824.72</ele>
        <time>2016-07-01T06:54:32Z</time>
      </trkpt>
      <trkpt lat="42.48889" lon="2.18581">
        <ele>1824.72</ele>
        <time>2016-07-01T06:54:33Z</time>
      </trkpt>
      <trkpt lat="42.48901" lon="2.18578">
        <ele>1820.87</ele>
        <time>2016-07-01T06:54:44Z</time>
      </trkpt>
      <trkpt lat="42.48905" lon="2.18577">
        <ele>1817.51</ele>
        <time>2016-07-01T06:54:48Z</time>
      </trkpt>
      <trkpt lat="42.48906" lon="2.18577">
        <ele>1816.55</ele>
        <time>2016-07-01T06:54:49Z</time>
      </trkpt>
      <trkpt lat="42.48909" lon="2.18575">
        <ele>1815.11</ele>
        <time>2016-07-01T06:54:52Z</time>
      </trkpt>
      <trkpt lat="42.48911" lon="2.18574">
        <ele>1814.63</ele>
        <time>2016-07-01T06:54:54Z</time>
      </trkpt>
      <trkpt lat="42.48912" lon="2.18573">
        <ele>1815.11</ele>
        <time>2016-07-01T06:54:55Z</time>
      </trkpt>
      <trkpt lat="42.48914" lon="2.18574">
        <ele>1815.11</ele>
        <time>2016-07-01T06:54:56Z</time>
      </trkpt>
      <trkpt lat="42.48915" lon="2.18573">
        <ele>1815.11</ele>
        <time>2016-07-01T06:54:57Z</time>
      </trkpt>
      <trkpt lat="42.48916" lon="2.18573">
        <ele>1815.11</ele>
        <time>2016-07-01T06:54:58Z</time>
      </trkpt>
      <trkpt lat="42.48918" lon="2.18573">
        <ele>1815.11</ele>
        <time>2016-07-01T06:54:59Z</time>
      </trkpt>
      <trkpt lat="42.48924" lon="2.18571">
        <ele>1814.63</ele>
        <time>2016-07-01T06:55:04Z</time>
      </trkpt>
      <trkpt lat="42.48926" lon="2.1857">
        <ele>1814.63</ele>
        <time>2016-07-01T06:55:06Z</time>
      </trkpt>
      <trkpt lat="42.48927" lon="2.18569">
        <ele>1814.63</ele>
        <time>2016-07-01T06:55:07Z</time>
      </trkpt>
      <trkpt lat="42.48931" lon="2.18564">
        <ele>1812.22</ele>
        <time>2016-07-01T06:55:18Z</time>
      </trkpt>
      <trkpt lat="42.4893" lon="2.18564">
        <ele>1811.26</ele>
        <time>2016-07-01T06:55:38Z</time>
      </trkpt>
      <trkpt lat="42.4893" lon="2.18563">
        <ele>1811.26</ele>
        <time>2016-07-01T06:55:55Z</time>
      </trkpt>
      <trkpt lat="42.48932" lon="2.1856">
        <ele>1810.78</ele>
        <time>2016-07-01T06:56:07Z</time>
      </trkpt>
      <trkpt lat="42.48934" lon="2.18556">
        <ele>1810.3</ele>
        <time>2016-07-01T06:56:12Z</time>
      </trkpt>
      <trkpt lat="42.48934" lon="2.18554">
        <ele>1810.3</ele>
        <time>2016-07-01T06:56:13Z</time>
      </trkpt>
      <trkpt lat="42.48936" lon="2.18552">
        <ele>1808.86</ele>
        <time>2016-07-01T06:56:17Z</time>
      </trkpt>
      <trkpt lat="42.48938" lon="2.18551">
        <ele>1809.34</ele>
        <time>2016-07-01T06:56:18Z</time>
      </trkpt>
      <trkpt lat="42.48942" lon="2.18552">
        <ele>1805.97</ele>
        <time>2016-07-01T06:56:21Z</time>
      </trkpt>
      <trkpt lat="42.48944" lon="2.1855">
        <ele>1802.61</ele>
        <time>2016-07-01T06:56:26Z</time>
      </trkpt>
      <trkpt lat="42.48944" lon="2.18548">
        <ele>1801.65</ele>
        <time>2016-07-01T06:56:29Z</time>
      </trkpt>
      <trkpt lat="42.48946" lon="2.18542">
        <ele>1802.13</ele>
        <time>2016-07-01T06:56:34Z</time>
      </trkpt>
      <trkpt lat="42.48958" lon="2.18538">
        <ele>1801.17</ele>
        <time>2016-07-01T06:56:45Z</time>
      </trkpt>
      <trkpt lat="42.48964" lon="2.18535">
        <ele>1797.8</ele>
        <time>2016-07-01T06:56:52Z</time>
      </trkpt>
      <trkpt lat="42.48965" lon="2.18534">
        <ele>1795.88</ele>
        <time>2016-07-01T06:56:54Z</time>
      </trkpt>
      <trkpt lat="42.48971" lon="2.18529">
        <ele>1792.52</ele>
        <time>2016-07-01T06:57:03Z</time>
      </trkpt>
      <trkpt lat="42.48974" lon="2.18525">
        <ele>1792.52</ele>
        <time>2016-07-01T06:57:08Z</time>
      </trkpt>
      <trkpt lat="42.4898" lon="2.18529">
        <ele>1792.52</ele>
        <time>2016-07-01T06:57:12Z</time>
      </trkpt>
      <trkpt lat="42.48985" lon="2.18525">
        <ele>1791.55</ele>
        <time>2016-07-01T06:57:18Z</time>
      </trkpt>
      <trkpt lat="42.48985" lon="2.1852">
        <ele>1791.07</ele>
        <time>2016-07-01T06:57:21Z</time>
      </trkpt>
      <trkpt lat="42.48987" lon="2.18517">
        <ele>1790.59</ele>
        <time>2016-07-01T06:57:24Z</time>
      </trkpt>
      <trkpt lat="42.48987" lon="2.18513">
        <ele>1788.67</ele>
        <time>2016-07-01T06:57:27Z</time>
      </trkpt>
      <trkpt lat="42.4899" lon="2.1851">
        <ele>1785.79</ele>
        <time>2016-07-01T06:57:31Z</time>
      </trkpt>
      <trkpt lat="42.48994" lon="2.18508">
        <ele>1783.38</ele>
        <time>2016-07-01T06:57:38Z</time>
      </trkpt>
      <trkpt lat="42.48994" lon="2.18507">
        <ele>1783.38</ele>
        <time>2016-07-01T06:57:39Z</time>
      </trkpt>
      <trkpt lat="42.49005" lon="2.18505">
        <ele>1782.9</ele>
        <time>2016-07-01T06:57:48Z</time>
      </trkpt>
      <trkpt lat="42.49014" lon="2.18509">
        <ele>1781.46</ele>
        <time>2016-07-01T06:57:56Z</time>
      </trkpt>
      <trkpt lat="42.49014" lon="2.18496">
        <ele>1780.5</ele>
        <time>2016-07-01T06:58:02Z</time>
      </trkpt>
      <trkpt lat="42.49015" lon="2.18493">
        <ele>1779.54</ele>
        <time>2016-07-01T06:58:05Z</time>
      </trkpt>
      <trkpt lat="42.49015" lon="2.1848">
        <ele>1778.58</ele>
        <time>2016-07-01T06:58:10Z</time>
      </trkpt>
      <trkpt lat="42.49017" lon="2.18477">
        <ele>1778.1</ele>
        <time>2016-07-01T06:58:12Z</time>
      </trkpt>
      <trkpt lat="42.49016" lon="2.18469">
        <ele>1776.17</ele>
        <time>2016-07-01T06:58:16Z</time>
      </trkpt>
      <trkpt lat="42.49018" lon="2.18461">
        <ele>1772.33</ele>
        <time>2016-07-01T06:58:21Z</time>
      </trkpt>
      <trkpt lat="42.49033" lon="2.18459">
        <ele>1771.37</ele>
        <time>2016-07-01T06:58:32Z</time>
      </trkpt>
      <trkpt lat="42.49041" lon="2.18457">
        <ele>1771.37</ele>
        <time>2016-07-01T06:58:38Z</time>
      </trkpt>
      <trkpt lat="42.49058" lon="2.18457">
        <ele>1770.89</ele>
        <time>2016-07-01T06:58:51Z</time>
      </trkpt>
      <trkpt lat="42.49072" lon="2.18459">
        <ele>1769.44</ele>
        <time>2016-07-01T06:59:03Z</time>
      </trkpt>
      <trkpt lat="42.49077" lon="2.18459">
        <ele>1768.96</ele>
        <time>2016-07-01T06:59:07Z</time>
      </trkpt>
      <trkpt lat="42.49081" lon="2.18458">
        <ele>1768</ele>
        <time>2016-07-01T06:59:10Z</time>
      </trkpt>
      <trkpt lat="42.49086" lon="2.18455">
        <ele>1767.52</ele>
        <time>2016-07-01T06:59:15Z</time>
      </trkpt>
      <trkpt lat="42.49088" lon="2.18451">
        <ele>1766.08</ele>
        <time>2016-07-01T06:59:18Z</time>
      </trkpt>
      <trkpt lat="42.49092" lon="2.18446">
        <ele>1764.16</ele>
        <time>2016-07-01T06:59:23Z</time>
      </trkpt>
      <trkpt lat="42.49095" lon="2.18445">
        <ele>1761.27</ele>
        <time>2016-07-01T06:59:26Z</time>
      </trkpt>
      <trkpt lat="42.49099" lon="2.18442">
        <ele>1758.39</ele>
        <time>2016-07-01T06:59:30Z</time>
      </trkpt>
      <trkpt lat="42.49109" lon="2.18432">
        <ele>1757.43</ele>
        <time>2016-07-01T06:59:40Z</time>
      </trkpt>
      <trkpt lat="42.4912" lon="2.18431">
        <ele>1756.95</ele>
        <time>2016-07-01T06:59:49Z</time>
      </trkpt>
      <trkpt lat="42.49124" lon="2.18427">
        <ele>1755.99</ele>
        <time>2016-07-01T06:59:54Z</time>
      </trkpt>
      <trkpt lat="42.49126" lon="2.18423">
        <ele>1755.02</ele>
        <time>2016-07-01T06:59:57Z</time>
      </trkpt>
      <trkpt lat="42.4913" lon="2.18421">
        <ele>1752.62</ele>
        <time>2016-07-01T07:00:00Z</time>
      </trkpt>
      <trkpt lat="42.49134" lon="2.18416">
        <ele>1749.26</ele>
        <time>2016-07-01T07:00:05Z</time>
      </trkpt>
      <trkpt lat="42.49138" lon="2.18405">
        <ele>1748.78</ele>
        <time>2016-07-01T07:00:14Z</time>
      </trkpt>
      <trkpt lat="42.49149" lon="2.18398">
        <ele>1748.29</ele>
        <time>2016-07-01T07:00:23Z</time>
      </trkpt>
      <trkpt lat="42.4915" lon="2.18398">
        <ele>1747.81</ele>
        <time>2016-07-01T07:00:24Z</time>
      </trkpt>
      <trkpt lat="42.49156" lon="2.18393">
        <ele>1747.33</ele>
        <time>2016-07-01T07:00:29Z</time>
      </trkpt>
      <trkpt lat="42.49157" lon="2.18392">
        <ele>1747.33</ele>
        <time>2016-07-01T07:00:30Z</time>
      </trkpt>
      <trkpt lat="42.49158" lon="2.18391">
        <ele>1747.33</ele>
        <time>2016-07-01T07:00:31Z</time>
      </trkpt>
      <trkpt lat="42.49159" lon="2.1839">
        <ele>1746.37</ele>
        <time>2016-07-01T07:00:32Z</time>
      </trkpt>
      <trkpt lat="42.49161" lon="2.1839">
        <ele>1746.85</ele>
        <time>2016-07-01T07:00:33Z</time>
      </trkpt>
      <trkpt lat="42.49162" lon="2.18389">
        <ele>1746.85</ele>
        <time>2016-07-01T07:00:34Z</time>
      </trkpt>
      <trkpt lat="42.49164" lon="2.18389">
        <ele>1746.85</ele>
        <time>2016-07-01T07:00:35Z</time>
      </trkpt>
      <trkpt lat="42.49165" lon="2.18389">
        <ele>1746.85</ele>
        <time>2016-07-01T07:00:36Z</time>
      </trkpt>
      <trkpt lat="42.49166" lon="2.18388">
        <ele>1745.89</ele>
        <time>2016-07-01T07:00:37Z</time>
      </trkpt>
      <trkpt lat="42.49168" lon="2.18388">
        <ele>1746.37</ele>
        <time>2016-07-01T07:00:39Z</time>
      </trkpt>
      <trkpt lat="42.4917" lon="2.18388">
        <ele>1746.37</ele>
        <time>2016-07-01T07:00:40Z</time>
      </trkpt>
      <trkpt lat="42.49174" lon="2.18387">
        <ele>1745.89</ele>
        <time>2016-07-01T07:00:44Z</time>
      </trkpt>
      <trkpt lat="42.49185" lon="2.18389">
        <ele>1745.41</ele>
        <time>2016-07-01T07:00:53Z</time>
      </trkpt>
      <trkpt lat="42.49193" lon="2.1839">
        <ele>1744.93</ele>
        <time>2016-07-01T07:00:59Z</time>
      </trkpt>
      <trkpt lat="42.49194" lon="2.1839">
        <ele>1744.93</ele>
        <time>2016-07-01T07:01:00Z</time>
      </trkpt>
      <trkpt lat="42.49195" lon="2.18389">
        <ele>1744.93</ele>
        <time>2016-07-01T07:01:01Z</time>
      </trkpt>
      <trkpt lat="42.492" lon="2.18383">
        <ele>1743.97</ele>
        <time>2016-07-01T07:01:08Z</time>
      </trkpt>
      <trkpt lat="42.49203" lon="2.1838">
        <ele>1743.49</ele>
        <time>2016-07-01T07:01:12Z</time>
      </trkpt>
      <trkpt lat="42.4921" lon="2.18377">
        <ele>1740.12</ele>
        <time>2016-07-01T07:01:20Z</time>
      </trkpt>
      <trkpt lat="42.49213" lon="2.18373">
        <ele>1736.76</ele>
        <time>2016-07-01T07:01:24Z</time>
      </trkpt>
      <trkpt lat="42.49217" lon="2.18369">
        <ele>1734.84</ele>
        <time>2016-07-01T07:01:30Z</time>
      </trkpt>
      <trkpt lat="42.49221" lon="2.18365">
        <ele>1734.84</ele>
        <time>2016-07-01T07:01:36Z</time>
      </trkpt>
      <trkpt lat="42.49224" lon="2.18363">
        <ele>1734.36</ele>
        <time>2016-07-01T07:01:39Z</time>
      </trkpt>
      <trkpt lat="42.49225" lon="2.18361">
        <ele>1734.36</ele>
        <time>2016-07-01T07:01:41Z</time>
      </trkpt>
      <trkpt lat="42.49225" lon="2.18359">
        <ele>1733.88</ele>
        <time>2016-07-01T07:01:42Z</time>
      </trkpt>
      <trkpt lat="42.49226" lon="2.18358">
        <ele>1733.88</ele>
        <time>2016-07-01T07:01:43Z</time>
      </trkpt>
      <trkpt lat="42.49231" lon="2.18355">
        <ele>1732.43</ele>
        <time>2016-07-01T07:01:49Z</time>
      </trkpt>
      <trkpt lat="42.49233" lon="2.18354">
        <ele>1732.43</ele>
        <time>2016-07-01T07:01:51Z</time>
      </trkpt>
      <trkpt lat="42.49233" lon="2.18352">
        <ele>1731.95</ele>
        <time>2016-07-01T07:01:52Z</time>
      </trkpt>
      <trkpt lat="42.49239" lon="2.18346">
        <ele>1728.59</ele>
        <time>2016-07-01T07:02:01Z</time>
      </trkpt>
      <trkpt lat="42.49241" lon="2.18343">
        <ele>1725.22</ele>
        <time>2016-07-01T07:02:05Z</time>
      </trkpt>
      <trkpt lat="42.49242" lon="2.18342">
        <ele>1724.74</ele>
        <time>2016-07-01T07:02:06Z</time>
      </trkpt>
      <trkpt lat="42.49242" lon="2.18339">
        <ele>1723.3</ele>
        <time>2016-07-01T07:02:08Z</time>
      </trkpt>
      <trkpt lat="42.49242" lon="2.18334">
        <ele>1722.34</ele>
        <time>2016-07-01T07:02:12Z</time>
      </trkpt>
      <trkpt lat="42.4925" lon="2.18327">
        <ele>1722.34</ele>
        <time>2016-07-01T07:02:24Z</time>
      </trkpt>
      <trkpt lat="42.49252" lon="2.18327">
        <ele>1721.38</ele>
        <time>2016-07-01T07:02:26Z</time>
      </trkpt>
      <trkpt lat="42.49255" lon="2.18316">
        <ele>1719.94</ele>
        <time>2016-07-01T07:02:37Z</time>
      </trkpt>
      <trkpt lat="42.49259" lon="2.1831">
        <ele>1716.57</ele>
        <time>2016-07-01T07:02:44Z</time>
      </trkpt>
      <trkpt lat="42.49262" lon="2.18307">
        <ele>1713.21</ele>
        <time>2016-07-01T07:02:49Z</time>
      </trkpt>
      <trkpt lat="42.49266" lon="2.183">
        <ele>1711.76</ele>
        <time>2016-07-01T07:02:59Z</time>
      </trkpt>
      <trkpt lat="42.49267" lon="2.18298">
        <ele>1711.76</ele>
        <time>2016-07-01T07:03:01Z</time>
      </trkpt>
      <trkpt lat="42.49271" lon="2.18275">
        <ele>1708.4</ele>
        <time>2016-07-01T07:03:17Z</time>
      </trkpt>
      <trkpt lat="42.49273" lon="2.1827">
        <ele>1705.04</ele>
        <time>2016-07-01T07:03:21Z</time>
      </trkpt>
      <trkpt lat="42.49274" lon="2.18265">
        <ele>1704.07</ele>
        <time>2016-07-01T07:03:26Z</time>
      </trkpt>
      <trkpt lat="42.49275" lon="2.18264">
        <ele>1704.07</ele>
        <time>2016-07-01T07:03:27Z</time>
      </trkpt>
      <trkpt lat="42.49278" lon="2.18258">
        <ele>1703.11</ele>
        <time>2016-07-01T07:03:38Z</time>
      </trkpt>
      <trkpt lat="42.49284" lon="2.18247">
        <ele>1701.19</ele>
        <time>2016-07-01T07:03:48Z</time>
      </trkpt>
      <trkpt lat="42.49288" lon="2.18241">
        <ele>1697.34</ele>
        <time>2016-07-01T07:03:58Z</time>
      </trkpt>
      <trkpt lat="42.4929" lon="2.18238">
        <ele>1693.98</ele>
        <time>2016-07-01T07:04:02Z</time>
      </trkpt>
      <trkpt lat="42.49297" lon="2.18229">
        <ele>1692.06</ele>
        <time>2016-07-01T07:04:13Z</time>
      </trkpt>
      <trkpt lat="42.49302" lon="2.18223">
        <ele>1691.58</ele>
        <time>2016-07-01T07:04:22Z</time>
      </trkpt>
      <trkpt lat="42.49309" lon="2.18217">
        <ele>1689.17</ele>
        <time>2016-07-01T07:04:35Z</time>
      </trkpt>
      <trkpt lat="42.49311" lon="2.18211">
        <ele>1687.73</ele>
        <time>2016-07-01T07:04:41Z</time>
      </trkpt>
      <trkpt lat="42.49313" lon="2.18208">
        <ele>1684.85</ele>
        <time>2016-07-01T07:04:45Z</time>
      </trkpt>
      <trkpt lat="42.49315" lon="2.18205">
        <ele>1681</ele>
        <time>2016-07-01T07:04:50Z</time>
      </trkpt>
      <trkpt lat="42.4932" lon="2.18202">
        <ele>1680.52</ele>
        <time>2016-07-01T07:04:56Z</time>
      </trkpt>
      <trkpt lat="42.49322" lon="2.18202">
        <ele>1680.52</ele>
        <time>2016-07-01T07:04:57Z</time>
      </trkpt>
      <trkpt lat="42.49328" lon="2.18196">
        <ele>1679.56</ele>
        <time>2016-07-01T07:05:08Z</time>
      </trkpt>
      <trkpt lat="42.4933" lon="2.18195">
        <ele>1679.08</ele>
        <time>2016-07-01T07:05:09Z</time>
      </trkpt>
      <trkpt lat="42.49335" lon="2.18193">
        <ele>1677.16</ele>
        <time>2016-07-01T07:05:18Z</time>
      </trkpt>
      <trkpt lat="42.49336" lon="2.18192">
        <ele>1677.16</ele>
        <time>2016-07-01T07:05:19Z</time>
      </trkpt>
      <trkpt lat="42.49342" lon="2.18185">
        <ele>1674.27</ele>
        <time>2016-07-01T07:05:30Z</time>
      </trkpt>
      <trkpt lat="42.49347" lon="2.18185">
        <ele>1670.91</ele>
        <time>2016-07-01T07:05:36Z</time>
      </trkpt>
      <trkpt lat="42.49348" lon="2.18184">
        <ele>1669.95</ele>
        <time>2016-07-01T07:05:37Z</time>
      </trkpt>
      <trkpt lat="42.49355" lon="2.18179">
        <ele>1667.06</ele>
        <time>2016-07-01T07:05:45Z</time>
      </trkpt>
      <trkpt lat="42.4936" lon="2.18174">
        <ele>1667.06</ele>
        <time>2016-07-01T07:05:51Z</time>
      </trkpt>
      <trkpt lat="42.49361" lon="2.18174">
        <ele>1667.06</ele>
        <time>2016-07-01T07:05:52Z</time>
      </trkpt>
      <trkpt lat="42.49362" lon="2.18174">
        <ele>1667.06</ele>
        <time>2016-07-01T07:05:53Z</time>
      </trkpt>
      <trkpt lat="42.49371" lon="2.18169">
        <ele>1665.62</ele>
        <time>2016-07-01T07:06:02Z</time>
      </trkpt>
      <trkpt lat="42.49379" lon="2.1816">
        <ele>1664.18</ele>
        <time>2016-07-01T07:06:13Z</time>
      </trkpt>
      <trkpt lat="42.4938" lon="2.18157">
        <ele>1663.22</ele>
        <time>2016-07-01T07:06:15Z</time>
      </trkpt>
      <trkpt lat="42.4938" lon="2.18156">
        <ele>1663.22</ele>
        <time>2016-07-01T07:06:16Z</time>
      </trkpt>
      <trkpt lat="42.49384" lon="2.18153">
        <ele>1660.33</ele>
        <time>2016-07-01T07:06:22Z</time>
      </trkpt>
      <trkpt lat="42.49389" lon="2.18149">
        <ele>1656.49</ele>
        <time>2016-07-01T07:06:29Z</time>
      </trkpt>
      <trkpt lat="42.49398" lon="2.18142">
        <ele>1656.01</ele>
        <time>2016-07-01T07:06:41Z</time>
      </trkpt>
      <trkpt lat="42.49402" lon="2.18139">
        <ele>1655.05</ele>
        <time>2016-07-01T07:06:47Z</time>
      </trkpt>
      <trkpt lat="42.49409" lon="2.18133">
        <ele>1653.12</ele>
        <time>2016-07-01T07:06:56Z</time>
      </trkpt>
      <trkpt lat="42.49412" lon="2.18131">
        <ele>1649.76</ele>
        <time>2016-07-01T07:07:00Z</time>
      </trkpt>
      <trkpt lat="42.49417" lon="2.18129">
        <ele>1646.88</ele>
        <time>2016-07-01T07:07:05Z</time>
      </trkpt>
      <trkpt lat="42.49422" lon="2.18126">
        <ele>1646.4</ele>
        <time>2016-07-01T07:07:10Z</time>
      </trkpt>
      <trkpt lat="42.49423" lon="2.18126">
        <ele>1646.4</ele>
        <time>2016-07-01T07:07:11Z</time>
      </trkpt>
      <trkpt lat="42.49423" lon="2.18126">
        <ele>1646.4</ele>
        <time>2016-07-01T07:07:24Z</time>
      </trkpt>
      <trkpt lat="42.49425" lon="2.18126">
        <ele>1646.4</ele>
        <time>2016-07-01T07:07:40Z</time>
      </trkpt>
      <trkpt lat="42.49428" lon="2.18123">
        <ele>1646.4</ele>
        <time>2016-07-01T07:08:01Z</time>
      </trkpt>
      <trkpt lat="42.49429" lon="2.18122">
        <ele>1646.4</ele>
        <time>2016-07-01T07:08:02Z</time>
      </trkpt>
      <trkpt lat="42.4943" lon="2.18121">
        <ele>1646.4</ele>
        <time>2016-07-01T07:08:03Z</time>
      </trkpt>
      <trkpt lat="42.49432" lon="2.1812">
        <ele>1645.91</ele>
        <time>2016-07-01T07:08:05Z</time>
      </trkpt>
      <trkpt lat="42.49433" lon="2.1812">
        <ele>1645.91</ele>
        <time>2016-07-01T07:08:06Z</time>
      </trkpt>
      <trkpt lat="42.49435" lon="2.18119">
        <ele>1645.91</ele>
        <time>2016-07-01T07:08:07Z</time>
      </trkpt>
      <trkpt lat="42.49437" lon="2.18117">
        <ele>1645.43</ele>
        <time>2016-07-01T07:08:10Z</time>
      </trkpt>
      <trkpt lat="42.49437" lon="2.18116">
        <ele>1645.43</ele>
        <time>2016-07-01T07:08:11Z</time>
      </trkpt>
      <trkpt lat="42.49439" lon="2.18115">
        <ele>1644.47</ele>
        <time>2016-07-01T07:08:13Z</time>
      </trkpt>
      <trkpt lat="42.49445" lon="2.18105">
        <ele>1641.59</ele>
        <time>2016-07-01T07:08:23Z</time>
      </trkpt>
      <trkpt lat="42.49447" lon="2.18103">
        <ele>1639.67</ele>
        <time>2016-07-01T07:08:25Z</time>
      </trkpt>
      <trkpt lat="42.49452" lon="2.18104">
        <ele>1636.78</ele>
        <time>2016-07-01T07:08:29Z</time>
      </trkpt>
      <trkpt lat="42.49455" lon="2.18103">
        <ele>1635.82</ele>
        <time>2016-07-01T07:08:31Z</time>
      </trkpt>
      <trkpt lat="42.49458" lon="2.18103">
        <ele>1635.34</ele>
        <time>2016-07-01T07:08:33Z</time>
      </trkpt>
      <trkpt lat="42.4946" lon="2.18103">
        <ele>1635.82</ele>
        <time>2016-07-01T07:08:34Z</time>
      </trkpt>
      <trkpt lat="42.49461" lon="2.18102">
        <ele>1635.82</ele>
        <time>2016-07-01T07:08:35Z</time>
      </trkpt>
      <trkpt lat="42.49463" lon="2.18102">
        <ele>1635.82</ele>
        <time>2016-07-01T07:08:36Z</time>
      </trkpt>
      <trkpt lat="42.49464" lon="2.18101">
        <ele>1635.82</ele>
        <time>2016-07-01T07:08:37Z</time>
      </trkpt>
      <trkpt lat="42.49467" lon="2.18099">
        <ele>1635.82</ele>
        <time>2016-07-01T07:08:40Z</time>
      </trkpt>
      <trkpt lat="42.49468" lon="2.18099">
        <ele>1635.82</ele>
        <time>2016-07-01T07:08:41Z</time>
      </trkpt>
      <trkpt lat="42.4947" lon="2.18096">
        <ele>1635.34</ele>
        <time>2016-07-01T07:08:43Z</time>
      </trkpt>
      <trkpt lat="42.49471" lon="2.18095">
        <ele>1635.34</ele>
        <time>2016-07-01T07:08:44Z</time>
      </trkpt>
      <trkpt lat="42.49473" lon="2.18093">
        <ele>1634.38</ele>
        <time>2016-07-01T07:08:46Z</time>
      </trkpt>
      <trkpt lat="42.49474" lon="2.18092">
        <ele>1634.86</ele>
        <time>2016-07-01T07:08:47Z</time>
      </trkpt>
      <trkpt lat="42.4948" lon="2.18091">
        <ele>1633.42</ele>
        <time>2016-07-01T07:08:53Z</time>
      </trkpt>
      <trkpt lat="42.49483" lon="2.18089">
        <ele>1631.98</ele>
        <time>2016-07-01T07:08:57Z</time>
      </trkpt>
      <trkpt lat="42.49489" lon="2.18085">
        <ele>1628.61</ele>
        <time>2016-07-01T07:09:04Z</time>
      </trkpt>
      <trkpt lat="42.4949" lon="2.18084">
        <ele>1627.65</ele>
        <time>2016-07-01T07:09:05Z</time>
      </trkpt>
      <trkpt lat="42.49491" lon="2.18083">
        <ele>1626.21</ele>
        <time>2016-07-01T07:09:06Z</time>
      </trkpt>
      <trkpt lat="42.49492" lon="2.18083">
        <ele>1625.73</ele>
        <time>2016-07-01T07:09:07Z</time>
      </trkpt>
      <trkpt lat="42.49493" lon="2.18083">
        <ele>1624.77</ele>
        <time>2016-07-01T07:09:08Z</time>
      </trkpt>
      <trkpt lat="42.49494" lon="2.18082">
        <ele>1623.8</ele>
        <time>2016-07-01T07:09:10Z</time>
      </trkpt>
      <trkpt lat="42.49498" lon="2.18076">
        <ele>1623.8</ele>
        <time>2016-07-01T07:09:18Z</time>
      </trkpt>
      <trkpt lat="42.49508" lon="2.18066">
        <ele>1621.88</ele>
        <time>2016-07-01T07:09:31Z</time>
      </trkpt>
      <trkpt lat="42.49519" lon="2.18062">
        <ele>1618.52</ele>
        <time>2016-07-01T07:09:42Z</time>
      </trkpt>
      <trkpt lat="42.49522" lon="2.18061">
        <ele>1615.15</ele>
        <time>2016-07-01T07:09:46Z</time>
      </trkpt>
      <trkpt lat="42.49528" lon="2.18061">
        <ele>1612.27</ele>
        <time>2016-07-01T07:09:52Z</time>
      </trkpt>
      <trkpt lat="42.4953" lon="2.1806">
        <ele>1612.75</ele>
        <time>2016-07-01T07:09:54Z</time>
      </trkpt>
      <trkpt lat="42.49531" lon="2.18059">
        <ele>1612.75</ele>
        <time>2016-07-01T07:09:55Z</time>
      </trkpt>
      <trkpt lat="42.4954" lon="2.18054">
        <ele>1612.27</ele>
        <time>2016-07-01T07:10:06Z</time>
      </trkpt>
      <trkpt lat="42.49552" lon="2.18051">
        <ele>1609.86</ele>
        <time>2016-07-01T07:10:18Z</time>
      </trkpt>
      <trkpt lat="42.49556" lon="2.1805">
        <ele>1606.5</ele>
        <time>2016-07-01T07:10:21Z</time>
      </trkpt>
      <trkpt lat="42.49561" lon="2.18049">
        <ele>1603.62</ele>
        <time>2016-07-01T07:10:26Z</time>
      </trkpt>
      <trkpt lat="42.49564" lon="2.18049">
        <ele>1603.62</ele>
        <time>2016-07-01T07:10:29Z</time>
      </trkpt>
      <trkpt lat="42.49565" lon="2.18048">
        <ele>1603.62</ele>
        <time>2016-07-01T07:10:30Z</time>
      </trkpt>
      <trkpt lat="42.49566" lon="2.18048">
        <ele>1603.62</ele>
        <time>2016-07-01T07:10:31Z</time>
      </trkpt>
      <trkpt lat="42.49577" lon="2.18046">
        <ele>1602.66</ele>
        <time>2016-07-01T07:10:43Z</time>
      </trkpt>
      <trkpt lat="42.49578" lon="2.18046">
        <ele>1601.69</ele>
        <time>2016-07-01T07:10:44Z</time>
      </trkpt>
      <trkpt lat="42.4958" lon="2.18046">
        <ele>1602.17</ele>
        <time>2016-07-01T07:10:45Z</time>
      </trkpt>
      <trkpt lat="42.49591" lon="2.18045">
        <ele>1599.77</ele>
        <time>2016-07-01T07:10:55Z</time>
      </trkpt>
      <trkpt lat="42.496" lon="2.18045">
        <ele>1595.93</ele>
        <time>2016-07-01T07:11:02Z</time>
      </trkpt>
      <trkpt lat="42.49607" lon="2.18046">
        <ele>1593.04</ele>
        <time>2016-07-01T07:11:07Z</time>
      </trkpt>
      <trkpt lat="42.49608" lon="2.18047">
        <ele>1593.52</ele>
        <time>2016-07-01T07:11:08Z</time>
      </trkpt>
      <trkpt lat="42.49609" lon="2.18048">
        <ele>1592.56</ele>
        <time>2016-07-01T07:11:09Z</time>
      </trkpt>
      <trkpt lat="42.49617" lon="2.18056">
        <ele>1593.04</ele>
        <time>2016-07-01T07:11:22Z</time>
      </trkpt>
      <trkpt lat="42.49616" lon="2.18056">
        <ele>1593.04</ele>
        <time>2016-07-01T07:11:27Z</time>
      </trkpt>
      <trkpt lat="42.4961" lon="2.18047">
        <ele>1593.04</ele>
        <time>2016-07-01T07:11:36Z</time>
      </trkpt>
      <trkpt lat="42.49613" lon="2.18036">
        <ele>1594</ele>
        <time>2016-07-01T07:11:45Z</time>
      </trkpt>
      <trkpt lat="42.49614" lon="2.18026">
        <ele>1592.08</ele>
        <time>2016-07-01T07:11:53Z</time>
      </trkpt>
      <trkpt lat="42.49617" lon="2.18013">
        <ele>1588.72</ele>
        <time>2016-07-01T07:12:05Z</time>
      </trkpt>
      <trkpt lat="42.49617" lon="2.18009">
        <ele>1584.87</ele>
        <time>2016-07-01T07:12:09Z</time>
      </trkpt>
      <trkpt lat="42.49617" lon="2.18008">
        <ele>1584.39</ele>
        <time>2016-07-01T07:12:10Z</time>
      </trkpt>
      <trkpt lat="42.49614" lon="2.18">
        <ele>1582.47</ele>
        <time>2016-07-01T07:12:17Z</time>
      </trkpt>
      <trkpt lat="42.49613" lon="2.17998">
        <ele>1582.47</ele>
        <time>2016-07-01T07:12:20Z</time>
      </trkpt>
      <trkpt lat="42.49613" lon="2.17993">
        <ele>1582.47</ele>
        <time>2016-07-01T07:12:26Z</time>
      </trkpt>
      <trkpt lat="42.49614" lon="2.17984">
        <ele>1580.06</ele>
        <time>2016-07-01T07:12:38Z</time>
      </trkpt>
      <trkpt lat="42.49618" lon="2.17983">
        <ele>1579.1</ele>
        <time>2016-07-01T07:12:44Z</time>
      </trkpt>
      <trkpt lat="42.49623" lon="2.17981">
        <ele>1576.22</ele>
        <time>2016-07-01T07:12:49Z</time>
      </trkpt>
      <trkpt lat="42.49629" lon="2.17983">
        <ele>1572.37</ele>
        <time>2016-07-01T07:12:54Z</time>
      </trkpt>
      <trkpt lat="42.49632" lon="2.17984">
        <ele>1571.89</ele>
        <time>2016-07-01T07:12:57Z</time>
      </trkpt>
      <trkpt lat="42.49641" lon="2.17988">
        <ele>1571.89</ele>
        <time>2016-07-01T07:13:05Z</time>
      </trkpt>
      <trkpt lat="42.49653" lon="2.18">
        <ele>1570.45</ele>
        <time>2016-07-01T07:13:20Z</time>
      </trkpt>
      <trkpt lat="42.49663" lon="2.18007">
        <ele>1567.57</ele>
        <time>2016-07-01T07:13:32Z</time>
      </trkpt>
      <trkpt lat="42.49667" lon="2.1801">
        <ele>1567.57</ele>
        <time>2016-07-01T07:13:36Z</time>
      </trkpt>
      <trkpt lat="42.49674" lon="2.18018">
        <ele>1563.72</ele>
        <time>2016-07-01T07:13:46Z</time>
      </trkpt>
      <trkpt lat="42.49676" lon="2.18021">
        <ele>1560.36</ele>
        <time>2016-07-01T07:13:50Z</time>
      </trkpt>
      <trkpt lat="42.49678" lon="2.18023">
        <ele>1559.4</ele>
        <time>2016-07-01T07:13:54Z</time>
      </trkpt>
      <trkpt lat="42.49684" lon="2.18027">
        <ele>1557.95</ele>
        <time>2016-07-01T07:14:02Z</time>
      </trkpt>
      <trkpt lat="42.4969" lon="2.18023">
        <ele>1557.47</ele>
        <time>2016-07-01T07:14:10Z</time>
      </trkpt>
      <trkpt lat="42.49693" lon="2.18016">
        <ele>1556.51</ele>
        <time>2016-07-01T07:14:16Z</time>
      </trkpt>
      <trkpt lat="42.49696" lon="2.18006">
        <ele>1551.71</ele>
        <time>2016-07-01T07:14:25Z</time>
      </trkpt>
      <trkpt lat="42.49695" lon="2.18">
        <ele>1548.34</ele>
        <time>2016-07-01T07:14:29Z</time>
      </trkpt>
      <trkpt lat="42.49694" lon="2.17994">
        <ele>1546.9</ele>
        <time>2016-07-01T07:14:33Z</time>
      </trkpt>
      <trkpt lat="42.49687" lon="2.17972">
        <ele>1547.38</ele>
        <time>2016-07-01T07:14:48Z</time>
      </trkpt>
      <trkpt lat="42.49686" lon="2.17968">
        <ele>1546.9</ele>
        <time>2016-07-01T07:14:51Z</time>
      </trkpt>
      <trkpt lat="42.4968" lon="2.1795">
        <ele>1544.5</ele>
        <time>2016-07-01T07:15:05Z</time>
      </trkpt>
      <trkpt lat="42.4968" lon="2.17949">
        <ele>1543.05</ele>
        <time>2016-07-01T07:15:15Z</time>
      </trkpt>
      <trkpt lat="42.49679" lon="2.17948">
        <ele>1542.57</ele>
        <time>2016-07-01T07:15:18Z</time>
      </trkpt>
      <trkpt lat="42.49676" lon="2.17943">
        <ele>1541.61</ele>
        <time>2016-07-01T07:15:22Z</time>
      </trkpt>
      <trkpt lat="42.4967" lon="2.17931">
        <ele>1540.17</ele>
        <time>2016-07-01T07:15:33Z</time>
      </trkpt>
      <trkpt lat="42.49665" lon="2.17923">
        <ele>1538.25</ele>
        <time>2016-07-01T07:15:40Z</time>
      </trkpt>
      <trkpt lat="42.49664" lon="2.1792">
        <ele>1538.25</ele>
        <time>2016-07-01T07:15:42Z</time>
      </trkpt>
      <trkpt lat="42.49658" lon="2.17907">
        <ele>1535.84</ele>
        <time>2016-07-01T07:15:53Z</time>
      </trkpt>
      <trkpt lat="42.49658" lon="2.17907">
        <ele>1535.84</ele>
        <time>2016-07-01T07:15:54Z</time>
      </trkpt>
      <trkpt lat="42.4965" lon="2.17896">
        <ele>1531.52</ele>
        <time>2016-07-01T07:16:04Z</time>
      </trkpt>
      <trkpt lat="42.49647" lon="2.17894">
        <ele>1529.11</ele>
        <time>2016-07-01T07:16:09Z</time>
      </trkpt>
      <trkpt lat="42.49642" lon="2.17886">
        <ele>1528.63</ele>
        <time>2016-07-01T07:16:17Z</time>
      </trkpt>
      <trkpt lat="42.49638" lon="2.17879">
        <ele>1528.15</ele>
        <time>2016-07-01T07:16:28Z</time>
      </trkpt>
      <trkpt lat="42.49633" lon="2.17871">
        <ele>1526.71</ele>
        <time>2016-07-01T07:16:37Z</time>
      </trkpt>
      <trkpt lat="42.4963" lon="2.17868">
        <ele>1526.23</ele>
        <time>2016-07-01T07:16:40Z</time>
      </trkpt>
      <trkpt lat="42.49623" lon="2.17857">
        <ele>1523.83</ele>
        <time>2016-07-01T07:16:51Z</time>
      </trkpt>
      <trkpt lat="42.4962" lon="2.17856">
        <ele>1522.39</ele>
        <time>2016-07-01T07:16:55Z</time>
      </trkpt>
      <trkpt lat="42.49617" lon="2.17852">
        <ele>1518.54</ele>
        <time>2016-07-01T07:17:01Z</time>
      </trkpt>
      <trkpt lat="42.49617" lon="2.17849">
        <ele>1518.06</ele>
        <time>2016-07-01T07:17:03Z</time>
      </trkpt>
      <trkpt lat="42.49617" lon="2.17846">
        <ele>1516.62</ele>
        <time>2016-07-01T07:17:05Z</time>
      </trkpt>
      <trkpt lat="42.49615" lon="2.17841">
        <ele>1517.1</ele>
        <time>2016-07-01T07:17:08Z</time>
      </trkpt>
      <trkpt lat="42.4961" lon="2.1783">
        <ele>1516.62</ele>
        <time>2016-07-01T07:17:16Z</time>
      </trkpt>
      <trkpt lat="42.49605" lon="2.17814">
        <ele>1514.69</ele>
        <time>2016-07-01T07:17:29Z</time>
      </trkpt>
      <trkpt lat="42.49603" lon="2.17806">
        <ele>1513.25</ele>
        <time>2016-07-01T07:17:36Z</time>
      </trkpt>
      <trkpt lat="42.496" lon="2.17801">
        <ele>1509.89</ele>
        <time>2016-07-01T07:17:41Z</time>
      </trkpt>
      <trkpt lat="42.49599" lon="2.17797">
        <ele>1506.52</ele>
        <time>2016-07-01T07:17:45Z</time>
      </trkpt>
      <trkpt lat="42.49596" lon="2.17783">
        <ele>1505.56</ele>
        <time>2016-07-01T07:17:56Z</time>
      </trkpt>
      <trkpt lat="42.49592" lon="2.17776">
        <ele>1505.08</ele>
        <time>2016-07-01T07:18:02Z</time>
      </trkpt>
      <trkpt lat="42.4959" lon="2.17757">
        <ele>1503.16</ele>
        <time>2016-07-01T07:18:15Z</time>
      </trkpt>
      <trkpt lat="42.49589" lon="2.17753">
        <ele>1502.68</ele>
        <time>2016-07-01T07:18:19Z</time>
      </trkpt>
      <trkpt lat="42.49583" lon="2.17743">
        <ele>1498.83</ele>
        <time>2016-07-01T07:18:29Z</time>
      </trkpt>
      <trkpt lat="42.49582" lon="2.17739">
        <ele>1495.47</ele>
        <time>2016-07-01T07:18:33Z</time>
      </trkpt>
      <trkpt lat="42.49581" lon="2.17723">
        <ele>1493.06</ele>
        <time>2016-07-01T07:18:47Z</time>
      </trkpt>
      <trkpt lat="42.4958" lon="2.17711">
        <ele>1492.1</ele>
        <time>2016-07-01T07:18:56Z</time>
      </trkpt>
      <trkpt lat="42.49581" lon="2.17694">
        <ele>1488.74</ele>
        <time>2016-07-01T07:19:10Z</time>
      </trkpt>
      <trkpt lat="42.49579" lon="2.1768">
        <ele>1485.85</ele>
        <time>2016-07-01T07:19:21Z</time>
      </trkpt>
      <trkpt lat="42.49579" lon="2.17675">
        <ele>1482.01</ele>
        <time>2016-07-01T07:19:26Z</time>
      </trkpt>
      <trkpt lat="42.49575" lon="2.17664">
        <ele>1480.57</ele>
        <time>2016-07-01T07:19:38Z</time>
      </trkpt>
      <trkpt lat="42.49572" lon="2.17654">
        <ele>1479.13</ele>
        <time>2016-07-01T07:19:48Z</time>
      </trkpt>
      <trkpt lat="42.49566" lon="2.1764">
        <ele>1476.24</ele>
        <time>2016-07-01T07:20:01Z</time>
      </trkpt>
      <trkpt lat="42.49562" lon="2.1763">
        <ele>1474.8</ele>
        <time>2016-07-01T07:20:09Z</time>
      </trkpt>
      <trkpt lat="42.49558" lon="2.17617">
        <ele>1472.4</ele>
        <time>2016-07-01T07:20:17Z</time>
      </trkpt>
      <trkpt lat="42.49556" lon="2.1761">
        <ele>1468.55</ele>
        <time>2016-07-01T07:20:23Z</time>
      </trkpt>
      <trkpt lat="42.49555" lon="2.17607">
        <ele>1467.59</ele>
        <time>2016-07-01T07:20:25Z</time>
      </trkpt>
      <trkpt lat="42.49555" lon="2.17601">
        <ele>1466.15</ele>
        <time>2016-07-01T07:20:29Z</time>
      </trkpt>
      <trkpt lat="42.49551" lon="2.17584">
        <ele>1465.19</ele>
        <time>2016-07-01T07:20:42Z</time>
      </trkpt>
      <trkpt lat="42.49547" lon="2.17569">
        <ele>1462.78</ele>
        <time>2016-07-01T07:20:55Z</time>
      </trkpt>
      <trkpt lat="42.49544" lon="2.17558">
        <ele>1459.42</ele>
        <time>2016-07-01T07:21:10Z</time>
      </trkpt>
      <trkpt lat="42.49543" lon="2.17556">
        <ele>1458.94</ele>
        <time>2016-07-01T07:21:13Z</time>
      </trkpt>
      <trkpt lat="42.49542" lon="2.17548">
        <ele>1456.05</ele>
        <time>2016-07-01T07:21:21Z</time>
      </trkpt>
      <trkpt lat="42.49542" lon="2.17545">
        <ele>1454.61</ele>
        <time>2016-07-01T07:21:23Z</time>
      </trkpt>
      <trkpt lat="42.49541" lon="2.17529">
        <ele>1452.21</ele>
        <time>2016-07-01T07:21:37Z</time>
      </trkpt>
      <trkpt lat="42.49541" lon="2.17524">
        <ele>1451.73</ele>
        <time>2016-07-01T07:21:50Z</time>
      </trkpt>
      <trkpt lat="42.49541" lon="2.17523">
        <ele>1451.25</ele>
        <time>2016-07-01T07:22:13Z</time>
      </trkpt>
      <trkpt lat="42.49541" lon="2.1752">
        <ele>1450.77</ele>
        <time>2016-07-01T07:22:29Z</time>
      </trkpt>
      <trkpt lat="42.49542" lon="2.17511">
        <ele>1449.81</ele>
        <time>2016-07-01T07:22:36Z</time>
      </trkpt>
      <trkpt lat="42.49542" lon="2.17493">
        <ele>1446.44</ele>
        <time>2016-07-01T07:22:50Z</time>
      </trkpt>
      <trkpt lat="42.49543" lon="2.17486">
        <ele>1443.56</ele>
        <time>2016-07-01T07:22:58Z</time>
      </trkpt>
      <trkpt lat="42.49544" lon="2.17482">
        <ele>1440.19</ele>
        <time>2016-07-01T07:23:02Z</time>
      </trkpt>
      <trkpt lat="42.49547" lon="2.17474">
        <ele>1439.23</ele>
        <time>2016-07-01T07:23:14Z</time>
      </trkpt>
      <trkpt lat="42.49546" lon="2.17468">
        <ele>1439.23</ele>
        <time>2016-07-01T07:23:18Z</time>
      </trkpt>
      <trkpt lat="42.49545" lon="2.17466">
        <ele>1438.75</ele>
        <time>2016-07-01T07:23:20Z</time>
      </trkpt>
      <trkpt lat="42.49541" lon="2.17453">
        <ele>1437.31</ele>
        <time>2016-07-01T07:23:32Z</time>
      </trkpt>
      <trkpt lat="42.4954" lon="2.1744">
        <ele>1433.46</ele>
        <time>2016-07-01T07:23:42Z</time>
      </trkpt>
      <trkpt lat="42.4954" lon="2.17437">
        <ele>1430.58</ele>
        <time>2016-07-01T07:23:46Z</time>
      </trkpt>
      <trkpt lat="42.4954" lon="2.17431">
        <ele>1428.66</ele>
        <time>2016-07-01T07:23:50Z</time>
      </trkpt>
      <trkpt lat="42.49539" lon="2.1743">
        <ele>1428.18</ele>
        <time>2016-07-01T07:23:52Z</time>
      </trkpt>
      <trkpt lat="42.49538" lon="2.17422">
        <ele>1428.66</ele>
        <time>2016-07-01T07:23:58Z</time>
      </trkpt>
      <trkpt lat="42.49535" lon="2.17408">
        <ele>1427.7</ele>
        <time>2016-07-01T07:24:12Z</time>
      </trkpt>
      <trkpt lat="42.49536" lon="2.17405">
        <ele>1427.7</ele>
        <time>2016-07-01T07:24:14Z</time>
      </trkpt>
      <trkpt lat="42.49536" lon="2.17391">
        <ele>1425.29</ele>
        <time>2016-07-01T07:24:27Z</time>
      </trkpt>
      <trkpt lat="42.49533" lon="2.17381">
        <ele>1423.85</ele>
        <time>2016-07-01T07:24:39Z</time>
      </trkpt>
      <trkpt lat="42.49534" lon="2.17365">
        <ele>1420.49</ele>
        <time>2016-07-01T07:24:52Z</time>
      </trkpt>
      <trkpt lat="42.49535" lon="2.17355">
        <ele>1417.12</ele>
        <time>2016-07-01T07:25:00Z</time>
      </trkpt>
      <trkpt lat="42.49535" lon="2.17353">
        <ele>1415.68</ele>
        <time>2016-07-01T07:25:02Z</time>
      </trkpt>
      <trkpt lat="42.49537" lon="2.17338">
        <ele>1413.76</ele>
        <time>2016-07-01T07:25:16Z</time>
      </trkpt>
      <trkpt lat="42.49541" lon="2.17329">
        <ele>1411.35</ele>
        <time>2016-07-01T07:25:27Z</time>
      </trkpt>
      <trkpt lat="42.49545" lon="2.17321">
        <ele>1408.47</ele>
        <time>2016-07-01T07:25:36Z</time>
      </trkpt>
      <trkpt lat="42.49546" lon="2.17317">
        <ele>1405.1</ele>
        <time>2016-07-01T07:25:40Z</time>
      </trkpt>
      <trkpt lat="42.49546" lon="2.17317">
        <ele>1404.62</ele>
        <time>2016-07-01T07:25:41Z</time>
      </trkpt>
      <trkpt lat="42.49547" lon="2.17305">
        <ele>1402.7</ele>
        <time>2016-07-01T07:25:54Z</time>
      </trkpt>
      <trkpt lat="42.49552" lon="2.17297">
        <ele>1400.3</ele>
        <time>2016-07-01T07:26:07Z</time>
      </trkpt>
      <trkpt lat="42.49562" lon="2.17292">
        <ele>1397.89</ele>
        <time>2016-07-01T07:26:20Z</time>
      </trkpt>
      <trkpt lat="42.49564" lon="2.17293">
        <ele>1397.41</ele>
        <time>2016-07-01T07:26:22Z</time>
      </trkpt>
      <trkpt lat="42.49569" lon="2.17293">
        <ele>1396.93</ele>
        <time>2016-07-01T07:26:26Z</time>
      </trkpt>
      <trkpt lat="42.49572" lon="2.17292">
        <ele>1396.45</ele>
        <time>2016-07-01T07:26:29Z</time>
      </trkpt>
      <trkpt lat="42.49583" lon="2.17291">
        <ele>1392.61</ele>
        <time>2016-07-01T07:26:43Z</time>
      </trkpt>
      <trkpt lat="42.49586" lon="2.17289">
        <ele>1389.24</ele>
        <time>2016-07-01T07:26:47Z</time>
      </trkpt>
      <trkpt lat="42.49588" lon="2.17283">
        <ele>1386.84</ele>
        <time>2016-07-01T07:26:54Z</time>
      </trkpt>
      <trkpt lat="42.4959" lon="2.17279">
        <ele>1386.84</ele>
        <time>2016-07-01T07:26:59Z</time>
      </trkpt>
      <trkpt lat="42.49599" lon="2.17283">
        <ele>1386.84</ele>
        <time>2016-07-01T07:27:11Z</time>
      </trkpt>
      <trkpt lat="42.49607" lon="2.17292">
        <ele>1386.36</ele>
        <time>2016-07-01T07:27:20Z</time>
      </trkpt>
      <trkpt lat="42.49614" lon="2.17301">
        <ele>1385.4</ele>
        <time>2016-07-01T07:27:29Z</time>
      </trkpt>
      <trkpt lat="42.49623" lon="2.17314">
        <ele>1384.44</ele>
        <time>2016-07-01T07:27:44Z</time>
      </trkpt>
      <trkpt lat="42.49624" lon="2.17316">
        <ele>1383.96</ele>
        <time>2016-07-01T07:28:03Z</time>
      </trkpt>
      <trkpt lat="42.49627" lon="2.17321">
        <ele>1382.99</ele>
        <time>2016-07-01T07:28:17Z</time>
      </trkpt>
      <trkpt lat="42.49628" lon="2.17321">
        <ele>1382.99</ele>
        <time>2016-07-01T07:28:21Z</time>
      </trkpt>
      <trkpt lat="42.4963" lon="2.17326">
        <ele>1382.51</ele>
        <time>2016-07-01T07:28:36Z</time>
      </trkpt>
      <trkpt lat="42.49636" lon="2.17333">
        <ele>1382.03</ele>
        <time>2016-07-01T07:28:51Z</time>
      </trkpt>
      <trkpt lat="42.49638" lon="2.17338">
        <ele>1382.03</ele>
        <time>2016-07-01T07:28:55Z</time>
      </trkpt>
      <trkpt lat="42.4964" lon="2.17341">
        <ele>1382.03</ele>
        <time>2016-07-01T07:28:58Z</time>
      </trkpt>
      <trkpt lat="42.49649" lon="2.1735">
        <ele>1380.59</ele>
        <time>2016-07-01T07:29:07Z</time>
      </trkpt>
      <trkpt lat="42.49657" lon="2.17358">
        <ele>1380.11</ele>
        <time>2016-07-01T07:29:15Z</time>
      </trkpt>
      <trkpt lat="42.49663" lon="2.17369">
        <ele>1378.67</ele>
        <time>2016-07-01T07:29:23Z</time>
      </trkpt>
      <trkpt lat="42.49667" lon="2.1738">
        <ele>1378.67</ele>
        <time>2016-07-01T07:29:30Z</time>
      </trkpt>
      <trkpt lat="42.4967" lon="2.17389">
        <ele>1377.71</ele>
        <time>2016-07-01T07:29:36Z</time>
      </trkpt>
      <trkpt lat="42.49674" lon="2.17412">
        <ele>1376.26</ele>
        <time>2016-07-01T07:29:51Z</time>
      </trkpt>
      <trkpt lat="42.49678" lon="2.17422">
        <ele>1375.3</ele>
        <time>2016-07-01T07:29:59Z</time>
      </trkpt>
      <trkpt lat="42.49682" lon="2.17428">
        <ele>1374.34</ele>
        <time>2016-07-01T07:30:03Z</time>
      </trkpt>
      <trkpt lat="42.49696" lon="2.17449">
        <ele>1372.9</ele>
        <time>2016-07-01T07:30:20Z</time>
      </trkpt>
      <trkpt lat="42.49708" lon="2.17466">
        <ele>1371.46</ele>
        <time>2016-07-01T07:30:33Z</time>
      </trkpt>
      <trkpt lat="42.49723" lon="2.17483">
        <ele>1369.54</ele>
        <time>2016-07-01T07:30:48Z</time>
      </trkpt>
      <trkpt lat="42.49728" lon="2.17487">
        <ele>1369.05</ele>
        <time>2016-07-01T07:30:52Z</time>
      </trkpt>
      <trkpt lat="42.49741" lon="2.17503">
        <ele>1367.61</ele>
        <time>2016-07-01T07:31:07Z</time>
      </trkpt>
      <trkpt lat="42.49739" lon="2.17502">
        <ele>1367.13</ele>
        <time>2016-07-01T07:31:16Z</time>
      </trkpt>
      <trkpt lat="42.49739" lon="2.17499">
        <ele>1366.65</ele>
        <time>2016-07-01T07:31:30Z</time>
      </trkpt>
      <trkpt lat="42.4974" lon="2.17498">
        <ele>1365.21</ele>
        <time>2016-07-01T07:31:52Z</time>
      </trkpt>
      <trkpt lat="42.4974" lon="2.17498">
        <ele>1365.21</ele>
        <time>2016-07-01T07:32:20Z</time>
      </trkpt>
      <trkpt lat="42.4974" lon="2.17498">
        <ele>1365.21</ele>
        <time>2016-07-01T07:32:47Z</time>
      </trkpt>
      <trkpt lat="42.4974" lon="2.17499">
        <ele>1364.73</ele>
        <time>2016-07-01T07:33:11Z</time>
      </trkpt>
      <trkpt lat="42.4974" lon="2.175">
        <ele>1364.73</ele>
        <time>2016-07-01T07:33:25Z</time>
      </trkpt>
      <trkpt lat="42.4974" lon="2.175">
        <ele>1364.73</ele>
        <time>2016-07-01T07:33:34Z</time>
      </trkpt>
      <trkpt lat="42.49743" lon="2.17504">
        <ele>1364.73</ele>
        <time>2016-07-01T07:33:40Z</time>
      </trkpt>
      <trkpt lat="42.49747" lon="2.17509">
        <ele>1364.73</ele>
        <time>2016-07-01T07:33:46Z</time>
      </trkpt>
      <trkpt lat="42.49759" lon="2.17521">
        <ele>1364.73</ele>
        <time>2016-07-01T07:33:59Z</time>
      </trkpt>
      <trkpt lat="42.4976" lon="2.17521">
        <ele>1364.73</ele>
        <time>2016-07-01T07:34:00Z</time>
      </trkpt>
      <trkpt lat="42.49767" lon="2.17527">
        <ele>1364.25</ele>
        <time>2016-07-01T07:34:07Z</time>
      </trkpt>
      <trkpt lat="42.49771" lon="2.17531">
        <ele>1364.25</ele>
        <time>2016-07-01T07:34:11Z</time>
      </trkpt>
      <trkpt lat="42.49785" lon="2.17546">
        <ele>1363.29</ele>
        <time>2016-07-01T07:34:26Z</time>
      </trkpt>
      <trkpt lat="42.4979" lon="2.17551">
        <ele>1363.29</ele>
        <time>2016-07-01T07:34:31Z</time>
      </trkpt>
      <trkpt lat="42.49794" lon="2.17554">
        <ele>1362.81</ele>
        <time>2016-07-01T07:34:35Z</time>
      </trkpt>
      <trkpt lat="42.49809" lon="2.1757">
        <ele>1361.36</ele>
        <time>2016-07-01T07:34:51Z</time>
      </trkpt>
      <trkpt lat="42.49812" lon="2.17574">
        <ele>1360.88</ele>
        <time>2016-07-01T07:34:54Z</time>
      </trkpt>
      <trkpt lat="42.49826" lon="2.17583">
        <ele>1359.92</ele>
        <time>2016-07-01T07:35:08Z</time>
      </trkpt>
      <trkpt lat="42.49833" lon="2.17585">
        <ele>1359.44</ele>
        <time>2016-07-01T07:35:14Z</time>
      </trkpt>
      <trkpt lat="42.49836" lon="2.17585">
        <ele>1359.44</ele>
        <time>2016-07-01T07:35:17Z</time>
      </trkpt>
      <trkpt lat="42.49857" lon="2.17588">
        <ele>1357.52</ele>
        <time>2016-07-01T07:35:34Z</time>
      </trkpt>
      <trkpt lat="42.4986" lon="2.17588">
        <ele>1357.04</ele>
        <time>2016-07-01T07:35:37Z</time>
      </trkpt>
      <trkpt lat="42.49863" lon="2.17588">
        <ele>1357.04</ele>
        <time>2016-07-01T07:35:39Z</time>
      </trkpt>
      <trkpt lat="42.49866" lon="2.17589">
        <ele>1357.04</ele>
        <time>2016-07-01T07:35:42Z</time>
      </trkpt>
      <trkpt lat="42.49881" lon="2.1759">
        <ele>1355.6</ele>
        <time>2016-07-01T07:35:55Z</time>
      </trkpt>
      <trkpt lat="42.49896" lon="2.17595">
        <ele>1354.63</ele>
        <time>2016-07-01T07:36:08Z</time>
      </trkpt>
      <trkpt lat="42.49903" lon="2.17598">
        <ele>1354.15</ele>
        <time>2016-07-01T07:36:14Z</time>
      </trkpt>
      <trkpt lat="42.49906" lon="2.17599">
        <ele>1353.67</ele>
        <time>2016-07-01T07:36:17Z</time>
      </trkpt>
      <trkpt lat="42.49912" lon="2.17588">
        <ele>1352.23</ele>
        <time>2016-07-01T07:36:28Z</time>
      </trkpt>
      <trkpt lat="42.49896" lon="2.17585">
        <ele>1351.27</ele>
        <time>2016-07-01T07:36:42Z</time>
      </trkpt>
      <trkpt lat="42.49895" lon="2.17585">
        <ele>1351.27</ele>
        <time>2016-07-01T07:36:43Z</time>
      </trkpt>
      <trkpt lat="42.49882" lon="2.1758">
        <ele>1350.31</ele>
        <time>2016-07-01T07:36:54Z</time>
      </trkpt>
      <trkpt lat="42.4988" lon="2.17577">
        <ele>1349.35</ele>
        <time>2016-07-01T07:36:57Z</time>
      </trkpt>
      <trkpt lat="42.49874" lon="2.17571">
        <ele>1348.87</ele>
        <time>2016-07-01T07:37:03Z</time>
      </trkpt>
      <trkpt lat="42.4987" lon="2.17564">
        <ele>1348.39</ele>
        <time>2016-07-01T07:37:09Z</time>
      </trkpt>
      <trkpt lat="42.49867" lon="2.17559">
        <ele>1348.39</ele>
        <time>2016-07-01T07:37:12Z</time>
      </trkpt>
      <trkpt lat="42.49862" lon="2.17535">
        <ele>1346.94</ele>
        <time>2016-07-01T07:37:27Z</time>
      </trkpt>
      <trkpt lat="42.4986" lon="2.17526">
        <ele>1346.46</ele>
        <time>2016-07-01T07:37:32Z</time>
      </trkpt>
      <trkpt lat="42.49858" lon="2.17507">
        <ele>1345.5</ele>
        <time>2016-07-01T07:37:43Z</time>
      </trkpt>
      <trkpt lat="42.49857" lon="2.17501">
        <ele>1345.02</ele>
        <time>2016-07-01T07:37:47Z</time>
      </trkpt>
      <trkpt lat="42.49856" lon="2.17484">
        <ele>1344.06</ele>
        <time>2016-07-01T07:37:57Z</time>
      </trkpt>
      <trkpt lat="42.49856" lon="2.1746">
        <ele>1343.58</ele>
        <time>2016-07-01T07:38:11Z</time>
      </trkpt>
      <trkpt lat="42.49857" lon="2.1744">
        <ele>1342.14</ele>
        <time>2016-07-01T07:38:23Z</time>
      </trkpt>
      <trkpt lat="42.49862" lon="2.17417">
        <ele>1341.18</ele>
        <time>2016-07-01T07:38:37Z</time>
      </trkpt>
      <trkpt lat="42.49868" lon="2.17399">
        <ele>1339.73</ele>
        <time>2016-07-01T07:38:49Z</time>
      </trkpt>
      <trkpt lat="42.49878" lon="2.17384">
        <ele>1338.77</ele>
        <time>2016-07-01T07:39:02Z</time>
      </trkpt>
      <trkpt lat="42.49885" lon="2.17376">
        <ele>1338.29</ele>
        <time>2016-07-01T07:39:10Z</time>
      </trkpt>
      <trkpt lat="42.49896" lon="2.17362">
        <ele>1336.37</ele>
        <time>2016-07-01T07:39:23Z</time>
      </trkpt>
      <trkpt lat="42.49902" lon="2.17351">
        <ele>1335.41</ele>
        <time>2016-07-01T07:39:34Z</time>
      </trkpt>
      <trkpt lat="42.49902" lon="2.17351">
        <ele>1335.41</ele>
        <time>2016-07-01T07:39:39Z</time>
      </trkpt>
      <trkpt lat="42.49902" lon="2.17347">
        <ele>1334.93</ele>
        <time>2016-07-01T07:39:41Z</time>
      </trkpt>
      <trkpt lat="42.49902" lon="2.17339">
        <ele>1333.97</ele>
        <time>2016-07-01T07:39:49Z</time>
      </trkpt>
      <trkpt lat="42.49903" lon="2.17336">
        <ele>1333.49</ele>
        <time>2016-07-01T07:40:05Z</time>
      </trkpt>
      <trkpt lat="42.49902" lon="2.17332">
        <ele>1333.49</ele>
        <time>2016-07-01T07:40:18Z</time>
      </trkpt>
      <trkpt lat="42.49902" lon="2.17331">
        <ele>1333.01</ele>
        <time>2016-07-01T07:40:34Z</time>
      </trkpt>
      <trkpt lat="42.49901" lon="2.17325">
        <ele>1332.52</ele>
        <time>2016-07-01T07:40:49Z</time>
      </trkpt>
      <trkpt lat="42.49902" lon="2.17319">
        <ele>1332.04</ele>
        <time>2016-07-01T07:41:03Z</time>
      </trkpt>
      <trkpt lat="42.49902" lon="2.17317">
        <ele>1332.04</ele>
        <time>2016-07-01T07:41:04Z</time>
      </trkpt>
      <trkpt lat="42.49902" lon="2.17311">
        <ele>1332.04</ele>
        <time>2016-07-01T07:41:09Z</time>
      </trkpt>
      <trkpt lat="42.499" lon="2.17302">
        <ele>1331.56</ele>
        <time>2016-07-01T07:41:16Z</time>
      </trkpt>
      <trkpt lat="42.499" lon="2.173">
        <ele>1331.56</ele>
        <time>2016-07-01T07:41:17Z</time>
      </trkpt>
      <trkpt lat="42.49899" lon="2.17299">
        <ele>1331.56</ele>
        <time>2016-07-01T07:41:18Z</time>
      </trkpt>
      <trkpt lat="42.49898" lon="2.17293">
        <ele>1331.56</ele>
        <time>2016-07-01T07:41:22Z</time>
      </trkpt>
      <trkpt lat="42.49895" lon="2.17289">
        <ele>1331.08</ele>
        <time>2016-07-01T07:41:26Z</time>
      </trkpt>
      <trkpt lat="42.49894" lon="2.17286">
        <ele>1331.08</ele>
        <time>2016-07-01T07:41:28Z</time>
      </trkpt>
      <trkpt lat="42.49893" lon="2.17285">
        <ele>1330.6</ele>
        <time>2016-07-01T07:41:29Z</time>
      </trkpt>
      <trkpt lat="42.49893" lon="2.17284">
        <ele>1330.6</ele>
        <time>2016-07-01T07:41:30Z</time>
      </trkpt>
      <trkpt lat="42.49892" lon="2.17283">
        <ele>1330.6</ele>
        <time>2016-07-01T07:41:31Z</time>
      </trkpt>
      <trkpt lat="42.49892" lon="2.17281">
        <ele>1330.6</ele>
        <time>2016-07-01T07:41:32Z</time>
      </trkpt>
      <trkpt lat="42.49891" lon="2.1728">
        <ele>1330.6</ele>
        <time>2016-07-01T07:41:33Z</time>
      </trkpt>
      <trkpt lat="42.4989" lon="2.17279">
        <ele>1330.6</ele>
        <time>2016-07-01T07:41:34Z</time>
      </trkpt>
      <trkpt lat="42.4989" lon="2.17277">
        <ele>1330.12</ele>
        <time>2016-07-01T07:41:35Z</time>
      </trkpt>
      <trkpt lat="42.49889" lon="2.17275">
        <ele>1330.12</ele>
        <time>2016-07-01T07:41:36Z</time>
      </trkpt>
      <trkpt lat="42.49889" lon="2.17274">
        <ele>1330.12</ele>
        <time>2016-07-01T07:41:37Z</time>
      </trkpt>
      <trkpt lat="42.49888" lon="2.17273">
        <ele>1329.64</ele>
        <time>2016-07-01T07:41:38Z</time>
      </trkpt>
      <trkpt lat="42.49888" lon="2.17271">
        <ele>1329.64</ele>
        <time>2016-07-01T07:41:39Z</time>
      </trkpt>
      <trkpt lat="42.49887" lon="2.17269">
        <ele>1329.64</ele>
        <time>2016-07-01T07:41:40Z</time>
      </trkpt>
      <trkpt lat="42.49886" lon="2.17268">
        <ele>1329.16</ele>
        <time>2016-07-01T07:41:41Z</time>
      </trkpt>
      <trkpt lat="42.49886" lon="2.17267">
        <ele>1329.16</ele>
        <time>2016-07-01T07:41:42Z</time>
      </trkpt>
      <trkpt lat="42.49883" lon="2.17258">
        <ele>1329.16</ele>
        <time>2016-07-01T07:41:48Z</time>
      </trkpt>
      <trkpt lat="42.49883" lon="2.17256">
        <ele>1329.16</ele>
        <time>2016-07-01T07:41:49Z</time>
      </trkpt>
      <trkpt lat="42.49882" lon="2.17254">
        <ele>1328.68</ele>
        <time>2016-07-01T07:41:50Z</time>
      </trkpt>
      <trkpt lat="42.49881" lon="2.17249">
        <ele>1328.68</ele>
        <time>2016-07-01T07:41:53Z</time>
      </trkpt>
      <trkpt lat="42.4988" lon="2.17248">
        <ele>1328.68</ele>
        <time>2016-07-01T07:41:54Z</time>
      </trkpt>
      <trkpt lat="42.49879" lon="2.17247">
        <ele>1328.68</ele>
        <time>2016-07-01T07:41:55Z</time>
      </trkpt>
      <trkpt lat="42.49879" lon="2.17245">
        <ele>1328.68</ele>
        <time>2016-07-01T07:41:56Z</time>
      </trkpt>
      <trkpt lat="42.49878" lon="2.17243">
        <ele>1328.68</ele>
        <time>2016-07-01T07:41:57Z</time>
      </trkpt>
      <trkpt lat="42.49878" lon="2.17242">
        <ele>1328.68</ele>
        <time>2016-07-01T07:41:58Z</time>
      </trkpt>
      <trkpt lat="42.49878" lon="2.1724">
        <ele>1328.2</ele>
        <time>2016-07-01T07:41:59Z</time>
      </trkpt>
      <trkpt lat="42.49877" lon="2.17239">
        <ele>1328.2</ele>
        <time>2016-07-01T07:42:00Z</time>
      </trkpt>
      <trkpt lat="42.49877" lon="2.17237">
        <ele>1328.2</ele>
        <time>2016-07-01T07:42:01Z</time>
      </trkpt>
      <trkpt lat="42.49876" lon="2.17235">
        <ele>1328.2</ele>
        <time>2016-07-01T07:42:02Z</time>
      </trkpt>
      <trkpt lat="42.49875" lon="2.17234">
        <ele>1328.2</ele>
        <time>2016-07-01T07:42:03Z</time>
      </trkpt>
      <trkpt lat="42.49875" lon="2.17232">
        <ele>1328.2</ele>
        <time>2016-07-01T07:42:04Z</time>
      </trkpt>
      <trkpt lat="42.49874" lon="2.17231">
        <ele>1328.2</ele>
        <time>2016-07-01T07:42:05Z</time>
      </trkpt>
      <trkpt lat="42.49874" lon="2.17229">
        <ele>1328.2</ele>
        <time>2016-07-01T07:42:06Z</time>
      </trkpt>
      <trkpt lat="42.49869" lon="2.17204">
        <ele>1327.24</ele>
        <time>2016-07-01T07:42:21Z</time>
      </trkpt>
      <trkpt lat="42.49867" lon="2.17192">
        <ele>1326.28</ele>
        <time>2016-07-01T07:42:29Z</time>
      </trkpt>
      <trkpt lat="42.49866" lon="2.17188">
        <ele>1326.28</ele>
        <time>2016-07-01T07:42:32Z</time>
      </trkpt>
      <trkpt lat="42.49864" lon="2.17188">
        <ele>1326.28</ele>
        <time>2016-07-01T07:42:41Z</time>
      </trkpt>
      <trkpt lat="42.49865" lon="2.17188">
        <ele>1325.8</ele>
        <time>2016-07-01T07:43:04Z</time>
      </trkpt>
      <trkpt lat="42.49865" lon="2.17188">
        <ele>1325.31</ele>
        <time>2016-07-01T07:43:24Z</time>
      </trkpt>
      <trkpt lat="42.49865" lon="2.17188">
        <ele>1325.31</ele>
        <time>2016-07-01T07:43:33Z</time>
      </trkpt>
      <trkpt lat="42.49866" lon="2.17187">
        <ele>1325.31</ele>
        <time>2016-07-01T07:43:34Z</time>
      </trkpt>
      <trkpt lat="42.49866" lon="2.17185">
        <ele>1325.31</ele>
        <time>2016-07-01T07:43:35Z</time>
      </trkpt>
      <trkpt lat="42.49866" lon="2.17183">
        <ele>1325.31</ele>
        <time>2016-07-01T07:43:36Z</time>
      </trkpt>
      <trkpt lat="42.49866" lon="2.17182">
        <ele>1325.31</ele>
        <time>2016-07-01T07:43:37Z</time>
      </trkpt>
      <trkpt lat="42.49867" lon="2.17179">
        <ele>1325.31</ele>
        <time>2016-07-01T07:43:42Z</time>
      </trkpt>
      <trkpt lat="42.49868" lon="2.17177">
        <ele>1325.31</ele>
        <time>2016-07-01T07:43:43Z</time>
      </trkpt>
      <trkpt lat="42.49868" lon="2.17176">
        <ele>1325.31</ele>
        <time>2016-07-01T07:43:44Z</time>
      </trkpt>
      <trkpt lat="42.49868" lon="2.17174">
        <ele>1325.31</ele>
        <time>2016-07-01T07:43:45Z</time>
      </trkpt>
      <trkpt lat="42.49868" lon="2.17172">
        <ele>1325.31</ele>
        <time>2016-07-01T07:43:46Z</time>
      </trkpt>
      <trkpt lat="42.49868" lon="2.1717">
        <ele>1325.31</ele>
        <time>2016-07-01T07:43:47Z</time>
      </trkpt>
      <trkpt lat="42.49868" lon="2.17169">
        <ele>1325.31</ele>
        <time>2016-07-01T07:43:48Z</time>
      </trkpt>
      <trkpt lat="42.49868" lon="2.17167">
        <ele>1325.31</ele>
        <time>2016-07-01T07:43:49Z</time>
      </trkpt>
      <trkpt lat="42.49873" lon="2.17155">
        <ele>1324.35</ele>
        <time>2016-07-01T07:43:57Z</time>
      </trkpt>
      <trkpt lat="42.49873" lon="2.17153">
        <ele>1324.35</ele>
        <time>2016-07-01T07:43:58Z</time>
      </trkpt>
      <trkpt lat="42.49874" lon="2.17151">
        <ele>1324.35</ele>
        <time>2016-07-01T07:43:59Z</time>
      </trkpt>
      <trkpt lat="42.49875" lon="2.1715">
        <ele>1324.35</ele>
        <time>2016-07-01T07:44:00Z</time>
      </trkpt>
      <trkpt lat="42.49876" lon="2.17149">
        <ele>1324.35</ele>
        <time>2016-07-01T07:44:01Z</time>
      </trkpt>
      <trkpt lat="42.49888" lon="2.17142">
        <ele>1322.91</ele>
        <time>2016-07-01T07:44:11Z</time>
      </trkpt>
      <trkpt lat="42.49903" lon="2.1714">
        <ele>1321.95</ele>
        <time>2016-07-01T07:44:22Z</time>
      </trkpt>
      <trkpt lat="42.49921" lon="2.17143">
        <ele>1320.03</ele>
        <time>2016-07-01T07:44:36Z</time>
      </trkpt>
      <trkpt lat="42.49937" lon="2.17151">
        <ele>1319.07</ele>
        <time>2016-07-01T07:44:49Z</time>
      </trkpt>
      <trkpt lat="42.49951" lon="2.17157">
        <ele>1317.62</ele>
        <time>2016-07-01T07:45:00Z</time>
      </trkpt>
      <trkpt lat="42.49965" lon="2.17165">
        <ele>1317.14</ele>
        <time>2016-07-01T07:45:11Z</time>
      </trkpt>
      <trkpt lat="42.4998" lon="2.17174">
        <ele>1315.7</ele>
        <time>2016-07-01T07:45:23Z</time>
      </trkpt>
      <trkpt lat="42.49981" lon="2.17175">
        <ele>1315.7</ele>
        <time>2016-07-01T07:45:24Z</time>
      </trkpt>
      <trkpt lat="42.49982" lon="2.17176">
        <ele>1315.7</ele>
        <time>2016-07-01T07:45:25Z</time>
      </trkpt>
      <trkpt lat="42.49984" lon="2.17178">
        <ele>1315.7</ele>
        <time>2016-07-01T07:45:27Z</time>
      </trkpt>
      <trkpt lat="42.49985" lon="2.1718">
        <ele>1315.7</ele>
        <time>2016-07-01T07:45:28Z</time>
      </trkpt>
      <trkpt lat="42.49986" lon="2.1718">
        <ele>1315.22</ele>
        <time>2016-07-01T07:45:29Z</time>
      </trkpt>
      <trkpt lat="42.50001" lon="2.17197">
        <ele>1313.78</ele>
        <time>2016-07-01T07:45:43Z</time>
      </trkpt>
      <trkpt lat="42.50012" lon="2.17217">
        <ele>1312.82</ele>
        <time>2016-07-01T07:45:57Z</time>
      </trkpt>
      <trkpt lat="42.50021" lon="2.17241">
        <ele>1311.38</ele>
        <time>2016-07-01T07:46:12Z</time>
      </trkpt>
      <trkpt lat="42.50026" lon="2.17255">
        <ele>1310.41</ele>
        <time>2016-07-01T07:46:20Z</time>
      </trkpt>
      <trkpt lat="42.50026" lon="2.17257">
        <ele>1310.41</ele>
        <time>2016-07-01T07:46:21Z</time>
      </trkpt>
      <trkpt lat="42.50034" lon="2.17271">
        <ele>1309.45</ele>
        <time>2016-07-01T07:46:31Z</time>
      </trkpt>
      <trkpt lat="42.50035" lon="2.17273">
        <ele>1309.45</ele>
        <time>2016-07-01T07:46:32Z</time>
      </trkpt>
      <trkpt lat="42.50035" lon="2.17274">
        <ele>1309.45</ele>
        <time>2016-07-01T07:46:33Z</time>
      </trkpt>
      <trkpt lat="42.50035" lon="2.17276">
        <ele>1309.45</ele>
        <time>2016-07-01T07:46:34Z</time>
      </trkpt>
      <trkpt lat="42.50036" lon="2.17278">
        <ele>1308.49</ele>
        <time>2016-07-01T07:46:35Z</time>
      </trkpt>
      <trkpt lat="42.50036" lon="2.1728">
        <ele>1308.49</ele>
        <time>2016-07-01T07:46:36Z</time>
      </trkpt>
      <trkpt lat="42.50036" lon="2.17282">
        <ele>1308.49</ele>
        <time>2016-07-01T07:46:37Z</time>
      </trkpt>
      <trkpt lat="42.50036" lon="2.17284">
        <ele>1308.49</ele>
        <time>2016-07-01T07:46:38Z</time>
      </trkpt>
      <trkpt lat="42.50036" lon="2.17286">
        <ele>1308.49</ele>
        <time>2016-07-01T07:46:39Z</time>
      </trkpt>
      <trkpt lat="42.50036" lon="2.17288">
        <ele>1308.49</ele>
        <time>2016-07-01T07:46:40Z</time>
      </trkpt>
      <trkpt lat="42.50036" lon="2.1729">
        <ele>1308.49</ele>
        <time>2016-07-01T07:46:41Z</time>
      </trkpt>
      <trkpt lat="42.50036" lon="2.17291">
        <ele>1308.49</ele>
        <time>2016-07-01T07:46:42Z</time>
      </trkpt>
      <trkpt lat="42.50036" lon="2.17294">
        <ele>1308.49</ele>
        <time>2016-07-01T07:46:43Z</time>
      </trkpt>
      <trkpt lat="42.50036" lon="2.17296">
        <ele>1308.01</ele>
        <time>2016-07-01T07:46:44Z</time>
      </trkpt>
      <trkpt lat="42.50036" lon="2.17298">
        <ele>1308.01</ele>
        <time>2016-07-01T07:46:45Z</time>
      </trkpt>
      <trkpt lat="42.50035" lon="2.17299">
        <ele>1308.01</ele>
        <time>2016-07-01T07:46:46Z</time>
      </trkpt>
      <trkpt lat="42.50035" lon="2.17301">
        <ele>1308.01</ele>
        <time>2016-07-01T07:46:47Z</time>
      </trkpt>
      <trkpt lat="42.50035" lon="2.17303">
        <ele>1308.01</ele>
        <time>2016-07-01T07:46:48Z</time>
      </trkpt>
      <trkpt lat="42.50035" lon="2.17305">
        <ele>1308.01</ele>
        <time>2016-07-01T07:46:49Z</time>
      </trkpt>
      <trkpt lat="42.50035" lon="2.17307">
        <ele>1308.01</ele>
        <time>2016-07-01T07:46:50Z</time>
      </trkpt>
      <trkpt lat="42.50035" lon="2.17308">
        <ele>1307.53</ele>
        <time>2016-07-01T07:46:51Z</time>
      </trkpt>
      <trkpt lat="42.50034" lon="2.17309">
        <ele>1307.53</ele>
        <time>2016-07-01T07:46:52Z</time>
      </trkpt>
      <trkpt lat="42.50034" lon="2.17311">
        <ele>1307.53</ele>
        <time>2016-07-01T07:46:53Z</time>
      </trkpt>
      <trkpt lat="42.50033" lon="2.17313">
        <ele>1307.53</ele>
        <time>2016-07-01T07:46:54Z</time>
      </trkpt>
      <trkpt lat="42.50033" lon="2.17315">
        <ele>1307.53</ele>
        <time>2016-07-01T07:46:55Z</time>
      </trkpt>
      <trkpt lat="42.50032" lon="2.17317">
        <ele>1307.53</ele>
        <time>2016-07-01T07:46:56Z</time>
      </trkpt>
      <trkpt lat="42.50032" lon="2.17319">
        <ele>1307.05</ele>
        <time>2016-07-01T07:46:57Z</time>
      </trkpt>
      <trkpt lat="42.50032" lon="2.1732">
        <ele>1307.05</ele>
        <time>2016-07-01T07:46:58Z</time>
      </trkpt>
      <trkpt lat="42.50031" lon="2.17322">
        <ele>1307.05</ele>
        <time>2016-07-01T07:46:59Z</time>
      </trkpt>
      <trkpt lat="42.50027" lon="2.17338">
        <ele>1306.09</ele>
        <time>2016-07-01T07:47:09Z</time>
      </trkpt>
      <trkpt lat="42.50026" lon="2.1734">
        <ele>1305.61</ele>
        <time>2016-07-01T07:47:10Z</time>
      </trkpt>
      <trkpt lat="42.50025" lon="2.17342">
        <ele>1305.61</ele>
        <time>2016-07-01T07:47:11Z</time>
      </trkpt>
      <trkpt lat="42.50025" lon="2.17344">
        <ele>1305.61</ele>
        <time>2016-07-01T07:47:12Z</time>
      </trkpt>
      <trkpt lat="42.50017" lon="2.17363">
        <ele>1304.65</ele>
        <time>2016-07-01T07:47:25Z</time>
      </trkpt>
      <trkpt lat="42.50015" lon="2.17371">
        <ele>1304.65</ele>
        <time>2016-07-01T07:47:29Z</time>
      </trkpt>
      <trkpt lat="42.50015" lon="2.17372">
        <ele>1304.65</ele>
        <time>2016-07-01T07:47:30Z</time>
      </trkpt>
      <trkpt lat="42.50014" lon="2.17374">
        <ele>1304.65</ele>
        <time>2016-07-01T07:47:31Z</time>
      </trkpt>
      <trkpt lat="42.50013" lon="2.17376">
        <ele>1304.17</ele>
        <time>2016-07-01T07:47:32Z</time>
      </trkpt>
      <trkpt lat="42.50013" lon="2.17378">
        <ele>1304.17</ele>
        <time>2016-07-01T07:47:33Z</time>
      </trkpt>
      <trkpt lat="42.50013" lon="2.1738">
        <ele>1304.17</ele>
        <time>2016-07-01T07:47:34Z</time>
      </trkpt>
      <trkpt lat="42.50012" lon="2.17382">
        <ele>1304.17</ele>
        <time>2016-07-01T07:47:35Z</time>
      </trkpt>
      <trkpt lat="42.50011" lon="2.17383">
        <ele>1304.17</ele>
        <time>2016-07-01T07:47:36Z</time>
      </trkpt>
      <trkpt lat="42.5001" lon="2.17385">
        <ele>1303.2</ele>
        <time>2016-07-01T07:47:37Z</time>
      </trkpt>
      <trkpt lat="42.5001" lon="2.17386">
        <ele>1303.69</ele>
        <time>2016-07-01T07:47:38Z</time>
      </trkpt>
      <trkpt lat="42.50009" lon="2.17388">
        <ele>1303.69</ele>
        <time>2016-07-01T07:47:39Z</time>
      </trkpt>
      <trkpt lat="42.50008" lon="2.17389">
        <ele>1303.69</ele>
        <time>2016-07-01T07:47:40Z</time>
      </trkpt>
      <trkpt lat="42.50008" lon="2.17391">
        <ele>1303.69</ele>
        <time>2016-07-01T07:47:41Z</time>
      </trkpt>
      <trkpt lat="42.50007" lon="2.17394">
        <ele>1302.72</ele>
        <time>2016-07-01T07:47:43Z</time>
      </trkpt>
      <trkpt lat="42.50007" lon="2.17396">
        <ele>1302.72</ele>
        <time>2016-07-01T07:47:44Z</time>
      </trkpt>
      <trkpt lat="42.50006" lon="2.17398">
        <ele>1302.72</ele>
        <time>2016-07-01T07:47:45Z</time>
      </trkpt>
      <trkpt lat="42.50006" lon="2.17399">
        <ele>1302.72</ele>
        <time>2016-07-01T07:47:46Z</time>
      </trkpt>
      <trkpt lat="42.50005" lon="2.17401">
        <ele>1302.72</ele>
        <time>2016-07-01T07:47:47Z</time>
      </trkpt>
      <trkpt lat="42.50005" lon="2.17402">
        <ele>1302.72</ele>
        <time>2016-07-01T07:47:48Z</time>
      </trkpt>
      <trkpt lat="42.50004" lon="2.17404">
        <ele>1302.72</ele>
        <time>2016-07-01T07:47:49Z</time>
      </trkpt>
      <trkpt lat="42.50004" lon="2.17406">
        <ele>1302.72</ele>
        <time>2016-07-01T07:47:50Z</time>
      </trkpt>
      <trkpt lat="42.50003" lon="2.17408">
        <ele>1302.72</ele>
        <time>2016-07-01T07:47:51Z</time>
      </trkpt>
      <trkpt lat="42.50003" lon="2.17409">
        <ele>1302.24</ele>
        <time>2016-07-01T07:47:52Z</time>
      </trkpt>
      <trkpt lat="42.49999" lon="2.17425">
        <ele>1301.76</ele>
        <time>2016-07-01T07:48:02Z</time>
      </trkpt>
      <trkpt lat="42.5" lon="2.17431">
        <ele>1301.76</ele>
        <time>2016-07-01T07:48:05Z</time>
      </trkpt>
      <trkpt lat="42.50003" lon="2.1744">
        <ele>1300.32</ele>
        <time>2016-07-01T07:48:11Z</time>
      </trkpt>
      <trkpt lat="42.50003" lon="2.17442">
        <ele>1300.8</ele>
        <time>2016-07-01T07:48:12Z</time>
      </trkpt>
      <trkpt lat="42.50004" lon="2.17443">
        <ele>1300.8</ele>
        <time>2016-07-01T07:48:13Z</time>
      </trkpt>
      <trkpt lat="42.50009" lon="2.17447">
        <ele>1299.84</ele>
        <time>2016-07-01T07:48:17Z</time>
      </trkpt>
      <trkpt lat="42.5001" lon="2.17448">
        <ele>1299.84</ele>
        <time>2016-07-01T07:48:18Z</time>
      </trkpt>
      <trkpt lat="42.50011" lon="2.17449">
        <ele>1299.84</ele>
        <time>2016-07-01T07:48:19Z</time>
      </trkpt>
      <trkpt lat="42.50012" lon="2.1745">
        <ele>1299.84</ele>
        <time>2016-07-01T07:48:20Z</time>
      </trkpt>
      <trkpt lat="42.50013" lon="2.17451">
        <ele>1299.84</ele>
        <time>2016-07-01T07:48:21Z</time>
      </trkpt>
      <trkpt lat="42.50014" lon="2.17452">
        <ele>1299.84</ele>
        <time>2016-07-01T07:48:22Z</time>
      </trkpt>
      <trkpt lat="42.50028" lon="2.17462">
        <ele>1298.88</ele>
        <time>2016-07-01T07:48:34Z</time>
      </trkpt>
      <trkpt lat="42.50041" lon="2.17473">
        <ele>1297.92</ele>
        <time>2016-07-01T07:48:45Z</time>
      </trkpt>
      <trkpt lat="42.50048" lon="2.17476">
        <ele>1297.44</ele>
        <time>2016-07-01T07:48:50Z</time>
      </trkpt>
      <trkpt lat="42.5005" lon="2.17476">
        <ele>1297.44</ele>
        <time>2016-07-01T07:48:51Z</time>
      </trkpt>
      <trkpt lat="42.5006" lon="2.17483">
        <ele>1296.48</ele>
        <time>2016-07-01T07:49:00Z</time>
      </trkpt>
      <trkpt lat="42.50061" lon="2.17484">
        <ele>1295.99</ele>
        <time>2016-07-01T07:49:01Z</time>
      </trkpt>
      <trkpt lat="42.50063" lon="2.17484">
        <ele>1295.99</ele>
        <time>2016-07-01T07:49:02Z</time>
      </trkpt>
      <trkpt lat="42.5007" lon="2.17489">
        <ele>1295.51</ele>
        <time>2016-07-01T07:49:08Z</time>
      </trkpt>
      <trkpt lat="42.50071" lon="2.1749">
        <ele>1295.51</ele>
        <time>2016-07-01T07:49:09Z</time>
      </trkpt>
      <trkpt lat="42.50072" lon="2.1749">
        <ele>1295.51</ele>
        <time>2016-07-01T07:49:10Z</time>
      </trkpt>
      <trkpt lat="42.50073" lon="2.17491">
        <ele>1295.51</ele>
        <time>2016-07-01T07:49:11Z</time>
      </trkpt>
      <trkpt lat="42.50075" lon="2.17492">
        <ele>1295.03</ele>
        <time>2016-07-01T07:49:12Z</time>
      </trkpt>
      <trkpt lat="42.50076" lon="2.17494">
        <ele>1295.03</ele>
        <time>2016-07-01T07:49:13Z</time>
      </trkpt>
      <trkpt lat="42.50077" lon="2.17495">
        <ele>1295.03</ele>
        <time>2016-07-01T07:49:14Z</time>
      </trkpt>
      <trkpt lat="42.50078" lon="2.17496">
        <ele>1295.03</ele>
        <time>2016-07-01T07:49:15Z</time>
      </trkpt>
      <trkpt lat="42.5008" lon="2.17497">
        <ele>1295.03</ele>
        <time>2016-07-01T07:49:16Z</time>
      </trkpt>
      <trkpt lat="42.50081" lon="2.17497">
        <ele>1294.55</ele>
        <time>2016-07-01T07:49:17Z</time>
      </trkpt>
      <trkpt lat="42.50082" lon="2.17498">
        <ele>1294.55</ele>
        <time>2016-07-01T07:49:18Z</time>
      </trkpt>
      <trkpt lat="42.50083" lon="2.17499">
        <ele>1294.55</ele>
        <time>2016-07-01T07:49:19Z</time>
      </trkpt>
      <trkpt lat="42.50084" lon="2.175">
        <ele>1294.55</ele>
        <time>2016-07-01T07:49:20Z</time>
      </trkpt>
      <trkpt lat="42.50086" lon="2.17501">
        <ele>1294.55</ele>
        <time>2016-07-01T07:49:21Z</time>
      </trkpt>
      <trkpt lat="42.50087" lon="2.17502">
        <ele>1294.55</ele>
        <time>2016-07-01T07:49:22Z</time>
      </trkpt>
      <trkpt lat="42.50089" lon="2.17503">
        <ele>1293.59</ele>
        <time>2016-07-01T07:49:23Z</time>
      </trkpt>
      <trkpt lat="42.5009" lon="2.17504">
        <ele>1294.07</ele>
        <time>2016-07-01T07:49:24Z</time>
      </trkpt>
      <trkpt lat="42.50091" lon="2.17504">
        <ele>1294.07</ele>
        <time>2016-07-01T07:49:25Z</time>
      </trkpt>
      <trkpt lat="42.50092" lon="2.17505">
        <ele>1294.07</ele>
        <time>2016-07-01T07:49:26Z</time>
      </trkpt>
      <trkpt lat="42.50093" lon="2.17506">
        <ele>1293.59</ele>
        <time>2016-07-01T07:49:27Z</time>
      </trkpt>
      <trkpt lat="42.50095" lon="2.17507">
        <ele>1293.59</ele>
        <time>2016-07-01T07:49:28Z</time>
      </trkpt>
      <trkpt lat="42.50096" lon="2.17508">
        <ele>1293.11</ele>
        <time>2016-07-01T07:49:29Z</time>
      </trkpt>
      <trkpt lat="42.50097" lon="2.17509">
        <ele>1293.11</ele>
        <time>2016-07-01T07:49:30Z</time>
      </trkpt>
      <trkpt lat="42.50103" lon="2.17515">
        <ele>1292.63</ele>
        <time>2016-07-01T07:49:35Z</time>
      </trkpt>
      <trkpt lat="42.50104" lon="2.17516">
        <ele>1292.63</ele>
        <time>2016-07-01T07:49:36Z</time>
      </trkpt>
      <trkpt lat="42.50105" lon="2.17517">
        <ele>1292.63</ele>
        <time>2016-07-01T07:49:37Z</time>
      </trkpt>
      <trkpt lat="42.50107" lon="2.17518">
        <ele>1292.63</ele>
        <time>2016-07-01T07:49:38Z</time>
      </trkpt>
      <trkpt lat="42.50108" lon="2.17519">
        <ele>1292.63</ele>
        <time>2016-07-01T07:49:39Z</time>
      </trkpt>
      <trkpt lat="42.50111" lon="2.1752">
        <ele>1292.15</ele>
        <time>2016-07-01T07:49:41Z</time>
      </trkpt>
      <trkpt lat="42.50111" lon="2.17521">
        <ele>1292.15</ele>
        <time>2016-07-01T07:49:42Z</time>
      </trkpt>
      <trkpt lat="42.50113" lon="2.17522">
        <ele>1292.15</ele>
        <time>2016-07-01T07:49:43Z</time>
      </trkpt>
      <trkpt lat="42.50114" lon="2.17523">
        <ele>1292.15</ele>
        <time>2016-07-01T07:49:44Z</time>
      </trkpt>
      <trkpt lat="42.50114" lon="2.17524">
        <ele>1292.15</ele>
        <time>2016-07-01T07:49:45Z</time>
      </trkpt>
      <trkpt lat="42.50115" lon="2.17525">
        <ele>1292.15</ele>
        <time>2016-07-01T07:49:46Z</time>
      </trkpt>
      <trkpt lat="42.50116" lon="2.17527">
        <ele>1291.67</ele>
        <time>2016-07-01T07:49:47Z</time>
      </trkpt>
      <trkpt lat="42.50117" lon="2.17528">
        <ele>1291.67</ele>
        <time>2016-07-01T07:49:48Z</time>
      </trkpt>
      <trkpt lat="42.50118" lon="2.17529">
        <ele>1291.67</ele>
        <time>2016-07-01T07:49:49Z</time>
      </trkpt>
      <trkpt lat="42.50119" lon="2.1753">
        <ele>1291.67</ele>
        <time>2016-07-01T07:49:50Z</time>
      </trkpt>
      <trkpt lat="42.5012" lon="2.17532">
        <ele>1291.67</ele>
        <time>2016-07-01T07:49:51Z</time>
      </trkpt>
      <trkpt lat="42.50121" lon="2.17533">
        <ele>1291.67</ele>
        <time>2016-07-01T07:49:52Z</time>
      </trkpt>
      <trkpt lat="42.50122" lon="2.17534">
        <ele>1291.67</ele>
        <time>2016-07-01T07:49:53Z</time>
      </trkpt>
      <trkpt lat="42.50123" lon="2.17535">
        <ele>1291.67</ele>
        <time>2016-07-01T07:49:54Z</time>
      </trkpt>
      <trkpt lat="42.50125" lon="2.17537">
        <ele>1291.19</ele>
        <time>2016-07-01T07:49:55Z</time>
      </trkpt>
      <trkpt lat="42.50126" lon="2.17538">
        <ele>1291.19</ele>
        <time>2016-07-01T07:49:56Z</time>
      </trkpt>
      <trkpt lat="42.50139" lon="2.17556">
        <ele>1289.75</ele>
        <time>2016-07-01T07:50:10Z</time>
      </trkpt>
      <trkpt lat="42.50143" lon="2.17562">
        <ele>1289.27</ele>
        <time>2016-07-01T07:50:14Z</time>
      </trkpt>
      <trkpt lat="42.50145" lon="2.17565">
        <ele>1289.27</ele>
        <time>2016-07-01T07:50:16Z</time>
      </trkpt>
      <trkpt lat="42.50146" lon="2.17567">
        <ele>1289.27</ele>
        <time>2016-07-01T07:50:17Z</time>
      </trkpt>
      <trkpt lat="42.50147" lon="2.17568">
        <ele>1289.27</ele>
        <time>2016-07-01T07:50:18Z</time>
      </trkpt>
      <trkpt lat="42.50148" lon="2.17569">
        <ele>1289.27</ele>
        <time>2016-07-01T07:50:19Z</time>
      </trkpt>
      <trkpt lat="42.50148" lon="2.17571">
        <ele>1289.27</ele>
        <time>2016-07-01T07:50:20Z</time>
      </trkpt>
      <trkpt lat="42.50149" lon="2.17573">
        <ele>1288.78</ele>
        <time>2016-07-01T07:50:21Z</time>
      </trkpt>
      <trkpt lat="42.5015" lon="2.17574">
        <ele>1288.78</ele>
        <time>2016-07-01T07:50:22Z</time>
      </trkpt>
      <trkpt lat="42.5015" lon="2.17576">
        <ele>1288.78</ele>
        <time>2016-07-01T07:50:23Z</time>
      </trkpt>
      <trkpt lat="42.50151" lon="2.17578">
        <ele>1288.78</ele>
        <time>2016-07-01T07:50:24Z</time>
      </trkpt>
      <trkpt lat="42.50152" lon="2.17579">
        <ele>1288.78</ele>
        <time>2016-07-01T07:50:25Z</time>
      </trkpt>
      <trkpt lat="42.50152" lon="2.17581">
        <ele>1288.78</ele>
        <time>2016-07-01T07:50:26Z</time>
      </trkpt>
      <trkpt lat="42.50153" lon="2.17582">
        <ele>1288.3</ele>
        <time>2016-07-01T07:50:27Z</time>
      </trkpt>
      <trkpt lat="42.50154" lon="2.17584">
        <ele>1288.3</ele>
        <time>2016-07-01T07:50:28Z</time>
      </trkpt>
      <trkpt lat="42.50154" lon="2.17586">
        <ele>1288.3</ele>
        <time>2016-07-01T07:50:29Z</time>
      </trkpt>
      <trkpt lat="42.50155" lon="2.17587">
        <ele>1288.3</ele>
        <time>2016-07-01T07:50:30Z</time>
      </trkpt>
      <trkpt lat="42.50159" lon="2.17595">
        <ele>1287.34</ele>
        <time>2016-07-01T07:50:35Z</time>
      </trkpt>
      <trkpt lat="42.5016" lon="2.17597">
        <ele>1287.34</ele>
        <time>2016-07-01T07:50:36Z</time>
      </trkpt>
      <trkpt lat="42.50161" lon="2.17598">
        <ele>1287.34</ele>
        <time>2016-07-01T07:50:37Z</time>
      </trkpt>
      <trkpt lat="42.50162" lon="2.176">
        <ele>1287.34</ele>
        <time>2016-07-01T07:50:38Z</time>
      </trkpt>
      <trkpt lat="42.50162" lon="2.17601">
        <ele>1287.34</ele>
        <time>2016-07-01T07:50:39Z</time>
      </trkpt>
      <trkpt lat="42.50163" lon="2.17602">
        <ele>1287.34</ele>
        <time>2016-07-01T07:50:40Z</time>
      </trkpt>
      <trkpt lat="42.50163" lon="2.17604">
        <ele>1287.34</ele>
        <time>2016-07-01T07:50:41Z</time>
      </trkpt>
      <trkpt lat="42.50164" lon="2.17606">
        <ele>1286.86</ele>
        <time>2016-07-01T07:50:42Z</time>
      </trkpt>
      <trkpt lat="42.50164" lon="2.17608">
        <ele>1286.86</ele>
        <time>2016-07-01T07:50:43Z</time>
      </trkpt>
      <trkpt lat="42.50165" lon="2.1761">
        <ele>1286.86</ele>
        <time>2016-07-01T07:50:44Z</time>
      </trkpt>
      <trkpt lat="42.50166" lon="2.17612">
        <ele>1286.86</ele>
        <time>2016-07-01T07:50:45Z</time>
      </trkpt>
      <trkpt lat="42.50166" lon="2.17613">
        <ele>1286.86</ele>
        <time>2016-07-01T07:50:46Z</time>
      </trkpt>
      <trkpt lat="42.50167" lon="2.17615">
        <ele>1286.86</ele>
        <time>2016-07-01T07:50:47Z</time>
      </trkpt>
      <trkpt lat="42.50167" lon="2.17617">
        <ele>1286.86</ele>
        <time>2016-07-01T07:50:48Z</time>
      </trkpt>
      <trkpt lat="42.50168" lon="2.17618">
        <ele>1286.86</ele>
        <time>2016-07-01T07:50:49Z</time>
      </trkpt>
      <trkpt lat="42.50169" lon="2.1762">
        <ele>1286.86</ele>
        <time>2016-07-01T07:50:50Z</time>
      </trkpt>
      <trkpt lat="42.5017" lon="2.17624">
        <ele>1286.38</ele>
        <time>2016-07-01T07:50:52Z</time>
      </trkpt>
      <trkpt lat="42.50171" lon="2.17625">
        <ele>1286.38</ele>
        <time>2016-07-01T07:50:53Z</time>
      </trkpt>
      <trkpt lat="42.50172" lon="2.17627">
        <ele>1286.38</ele>
        <time>2016-07-01T07:50:54Z</time>
      </trkpt>
      <trkpt lat="42.50172" lon="2.17628">
        <ele>1286.38</ele>
        <time>2016-07-01T07:50:55Z</time>
      </trkpt>
      <trkpt lat="42.50173" lon="2.1763">
        <ele>1286.38</ele>
        <time>2016-07-01T07:50:56Z</time>
      </trkpt>
      <trkpt lat="42.50174" lon="2.17631">
        <ele>1285.9</ele>
        <time>2016-07-01T07:50:57Z</time>
      </trkpt>
      <trkpt lat="42.50174" lon="2.17633">
        <ele>1285.9</ele>
        <time>2016-07-01T07:50:58Z</time>
      </trkpt>
      <trkpt lat="42.50179" lon="2.17645">
        <ele>1285.42</ele>
        <time>2016-07-01T07:51:05Z</time>
      </trkpt>
      <trkpt lat="42.5018" lon="2.17646">
        <ele>1285.42</ele>
        <time>2016-07-01T07:51:06Z</time>
      </trkpt>
      <trkpt lat="42.5018" lon="2.17648">
        <ele>1285.42</ele>
        <time>2016-07-01T07:51:07Z</time>
      </trkpt>
      <trkpt lat="42.50181" lon="2.17649">
        <ele>1285.42</ele>
        <time>2016-07-01T07:51:08Z</time>
      </trkpt>
      <trkpt lat="42.50182" lon="2.17651">
        <ele>1284.94</ele>
        <time>2016-07-01T07:51:09Z</time>
      </trkpt>
      <trkpt lat="42.50183" lon="2.17652">
        <ele>1284.46</ele>
        <time>2016-07-01T07:51:10Z</time>
      </trkpt>
      <trkpt lat="42.50184" lon="2.17653">
        <ele>1284.46</ele>
        <time>2016-07-01T07:51:11Z</time>
      </trkpt>
      <trkpt lat="42.50184" lon="2.17655">
        <ele>1284.46</ele>
        <time>2016-07-01T07:51:12Z</time>
      </trkpt>
      <trkpt lat="42.50185" lon="2.17656">
        <ele>1284.46</ele>
        <time>2016-07-01T07:51:13Z</time>
      </trkpt>
      <trkpt lat="42.50186" lon="2.17658">
        <ele>1284.46</ele>
        <time>2016-07-01T07:51:14Z</time>
      </trkpt>
      <trkpt lat="42.50186" lon="2.17659">
        <ele>1284.46</ele>
        <time>2016-07-01T07:51:15Z</time>
      </trkpt>
      <trkpt lat="42.50194" lon="2.17669">
        <ele>1283.5</ele>
        <time>2016-07-01T07:51:23Z</time>
      </trkpt>
      <trkpt lat="42.50195" lon="2.1767">
        <ele>1283.5</ele>
        <time>2016-07-01T07:51:24Z</time>
      </trkpt>
      <trkpt lat="42.50196" lon="2.17671">
        <ele>1283.5</ele>
        <time>2016-07-01T07:51:25Z</time>
      </trkpt>
      <trkpt lat="42.50197" lon="2.17672">
        <ele>1283.5</ele>
        <time>2016-07-01T07:51:26Z</time>
      </trkpt>
      <trkpt lat="42.50197" lon="2.17673">
        <ele>1283.5</ele>
        <time>2016-07-01T07:51:27Z</time>
      </trkpt>
      <trkpt lat="42.50198" lon="2.17674">
        <ele>1283.5</ele>
        <time>2016-07-01T07:51:28Z</time>
      </trkpt>
      <trkpt lat="42.50199" lon="2.17676">
        <ele>1283.02</ele>
        <time>2016-07-01T07:51:29Z</time>
      </trkpt>
      <trkpt lat="42.502" lon="2.17677">
        <ele>1283.02</ele>
        <time>2016-07-01T07:51:30Z</time>
      </trkpt>
      <trkpt lat="42.50202" lon="2.1768">
        <ele>1283.02</ele>
        <time>2016-07-01T07:51:32Z</time>
      </trkpt>
      <trkpt lat="42.50203" lon="2.17681">
        <ele>1283.02</ele>
        <time>2016-07-01T07:51:33Z</time>
      </trkpt>
      <trkpt lat="42.50206" lon="2.17684">
        <ele>1282.54</ele>
        <time>2016-07-01T07:51:36Z</time>
      </trkpt>
      <trkpt lat="42.50208" lon="2.17685">
        <ele>1282.54</ele>
        <time>2016-07-01T07:51:37Z</time>
      </trkpt>
      <trkpt lat="42.50208" lon="2.17686">
        <ele>1282.54</ele>
        <time>2016-07-01T07:51:38Z</time>
      </trkpt>
      <trkpt lat="42.5021" lon="2.17687">
        <ele>1282.54</ele>
        <time>2016-07-01T07:51:39Z</time>
      </trkpt>
      <trkpt lat="42.50211" lon="2.17688">
        <ele>1281.57</ele>
        <time>2016-07-01T07:51:40Z</time>
      </trkpt>
      <trkpt lat="42.50212" lon="2.17689">
        <ele>1282.06</ele>
        <time>2016-07-01T07:51:41Z</time>
      </trkpt>
      <trkpt lat="42.50214" lon="2.17692">
        <ele>1282.06</ele>
        <time>2016-07-01T07:51:43Z</time>
      </trkpt>
      <trkpt lat="42.50214" lon="2.17694">
        <ele>1281.57</ele>
        <time>2016-07-01T07:51:44Z</time>
      </trkpt>
      <trkpt lat="42.50215" lon="2.17695">
        <ele>1281.57</ele>
        <time>2016-07-01T07:51:45Z</time>
      </trkpt>
      <trkpt lat="42.50216" lon="2.17696">
        <ele>1281.57</ele>
        <time>2016-07-01T07:51:46Z</time>
      </trkpt>
      <trkpt lat="42.50217" lon="2.17697">
        <ele>1281.09</ele>
        <time>2016-07-01T07:51:47Z</time>
      </trkpt>
      <trkpt lat="42.50218" lon="2.17698">
        <ele>1281.09</ele>
        <time>2016-07-01T07:51:48Z</time>
      </trkpt>
      <trkpt lat="42.5022" lon="2.17699">
        <ele>1281.09</ele>
        <time>2016-07-01T07:51:49Z</time>
      </trkpt>
      <trkpt lat="42.50221" lon="2.177">
        <ele>1281.09</ele>
        <time>2016-07-01T07:51:50Z</time>
      </trkpt>
      <trkpt lat="42.50222" lon="2.17701">
        <ele>1281.09</ele>
        <time>2016-07-01T07:51:51Z</time>
      </trkpt>
      <trkpt lat="42.50223" lon="2.17702">
        <ele>1281.09</ele>
        <time>2016-07-01T07:51:52Z</time>
      </trkpt>
      <trkpt lat="42.50224" lon="2.17703">
        <ele>1281.09</ele>
        <time>2016-07-01T07:51:53Z</time>
      </trkpt>
      <trkpt lat="42.50225" lon="2.17704">
        <ele>1280.61</ele>
        <time>2016-07-01T07:51:54Z</time>
      </trkpt>
      <trkpt lat="42.50226" lon="2.17705">
        <ele>1280.61</ele>
        <time>2016-07-01T07:51:55Z</time>
      </trkpt>
      <trkpt lat="42.50227" lon="2.17706">
        <ele>1280.61</ele>
        <time>2016-07-01T07:51:56Z</time>
      </trkpt>
      <trkpt lat="42.50228" lon="2.17708">
        <ele>1280.61</ele>
        <time>2016-07-01T07:51:57Z</time>
      </trkpt>
      <trkpt lat="42.50229" lon="2.17709">
        <ele>1280.61</ele>
        <time>2016-07-01T07:51:58Z</time>
      </trkpt>
      <trkpt lat="42.5023" lon="2.1771">
        <ele>1280.61</ele>
        <time>2016-07-01T07:51:59Z</time>
      </trkpt>
      <trkpt lat="42.50231" lon="2.17712">
        <ele>1280.13</ele>
        <time>2016-07-01T07:52:00Z</time>
      </trkpt>
      <trkpt lat="42.50232" lon="2.17713">
        <ele>1280.13</ele>
        <time>2016-07-01T07:52:01Z</time>
      </trkpt>
      <trkpt lat="42.50233" lon="2.17714">
        <ele>1280.13</ele>
        <time>2016-07-01T07:52:02Z</time>
      </trkpt>
      <trkpt lat="42.50233" lon="2.17716">
        <ele>1280.13</ele>
        <time>2016-07-01T07:52:03Z</time>
      </trkpt>
      <trkpt lat="42.50234" lon="2.17717">
        <ele>1280.13</ele>
        <time>2016-07-01T07:52:04Z</time>
      </trkpt>
      <trkpt lat="42.50235" lon="2.17719">
        <ele>1280.13</ele>
        <time>2016-07-01T07:52:05Z</time>
      </trkpt>
      <trkpt lat="42.50237" lon="2.17722">
        <ele>1279.65</ele>
        <time>2016-07-01T07:52:08Z</time>
      </trkpt>
      <trkpt lat="42.50238" lon="2.17724">
        <ele>1279.65</ele>
        <time>2016-07-01T07:52:09Z</time>
      </trkpt>
      <trkpt lat="42.50239" lon="2.17725">
        <ele>1279.17</ele>
        <time>2016-07-01T07:52:10Z</time>
      </trkpt>
      <trkpt lat="42.5024" lon="2.17726">
        <ele>1279.17</ele>
        <time>2016-07-01T07:52:11Z</time>
      </trkpt>
      <trkpt lat="42.50241" lon="2.17728">
        <ele>1279.17</ele>
        <time>2016-07-01T07:52:12Z</time>
      </trkpt>
      <trkpt lat="42.50241" lon="2.1773">
        <ele>1279.17</ele>
        <time>2016-07-01T07:52:13Z</time>
      </trkpt>
      <trkpt lat="42.50242" lon="2.17731">
        <ele>1279.17</ele>
        <time>2016-07-01T07:52:14Z</time>
      </trkpt>
      <trkpt lat="42.50252" lon="2.17746">
        <ele>1277.73</ele>
        <time>2016-07-01T07:52:25Z</time>
      </trkpt>
      <trkpt lat="42.50253" lon="2.17747">
        <ele>1277.73</ele>
        <time>2016-07-01T07:52:26Z</time>
      </trkpt>
      <trkpt lat="42.50254" lon="2.17749">
        <ele>1277.25</ele>
        <time>2016-07-01T07:52:27Z</time>
      </trkpt>
      <trkpt lat="42.50255" lon="2.17751">
        <ele>1277.25</ele>
        <time>2016-07-01T07:52:28Z</time>
      </trkpt>
      <trkpt lat="42.50256" lon="2.17752">
        <ele>1277.25</ele>
        <time>2016-07-01T07:52:29Z</time>
      </trkpt>
      <trkpt lat="42.50257" lon="2.17753">
        <ele>1277.25</ele>
        <time>2016-07-01T07:52:30Z</time>
      </trkpt>
      <trkpt lat="42.50258" lon="2.17754">
        <ele>1276.77</ele>
        <time>2016-07-01T07:52:31Z</time>
      </trkpt>
      <trkpt lat="42.50259" lon="2.17755">
        <ele>1276.77</ele>
        <time>2016-07-01T07:52:32Z</time>
      </trkpt>
      <trkpt lat="42.5026" lon="2.17756">
        <ele>1276.77</ele>
        <time>2016-07-01T07:52:33Z</time>
      </trkpt>
      <trkpt lat="42.50261" lon="2.17757">
        <ele>1276.77</ele>
        <time>2016-07-01T07:52:34Z</time>
      </trkpt>
      <trkpt lat="42.50262" lon="2.17758">
        <ele>1276.77</ele>
        <time>2016-07-01T07:52:35Z</time>
      </trkpt>
      <trkpt lat="42.50266" lon="2.17762">
        <ele>1276.29</ele>
        <time>2016-07-01T07:52:39Z</time>
      </trkpt>
      <trkpt lat="42.50267" lon="2.17763">
        <ele>1276.29</ele>
        <time>2016-07-01T07:52:40Z</time>
      </trkpt>
      <trkpt lat="42.50268" lon="2.17764">
        <ele>1275.33</ele>
        <time>2016-07-01T07:52:41Z</time>
      </trkpt>
      <trkpt lat="42.50269" lon="2.17765">
        <ele>1275.81</ele>
        <time>2016-07-01T07:52:42Z</time>
      </trkpt>
      <trkpt lat="42.50271" lon="2.17766">
        <ele>1275.81</ele>
        <time>2016-07-01T07:52:43Z</time>
      </trkpt>
      <trkpt lat="42.50272" lon="2.17767">
        <ele>1275.33</ele>
        <time>2016-07-01T07:52:44Z</time>
      </trkpt>
      <trkpt lat="42.50273" lon="2.17768">
        <ele>1275.33</ele>
        <time>2016-07-01T07:52:45Z</time>
      </trkpt>
      <trkpt lat="42.50274" lon="2.17769">
        <ele>1275.33</ele>
        <time>2016-07-01T07:52:46Z</time>
      </trkpt>
      <trkpt lat="42.50281" lon="2.17774">
        <ele>1274.85</ele>
        <time>2016-07-01T07:52:52Z</time>
      </trkpt>
      <trkpt lat="42.50282" lon="2.17774">
        <ele>1274.85</ele>
        <time>2016-07-01T07:52:53Z</time>
      </trkpt>
      <trkpt lat="42.50283" lon="2.17775">
        <ele>1274.36</ele>
        <time>2016-07-01T07:52:54Z</time>
      </trkpt>
      <trkpt lat="42.50284" lon="2.17776">
        <ele>1274.36</ele>
        <time>2016-07-01T07:52:55Z</time>
      </trkpt>
      <trkpt lat="42.50285" lon="2.17777">
        <ele>1274.36</ele>
        <time>2016-07-01T07:52:56Z</time>
      </trkpt>
      <trkpt lat="42.50287" lon="2.17778">
        <ele>1274.36</ele>
        <time>2016-07-01T07:52:57Z</time>
      </trkpt>
      <trkpt lat="42.50288" lon="2.17779">
        <ele>1274.36</ele>
        <time>2016-07-01T07:52:58Z</time>
      </trkpt>
      <trkpt lat="42.5029" lon="2.1778">
        <ele>1274.36</ele>
        <time>2016-07-01T07:52:59Z</time>
      </trkpt>
      <trkpt lat="42.50291" lon="2.17781">
        <ele>1274.36</ele>
        <time>2016-07-01T07:53:00Z</time>
      </trkpt>
      <trkpt lat="42.50292" lon="2.17781">
        <ele>1273.88</ele>
        <time>2016-07-01T07:53:01Z</time>
      </trkpt>
      <trkpt lat="42.50293" lon="2.17782">
        <ele>1273.88</ele>
        <time>2016-07-01T07:53:02Z</time>
      </trkpt>
      <trkpt lat="42.50307" lon="2.17791">
        <ele>1272.44</ele>
        <time>2016-07-01T07:53:13Z</time>
      </trkpt>
      <trkpt lat="42.50309" lon="2.17793">
        <ele>1272.44</ele>
        <time>2016-07-01T07:53:15Z</time>
      </trkpt>
      <trkpt lat="42.5031" lon="2.17795">
        <ele>1272.44</ele>
        <time>2016-07-01T07:53:16Z</time>
      </trkpt>
      <trkpt lat="42.50311" lon="2.17797">
        <ele>1272.44</ele>
        <time>2016-07-01T07:53:17Z</time>
      </trkpt>
      <trkpt lat="42.50312" lon="2.17798">
        <ele>1272.44</ele>
        <time>2016-07-01T07:53:18Z</time>
      </trkpt>
      <trkpt lat="42.50313" lon="2.17799">
        <ele>1271.96</ele>
        <time>2016-07-01T07:53:19Z</time>
      </trkpt>
      <trkpt lat="42.50314" lon="2.178">
        <ele>1271.96</ele>
        <time>2016-07-01T07:53:20Z</time>
      </trkpt>
      <trkpt lat="42.50315" lon="2.17801">
        <ele>1271.96</ele>
        <time>2016-07-01T07:53:21Z</time>
      </trkpt>
      <trkpt lat="42.50316" lon="2.17802">
        <ele>1271.96</ele>
        <time>2016-07-01T07:53:22Z</time>
      </trkpt>
      <trkpt lat="42.50318" lon="2.17803">
        <ele>1271.96</ele>
        <time>2016-07-01T07:53:23Z</time>
      </trkpt>
      <trkpt lat="42.50319" lon="2.17804">
        <ele>1271.48</ele>
        <time>2016-07-01T07:53:24Z</time>
      </trkpt>
      <trkpt lat="42.5032" lon="2.17805">
        <ele>1271.48</ele>
        <time>2016-07-01T07:53:25Z</time>
      </trkpt>
      <trkpt lat="42.50321" lon="2.17806">
        <ele>1271.48</ele>
        <time>2016-07-01T07:53:26Z</time>
      </trkpt>
      <trkpt lat="42.50322" lon="2.17807">
        <ele>1271.48</ele>
        <time>2016-07-01T07:53:27Z</time>
      </trkpt>
      <trkpt lat="42.50323" lon="2.17808">
        <ele>1271.48</ele>
        <time>2016-07-01T07:53:28Z</time>
      </trkpt>
      <trkpt lat="42.50324" lon="2.1781">
        <ele>1271.48</ele>
        <time>2016-07-01T07:53:29Z</time>
      </trkpt>
      <trkpt lat="42.50325" lon="2.17811">
        <ele>1271</ele>
        <time>2016-07-01T07:53:30Z</time>
      </trkpt>
      <trkpt lat="42.50326" lon="2.17813">
        <ele>1271</ele>
        <time>2016-07-01T07:53:31Z</time>
      </trkpt>
      <trkpt lat="42.50327" lon="2.17814">
        <ele>1271</ele>
        <time>2016-07-01T07:53:32Z</time>
      </trkpt>
      <trkpt lat="42.50328" lon="2.17816">
        <ele>1271</ele>
        <time>2016-07-01T07:53:33Z</time>
      </trkpt>
      <trkpt lat="42.50328" lon="2.17817">
        <ele>1271</ele>
        <time>2016-07-01T07:53:34Z</time>
      </trkpt>
      <trkpt lat="42.5033" lon="2.17817">
        <ele>1270.52</ele>
        <time>2016-07-01T07:53:35Z</time>
      </trkpt>
      <trkpt lat="42.50331" lon="2.17818">
        <ele>1270.52</ele>
        <time>2016-07-01T07:53:36Z</time>
      </trkpt>
      <trkpt lat="42.50332" lon="2.17819">
        <ele>1270.52</ele>
        <time>2016-07-01T07:53:37Z</time>
      </trkpt>
      <trkpt lat="42.50333" lon="2.17821">
        <ele>1270.52</ele>
        <time>2016-07-01T07:53:38Z</time>
      </trkpt>
      <trkpt lat="42.50334" lon="2.17822">
        <ele>1270.52</ele>
        <time>2016-07-01T07:53:39Z</time>
      </trkpt>
      <trkpt lat="42.50335" lon="2.17823">
        <ele>1270.52</ele>
        <time>2016-07-01T07:53:40Z</time>
      </trkpt>
      <trkpt lat="42.50336" lon="2.17824">
        <ele>1270.04</ele>
        <time>2016-07-01T07:53:41Z</time>
      </trkpt>
      <trkpt lat="42.50337" lon="2.17825">
        <ele>1270.04</ele>
        <time>2016-07-01T07:53:42Z</time>
      </trkpt>
      <trkpt lat="42.50338" lon="2.17826">
        <ele>1270.04</ele>
        <time>2016-07-01T07:53:43Z</time>
      </trkpt>
      <trkpt lat="42.50339" lon="2.17828">
        <ele>1270.04</ele>
        <time>2016-07-01T07:53:44Z</time>
      </trkpt>
      <trkpt lat="42.5034" lon="2.1783">
        <ele>1270.04</ele>
        <time>2016-07-01T07:53:45Z</time>
      </trkpt>
      <trkpt lat="42.5034" lon="2.17831">
        <ele>1269.56</ele>
        <time>2016-07-01T07:53:46Z</time>
      </trkpt>
      <trkpt lat="42.50341" lon="2.17833">
        <ele>1269.56</ele>
        <time>2016-07-01T07:53:47Z</time>
      </trkpt>
      <trkpt lat="42.50342" lon="2.17834">
        <ele>1269.08</ele>
        <time>2016-07-01T07:53:48Z</time>
      </trkpt>
      <trkpt lat="42.50343" lon="2.17835">
        <ele>1269.08</ele>
        <time>2016-07-01T07:53:49Z</time>
      </trkpt>
      <trkpt lat="42.50344" lon="2.17837">
        <ele>1269.08</ele>
        <time>2016-07-01T07:53:50Z</time>
      </trkpt>
      <trkpt lat="42.50345" lon="2.17838">
        <ele>1269.08</ele>
        <time>2016-07-01T07:53:51Z</time>
      </trkpt>
      <trkpt lat="42.50346" lon="2.17839">
        <ele>1269.08</ele>
        <time>2016-07-01T07:53:52Z</time>
      </trkpt>
      <trkpt lat="42.50347" lon="2.1784">
        <ele>1269.08</ele>
        <time>2016-07-01T07:53:53Z</time>
      </trkpt>
      <trkpt lat="42.50348" lon="2.17842">
        <ele>1269.08</ele>
        <time>2016-07-01T07:53:54Z</time>
      </trkpt>
      <trkpt lat="42.50357" lon="2.17858">
        <ele>1268.12</ele>
        <time>2016-07-01T07:54:05Z</time>
      </trkpt>
      <trkpt lat="42.50358" lon="2.17859">
        <ele>1268.12</ele>
        <time>2016-07-01T07:54:06Z</time>
      </trkpt>
      <trkpt lat="42.50359" lon="2.17861">
        <ele>1268.12</ele>
        <time>2016-07-01T07:54:07Z</time>
      </trkpt>
      <trkpt lat="42.5036" lon="2.17862">
        <ele>1267.64</ele>
        <time>2016-07-01T07:54:08Z</time>
      </trkpt>
      <trkpt lat="42.5036" lon="2.17864">
        <ele>1267.64</ele>
        <time>2016-07-01T07:54:09Z</time>
      </trkpt>
      <trkpt lat="42.50363" lon="2.17871">
        <ele>1267.64</ele>
        <time>2016-07-01T07:54:13Z</time>
      </trkpt>
      <trkpt lat="42.50363" lon="2.17872">
        <ele>1267.64</ele>
        <time>2016-07-01T07:54:14Z</time>
      </trkpt>
      <trkpt lat="42.50363" lon="2.17874">
        <ele>1267.16</ele>
        <time>2016-07-01T07:54:15Z</time>
      </trkpt>
      <trkpt lat="42.50359" lon="2.1789">
        <ele>1266.67</ele>
        <time>2016-07-01T07:54:24Z</time>
      </trkpt>
      <trkpt lat="42.50356" lon="2.1791">
        <ele>1265.71</ele>
        <time>2016-07-01T07:54:35Z</time>
      </trkpt>
      <trkpt lat="42.50359" lon="2.17917">
        <ele>1265.23</ele>
        <time>2016-07-01T07:54:39Z</time>
      </trkpt>
      <trkpt lat="42.5036" lon="2.17919">
        <ele>1265.23</ele>
        <time>2016-07-01T07:54:40Z</time>
      </trkpt>
      <trkpt lat="42.50362" lon="2.1792">
        <ele>1265.23</ele>
        <time>2016-07-01T07:54:42Z</time>
      </trkpt>
      <trkpt lat="42.50362" lon="2.17921">
        <ele>1265.23</ele>
        <time>2016-07-01T07:54:43Z</time>
      </trkpt>
      <trkpt lat="42.50363" lon="2.17922">
        <ele>1265.23</ele>
        <time>2016-07-01T07:54:44Z</time>
      </trkpt>
      <trkpt lat="42.50364" lon="2.17924">
        <ele>1264.75</ele>
        <time>2016-07-01T07:54:45Z</time>
      </trkpt>
      <trkpt lat="42.50365" lon="2.17925">
        <ele>1264.75</ele>
        <time>2016-07-01T07:54:46Z</time>
      </trkpt>
      <trkpt lat="42.50366" lon="2.17927">
        <ele>1264.75</ele>
        <time>2016-07-01T07:54:47Z</time>
      </trkpt>
      <trkpt lat="42.50367" lon="2.17928">
        <ele>1264.75</ele>
        <time>2016-07-01T07:54:48Z</time>
      </trkpt>
      <trkpt lat="42.50367" lon="2.1793">
        <ele>1264.75</ele>
        <time>2016-07-01T07:54:49Z</time>
      </trkpt>
      <trkpt lat="42.50365" lon="2.17934">
        <ele>1264.75</ele>
        <time>2016-07-01T07:54:53Z</time>
      </trkpt>
      <trkpt lat="42.50364" lon="2.17935">
        <ele>1264.75</ele>
        <time>2016-07-01T07:54:54Z</time>
      </trkpt>
      <trkpt lat="42.50362" lon="2.17935">
        <ele>1264.75</ele>
        <time>2016-07-01T07:54:55Z</time>
      </trkpt>
      <trkpt lat="42.50361" lon="2.17936">
        <ele>1264.27</ele>
        <time>2016-07-01T07:54:56Z</time>
      </trkpt>
      <trkpt lat="42.5036" lon="2.17937">
        <ele>1264.27</ele>
        <time>2016-07-01T07:54:57Z</time>
      </trkpt>
      <trkpt lat="42.50359" lon="2.17938">
        <ele>1264.27</ele>
        <time>2016-07-01T07:54:58Z</time>
      </trkpt>
      <trkpt lat="42.50356" lon="2.1794">
        <ele>1264.27</ele>
        <time>2016-07-01T07:55:01Z</time>
      </trkpt>
      <trkpt lat="42.50354" lon="2.1794">
        <ele>1263.79</ele>
        <time>2016-07-01T07:55:15Z</time>
      </trkpt>
      <trkpt lat="42.50354" lon="2.1794">
        <ele>1263.79</ele>
        <time>2016-07-01T07:55:38Z</time>
      </trkpt>
      <trkpt lat="42.50356" lon="2.17939">
        <ele>1263.79</ele>
        <time>2016-07-01T07:55:53Z</time>
      </trkpt>
      <trkpt lat="42.50357" lon="2.17939">
        <ele>1263.79</ele>
        <time>2016-07-01T07:55:54Z</time>
      </trkpt>
      <trkpt lat="42.50358" lon="2.17939">
        <ele>1263.79</ele>
        <time>2016-07-01T07:55:55Z</time>
      </trkpt>
      <trkpt lat="42.5036" lon="2.17938">
        <ele>1263.79</ele>
        <time>2016-07-01T07:55:57Z</time>
      </trkpt>
      <trkpt lat="42.50361" lon="2.17937">
        <ele>1263.79</ele>
        <time>2016-07-01T07:55:58Z</time>
      </trkpt>
      <trkpt lat="42.50365" lon="2.17933">
        <ele>1263.79</ele>
        <time>2016-07-01T07:56:04Z</time>
      </trkpt>
      <trkpt lat="42.50374" lon="2.17929">
        <ele>1263.79</ele>
        <time>2016-07-01T07:56:11Z</time>
      </trkpt>
      <trkpt lat="42.50381" lon="2.17927">
        <ele>1263.79</ele>
        <time>2016-07-01T07:56:17Z</time>
      </trkpt>
      <trkpt lat="42.50382" lon="2.17926">
        <ele>1263.79</ele>
        <time>2016-07-01T07:56:18Z</time>
      </trkpt>
      <trkpt lat="42.50383" lon="2.17925">
        <ele>1263.79</ele>
        <time>2016-07-01T07:56:19Z</time>
      </trkpt>
      <trkpt lat="42.50384" lon="2.17924">
        <ele>1263.79</ele>
        <time>2016-07-01T07:56:20Z</time>
      </trkpt>
      <trkpt lat="42.50386" lon="2.17922">
        <ele>1263.79</ele>
        <time>2016-07-01T07:56:21Z</time>
      </trkpt>
      <trkpt lat="42.50386" lon="2.17921">
        <ele>1263.79</ele>
        <time>2016-07-01T07:56:22Z</time>
      </trkpt>
      <trkpt lat="42.5039" lon="2.17904">
        <ele>1262.83</ele>
        <time>2016-07-01T07:56:33Z</time>
      </trkpt>
      <trkpt lat="42.50386" lon="2.17879">
        <ele>1262.35</ele>
        <time>2016-07-01T07:56:47Z</time>
      </trkpt>
      <trkpt lat="42.50379" lon="2.17862">
        <ele>1261.39</ele>
        <time>2016-07-01T07:56:59Z</time>
      </trkpt>
      <trkpt lat="42.50375" lon="2.17853">
        <ele>1260.43</ele>
        <time>2016-07-01T07:57:05Z</time>
      </trkpt>
      <trkpt lat="42.50374" lon="2.17851">
        <ele>1260.43</ele>
        <time>2016-07-01T07:57:06Z</time>
      </trkpt>
      <trkpt lat="42.50369" lon="2.17841">
        <ele>1259.94</ele>
        <time>2016-07-01T07:57:13Z</time>
      </trkpt>
      <trkpt lat="42.50368" lon="2.17839">
        <ele>1259.94</ele>
        <time>2016-07-01T07:57:14Z</time>
      </trkpt>
      <trkpt lat="42.50367" lon="2.17838">
        <ele>1259.94</ele>
        <time>2016-07-01T07:57:15Z</time>
      </trkpt>
      <trkpt lat="42.50367" lon="2.17837">
        <ele>1259.94</ele>
        <time>2016-07-01T07:57:16Z</time>
      </trkpt>
      <trkpt lat="42.50366" lon="2.17835">
        <ele>1259.94</ele>
        <time>2016-07-01T07:57:17Z</time>
      </trkpt>
      <trkpt lat="42.50364" lon="2.17834">
        <ele>1259.46</ele>
        <time>2016-07-01T07:57:18Z</time>
      </trkpt>
      <trkpt lat="42.50359" lon="2.17828">
        <ele>1259.46</ele>
        <time>2016-07-01T07:57:23Z</time>
      </trkpt>
      <trkpt lat="42.50359" lon="2.17826">
        <ele>1259.46</ele>
        <time>2016-07-01T07:57:24Z</time>
      </trkpt>
      <trkpt lat="42.50359" lon="2.17824">
        <ele>1258.98</ele>
        <time>2016-07-01T07:57:25Z</time>
      </trkpt>
      <trkpt lat="42.50358" lon="2.17822">
        <ele>1258.98</ele>
        <time>2016-07-01T07:57:26Z</time>
      </trkpt>
      <trkpt lat="42.50357" lon="2.17821">
        <ele>1258.98</ele>
        <time>2016-07-01T07:57:27Z</time>
      </trkpt>
      <trkpt lat="42.50356" lon="2.1782">
        <ele>1258.98</ele>
        <time>2016-07-01T07:57:28Z</time>
      </trkpt>
      <trkpt lat="42.50355" lon="2.17818">
        <ele>1258.98</ele>
        <time>2016-07-01T07:57:29Z</time>
      </trkpt>
      <trkpt lat="42.50355" lon="2.17817">
        <ele>1258.98</ele>
        <time>2016-07-01T07:57:30Z</time>
      </trkpt>
      <trkpt lat="42.50352" lon="2.17814">
        <ele>1258.5</ele>
        <time>2016-07-01T07:57:33Z</time>
      </trkpt>
      <trkpt lat="42.50352" lon="2.17813">
        <ele>1258.5</ele>
        <time>2016-07-01T07:57:34Z</time>
      </trkpt>
      <trkpt lat="42.50351" lon="2.17812">
        <ele>1258.5</ele>
        <time>2016-07-01T07:57:35Z</time>
      </trkpt>
      <trkpt lat="42.5035" lon="2.1781">
        <ele>1258.5</ele>
        <time>2016-07-01T07:57:36Z</time>
      </trkpt>
      <trkpt lat="42.50349" lon="2.17808">
        <ele>1258.5</ele>
        <time>2016-07-01T07:57:37Z</time>
      </trkpt>
      <trkpt lat="42.50348" lon="2.17807">
        <ele>1258.5</ele>
        <time>2016-07-01T07:57:38Z</time>
      </trkpt>
      <trkpt lat="42.50333" lon="2.17788">
        <ele>1257.06</ele>
        <time>2016-07-01T07:57:53Z</time>
      </trkpt>
      <trkpt lat="42.50331" lon="2.17784">
        <ele>1256.58</ele>
        <time>2016-07-01T07:57:56Z</time>
      </trkpt>
      <trkpt lat="42.5033" lon="2.17783">
        <ele>1256.58</ele>
        <time>2016-07-01T07:57:57Z</time>
      </trkpt>
      <trkpt lat="42.50329" lon="2.17781">
        <ele>1256.58</ele>
        <time>2016-07-01T07:57:58Z</time>
      </trkpt>
      <trkpt lat="42.50328" lon="2.1778">
        <ele>1256.58</ele>
        <time>2016-07-01T07:57:59Z</time>
      </trkpt>
      <trkpt lat="42.50327" lon="2.17779">
        <ele>1256.58</ele>
        <time>2016-07-01T07:58:00Z</time>
      </trkpt>
      <trkpt lat="42.50326" lon="2.17777">
        <ele>1256.1</ele>
        <time>2016-07-01T07:58:01Z</time>
      </trkpt>
      <trkpt lat="42.50325" lon="2.17776">
        <ele>1256.1</ele>
        <time>2016-07-01T07:58:02Z</time>
      </trkpt>
      <trkpt lat="42.50318" lon="2.17768">
        <ele>1255.62</ele>
        <time>2016-07-01T07:58:09Z</time>
      </trkpt>
      <trkpt lat="42.50308" lon="2.17753">
        <ele>1254.18</ele>
        <time>2016-07-01T07:58:19Z</time>
      </trkpt>
      <trkpt lat="42.50298" lon="2.17742">
        <ele>1253.22</ele>
        <time>2016-07-01T07:58:28Z</time>
      </trkpt>
      <trkpt lat="42.50297" lon="2.1774">
        <ele>1253.22</ele>
        <time>2016-07-01T07:58:29Z</time>
      </trkpt>
      <trkpt lat="42.50291" lon="2.17732">
        <ele>1252.74</ele>
        <time>2016-07-01T07:58:35Z</time>
      </trkpt>
      <trkpt lat="42.5029" lon="2.17731">
        <ele>1252.74</ele>
        <time>2016-07-01T07:58:36Z</time>
      </trkpt>
      <trkpt lat="42.50289" lon="2.17729">
        <ele>1252.25</ele>
        <time>2016-07-01T07:58:37Z</time>
      </trkpt>
      <trkpt lat="42.50286" lon="2.17724">
        <ele>1252.25</ele>
        <time>2016-07-01T07:58:40Z</time>
      </trkpt>
      <trkpt lat="42.50284" lon="2.17723">
        <ele>1252.25</ele>
        <time>2016-07-01T07:58:41Z</time>
      </trkpt>
      <trkpt lat="42.50284" lon="2.17721">
        <ele>1251.29</ele>
        <time>2016-07-01T07:58:42Z</time>
      </trkpt>
      <trkpt lat="42.50283" lon="2.1772">
        <ele>1251.29</ele>
        <time>2016-07-01T07:58:43Z</time>
      </trkpt>
      <trkpt lat="42.50282" lon="2.17718">
        <ele>1251.29</ele>
        <time>2016-07-01T07:58:44Z</time>
      </trkpt>
      <trkpt lat="42.50282" lon="2.17716">
        <ele>1251.29</ele>
        <time>2016-07-01T07:58:45Z</time>
      </trkpt>
      <trkpt lat="42.50274" lon="2.17698">
        <ele>1250.33</ele>
        <time>2016-07-01T07:58:56Z</time>
      </trkpt>
      <trkpt lat="42.50274" lon="2.17697">
        <ele>1250.33</ele>
        <time>2016-07-01T07:58:57Z</time>
      </trkpt>
      <trkpt lat="42.50265" lon="2.17675">
        <ele>1249.37</ele>
        <time>2016-07-01T07:59:09Z</time>
      </trkpt>
      <trkpt lat="42.50251" lon="2.17642">
        <ele>1246.97</ele>
        <time>2016-07-01T07:59:28Z</time>
      </trkpt>
      <trkpt lat="42.50242" lon="2.17617">
        <ele>1246.01</ele>
        <time>2016-07-01T07:59:42Z</time>
      </trkpt>
      <trkpt lat="42.5024" lon="2.17602">
        <ele>1244.56</ele>
        <time>2016-07-01T07:59:50Z</time>
      </trkpt>
      <trkpt lat="42.50238" lon="2.17599">
        <ele>1244.56</ele>
        <time>2016-07-01T07:59:52Z</time>
      </trkpt>
      <trkpt lat="42.50237" lon="2.17598">
        <ele>1244.08</ele>
        <time>2016-07-01T07:59:53Z</time>
      </trkpt>
      <trkpt lat="42.50237" lon="2.17596">
        <ele>1244.08</ele>
        <time>2016-07-01T07:59:54Z</time>
      </trkpt>
      <trkpt lat="42.50236" lon="2.17587">
        <ele>1243.6</ele>
        <time>2016-07-01T07:59:59Z</time>
      </trkpt>
      <trkpt lat="42.50235" lon="2.17585">
        <ele>1243.6</ele>
        <time>2016-07-01T08:00:00Z</time>
      </trkpt>
      <trkpt lat="42.50235" lon="2.17584">
        <ele>1243.6</ele>
        <time>2016-07-01T08:00:01Z</time>
      </trkpt>
      <trkpt lat="42.50234" lon="2.17582">
        <ele>1243.6</ele>
        <time>2016-07-01T08:00:02Z</time>
      </trkpt>
      <trkpt lat="42.50235" lon="2.1758">
        <ele>1243.6</ele>
        <time>2016-07-01T08:00:03Z</time>
      </trkpt>
      <trkpt lat="42.50235" lon="2.17578">
        <ele>1243.12</ele>
        <time>2016-07-01T08:00:04Z</time>
      </trkpt>
      <trkpt lat="42.50235" lon="2.17576">
        <ele>1243.12</ele>
        <time>2016-07-01T08:00:05Z</time>
      </trkpt>
      <trkpt lat="42.50235" lon="2.17569">
        <ele>1243.12</ele>
        <time>2016-07-01T08:00:09Z</time>
      </trkpt>
      <trkpt lat="42.50236" lon="2.17568">
        <ele>1242.64</ele>
        <time>2016-07-01T08:00:10Z</time>
      </trkpt>
      <trkpt lat="42.50236" lon="2.17566">
        <ele>1242.64</ele>
        <time>2016-07-01T08:00:11Z</time>
      </trkpt>
      <trkpt lat="42.50236" lon="2.17564">
        <ele>1242.64</ele>
        <time>2016-07-01T08:00:12Z</time>
      </trkpt>
      <trkpt lat="42.50237" lon="2.17562">
        <ele>1242.64</ele>
        <time>2016-07-01T08:00:13Z</time>
      </trkpt>
      <trkpt lat="42.50238" lon="2.1756">
        <ele>1242.64</ele>
        <time>2016-07-01T08:00:14Z</time>
      </trkpt>
      <trkpt lat="42.50239" lon="2.17557">
        <ele>1242.16</ele>
        <time>2016-07-01T08:00:15Z</time>
      </trkpt>
      <trkpt lat="42.50239" lon="2.17555">
        <ele>1242.16</ele>
        <time>2016-07-01T08:00:16Z</time>
      </trkpt>
      <trkpt lat="42.50239" lon="2.17554">
        <ele>1242.16</ele>
        <time>2016-07-01T08:00:17Z</time>
      </trkpt>
      <trkpt lat="42.5024" lon="2.17552">
        <ele>1242.16</ele>
        <time>2016-07-01T08:00:18Z</time>
      </trkpt>
      <trkpt lat="42.5024" lon="2.1755">
        <ele>1241.2</ele>
        <time>2016-07-01T08:00:19Z</time>
      </trkpt>
      <trkpt lat="42.50241" lon="2.17548">
        <ele>1241.68</ele>
        <time>2016-07-01T08:00:20Z</time>
      </trkpt>
      <trkpt lat="42.50241" lon="2.17547">
        <ele>1241.2</ele>
        <time>2016-07-01T08:00:21Z</time>
      </trkpt>
      <trkpt lat="42.50241" lon="2.17545">
        <ele>1241.2</ele>
        <time>2016-07-01T08:00:22Z</time>
      </trkpt>
      <trkpt lat="42.50242" lon="2.17543">
        <ele>1240.72</ele>
        <time>2016-07-01T08:00:23Z</time>
      </trkpt>
      <trkpt lat="42.50242" lon="2.17541">
        <ele>1240.72</ele>
        <time>2016-07-01T08:00:24Z</time>
      </trkpt>
      <trkpt lat="42.50242" lon="2.17539">
        <ele>1240.72</ele>
        <time>2016-07-01T08:00:25Z</time>
      </trkpt>
      <trkpt lat="42.50243" lon="2.17537">
        <ele>1240.72</ele>
        <time>2016-07-01T08:00:26Z</time>
      </trkpt>
      <trkpt lat="42.50248" lon="2.17516">
        <ele>1239.28</ele>
        <time>2016-07-01T08:00:41Z</time>
      </trkpt>
      <trkpt lat="42.5025" lon="2.17501">
        <ele>1238.8</ele>
        <time>2016-07-01T08:00:53Z</time>
      </trkpt>
      <trkpt lat="42.50249" lon="2.17499">
        <ele>1238.8</ele>
        <time>2016-07-01T08:00:54Z</time>
      </trkpt>
      <trkpt lat="42.50248" lon="2.17498">
        <ele>1238.8</ele>
        <time>2016-07-01T08:00:55Z</time>
      </trkpt>
      <trkpt lat="42.50248" lon="2.17497">
        <ele>1238.8</ele>
        <time>2016-07-01T08:00:56Z</time>
      </trkpt>
      <trkpt lat="42.50236" lon="2.1748">
        <ele>1237.83</ele>
        <time>2016-07-01T08:01:09Z</time>
      </trkpt>
      <trkpt lat="42.50227" lon="2.17473">
        <ele>1236.87</ele>
        <time>2016-07-01T08:01:17Z</time>
      </trkpt>
      <trkpt lat="42.50212" lon="2.17465">
        <ele>1235.43</ele>
        <time>2016-07-01T08:01:28Z</time>
      </trkpt>
      <trkpt lat="42.50202" lon="2.17462">
        <ele>1234.95</ele>
        <time>2016-07-01T08:01:35Z</time>
      </trkpt>
      <trkpt lat="42.502" lon="2.17461">
        <ele>1234.95</ele>
        <time>2016-07-01T08:01:36Z</time>
      </trkpt>
      <trkpt lat="42.50199" lon="2.1746">
        <ele>1234.95</ele>
        <time>2016-07-01T08:01:37Z</time>
      </trkpt>
      <trkpt lat="42.50198" lon="2.17459">
        <ele>1234.47</ele>
        <time>2016-07-01T08:01:38Z</time>
      </trkpt>
      <trkpt lat="42.50197" lon="2.17458">
        <ele>1234.47</ele>
        <time>2016-07-01T08:01:39Z</time>
      </trkpt>
      <trkpt lat="42.50195" lon="2.17457">
        <ele>1234.47</ele>
        <time>2016-07-01T08:01:40Z</time>
      </trkpt>
      <trkpt lat="42.50194" lon="2.17456">
        <ele>1234.47</ele>
        <time>2016-07-01T08:01:41Z</time>
      </trkpt>
      <trkpt lat="42.50193" lon="2.17455">
        <ele>1234.47</ele>
        <time>2016-07-01T08:01:42Z</time>
      </trkpt>
      <trkpt lat="42.50191" lon="2.17454">
        <ele>1234.47</ele>
        <time>2016-07-01T08:01:43Z</time>
      </trkpt>
      <trkpt lat="42.5019" lon="2.17453">
        <ele>1233.99</ele>
        <time>2016-07-01T08:01:44Z</time>
      </trkpt>
      <trkpt lat="42.50189" lon="2.17452">
        <ele>1233.99</ele>
        <time>2016-07-01T08:01:45Z</time>
      </trkpt>
      <trkpt lat="42.50187" lon="2.17449">
        <ele>1233.99</ele>
        <time>2016-07-01T08:01:47Z</time>
      </trkpt>
      <trkpt lat="42.50185" lon="2.17449">
        <ele>1233.99</ele>
        <time>2016-07-01T08:01:48Z</time>
      </trkpt>
      <trkpt lat="42.50184" lon="2.17448">
        <ele>1233.99</ele>
        <time>2016-07-01T08:01:49Z</time>
      </trkpt>
      <trkpt lat="42.50183" lon="2.17447">
        <ele>1233.99</ele>
        <time>2016-07-01T08:01:50Z</time>
      </trkpt>
      <trkpt lat="42.50182" lon="2.17446">
        <ele>1233.51</ele>
        <time>2016-07-01T08:01:51Z</time>
      </trkpt>
      <trkpt lat="42.5018" lon="2.17444">
        <ele>1233.51</ele>
        <time>2016-07-01T08:01:52Z</time>
      </trkpt>
      <trkpt lat="42.50179" lon="2.17443">
        <ele>1233.51</ele>
        <time>2016-07-01T08:01:53Z</time>
      </trkpt>
      <trkpt lat="42.50178" lon="2.17443">
        <ele>1233.51</ele>
        <time>2016-07-01T08:01:54Z</time>
      </trkpt>
      <trkpt lat="42.50176" lon="2.17442">
        <ele>1233.51</ele>
        <time>2016-07-01T08:01:55Z</time>
      </trkpt>
      <trkpt lat="42.50175" lon="2.17441">
        <ele>1233.51</ele>
        <time>2016-07-01T08:01:56Z</time>
      </trkpt>
      <trkpt lat="42.50174" lon="2.17441">
        <ele>1233.03</ele>
        <time>2016-07-01T08:01:57Z</time>
      </trkpt>
      <trkpt lat="42.50172" lon="2.1744">
        <ele>1233.03</ele>
        <time>2016-07-01T08:01:58Z</time>
      </trkpt>
      <trkpt lat="42.50166" lon="2.17436">
        <ele>1233.03</ele>
        <time>2016-07-01T08:02:03Z</time>
      </trkpt>
      <trkpt lat="42.50165" lon="2.17435">
        <ele>1232.55</ele>
        <time>2016-07-01T08:02:04Z</time>
      </trkpt>
      <trkpt lat="42.50163" lon="2.17434">
        <ele>1232.55</ele>
        <time>2016-07-01T08:02:05Z</time>
      </trkpt>
      <trkpt lat="42.50162" lon="2.17433">
        <ele>1232.55</ele>
        <time>2016-07-01T08:02:06Z</time>
      </trkpt>
      <trkpt lat="42.5016" lon="2.17432">
        <ele>1232.55</ele>
        <time>2016-07-01T08:02:07Z</time>
      </trkpt>
      <trkpt lat="42.50159" lon="2.17431">
        <ele>1232.55</ele>
        <time>2016-07-01T08:02:08Z</time>
      </trkpt>
      <trkpt lat="42.50152" lon="2.1742">
        <ele>1231.11</ele>
        <time>2016-07-01T08:02:17Z</time>
      </trkpt>
      <trkpt lat="42.50153" lon="2.17418">
        <ele>1231.11</ele>
        <time>2016-07-01T08:02:18Z</time>
      </trkpt>
      <trkpt lat="42.50154" lon="2.17417">
        <ele>1231.11</ele>
        <time>2016-07-01T08:02:19Z</time>
      </trkpt>
      <trkpt lat="42.50156" lon="2.17417">
        <ele>1230.62</ele>
        <time>2016-07-01T08:02:20Z</time>
      </trkpt>
      <trkpt lat="42.50157" lon="2.17416">
        <ele>1230.62</ele>
        <time>2016-07-01T08:02:21Z</time>
      </trkpt>
      <trkpt lat="42.50159" lon="2.17416">
        <ele>1230.62</ele>
        <time>2016-07-01T08:02:22Z</time>
      </trkpt>
      <trkpt lat="42.50171" lon="2.17422">
        <ele>1229.18</ele>
        <time>2016-07-01T08:02:31Z</time>
      </trkpt>
      <trkpt lat="42.50175" lon="2.17424">
        <ele>1228.7</ele>
        <time>2016-07-01T08:02:34Z</time>
      </trkpt>
      <trkpt lat="42.50179" lon="2.17427">
        <ele>1228.22</ele>
        <time>2016-07-01T08:02:37Z</time>
      </trkpt>
      <trkpt lat="42.5018" lon="2.17428">
        <ele>1228.22</ele>
        <time>2016-07-01T08:02:38Z</time>
      </trkpt>
      <trkpt lat="42.50182" lon="2.17429">
        <ele>1227.74</ele>
        <time>2016-07-01T08:02:40Z</time>
      </trkpt>
      <trkpt lat="42.50184" lon="2.17429">
        <ele>1227.74</ele>
        <time>2016-07-01T08:02:41Z</time>
      </trkpt>
      <trkpt lat="42.50185" lon="2.17429">
        <ele>1227.74</ele>
        <time>2016-07-01T08:02:42Z</time>
      </trkpt>
      <trkpt lat="42.50187" lon="2.17429">
        <ele>1227.74</ele>
        <time>2016-07-01T08:02:43Z</time>
      </trkpt>
      <trkpt lat="42.50193" lon="2.17433">
        <ele>1227.26</ele>
        <time>2016-07-01T08:02:48Z</time>
      </trkpt>
      <trkpt lat="42.50195" lon="2.17433">
        <ele>1226.78</ele>
        <time>2016-07-01T08:02:49Z</time>
      </trkpt>
      <trkpt lat="42.50197" lon="2.17434">
        <ele>1226.78</ele>
        <time>2016-07-01T08:02:50Z</time>
      </trkpt>
      <trkpt lat="42.50198" lon="2.17435">
        <ele>1226.78</ele>
        <time>2016-07-01T08:02:51Z</time>
      </trkpt>
      <trkpt lat="42.502" lon="2.17435">
        <ele>1226.78</ele>
        <time>2016-07-01T08:02:52Z</time>
      </trkpt>
      <trkpt lat="42.50201" lon="2.17436">
        <ele>1226.78</ele>
        <time>2016-07-01T08:02:53Z</time>
      </trkpt>
      <trkpt lat="42.50202" lon="2.17436">
        <ele>1225.82</ele>
        <time>2016-07-01T08:02:54Z</time>
      </trkpt>
      <trkpt lat="42.50215" lon="2.17439">
        <ele>1224.86</ele>
        <time>2016-07-01T08:03:03Z</time>
      </trkpt>
      <trkpt lat="42.50221" lon="2.17439">
        <ele>1224.38</ele>
        <time>2016-07-01T08:03:07Z</time>
      </trkpt>
      <trkpt lat="42.50223" lon="2.17439">
        <ele>1224.38</ele>
        <time>2016-07-01T08:03:09Z</time>
      </trkpt>
      <trkpt lat="42.50225" lon="2.17439">
        <ele>1223.9</ele>
        <time>2016-07-01T08:03:10Z</time>
      </trkpt>
      <trkpt lat="42.50226" lon="2.17439">
        <ele>1223.9</ele>
        <time>2016-07-01T08:03:11Z</time>
      </trkpt>
      <trkpt lat="42.50227" lon="2.17439">
        <ele>1223.9</ele>
        <time>2016-07-01T08:03:12Z</time>
      </trkpt>
      <trkpt lat="42.50228" lon="2.17438">
        <ele>1223.9</ele>
        <time>2016-07-01T08:03:13Z</time>
      </trkpt>
      <trkpt lat="42.5023" lon="2.17438">
        <ele>1222.93</ele>
        <time>2016-07-01T08:03:14Z</time>
      </trkpt>
      <trkpt lat="42.50231" lon="2.17437">
        <ele>1222.93</ele>
        <time>2016-07-01T08:03:15Z</time>
      </trkpt>
      <trkpt lat="42.50232" lon="2.17436">
        <ele>1222.93</ele>
        <time>2016-07-01T08:03:16Z</time>
      </trkpt>
      <trkpt lat="42.50234" lon="2.17436">
        <ele>1222.93</ele>
        <time>2016-07-01T08:03:17Z</time>
      </trkpt>
      <trkpt lat="42.50235" lon="2.17435">
        <ele>1222.45</ele>
        <time>2016-07-01T08:03:18Z</time>
      </trkpt>
      <trkpt lat="42.50237" lon="2.17435">
        <ele>1222.45</ele>
        <time>2016-07-01T08:03:19Z</time>
      </trkpt>
      <trkpt lat="42.50247" lon="2.17433">
        <ele>1221.49</ele>
        <time>2016-07-01T08:03:27Z</time>
      </trkpt>
      <trkpt lat="42.50257" lon="2.17434">
        <ele>1220.05</ele>
        <time>2016-07-01T08:03:34Z</time>
      </trkpt>
      <trkpt lat="42.50259" lon="2.17434">
        <ele>1220.05</ele>
        <time>2016-07-01T08:03:35Z</time>
      </trkpt>
      <trkpt lat="42.5026" lon="2.17434">
        <ele>1220.05</ele>
        <time>2016-07-01T08:03:36Z</time>
      </trkpt>
      <trkpt lat="42.50262" lon="2.17435">
        <ele>1219.57</ele>
        <time>2016-07-01T08:03:37Z</time>
      </trkpt>
      <trkpt lat="42.50264" lon="2.17435">
        <ele>1219.57</ele>
        <time>2016-07-01T08:03:38Z</time>
      </trkpt>
      <trkpt lat="42.50265" lon="2.17436">
        <ele>1219.57</ele>
        <time>2016-07-01T08:03:39Z</time>
      </trkpt>
      <trkpt lat="42.50267" lon="2.17436">
        <ele>1219.09</ele>
        <time>2016-07-01T08:03:40Z</time>
      </trkpt>
      <trkpt lat="42.50284" lon="2.1744">
        <ele>1217.65</ele>
        <time>2016-07-01T08:03:52Z</time>
      </trkpt>
      <trkpt lat="42.50295" lon="2.17447">
        <ele>1216.21</ele>
        <time>2016-07-01T08:04:01Z</time>
      </trkpt>
      <trkpt lat="42.50296" lon="2.17448">
        <ele>1216.21</ele>
        <time>2016-07-01T08:04:02Z</time>
      </trkpt>
      <trkpt lat="42.50297" lon="2.1745">
        <ele>1216.21</ele>
        <time>2016-07-01T08:04:03Z</time>
      </trkpt>
      <trkpt lat="42.50299" lon="2.17451">
        <ele>1215.72</ele>
        <time>2016-07-01T08:04:04Z</time>
      </trkpt>
      <trkpt lat="42.50299" lon="2.17453">
        <ele>1215.72</ele>
        <time>2016-07-01T08:04:05Z</time>
      </trkpt>
      <trkpt lat="42.50301" lon="2.17454">
        <ele>1215.72</ele>
        <time>2016-07-01T08:04:06Z</time>
      </trkpt>
      <trkpt lat="42.50309" lon="2.17468">
        <ele>1214.76</ele>
        <time>2016-07-01T08:04:15Z</time>
      </trkpt>
      <trkpt lat="42.50309" lon="2.1747">
        <ele>1214.76</ele>
        <time>2016-07-01T08:04:16Z</time>
      </trkpt>
      <trkpt lat="42.50309" lon="2.17472">
        <ele>1214.76</ele>
        <time>2016-07-01T08:04:17Z</time>
      </trkpt>
      <trkpt lat="42.50309" lon="2.17474">
        <ele>1214.28</ele>
        <time>2016-07-01T08:04:18Z</time>
      </trkpt>
      <trkpt lat="42.50309" lon="2.17476">
        <ele>1214.28</ele>
        <time>2016-07-01T08:04:19Z</time>
      </trkpt>
      <trkpt lat="42.50309" lon="2.17478">
        <ele>1214.28</ele>
        <time>2016-07-01T08:04:20Z</time>
      </trkpt>
      <trkpt lat="42.50309" lon="2.1748">
        <ele>1214.28</ele>
        <time>2016-07-01T08:04:21Z</time>
      </trkpt>
      <trkpt lat="42.5031" lon="2.17482">
        <ele>1213.32</ele>
        <time>2016-07-01T08:04:22Z</time>
      </trkpt>
      <trkpt lat="42.5031" lon="2.17484">
        <ele>1213.32</ele>
        <time>2016-07-01T08:04:23Z</time>
      </trkpt>
      <trkpt lat="42.5031" lon="2.17486">
        <ele>1213.32</ele>
        <time>2016-07-01T08:04:24Z</time>
      </trkpt>
      <trkpt lat="42.50309" lon="2.17487">
        <ele>1213.32</ele>
        <time>2016-07-01T08:04:25Z</time>
      </trkpt>
      <trkpt lat="42.50309" lon="2.17489">
        <ele>1212.84</ele>
        <time>2016-07-01T08:04:26Z</time>
      </trkpt>
      <trkpt lat="42.50309" lon="2.17491">
        <ele>1212.84</ele>
        <time>2016-07-01T08:04:27Z</time>
      </trkpt>
      <trkpt lat="42.50309" lon="2.17493">
        <ele>1212.84</ele>
        <time>2016-07-01T08:04:28Z</time>
      </trkpt>
      <trkpt lat="42.50309" lon="2.17495">
        <ele>1212.84</ele>
        <time>2016-07-01T08:04:29Z</time>
      </trkpt>
      <trkpt lat="42.50309" lon="2.17497">
        <ele>1212.84</ele>
        <time>2016-07-01T08:04:30Z</time>
      </trkpt>
      <trkpt lat="42.50307" lon="2.17518">
        <ele>1211.4</ele>
        <time>2016-07-01T08:04:42Z</time>
      </trkpt>
      <trkpt lat="42.50307" lon="2.17521">
        <ele>1211.4</ele>
        <time>2016-07-01T08:04:44Z</time>
      </trkpt>
      <trkpt lat="42.50307" lon="2.17525">
        <ele>1210.44</ele>
        <time>2016-07-01T08:04:47Z</time>
      </trkpt>
      <trkpt lat="42.50306" lon="2.17539">
        <ele>1209.96</ele>
        <time>2016-07-01T08:04:55Z</time>
      </trkpt>
      <trkpt lat="42.50307" lon="2.17541">
        <ele>1209.96</ele>
        <time>2016-07-01T08:04:56Z</time>
      </trkpt>
      <trkpt lat="42.50308" lon="2.17542">
        <ele>1209.48</ele>
        <time>2016-07-01T08:04:57Z</time>
      </trkpt>
      <trkpt lat="42.50309" lon="2.17545">
        <ele>1209.48</ele>
        <time>2016-07-01T08:04:59Z</time>
      </trkpt>
      <trkpt lat="42.50309" lon="2.17547">
        <ele>1209.48</ele>
        <time>2016-07-01T08:05:00Z</time>
      </trkpt>
      <trkpt lat="42.50309" lon="2.17549">
        <ele>1209.48</ele>
        <time>2016-07-01T08:05:01Z</time>
      </trkpt>
      <trkpt lat="42.5031" lon="2.17551">
        <ele>1209</ele>
        <time>2016-07-01T08:05:02Z</time>
      </trkpt>
      <trkpt lat="42.50309" lon="2.17554">
        <ele>1209</ele>
        <time>2016-07-01T08:05:03Z</time>
      </trkpt>
      <trkpt lat="42.50309" lon="2.17556">
        <ele>1209</ele>
        <time>2016-07-01T08:05:04Z</time>
      </trkpt>
      <trkpt lat="42.5031" lon="2.17558">
        <ele>1209</ele>
        <time>2016-07-01T08:05:05Z</time>
      </trkpt>
      <trkpt lat="42.5031" lon="2.1756">
        <ele>1209</ele>
        <time>2016-07-01T08:05:06Z</time>
      </trkpt>
      <trkpt lat="42.5031" lon="2.17562">
        <ele>1208.51</ele>
        <time>2016-07-01T08:05:07Z</time>
      </trkpt>
      <trkpt lat="42.5031" lon="2.17564">
        <ele>1208.51</ele>
        <time>2016-07-01T08:05:08Z</time>
      </trkpt>
      <trkpt lat="42.50311" lon="2.17567">
        <ele>1208.51</ele>
        <time>2016-07-01T08:05:10Z</time>
      </trkpt>
      <trkpt lat="42.50311" lon="2.17569">
        <ele>1208.51</ele>
        <time>2016-07-01T08:05:11Z</time>
      </trkpt>
      <trkpt lat="42.50311" lon="2.17571">
        <ele>1207.55</ele>
        <time>2016-07-01T08:05:12Z</time>
      </trkpt>
      <trkpt lat="42.50312" lon="2.17573">
        <ele>1207.55</ele>
        <time>2016-07-01T08:05:13Z</time>
      </trkpt>
      <trkpt lat="42.50313" lon="2.17575">
        <ele>1207.55</ele>
        <time>2016-07-01T08:05:14Z</time>
      </trkpt>
      <trkpt lat="42.50313" lon="2.17577">
        <ele>1207.55</ele>
        <time>2016-07-01T08:05:15Z</time>
      </trkpt>
      <trkpt lat="42.50314" lon="2.17579">
        <ele>1207.07</ele>
        <time>2016-07-01T08:05:16Z</time>
      </trkpt>
      <trkpt lat="42.50315" lon="2.17582">
        <ele>1207.07</ele>
        <time>2016-07-01T08:05:18Z</time>
      </trkpt>
      <trkpt lat="42.50315" lon="2.17584">
        <ele>1207.07</ele>
        <time>2016-07-01T08:05:19Z</time>
      </trkpt>
      <trkpt lat="42.50316" lon="2.17586">
        <ele>1206.59</ele>
        <time>2016-07-01T08:05:20Z</time>
      </trkpt>
      <trkpt lat="42.50317" lon="2.17588">
        <ele>1206.59</ele>
        <time>2016-07-01T08:05:21Z</time>
      </trkpt>
      <trkpt lat="42.50317" lon="2.17589">
        <ele>1206.59</ele>
        <time>2016-07-01T08:05:22Z</time>
      </trkpt>
      <trkpt lat="42.50318" lon="2.17591">
        <ele>1206.59</ele>
        <time>2016-07-01T08:05:23Z</time>
      </trkpt>
      <trkpt lat="42.50318" lon="2.17593">
        <ele>1206.11</ele>
        <time>2016-07-01T08:05:24Z</time>
      </trkpt>
      <trkpt lat="42.50319" lon="2.17594">
        <ele>1206.11</ele>
        <time>2016-07-01T08:05:25Z</time>
      </trkpt>
      <trkpt lat="42.5032" lon="2.17595">
        <ele>1206.11</ele>
        <time>2016-07-01T08:05:26Z</time>
      </trkpt>
      <trkpt lat="42.50322" lon="2.17596">
        <ele>1206.11</ele>
        <time>2016-07-01T08:05:27Z</time>
      </trkpt>
      <trkpt lat="42.50322" lon="2.17597">
        <ele>1205.63</ele>
        <time>2016-07-01T08:05:28Z</time>
      </trkpt>
      <trkpt lat="42.50323" lon="2.17599">
        <ele>1205.63</ele>
        <time>2016-07-01T08:05:29Z</time>
      </trkpt>
      <trkpt lat="42.50323" lon="2.176">
        <ele>1205.63</ele>
        <time>2016-07-01T08:05:30Z</time>
      </trkpt>
      <trkpt lat="42.50323" lon="2.17603">
        <ele>1205.63</ele>
        <time>2016-07-01T08:05:31Z</time>
      </trkpt>
      <trkpt lat="42.50322" lon="2.17605">
        <ele>1205.15</ele>
        <time>2016-07-01T08:05:32Z</time>
      </trkpt>
      <trkpt lat="42.50322" lon="2.17607">
        <ele>1205.15</ele>
        <time>2016-07-01T08:05:33Z</time>
      </trkpt>
      <trkpt lat="42.50323" lon="2.17609">
        <ele>1205.15</ele>
        <time>2016-07-01T08:05:34Z</time>
      </trkpt>
      <trkpt lat="42.50324" lon="2.17614">
        <ele>1204.67</ele>
        <time>2016-07-01T08:05:37Z</time>
      </trkpt>
      <trkpt lat="42.50325" lon="2.17615">
        <ele>1204.67</ele>
        <time>2016-07-01T08:05:38Z</time>
      </trkpt>
      <trkpt lat="42.50326" lon="2.17616">
        <ele>1204.67</ele>
        <time>2016-07-01T08:05:39Z</time>
      </trkpt>
      <trkpt lat="42.50329" lon="2.17619">
        <ele>1204.19</ele>
        <time>2016-07-01T08:05:41Z</time>
      </trkpt>
      <trkpt lat="42.5033" lon="2.1762">
        <ele>1204.19</ele>
        <time>2016-07-01T08:05:42Z</time>
      </trkpt>
      <trkpt lat="42.50332" lon="2.17621">
        <ele>1204.19</ele>
        <time>2016-07-01T08:05:43Z</time>
      </trkpt>
      <trkpt lat="42.50333" lon="2.17622">
        <ele>1203.23</ele>
        <time>2016-07-01T08:05:44Z</time>
      </trkpt>
      <trkpt lat="42.50335" lon="2.17623">
        <ele>1203.71</ele>
        <time>2016-07-01T08:05:45Z</time>
      </trkpt>
      <trkpt lat="42.50338" lon="2.17628">
        <ele>1202.75</ele>
        <time>2016-07-01T08:05:49Z</time>
      </trkpt>
      <trkpt lat="42.50339" lon="2.17629">
        <ele>1202.75</ele>
        <time>2016-07-01T08:05:50Z</time>
      </trkpt>
      <trkpt lat="42.5034" lon="2.17631">
        <ele>1202.75</ele>
        <time>2016-07-01T08:05:51Z</time>
      </trkpt>
      <trkpt lat="42.50341" lon="2.17632">
        <ele>1202.27</ele>
        <time>2016-07-01T08:05:52Z</time>
      </trkpt>
      <trkpt lat="42.50342" lon="2.17634">
        <ele>1202.27</ele>
        <time>2016-07-01T08:05:53Z</time>
      </trkpt>
      <trkpt lat="42.50344" lon="2.17635">
        <ele>1202.27</ele>
        <time>2016-07-01T08:05:54Z</time>
      </trkpt>
      <trkpt lat="42.50345" lon="2.17636">
        <ele>1202.27</ele>
        <time>2016-07-01T08:05:55Z</time>
      </trkpt>
      <trkpt lat="42.50346" lon="2.17637">
        <ele>1201.79</ele>
        <time>2016-07-01T08:05:56Z</time>
      </trkpt>
      <trkpt lat="42.50347" lon="2.17639">
        <ele>1201.79</ele>
        <time>2016-07-01T08:05:57Z</time>
      </trkpt>
      <trkpt lat="42.50348" lon="2.1764">
        <ele>1201.79</ele>
        <time>2016-07-01T08:05:58Z</time>
      </trkpt>
      <trkpt lat="42.5035" lon="2.17641">
        <ele>1201.79</ele>
        <time>2016-07-01T08:05:59Z</time>
      </trkpt>
      <trkpt lat="42.50351" lon="2.17642">
        <ele>1201.3</ele>
        <time>2016-07-01T08:06:00Z</time>
      </trkpt>
      <trkpt lat="42.50356" lon="2.17646">
        <ele>1200.82</ele>
        <time>2016-07-01T08:06:04Z</time>
      </trkpt>
      <trkpt lat="42.50357" lon="2.17647">
        <ele>1200.82</ele>
        <time>2016-07-01T08:06:05Z</time>
      </trkpt>
      <trkpt lat="42.50372" lon="2.17658">
        <ele>1198.9</ele>
        <time>2016-07-01T08:06:17Z</time>
      </trkpt>
      <trkpt lat="42.50386" lon="2.17662">
        <ele>1197.46</ele>
        <time>2016-07-01T08:06:29Z</time>
      </trkpt>
      <trkpt lat="42.50397" lon="2.17668">
        <ele>1196.02</ele>
        <time>2016-07-01T08:06:38Z</time>
      </trkpt>
      <trkpt lat="42.50399" lon="2.17668">
        <ele>1196.02</ele>
        <time>2016-07-01T08:06:39Z</time>
      </trkpt>
      <trkpt lat="42.50403" lon="2.17669">
        <ele>1195.54</ele>
        <time>2016-07-01T08:06:43Z</time>
      </trkpt>
      <trkpt lat="42.50404" lon="2.1767">
        <ele>1195.54</ele>
        <time>2016-07-01T08:06:44Z</time>
      </trkpt>
      <trkpt lat="42.50405" lon="2.17671">
        <ele>1195.54</ele>
        <time>2016-07-01T08:06:45Z</time>
      </trkpt>
      <trkpt lat="42.50407" lon="2.17672">
        <ele>1195.54</ele>
        <time>2016-07-01T08:06:46Z</time>
      </trkpt>
      <trkpt lat="42.50413" lon="2.17675">
        <ele>1194.58</ele>
        <time>2016-07-01T08:06:56Z</time>
      </trkpt>
      <trkpt lat="42.50417" lon="2.17678">
        <ele>1194.58</ele>
        <time>2016-07-01T08:06:59Z</time>
      </trkpt>
      <trkpt lat="42.5042" lon="2.17684">
        <ele>1193.61</ele>
        <time>2016-07-01T08:07:03Z</time>
      </trkpt>
      <trkpt lat="42.5042" lon="2.17685">
        <ele>1193.61</ele>
        <time>2016-07-01T08:07:04Z</time>
      </trkpt>
      <trkpt lat="42.50421" lon="2.17686">
        <ele>1193.61</ele>
        <time>2016-07-01T08:07:05Z</time>
      </trkpt>
      <trkpt lat="42.50422" lon="2.17687">
        <ele>1193.61</ele>
        <time>2016-07-01T08:07:06Z</time>
      </trkpt>
      <trkpt lat="42.50423" lon="2.17689">
        <ele>1193.61</ele>
        <time>2016-07-01T08:07:07Z</time>
      </trkpt>
      <trkpt lat="42.50424" lon="2.1769">
        <ele>1193.61</ele>
        <time>2016-07-01T08:07:08Z</time>
      </trkpt>
      <trkpt lat="42.50425" lon="2.17691">
        <ele>1193.61</ele>
        <time>2016-07-01T08:07:09Z</time>
      </trkpt>
      <trkpt lat="42.50426" lon="2.17693">
        <ele>1193.61</ele>
        <time>2016-07-01T08:07:10Z</time>
      </trkpt>
      <trkpt lat="42.50428" lon="2.17694">
        <ele>1193.13</ele>
        <time>2016-07-01T08:07:11Z</time>
      </trkpt>
      <trkpt lat="42.50429" lon="2.17695">
        <ele>1193.13</ele>
        <time>2016-07-01T08:07:12Z</time>
      </trkpt>
      <trkpt lat="42.5043" lon="2.17697">
        <ele>1193.13</ele>
        <time>2016-07-01T08:07:13Z</time>
      </trkpt>
      <trkpt lat="42.5043" lon="2.17698">
        <ele>1193.13</ele>
        <time>2016-07-01T08:07:14Z</time>
      </trkpt>
      <trkpt lat="42.50431" lon="2.177">
        <ele>1192.65</ele>
        <time>2016-07-01T08:07:15Z</time>
      </trkpt>
      <trkpt lat="42.50432" lon="2.17701">
        <ele>1192.65</ele>
        <time>2016-07-01T08:07:16Z</time>
      </trkpt>
      <trkpt lat="42.50433" lon="2.17702">
        <ele>1192.65</ele>
        <time>2016-07-01T08:07:17Z</time>
      </trkpt>
      <trkpt lat="42.50434" lon="2.17703">
        <ele>1192.65</ele>
        <time>2016-07-01T08:07:18Z</time>
      </trkpt>
      <trkpt lat="42.50435" lon="2.17704">
        <ele>1192.65</ele>
        <time>2016-07-01T08:07:19Z</time>
      </trkpt>
      <trkpt lat="42.50436" lon="2.17705">
        <ele>1192.17</ele>
        <time>2016-07-01T08:07:20Z</time>
      </trkpt>
      <trkpt lat="42.50437" lon="2.17707">
        <ele>1192.17</ele>
        <time>2016-07-01T08:07:21Z</time>
      </trkpt>
      <trkpt lat="42.50439" lon="2.1771">
        <ele>1192.17</ele>
        <time>2016-07-01T08:07:23Z</time>
      </trkpt>
      <trkpt lat="42.5044" lon="2.17711">
        <ele>1192.17</ele>
        <time>2016-07-01T08:07:24Z</time>
      </trkpt>
      <trkpt lat="42.50441" lon="2.17711">
        <ele>1191.69</ele>
        <time>2016-07-01T08:07:25Z</time>
      </trkpt>
      <trkpt lat="42.50442" lon="2.17712">
        <ele>1191.69</ele>
        <time>2016-07-01T08:07:26Z</time>
      </trkpt>
      <trkpt lat="42.50444" lon="2.17713">
        <ele>1191.69</ele>
        <time>2016-07-01T08:07:27Z</time>
      </trkpt>
      <trkpt lat="42.50445" lon="2.17714">
        <ele>1191.69</ele>
        <time>2016-07-01T08:07:28Z</time>
      </trkpt>
      <trkpt lat="42.50446" lon="2.17715">
        <ele>1191.69</ele>
        <time>2016-07-01T08:07:29Z</time>
      </trkpt>
      <trkpt lat="42.50454" lon="2.17723">
        <ele>1190.25</ele>
        <time>2016-07-01T08:07:36Z</time>
      </trkpt>
      <trkpt lat="42.50455" lon="2.17724">
        <ele>1190.25</ele>
        <time>2016-07-01T08:07:37Z</time>
      </trkpt>
      <trkpt lat="42.50456" lon="2.17725">
        <ele>1190.25</ele>
        <time>2016-07-01T08:07:38Z</time>
      </trkpt>
      <trkpt lat="42.50457" lon="2.17726">
        <ele>1189.77</ele>
        <time>2016-07-01T08:07:39Z</time>
      </trkpt>
      <trkpt lat="42.50459" lon="2.17727">
        <ele>1189.77</ele>
        <time>2016-07-01T08:07:40Z</time>
      </trkpt>
      <trkpt lat="42.5046" lon="2.17728">
        <ele>1189.77</ele>
        <time>2016-07-01T08:07:41Z</time>
      </trkpt>
      <trkpt lat="42.50461" lon="2.17729">
        <ele>1189.77</ele>
        <time>2016-07-01T08:07:42Z</time>
      </trkpt>
      <trkpt lat="42.50463" lon="2.17731">
        <ele>1189.29</ele>
        <time>2016-07-01T08:07:43Z</time>
      </trkpt>
      <trkpt lat="42.50464" lon="2.17732">
        <ele>1189.29</ele>
        <time>2016-07-01T08:07:44Z</time>
      </trkpt>
      <trkpt lat="42.50465" lon="2.17733">
        <ele>1189.29</ele>
        <time>2016-07-01T08:07:45Z</time>
      </trkpt>
      <trkpt lat="42.50465" lon="2.17735">
        <ele>1189.29</ele>
        <time>2016-07-01T08:07:46Z</time>
      </trkpt>
      <trkpt lat="42.50466" lon="2.17736">
        <ele>1188.81</ele>
        <time>2016-07-01T08:07:47Z</time>
      </trkpt>
      <trkpt lat="42.50467" lon="2.17738">
        <ele>1188.81</ele>
        <time>2016-07-01T08:07:48Z</time>
      </trkpt>
      <trkpt lat="42.50468" lon="2.17739">
        <ele>1188.81</ele>
        <time>2016-07-01T08:07:49Z</time>
      </trkpt>
      <trkpt lat="42.50469" lon="2.1774">
        <ele>1188.81</ele>
        <time>2016-07-01T08:07:50Z</time>
      </trkpt>
      <trkpt lat="42.5047" lon="2.17741">
        <ele>1187.85</ele>
        <time>2016-07-01T08:07:51Z</time>
      </trkpt>
      <trkpt lat="42.50472" lon="2.17742">
        <ele>1187.85</ele>
        <time>2016-07-01T08:07:52Z</time>
      </trkpt>
      <trkpt lat="42.50473" lon="2.17744">
        <ele>1187.85</ele>
        <time>2016-07-01T08:07:53Z</time>
      </trkpt>
      <trkpt lat="42.50474" lon="2.17745">
        <ele>1187.37</ele>
        <time>2016-07-01T08:07:54Z</time>
      </trkpt>
      <trkpt lat="42.50475" lon="2.17747">
        <ele>1187.37</ele>
        <time>2016-07-01T08:07:55Z</time>
      </trkpt>
      <trkpt lat="42.50476" lon="2.17748">
        <ele>1187.37</ele>
        <time>2016-07-01T08:07:56Z</time>
      </trkpt>
      <trkpt lat="42.50478" lon="2.1775">
        <ele>1186.88</ele>
        <time>2016-07-01T08:07:58Z</time>
      </trkpt>
      <trkpt lat="42.50479" lon="2.17751">
        <ele>1186.88</ele>
        <time>2016-07-01T08:07:59Z</time>
      </trkpt>
      <trkpt lat="42.5048" lon="2.17753">
        <ele>1186.4</ele>
        <time>2016-07-01T08:08:00Z</time>
      </trkpt>
      <trkpt lat="42.50487" lon="2.17761">
        <ele>1185.92</ele>
        <time>2016-07-01T08:08:06Z</time>
      </trkpt>
      <trkpt lat="42.50488" lon="2.17763">
        <ele>1185.44</ele>
        <time>2016-07-01T08:08:07Z</time>
      </trkpt>
      <trkpt lat="42.50489" lon="2.17763">
        <ele>1185.44</ele>
        <time>2016-07-01T08:08:08Z</time>
      </trkpt>
      <trkpt lat="42.5049" lon="2.17764">
        <ele>1185.44</ele>
        <time>2016-07-01T08:08:09Z</time>
      </trkpt>
      <trkpt lat="42.50491" lon="2.17765">
        <ele>1185.44</ele>
        <time>2016-07-01T08:08:10Z</time>
      </trkpt>
      <trkpt lat="42.50508" lon="2.17774">
        <ele>1183.04</ele>
        <time>2016-07-01T08:08:22Z</time>
      </trkpt>
      <trkpt lat="42.50513" lon="2.17779">
        <ele>1181.6</ele>
        <time>2016-07-01T08:08:27Z</time>
      </trkpt>
      <trkpt lat="42.50514" lon="2.1778">
        <ele>1181.6</ele>
        <time>2016-07-01T08:08:28Z</time>
      </trkpt>
      <trkpt lat="42.50526" lon="2.17789">
        <ele>1180.16</ele>
        <time>2016-07-01T08:08:39Z</time>
      </trkpt>
      <trkpt lat="42.50528" lon="2.17789">
        <ele>1180.16</ele>
        <time>2016-07-01T08:08:40Z</time>
      </trkpt>
      <trkpt lat="42.50529" lon="2.1779">
        <ele>1179.67</ele>
        <time>2016-07-01T08:08:41Z</time>
      </trkpt>
      <trkpt lat="42.5053" lon="2.17791">
        <ele>1179.67</ele>
        <time>2016-07-01T08:08:42Z</time>
      </trkpt>
      <trkpt lat="42.50532" lon="2.17792">
        <ele>1179.67</ele>
        <time>2016-07-01T08:08:43Z</time>
      </trkpt>
      <trkpt lat="42.50533" lon="2.17792">
        <ele>1179.67</ele>
        <time>2016-07-01T08:08:44Z</time>
      </trkpt>
      <trkpt lat="42.50534" lon="2.17793">
        <ele>1179.19</ele>
        <time>2016-07-01T08:08:45Z</time>
      </trkpt>
      <trkpt lat="42.50535" lon="2.17794">
        <ele>1179.19</ele>
        <time>2016-07-01T08:08:46Z</time>
      </trkpt>
      <trkpt lat="42.50536" lon="2.17794">
        <ele>1179.19</ele>
        <time>2016-07-01T08:08:47Z</time>
      </trkpt>
      <trkpt lat="42.50538" lon="2.17795">
        <ele>1179.19</ele>
        <time>2016-07-01T08:08:48Z</time>
      </trkpt>
      <trkpt lat="42.50539" lon="2.17796">
        <ele>1178.23</ele>
        <time>2016-07-01T08:08:49Z</time>
      </trkpt>
      <trkpt lat="42.5054" lon="2.17797">
        <ele>1178.23</ele>
        <time>2016-07-01T08:08:50Z</time>
      </trkpt>
      <trkpt lat="42.50542" lon="2.17799">
        <ele>1178.23</ele>
        <time>2016-07-01T08:08:52Z</time>
      </trkpt>
      <trkpt lat="42.50543" lon="2.17799">
        <ele>1178.23</ele>
        <time>2016-07-01T08:08:53Z</time>
      </trkpt>
      <trkpt lat="42.50544" lon="2.178">
        <ele>1177.75</ele>
        <time>2016-07-01T08:08:54Z</time>
      </trkpt>
      <trkpt lat="42.50552" lon="2.17801">
        <ele>1177.27</ele>
        <time>2016-07-01T08:08:59Z</time>
      </trkpt>
      <trkpt lat="42.50553" lon="2.17802">
        <ele>1177.27</ele>
        <time>2016-07-01T08:09:00Z</time>
      </trkpt>
      <trkpt lat="42.50554" lon="2.17802">
        <ele>1176.79</ele>
        <time>2016-07-01T08:09:01Z</time>
      </trkpt>
      <trkpt lat="42.50555" lon="2.17803">
        <ele>1176.79</ele>
        <time>2016-07-01T08:09:02Z</time>
      </trkpt>
      <trkpt lat="42.50557" lon="2.17803">
        <ele>1176.79</ele>
        <time>2016-07-01T08:09:03Z</time>
      </trkpt>
      <trkpt lat="42.50558" lon="2.17803">
        <ele>1176.79</ele>
        <time>2016-07-01T08:09:04Z</time>
      </trkpt>
      <trkpt lat="42.50559" lon="2.17804">
        <ele>1175.83</ele>
        <time>2016-07-01T08:09:05Z</time>
      </trkpt>
      <trkpt lat="42.50561" lon="2.17804">
        <ele>1175.83</ele>
        <time>2016-07-01T08:09:06Z</time>
      </trkpt>
      <trkpt lat="42.50562" lon="2.17803">
        <ele>1175.83</ele>
        <time>2016-07-01T08:09:07Z</time>
      </trkpt>
      <trkpt lat="42.50567" lon="2.17803">
        <ele>1175.35</ele>
        <time>2016-07-01T08:09:11Z</time>
      </trkpt>
      <trkpt lat="42.50569" lon="2.17804">
        <ele>1174.87</ele>
        <time>2016-07-01T08:09:12Z</time>
      </trkpt>
      <trkpt lat="42.5057" lon="2.17804">
        <ele>1174.87</ele>
        <time>2016-07-01T08:09:13Z</time>
      </trkpt>
      <trkpt lat="42.50571" lon="2.17804">
        <ele>1174.87</ele>
        <time>2016-07-01T08:09:14Z</time>
      </trkpt>
      <trkpt lat="42.50573" lon="2.17804">
        <ele>1174.87</ele>
        <time>2016-07-01T08:09:15Z</time>
      </trkpt>
      <trkpt lat="42.50574" lon="2.17804">
        <ele>1174.39</ele>
        <time>2016-07-01T08:09:16Z</time>
      </trkpt>
      <trkpt lat="42.50591" lon="2.17802">
        <ele>1171.98</ele>
        <time>2016-07-01T08:09:30Z</time>
      </trkpt>
      <trkpt lat="42.50614" lon="2.1781">
        <ele>1169.58</ele>
        <time>2016-07-01T08:09:47Z</time>
      </trkpt>
      <trkpt lat="42.50615" lon="2.1781">
        <ele>1169.58</ele>
        <time>2016-07-01T08:09:48Z</time>
      </trkpt>
      <trkpt lat="42.50617" lon="2.17811">
        <ele>1169.58</ele>
        <time>2016-07-01T08:09:49Z</time>
      </trkpt>
      <trkpt lat="42.50618" lon="2.17811">
        <ele>1169.1</ele>
        <time>2016-07-01T08:09:50Z</time>
      </trkpt>
      <trkpt lat="42.50619" lon="2.17812">
        <ele>1169.1</ele>
        <time>2016-07-01T08:09:51Z</time>
      </trkpt>
      <trkpt lat="42.50631" lon="2.17818">
        <ele>1168.14</ele>
        <time>2016-07-01T08:10:00Z</time>
      </trkpt>
      <trkpt lat="42.50632" lon="2.17818">
        <ele>1167.66</ele>
        <time>2016-07-01T08:10:01Z</time>
      </trkpt>
      <trkpt lat="42.50633" lon="2.17817">
        <ele>1167.18</ele>
        <time>2016-07-01T08:10:02Z</time>
      </trkpt>
      <trkpt lat="42.50634" lon="2.17815">
        <ele>1167.18</ele>
        <time>2016-07-01T08:10:03Z</time>
      </trkpt>
      <trkpt lat="42.50626" lon="2.17802">
        <ele>1165.74</ele>
        <time>2016-07-01T08:10:14Z</time>
      </trkpt>
      <trkpt lat="42.50622" lon="2.17799">
        <ele>1165.74</ele>
        <time>2016-07-01T08:10:17Z</time>
      </trkpt>
      <trkpt lat="42.50598" lon="2.17791">
        <ele>1163.81</ele>
        <time>2016-07-01T08:10:34Z</time>
      </trkpt>
      <trkpt lat="42.5058" lon="2.17782">
        <ele>1162.85</ele>
        <time>2016-07-01T08:10:48Z</time>
      </trkpt>
      <trkpt lat="42.50577" lon="2.17782">
        <ele>1162.37</ele>
        <time>2016-07-01T08:10:50Z</time>
      </trkpt>
      <trkpt lat="42.50572" lon="2.1778">
        <ele>1162.37</ele>
        <time>2016-07-01T08:10:54Z</time>
      </trkpt>
      <trkpt lat="42.50561" lon="2.17775">
        <ele>1161.41</ele>
        <time>2016-07-01T08:11:02Z</time>
      </trkpt>
      <trkpt lat="42.50554" lon="2.17771">
        <ele>1160.45</ele>
        <time>2016-07-01T08:11:08Z</time>
      </trkpt>
      <trkpt lat="42.50545" lon="2.17763">
        <ele>1159.97</ele>
        <time>2016-07-01T08:11:15Z</time>
      </trkpt>
      <trkpt lat="42.50532" lon="2.17748">
        <ele>1158.53</ele>
        <time>2016-07-01T08:11:27Z</time>
      </trkpt>
      <trkpt lat="42.50521" lon="2.17738">
        <ele>1157.08</ele>
        <time>2016-07-01T08:11:36Z</time>
      </trkpt>
      <trkpt lat="42.50516" lon="2.17731">
        <ele>1156.6</ele>
        <time>2016-07-01T08:11:41Z</time>
      </trkpt>
      <trkpt lat="42.50513" lon="2.17725">
        <ele>1155.64</ele>
        <time>2016-07-01T08:11:44Z</time>
      </trkpt>
      <trkpt lat="42.50509" lon="2.17715">
        <ele>1155.16</ele>
        <time>2016-07-01T08:11:50Z</time>
      </trkpt>
      <trkpt lat="42.50499" lon="2.17693">
        <ele>1153.24</ele>
        <time>2016-07-01T08:12:03Z</time>
      </trkpt>
      <trkpt lat="42.50494" lon="2.17675">
        <ele>1151.32</ele>
        <time>2016-07-01T08:12:13Z</time>
      </trkpt>
      <trkpt lat="42.50493" lon="2.17672">
        <ele>1151.32</ele>
        <time>2016-07-01T08:12:15Z</time>
      </trkpt>
      <trkpt lat="42.50491" lon="2.17667">
        <ele>1150.84</ele>
        <time>2016-07-01T08:12:18Z</time>
      </trkpt>
      <trkpt lat="42.50487" lon="2.17657">
        <ele>1150.35</ele>
        <time>2016-07-01T08:12:24Z</time>
      </trkpt>
      <trkpt lat="42.50477" lon="2.17635">
        <ele>1147.95</ele>
        <time>2016-07-01T08:12:37Z</time>
      </trkpt>
      <trkpt lat="42.50475" lon="2.17631">
        <ele>1147.95</ele>
        <time>2016-07-01T08:12:40Z</time>
      </trkpt>
      <trkpt lat="42.50472" lon="2.17626">
        <ele>1147.47</ele>
        <time>2016-07-01T08:12:43Z</time>
      </trkpt>
      <trkpt lat="42.50463" lon="2.17612">
        <ele>1145.55</ele>
        <time>2016-07-01T08:12:53Z</time>
      </trkpt>
      <trkpt lat="42.50452" lon="2.176">
        <ele>1144.11</ele>
        <time>2016-07-01T08:13:03Z</time>
      </trkpt>
      <trkpt lat="42.50448" lon="2.17595">
        <ele>1143.14</ele>
        <time>2016-07-01T08:13:07Z</time>
      </trkpt>
      <trkpt lat="42.50446" lon="2.17593">
        <ele>1142.66</ele>
        <time>2016-07-01T08:13:09Z</time>
      </trkpt>
      <trkpt lat="42.50437" lon="2.17586">
        <ele>1141.22</ele>
        <time>2016-07-01T08:13:16Z</time>
      </trkpt>
      <trkpt lat="42.50428" lon="2.17568">
        <ele>1139.78</ele>
        <time>2016-07-01T08:13:27Z</time>
      </trkpt>
      <trkpt lat="42.50427" lon="2.17565">
        <ele>1139.78</ele>
        <time>2016-07-01T08:13:29Z</time>
      </trkpt>
      <trkpt lat="42.50427" lon="2.17554">
        <ele>1138.34</ele>
        <time>2016-07-01T08:13:35Z</time>
      </trkpt>
      <trkpt lat="42.50426" lon="2.17539">
        <ele>1137.38</ele>
        <time>2016-07-01T08:13:44Z</time>
      </trkpt>
      <trkpt lat="42.50428" lon="2.1753">
        <ele>1136.9</ele>
        <time>2016-07-01T08:13:49Z</time>
      </trkpt>
      <trkpt lat="42.50429" lon="2.17529">
        <ele>1136.9</ele>
        <time>2016-07-01T08:13:50Z</time>
      </trkpt>
      <trkpt lat="42.50432" lon="2.1752">
        <ele>1136.42</ele>
        <time>2016-07-01T08:13:54Z</time>
      </trkpt>
      <trkpt lat="42.50432" lon="2.17518">
        <ele>1136.42</ele>
        <time>2016-07-01T08:13:55Z</time>
      </trkpt>
      <trkpt lat="42.50433" lon="2.17516">
        <ele>1135.94</ele>
        <time>2016-07-01T08:13:56Z</time>
      </trkpt>
      <trkpt lat="42.50433" lon="2.17515">
        <ele>1135.94</ele>
        <time>2016-07-01T08:13:57Z</time>
      </trkpt>
      <trkpt lat="42.50434" lon="2.17513">
        <ele>1135.94</ele>
        <time>2016-07-01T08:13:58Z</time>
      </trkpt>
      <trkpt lat="42.50434" lon="2.17512">
        <ele>1135.94</ele>
        <time>2016-07-01T08:13:59Z</time>
      </trkpt>
      <trkpt lat="42.50435" lon="2.1751">
        <ele>1135.45</ele>
        <time>2016-07-01T08:14:00Z</time>
      </trkpt>
      <trkpt lat="42.50436" lon="2.17508">
        <ele>1135.45</ele>
        <time>2016-07-01T08:14:01Z</time>
      </trkpt>
      <trkpt lat="42.50438" lon="2.17506">
        <ele>1135.45</ele>
        <time>2016-07-01T08:14:02Z</time>
      </trkpt>
      <trkpt lat="42.50439" lon="2.17504">
        <ele>1135.45</ele>
        <time>2016-07-01T08:14:03Z</time>
      </trkpt>
      <trkpt lat="42.5044" lon="2.17502">
        <ele>1134.49</ele>
        <time>2016-07-01T08:14:04Z</time>
      </trkpt>
      <trkpt lat="42.50442" lon="2.17496">
        <ele>1134.49</ele>
        <time>2016-07-01T08:14:07Z</time>
      </trkpt>
      <trkpt lat="42.50443" lon="2.17494">
        <ele>1134.01</ele>
        <time>2016-07-01T08:14:08Z</time>
      </trkpt>
      <trkpt lat="42.50443" lon="2.17492">
        <ele>1134.01</ele>
        <time>2016-07-01T08:14:09Z</time>
      </trkpt>
      <trkpt lat="42.50443" lon="2.1749">
        <ele>1134.01</ele>
        <time>2016-07-01T08:14:10Z</time>
      </trkpt>
      <trkpt lat="42.50443" lon="2.17488">
        <ele>1134.01</ele>
        <time>2016-07-01T08:14:11Z</time>
      </trkpt>
      <trkpt lat="42.50443" lon="2.17486">
        <ele>1133.53</ele>
        <time>2016-07-01T08:14:12Z</time>
      </trkpt>
      <trkpt lat="42.50443" lon="2.17485">
        <ele>1133.53</ele>
        <time>2016-07-01T08:14:13Z</time>
      </trkpt>
      <trkpt lat="42.50443" lon="2.17482">
        <ele>1133.53</ele>
        <time>2016-07-01T08:14:14Z</time>
      </trkpt>
      <trkpt lat="42.50441" lon="2.17473">
        <ele>1133.05</ele>
        <time>2016-07-01T08:14:19Z</time>
      </trkpt>
      <trkpt lat="42.50441" lon="2.17471">
        <ele>1132.09</ele>
        <time>2016-07-01T08:14:20Z</time>
      </trkpt>
      <trkpt lat="42.50441" lon="2.1747">
        <ele>1132.09</ele>
        <time>2016-07-01T08:14:21Z</time>
      </trkpt>
      <trkpt lat="42.50441" lon="2.17468">
        <ele>1132.09</ele>
        <time>2016-07-01T08:14:22Z</time>
      </trkpt>
      <trkpt lat="42.5044" lon="2.17466">
        <ele>1131.61</ele>
        <time>2016-07-01T08:14:23Z</time>
      </trkpt>
      <trkpt lat="42.5044" lon="2.17464">
        <ele>1131.61</ele>
        <time>2016-07-01T08:14:24Z</time>
      </trkpt>
      <trkpt lat="42.5044" lon="2.17462">
        <ele>1131.61</ele>
        <time>2016-07-01T08:14:25Z</time>
      </trkpt>
      <trkpt lat="42.50439" lon="2.1746">
        <ele>1131.61</ele>
        <time>2016-07-01T08:14:26Z</time>
      </trkpt>
      <trkpt lat="42.50439" lon="2.17458">
        <ele>1131.13</ele>
        <time>2016-07-01T08:14:27Z</time>
      </trkpt>
      <trkpt lat="42.50439" lon="2.17456">
        <ele>1131.13</ele>
        <time>2016-07-01T08:14:28Z</time>
      </trkpt>
      <trkpt lat="42.50439" lon="2.17454">
        <ele>1131.13</ele>
        <time>2016-07-01T08:14:29Z</time>
      </trkpt>
      <trkpt lat="42.50439" lon="2.17452">
        <ele>1130.65</ele>
        <time>2016-07-01T08:14:30Z</time>
      </trkpt>
      <trkpt lat="42.50439" lon="2.1745">
        <ele>1130.65</ele>
        <time>2016-07-01T08:14:31Z</time>
      </trkpt>
      <trkpt lat="42.50438" lon="2.17449">
        <ele>1130.65</ele>
        <time>2016-07-01T08:14:32Z</time>
      </trkpt>
      <trkpt lat="42.50437" lon="2.17447">
        <ele>1130.65</ele>
        <time>2016-07-01T08:14:33Z</time>
      </trkpt>
      <trkpt lat="42.50437" lon="2.17445">
        <ele>1130.17</ele>
        <time>2016-07-01T08:14:34Z</time>
      </trkpt>
      <trkpt lat="42.50437" lon="2.17443">
        <ele>1130.17</ele>
        <time>2016-07-01T08:14:35Z</time>
      </trkpt>
      <trkpt lat="42.50436" lon="2.17441">
        <ele>1130.17</ele>
        <time>2016-07-01T08:14:36Z</time>
      </trkpt>
      <trkpt lat="42.5043" lon="2.17422">
        <ele>1128.24</ele>
        <time>2016-07-01T08:14:47Z</time>
      </trkpt>
      <trkpt lat="42.5043" lon="2.1742">
        <ele>1128.24</ele>
        <time>2016-07-01T08:14:48Z</time>
      </trkpt>
      <trkpt lat="42.50429" lon="2.17419">
        <ele>1128.24</ele>
        <time>2016-07-01T08:14:49Z</time>
      </trkpt>
      <trkpt lat="42.50429" lon="2.17417">
        <ele>1127.76</ele>
        <time>2016-07-01T08:14:50Z</time>
      </trkpt>
      <trkpt lat="42.50428" lon="2.17415">
        <ele>1127.76</ele>
        <time>2016-07-01T08:14:51Z</time>
      </trkpt>
      <trkpt lat="42.50428" lon="2.17413">
        <ele>1127.76</ele>
        <time>2016-07-01T08:14:52Z</time>
      </trkpt>
      <trkpt lat="42.50428" lon="2.17412">
        <ele>1127.76</ele>
        <time>2016-07-01T08:14:53Z</time>
      </trkpt>
      <trkpt lat="42.50428" lon="2.1741">
        <ele>1127.76</ele>
        <time>2016-07-01T08:14:54Z</time>
      </trkpt>
      <trkpt lat="42.50428" lon="2.17408">
        <ele>1127.28</ele>
        <time>2016-07-01T08:14:55Z</time>
      </trkpt>
      <trkpt lat="42.50428" lon="2.17405">
        <ele>1127.28</ele>
        <time>2016-07-01T08:14:56Z</time>
      </trkpt>
      <trkpt lat="42.50428" lon="2.17403">
        <ele>1127.28</ele>
        <time>2016-07-01T08:14:57Z</time>
      </trkpt>
      <trkpt lat="42.50428" lon="2.17401">
        <ele>1127.28</ele>
        <time>2016-07-01T08:14:58Z</time>
      </trkpt>
      <trkpt lat="42.50428" lon="2.17399">
        <ele>1126.8</ele>
        <time>2016-07-01T08:14:59Z</time>
      </trkpt>
      <trkpt lat="42.50428" lon="2.17397">
        <ele>1126.8</ele>
        <time>2016-07-01T08:15:00Z</time>
      </trkpt>
      <trkpt lat="42.50428" lon="2.17395">
        <ele>1126.8</ele>
        <time>2016-07-01T08:15:01Z</time>
      </trkpt>
      <trkpt lat="42.50427" lon="2.17393">
        <ele>1126.8</ele>
        <time>2016-07-01T08:15:02Z</time>
      </trkpt>
      <trkpt lat="42.50426" lon="2.17392">
        <ele>1126.8</ele>
        <time>2016-07-01T08:15:03Z</time>
      </trkpt>
      <trkpt lat="42.50426" lon="2.1739">
        <ele>1125.84</ele>
        <time>2016-07-01T08:15:04Z</time>
      </trkpt>
      <trkpt lat="42.50426" lon="2.17389">
        <ele>1126.32</ele>
        <time>2016-07-01T08:15:05Z</time>
      </trkpt>
      <trkpt lat="42.50426" lon="2.17387">
        <ele>1125.84</ele>
        <time>2016-07-01T08:15:06Z</time>
      </trkpt>
      <trkpt lat="42.50426" lon="2.17381">
        <ele>1125.36</ele>
        <time>2016-07-01T08:15:12Z</time>
      </trkpt>
      <trkpt lat="42.50425" lon="2.17382">
        <ele>1124.88</ele>
        <time>2016-07-01T08:15:23Z</time>
      </trkpt>
      <trkpt lat="42.5043" lon="2.17387">
        <ele>1123.92</ele>
        <time>2016-07-01T08:15:30Z</time>
      </trkpt>
      <trkpt lat="42.50431" lon="2.1739">
        <ele>1123.44</ele>
        <time>2016-07-01T08:15:32Z</time>
      </trkpt>
      <trkpt lat="42.50432" lon="2.17392">
        <ele>1123.44</ele>
        <time>2016-07-01T08:15:33Z</time>
      </trkpt>
      <trkpt lat="42.50433" lon="2.17399">
        <ele>1122.48</ele>
        <time>2016-07-01T08:15:37Z</time>
      </trkpt>
      <trkpt lat="42.50432" lon="2.17401">
        <ele>1122</ele>
        <time>2016-07-01T08:15:38Z</time>
      </trkpt>
      <trkpt lat="42.50432" lon="2.17403">
        <ele>1122</ele>
        <time>2016-07-01T08:15:39Z</time>
      </trkpt>
      <trkpt lat="42.50432" lon="2.17405">
        <ele>1122</ele>
        <time>2016-07-01T08:15:40Z</time>
      </trkpt>
      <trkpt lat="42.50432" lon="2.17407">
        <ele>1121.52</ele>
        <time>2016-07-01T08:15:41Z</time>
      </trkpt>
      <trkpt lat="42.50435" lon="2.17414">
        <ele>1120.07</ele>
        <time>2016-07-01T08:15:47Z</time>
      </trkpt>
      <trkpt lat="42.50437" lon="2.17415">
        <ele>1120.55</ele>
        <time>2016-07-01T08:15:48Z</time>
      </trkpt>
      <trkpt lat="42.50443" lon="2.17417">
        <ele>1119.59</ele>
        <time>2016-07-01T08:15:52Z</time>
      </trkpt>
      <trkpt lat="42.50447" lon="2.17421">
        <ele>1118.15</ele>
        <time>2016-07-01T08:15:56Z</time>
      </trkpt>
      <trkpt lat="42.5046" lon="2.17431">
        <ele>1116.23</ele>
        <time>2016-07-01T08:16:07Z</time>
      </trkpt>
      <trkpt lat="42.50474" lon="2.1744">
        <ele>1113.82</ele>
        <time>2016-07-01T08:16:20Z</time>
      </trkpt>
      <trkpt lat="42.50482" lon="2.17453">
        <ele>1111.9</ele>
        <time>2016-07-01T08:16:30Z</time>
      </trkpt>
      <trkpt lat="42.50483" lon="2.17454">
        <ele>1111.42</ele>
        <time>2016-07-01T08:16:31Z</time>
      </trkpt>
      <trkpt lat="42.50487" lon="2.17465">
        <ele>1108.06</ele>
        <time>2016-07-01T08:16:39Z</time>
      </trkpt>
      <trkpt lat="42.50489" lon="2.17468">
        <ele>1106.13</ele>
        <time>2016-07-01T08:16:41Z</time>
      </trkpt>
      <trkpt lat="42.50494" lon="2.17479">
        <ele>1103.73</ele>
        <time>2016-07-01T08:16:50Z</time>
      </trkpt>
      <trkpt lat="42.50495" lon="2.17483">
        <ele>1103.73</ele>
        <time>2016-07-01T08:16:53Z</time>
      </trkpt>
      <trkpt lat="42.50501" lon="2.17494">
        <ele>1102.77</ele>
        <time>2016-07-01T08:17:02Z</time>
      </trkpt>
      <trkpt lat="42.505" lon="2.175">
        <ele>1102.29</ele>
        <time>2016-07-01T08:17:06Z</time>
      </trkpt>
      <trkpt lat="42.50499" lon="2.17505">
        <ele>1102.29</ele>
        <time>2016-07-01T08:17:09Z</time>
      </trkpt>
      <trkpt lat="42.50506" lon="2.17521">
        <ele>1099.89</ele>
        <time>2016-07-01T08:17:23Z</time>
      </trkpt>
      <trkpt lat="42.50508" lon="2.17523">
        <ele>1099.89</ele>
        <time>2016-07-01T08:17:25Z</time>
      </trkpt>
      <trkpt lat="42.50525" lon="2.17532">
        <ele>1097</ele>
        <time>2016-07-01T08:17:38Z</time>
      </trkpt>
      <trkpt lat="42.50536" lon="2.17541">
        <ele>1095.56</ele>
        <time>2016-07-01T08:17:49Z</time>
      </trkpt>
      <trkpt lat="42.50543" lon="2.17547">
        <ele>1094.12</ele>
        <time>2016-07-01T08:17:56Z</time>
      </trkpt>
      <trkpt lat="42.50553" lon="2.17555">
        <ele>1092.68</ele>
        <time>2016-07-01T08:18:07Z</time>
      </trkpt>
      <trkpt lat="42.50559" lon="2.17561">
        <ele>1091.23</ele>
        <time>2016-07-01T08:18:15Z</time>
      </trkpt>
      <trkpt lat="42.50566" lon="2.17569">
        <ele>1090.27</ele>
        <time>2016-07-01T08:18:24Z</time>
      </trkpt>
      <trkpt lat="42.50575" lon="2.17572">
        <ele>1089.79</ele>
        <time>2016-07-01T08:18:32Z</time>
      </trkpt>
      <trkpt lat="42.50579" lon="2.17571">
        <ele>1089.31</ele>
        <time>2016-07-01T08:18:35Z</time>
      </trkpt>
      <trkpt lat="42.50595" lon="2.17566">
        <ele>1087.87</ele>
        <time>2016-07-01T08:18:47Z</time>
      </trkpt>
      <trkpt lat="42.50597" lon="2.17565">
        <ele>1087.87</ele>
        <time>2016-07-01T08:18:49Z</time>
      </trkpt>
      <trkpt lat="42.50609" lon="2.1757">
        <ele>1086.91</ele>
        <time>2016-07-01T08:19:00Z</time>
      </trkpt>
      <trkpt lat="42.50613" lon="2.17575">
        <ele>1085.95</ele>
        <time>2016-07-01T08:19:07Z</time>
      </trkpt>
      <trkpt lat="42.50611" lon="2.17588">
        <ele>1083.54</ele>
        <time>2016-07-01T08:19:19Z</time>
      </trkpt>
      <trkpt lat="42.50611" lon="2.17592">
        <ele>1083.06</ele>
        <time>2016-07-01T08:19:22Z</time>
      </trkpt>
      <trkpt lat="42.50614" lon="2.17598">
        <ele>1081.62</ele>
        <time>2016-07-01T08:19:27Z</time>
      </trkpt>
      <trkpt lat="42.50617" lon="2.176">
        <ele>1081.14</ele>
        <time>2016-07-01T08:19:30Z</time>
      </trkpt>
      <trkpt lat="42.50621" lon="2.17606">
        <ele>1079.7</ele>
        <time>2016-07-01T08:19:37Z</time>
      </trkpt>
      <trkpt lat="42.50629" lon="2.17616">
        <ele>1075.37</ele>
        <time>2016-07-01T08:19:46Z</time>
      </trkpt>
      <trkpt lat="42.50633" lon="2.17627">
        <ele>1072.49</ele>
        <time>2016-07-01T08:19:57Z</time>
      </trkpt>
      <trkpt lat="42.50641" lon="2.17632">
        <ele>1072.01</ele>
        <time>2016-07-01T08:20:06Z</time>
      </trkpt>
      <trkpt lat="42.50641" lon="2.17633">
        <ele>1072.01</ele>
        <time>2016-07-01T08:20:08Z</time>
      </trkpt>
      <trkpt lat="42.50647" lon="2.17638">
        <ele>1069.6</ele>
        <time>2016-07-01T08:20:20Z</time>
      </trkpt>
      <trkpt lat="42.50653" lon="2.17635">
        <ele>1067.68</ele>
        <time>2016-07-01T08:20:29Z</time>
      </trkpt>
      <trkpt lat="42.50659" lon="2.17635">
        <ele>1065.28</ele>
        <time>2016-07-01T08:20:33Z</time>
      </trkpt>
      <trkpt lat="42.50669" lon="2.17632">
        <ele>1060.95</ele>
        <time>2016-07-01T08:20:39Z</time>
      </trkpt>
      <trkpt lat="42.50674" lon="2.17632">
        <ele>1060.47</ele>
        <time>2016-07-01T08:20:44Z</time>
      </trkpt>
      <trkpt lat="42.50686" lon="2.17623">
        <ele>1059.99</ele>
        <time>2016-07-01T08:20:59Z</time>
      </trkpt>
      <trkpt lat="42.50686" lon="2.17622">
        <ele>1059.99</ele>
        <time>2016-07-01T08:21:02Z</time>
      </trkpt>
      <trkpt lat="42.50686" lon="2.17615">
        <ele>1059.99</ele>
        <time>2016-07-01T08:21:12Z</time>
      </trkpt>
      <trkpt lat="42.50693" lon="2.17604">
        <ele>1059.99</ele>
        <time>2016-07-01T08:21:21Z</time>
      </trkpt>
      <trkpt lat="42.50705" lon="2.17591">
        <ele>1059.03</ele>
        <time>2016-07-01T08:21:33Z</time>
      </trkpt>
      <trkpt lat="42.50708" lon="2.17582">
        <ele>1059.03</ele>
        <time>2016-07-01T08:21:39Z</time>
      </trkpt>
      <trkpt lat="42.50721" lon="2.17576">
        <ele>1057.59</ele>
        <time>2016-07-01T08:21:52Z</time>
      </trkpt>
      <trkpt lat="42.5073" lon="2.17574">
        <ele>1057.59</ele>
        <time>2016-07-01T08:21:58Z</time>
      </trkpt>
      <trkpt lat="42.50746" lon="2.17578">
        <ele>1057.11</ele>
        <time>2016-07-01T08:22:09Z</time>
      </trkpt>
      <trkpt lat="42.50758" lon="2.17585">
        <ele>1056.63</ele>
        <time>2016-07-01T08:22:19Z</time>
      </trkpt>
      <trkpt lat="42.50758" lon="2.17587">
        <ele>1056.63</ele>
        <time>2016-07-01T08:22:20Z</time>
      </trkpt>
      <trkpt lat="42.50758" lon="2.17588">
        <ele>1055.67</ele>
        <time>2016-07-01T08:22:21Z</time>
      </trkpt>
      <trkpt lat="42.50758" lon="2.17591">
        <ele>1056.15</ele>
        <time>2016-07-01T08:22:22Z</time>
      </trkpt>
      <trkpt lat="42.5076" lon="2.17592">
        <ele>1056.15</ele>
        <time>2016-07-01T08:22:23Z</time>
      </trkpt>
      <trkpt lat="42.50763" lon="2.17593">
        <ele>1056.15</ele>
        <time>2016-07-01T08:22:24Z</time>
      </trkpt>
      <trkpt lat="42.50764" lon="2.17594">
        <ele>1056.15</ele>
        <time>2016-07-01T08:22:25Z</time>
      </trkpt>
      <trkpt lat="42.50766" lon="2.17595">
        <ele>1055.18</ele>
        <time>2016-07-01T08:22:26Z</time>
      </trkpt>
      <trkpt lat="42.50767" lon="2.17596">
        <ele>1055.18</ele>
        <time>2016-07-01T08:22:27Z</time>
      </trkpt>
      <trkpt lat="42.50768" lon="2.17597">
        <ele>1055.18</ele>
        <time>2016-07-01T08:22:28Z</time>
      </trkpt>
      <trkpt lat="42.50771" lon="2.17601">
        <ele>1055.18</ele>
        <time>2016-07-01T08:22:31Z</time>
      </trkpt>
      <trkpt lat="42.50771" lon="2.17602">
        <ele>1055.18</ele>
        <time>2016-07-01T08:22:32Z</time>
      </trkpt>
      <trkpt lat="42.50771" lon="2.17604">
        <ele>1054.7</ele>
        <time>2016-07-01T08:22:33Z</time>
      </trkpt>
      <trkpt lat="42.5077" lon="2.17607">
        <ele>1054.7</ele>
        <time>2016-07-01T08:22:34Z</time>
      </trkpt>
      <trkpt lat="42.5077" lon="2.17609">
        <ele>1054.7</ele>
        <time>2016-07-01T08:22:35Z</time>
      </trkpt>
      <trkpt lat="42.50771" lon="2.1761">
        <ele>1054.7</ele>
        <time>2016-07-01T08:22:36Z</time>
      </trkpt>
      <trkpt lat="42.50772" lon="2.17611">
        <ele>1054.7</ele>
        <time>2016-07-01T08:22:37Z</time>
      </trkpt>
      <trkpt lat="42.50773" lon="2.17612">
        <ele>1054.7</ele>
        <time>2016-07-01T08:22:38Z</time>
      </trkpt>
      <trkpt lat="42.50774" lon="2.17614">
        <ele>1054.22</ele>
        <time>2016-07-01T08:22:39Z</time>
      </trkpt>
      <trkpt lat="42.50774" lon="2.17616">
        <ele>1054.22</ele>
        <time>2016-07-01T08:22:40Z</time>
      </trkpt>
      <trkpt lat="42.50774" lon="2.17617">
        <ele>1054.22</ele>
        <time>2016-07-01T08:22:41Z</time>
      </trkpt>
      <trkpt lat="42.50773" lon="2.1762">
        <ele>1054.22</ele>
        <time>2016-07-01T08:22:42Z</time>
      </trkpt>
      <trkpt lat="42.50774" lon="2.17622">
        <ele>1054.22</ele>
        <time>2016-07-01T08:22:43Z</time>
      </trkpt>
      <trkpt lat="42.50775" lon="2.17624">
        <ele>1054.22</ele>
        <time>2016-07-01T08:22:44Z</time>
      </trkpt>
      <trkpt lat="42.50775" lon="2.17626">
        <ele>1053.74</ele>
        <time>2016-07-01T08:22:45Z</time>
      </trkpt>
      <trkpt lat="42.50776" lon="2.1763">
        <ele>1053.74</ele>
        <time>2016-07-01T08:22:47Z</time>
      </trkpt>
      <trkpt lat="42.50776" lon="2.17632">
        <ele>1053.74</ele>
        <time>2016-07-01T08:22:48Z</time>
      </trkpt>
      <trkpt lat="42.50776" lon="2.17634">
        <ele>1053.74</ele>
        <time>2016-07-01T08:22:49Z</time>
      </trkpt>
      <trkpt lat="42.50776" lon="2.17636">
        <ele>1053.26</ele>
        <time>2016-07-01T08:22:50Z</time>
      </trkpt>
      <trkpt lat="42.50775" lon="2.17638">
        <ele>1053.26</ele>
        <time>2016-07-01T08:22:51Z</time>
      </trkpt>
      <trkpt lat="42.50774" lon="2.17641">
        <ele>1053.26</ele>
        <time>2016-07-01T08:22:52Z</time>
      </trkpt>
      <trkpt lat="42.50773" lon="2.17646">
        <ele>1053.26</ele>
        <time>2016-07-01T08:22:54Z</time>
      </trkpt>
      <trkpt lat="42.50774" lon="2.17647">
        <ele>1052.3</ele>
        <time>2016-07-01T08:22:55Z</time>
      </trkpt>
      <trkpt lat="42.50774" lon="2.17649">
        <ele>1052.78</ele>
        <time>2016-07-01T08:22:56Z</time>
      </trkpt>
      <trkpt lat="42.50772" lon="2.17652">
        <ele>1052.78</ele>
        <time>2016-07-01T08:22:57Z</time>
      </trkpt>
      <trkpt lat="42.50773" lon="2.17654">
        <ele>1052.78</ele>
        <time>2016-07-01T08:22:58Z</time>
      </trkpt>
      <trkpt lat="42.50774" lon="2.17656">
        <ele>1052.78</ele>
        <time>2016-07-01T08:22:59Z</time>
      </trkpt>
      <trkpt lat="42.50774" lon="2.17657">
        <ele>1052.78</ele>
        <time>2016-07-01T08:23:00Z</time>
      </trkpt>
      <trkpt lat="42.50777" lon="2.17658">
        <ele>1051.82</ele>
        <time>2016-07-01T08:23:01Z</time>
      </trkpt>
      <trkpt lat="42.50777" lon="2.1766">
        <ele>1051.82</ele>
        <time>2016-07-01T08:23:02Z</time>
      </trkpt>
      <trkpt lat="42.50777" lon="2.17661">
        <ele>1051.82</ele>
        <time>2016-07-01T08:23:03Z</time>
      </trkpt>
      <trkpt lat="42.50778" lon="2.17663">
        <ele>1051.82</ele>
        <time>2016-07-01T08:23:04Z</time>
      </trkpt>
      <trkpt lat="42.50779" lon="2.17667">
        <ele>1051.82</ele>
        <time>2016-07-01T08:23:06Z</time>
      </trkpt>
      <trkpt lat="42.50779" lon="2.17669">
        <ele>1051.34</ele>
        <time>2016-07-01T08:23:07Z</time>
      </trkpt>
      <trkpt lat="42.50779" lon="2.17671">
        <ele>1051.34</ele>
        <time>2016-07-01T08:23:08Z</time>
      </trkpt>
      <trkpt lat="42.50783" lon="2.17673">
        <ele>1051.34</ele>
        <time>2016-07-01T08:23:10Z</time>
      </trkpt>
      <trkpt lat="42.50782" lon="2.17675">
        <ele>1051.34</ele>
        <time>2016-07-01T08:23:11Z</time>
      </trkpt>
      <trkpt lat="42.50783" lon="2.17677">
        <ele>1051.34</ele>
        <time>2016-07-01T08:23:12Z</time>
      </trkpt>
      <trkpt lat="42.50783" lon="2.17679">
        <ele>1050.86</ele>
        <time>2016-07-01T08:23:13Z</time>
      </trkpt>
      <trkpt lat="42.50784" lon="2.17681">
        <ele>1050.86</ele>
        <time>2016-07-01T08:23:16Z</time>
      </trkpt>
      <trkpt lat="42.50784" lon="2.17682">
        <ele>1050.86</ele>
        <time>2016-07-01T08:23:18Z</time>
      </trkpt>
      <trkpt lat="42.50785" lon="2.17686">
        <ele>1050.38</ele>
        <time>2016-07-01T08:23:20Z</time>
      </trkpt>
      <trkpt lat="42.50785" lon="2.17687">
        <ele>1050.38</ele>
        <time>2016-07-01T08:23:21Z</time>
      </trkpt>
      <trkpt lat="42.50785" lon="2.17689">
        <ele>1050.38</ele>
        <time>2016-07-01T08:23:22Z</time>
      </trkpt>
      <trkpt lat="42.50789" lon="2.17689">
        <ele>1050.38</ele>
        <time>2016-07-01T08:23:23Z</time>
      </trkpt>
      <trkpt lat="42.50793" lon="2.17689">
        <ele>1050.38</ele>
        <time>2016-07-01T08:23:24Z</time>
      </trkpt>
      <trkpt lat="42.50795" lon="2.1769">
        <ele>1050.38</ele>
        <time>2016-07-01T08:23:25Z</time>
      </trkpt>
      <trkpt lat="42.50798" lon="2.17691">
        <ele>1050.38</ele>
        <time>2016-07-01T08:23:26Z</time>
      </trkpt>
      <trkpt lat="42.508" lon="2.17691">
        <ele>1049.9</ele>
        <time>2016-07-01T08:23:27Z</time>
      </trkpt>
      <trkpt lat="42.50802" lon="2.17692">
        <ele>1049.9</ele>
        <time>2016-07-01T08:23:28Z</time>
      </trkpt>
      <trkpt lat="42.50804" lon="2.17693">
        <ele>1049.9</ele>
        <time>2016-07-01T08:23:29Z</time>
      </trkpt>
      <trkpt lat="42.50805" lon="2.17695">
        <ele>1049.9</ele>
        <time>2016-07-01T08:23:30Z</time>
      </trkpt>
      <trkpt lat="42.50806" lon="2.17696">
        <ele>1049.9</ele>
        <time>2016-07-01T08:23:31Z</time>
      </trkpt>
      <trkpt lat="42.50808" lon="2.17696">
        <ele>1049.9</ele>
        <time>2016-07-01T08:23:32Z</time>
      </trkpt>
      <trkpt lat="42.50811" lon="2.17703">
        <ele>1049.42</ele>
        <time>2016-07-01T08:23:36Z</time>
      </trkpt>
      <trkpt lat="42.50812" lon="2.17705">
        <ele>1048.45</ele>
        <time>2016-07-01T08:23:37Z</time>
      </trkpt>
      <trkpt lat="42.50818" lon="2.17712">
        <ele>1048.94</ele>
        <time>2016-07-01T08:23:43Z</time>
      </trkpt>
      <trkpt lat="42.50819" lon="2.17713">
        <ele>1048.94</ele>
        <time>2016-07-01T08:23:44Z</time>
      </trkpt>
      <trkpt lat="42.5082" lon="2.17714">
        <ele>1047.97</ele>
        <time>2016-07-01T08:23:45Z</time>
      </trkpt>
      <trkpt lat="42.50821" lon="2.17715">
        <ele>1047.97</ele>
        <time>2016-07-01T08:23:46Z</time>
      </trkpt>
      <trkpt lat="42.50822" lon="2.17716">
        <ele>1047.97</ele>
        <time>2016-07-01T08:23:47Z</time>
      </trkpt>
      <trkpt lat="42.50823" lon="2.17718">
        <ele>1047.97</ele>
        <time>2016-07-01T08:23:48Z</time>
      </trkpt>
      <trkpt lat="42.50824" lon="2.17719">
        <ele>1047.97</ele>
        <time>2016-07-01T08:23:49Z</time>
      </trkpt>
      <trkpt lat="42.50832" lon="2.17726">
        <ele>1047.49</ele>
        <time>2016-07-01T08:23:56Z</time>
      </trkpt>
      <trkpt lat="42.50833" lon="2.17727">
        <ele>1047.49</ele>
        <time>2016-07-01T08:23:57Z</time>
      </trkpt>
      <trkpt lat="42.50835" lon="2.17728">
        <ele>1047.01</ele>
        <time>2016-07-01T08:23:59Z</time>
      </trkpt>
      <trkpt lat="42.50836" lon="2.17729">
        <ele>1047.01</ele>
        <time>2016-07-01T08:24:00Z</time>
      </trkpt>
      <trkpt lat="42.50837" lon="2.1773">
        <ele>1047.01</ele>
        <time>2016-07-01T08:24:01Z</time>
      </trkpt>
      <trkpt lat="42.50838" lon="2.17731">
        <ele>1047.01</ele>
        <time>2016-07-01T08:24:02Z</time>
      </trkpt>
      <trkpt lat="42.50839" lon="2.17732">
        <ele>1047.01</ele>
        <time>2016-07-01T08:24:03Z</time>
      </trkpt>
      <trkpt lat="42.50841" lon="2.17733">
        <ele>1047.01</ele>
        <time>2016-07-01T08:24:04Z</time>
      </trkpt>
      <trkpt lat="42.50842" lon="2.17734">
        <ele>1047.01</ele>
        <time>2016-07-01T08:24:05Z</time>
      </trkpt>
      <trkpt lat="42.50844" lon="2.17734">
        <ele>1046.53</ele>
        <time>2016-07-01T08:24:06Z</time>
      </trkpt>
      <trkpt lat="42.50846" lon="2.17734">
        <ele>1046.53</ele>
        <time>2016-07-01T08:24:07Z</time>
      </trkpt>
      <trkpt lat="42.50847" lon="2.17734">
        <ele>1046.53</ele>
        <time>2016-07-01T08:24:08Z</time>
      </trkpt>
      <trkpt lat="42.50848" lon="2.17735">
        <ele>1046.53</ele>
        <time>2016-07-01T08:24:09Z</time>
      </trkpt>
      <trkpt lat="42.5085" lon="2.17735">
        <ele>1046.53</ele>
        <time>2016-07-01T08:24:10Z</time>
      </trkpt>
      <trkpt lat="42.50861" lon="2.17735">
        <ele>1046.05</ele>
        <time>2016-07-01T08:24:18Z</time>
      </trkpt>
      <trkpt lat="42.50862" lon="2.17735">
        <ele>1046.05</ele>
        <time>2016-07-01T08:24:19Z</time>
      </trkpt>
      <trkpt lat="42.50865" lon="2.17735">
        <ele>1046.05</ele>
        <time>2016-07-01T08:24:21Z</time>
      </trkpt>
      <trkpt lat="42.50866" lon="2.17736">
        <ele>1046.05</ele>
        <time>2016-07-01T08:24:22Z</time>
      </trkpt>
      <trkpt lat="42.50867" lon="2.17736">
        <ele>1046.05</ele>
        <time>2016-07-01T08:24:23Z</time>
      </trkpt>
      <trkpt lat="42.50868" lon="2.17736">
        <ele>1046.05</ele>
        <time>2016-07-01T08:24:24Z</time>
      </trkpt>
      <trkpt lat="42.5087" lon="2.17736">
        <ele>1045.09</ele>
        <time>2016-07-01T08:24:25Z</time>
      </trkpt>
      <trkpt lat="42.50871" lon="2.17736">
        <ele>1045.09</ele>
        <time>2016-07-01T08:24:26Z</time>
      </trkpt>
      <trkpt lat="42.50872" lon="2.17735">
        <ele>1045.09</ele>
        <time>2016-07-01T08:24:27Z</time>
      </trkpt>
      <trkpt lat="42.50873" lon="2.17735">
        <ele>1045.09</ele>
        <time>2016-07-01T08:24:28Z</time>
      </trkpt>
      <trkpt lat="42.50874" lon="2.17735">
        <ele>1045.09</ele>
        <time>2016-07-01T08:24:29Z</time>
      </trkpt>
      <trkpt lat="42.50876" lon="2.17734">
        <ele>1045.09</ele>
        <time>2016-07-01T08:24:30Z</time>
      </trkpt>
      <trkpt lat="42.50877" lon="2.17733">
        <ele>1044.61</ele>
        <time>2016-07-01T08:24:31Z</time>
      </trkpt>
      <trkpt lat="42.50878" lon="2.17732">
        <ele>1044.61</ele>
        <time>2016-07-01T08:24:32Z</time>
      </trkpt>
      <trkpt lat="42.5088" lon="2.17731">
        <ele>1044.61</ele>
        <time>2016-07-01T08:24:33Z</time>
      </trkpt>
      <trkpt lat="42.50881" lon="2.17731">
        <ele>1044.61</ele>
        <time>2016-07-01T08:24:34Z</time>
      </trkpt>
      <trkpt lat="42.50882" lon="2.17729">
        <ele>1044.61</ele>
        <time>2016-07-01T08:24:35Z</time>
      </trkpt>
      <trkpt lat="42.50883" lon="2.17728">
        <ele>1044.61</ele>
        <time>2016-07-01T08:24:36Z</time>
      </trkpt>
      <trkpt lat="42.50884" lon="2.17727">
        <ele>1044.61</ele>
        <time>2016-07-01T08:24:37Z</time>
      </trkpt>
      <trkpt lat="42.50884" lon="2.17726">
        <ele>1044.61</ele>
        <time>2016-07-01T08:24:38Z</time>
      </trkpt>
      <trkpt lat="42.50885" lon="2.17724">
        <ele>1044.61</ele>
        <time>2016-07-01T08:24:39Z</time>
      </trkpt>
      <trkpt lat="42.50886" lon="2.17722">
        <ele>1044.13</ele>
        <time>2016-07-01T08:24:41Z</time>
      </trkpt>
      <trkpt lat="42.50887" lon="2.1772">
        <ele>1044.13</ele>
        <time>2016-07-01T08:24:42Z</time>
      </trkpt>
      <trkpt lat="42.50886" lon="2.17718">
        <ele>1044.13</ele>
        <time>2016-07-01T08:24:43Z</time>
      </trkpt>
      <trkpt lat="42.50886" lon="2.17717">
        <ele>1044.13</ele>
        <time>2016-07-01T08:24:44Z</time>
      </trkpt>
      <trkpt lat="42.50887" lon="2.17714">
        <ele>1044.13</ele>
        <time>2016-07-01T08:24:45Z</time>
      </trkpt>
      <trkpt lat="42.50887" lon="2.17712">
        <ele>1044.13</ele>
        <time>2016-07-01T08:24:46Z</time>
      </trkpt>
      <trkpt lat="42.50887" lon="2.1771">
        <ele>1044.13</ele>
        <time>2016-07-01T08:24:47Z</time>
      </trkpt>
      <trkpt lat="42.50887" lon="2.17708">
        <ele>1043.65</ele>
        <time>2016-07-01T08:24:48Z</time>
      </trkpt>
      <trkpt lat="42.50886" lon="2.17707">
        <ele>1043.65</ele>
        <time>2016-07-01T08:24:49Z</time>
      </trkpt>
      <trkpt lat="42.50886" lon="2.17705">
        <ele>1043.65</ele>
        <time>2016-07-01T08:24:50Z</time>
      </trkpt>
      <trkpt lat="42.50886" lon="2.17703">
        <ele>1043.65</ele>
        <time>2016-07-01T08:24:51Z</time>
      </trkpt>
      <trkpt lat="42.50886" lon="2.17701">
        <ele>1043.65</ele>
        <time>2016-07-01T08:24:52Z</time>
      </trkpt>
      <trkpt lat="42.50886" lon="2.17699">
        <ele>1043.65</ele>
        <time>2016-07-01T08:24:53Z</time>
      </trkpt>
      <trkpt lat="42.50886" lon="2.17697">
        <ele>1043.65</ele>
        <time>2016-07-01T08:24:54Z</time>
      </trkpt>
      <trkpt lat="42.50886" lon="2.17695">
        <ele>1043.17</ele>
        <time>2016-07-01T08:24:55Z</time>
      </trkpt>
      <trkpt lat="42.50886" lon="2.17693">
        <ele>1043.17</ele>
        <time>2016-07-01T08:24:56Z</time>
      </trkpt>
      <trkpt lat="42.50884" lon="2.17687">
        <ele>1043.17</ele>
        <time>2016-07-01T08:24:59Z</time>
      </trkpt>
      <trkpt lat="42.50888" lon="2.17665">
        <ele>1042.69</ele>
        <time>2016-07-01T08:25:11Z</time>
      </trkpt>
      <trkpt lat="42.50893" lon="2.17664">
        <ele>1042.69</ele>
        <time>2016-07-01T08:25:14Z</time>
      </trkpt>
      <trkpt lat="42.50904" lon="2.17662">
        <ele>1042.69</ele>
        <time>2016-07-01T08:25:20Z</time>
      </trkpt>
      <trkpt lat="42.50905" lon="2.17662">
        <ele>1042.69</ele>
        <time>2016-07-01T08:25:21Z</time>
      </trkpt>
      <trkpt lat="42.5091" lon="2.17664">
        <ele>1042.69</ele>
        <time>2016-07-01T08:25:25Z</time>
      </trkpt>
      <trkpt lat="42.50914" lon="2.17668">
        <ele>1042.69</ele>
        <time>2016-07-01T08:25:29Z</time>
      </trkpt>
      <trkpt lat="42.50915" lon="2.17669">
        <ele>1042.69</ele>
        <time>2016-07-01T08:25:30Z</time>
      </trkpt>
      <trkpt lat="42.50917" lon="2.1767">
        <ele>1042.69</ele>
        <time>2016-07-01T08:25:31Z</time>
      </trkpt>
      <trkpt lat="42.50918" lon="2.1767">
        <ele>1042.69</ele>
        <time>2016-07-01T08:25:32Z</time>
      </trkpt>
      <trkpt lat="42.5092" lon="2.17671">
        <ele>1042.69</ele>
        <time>2016-07-01T08:25:33Z</time>
      </trkpt>
      <trkpt lat="42.50921" lon="2.17672">
        <ele>1042.69</ele>
        <time>2016-07-01T08:25:34Z</time>
      </trkpt>
      <trkpt lat="42.50923" lon="2.17673">
        <ele>1042.69</ele>
        <time>2016-07-01T08:25:35Z</time>
      </trkpt>
      <trkpt lat="42.50926" lon="2.17675">
        <ele>1042.69</ele>
        <time>2016-07-01T08:25:38Z</time>
      </trkpt>
      <trkpt lat="42.50927" lon="2.17676">
        <ele>1042.69</ele>
        <time>2016-07-01T08:25:39Z</time>
      </trkpt>
      <trkpt lat="42.50928" lon="2.17677">
        <ele>1042.69</ele>
        <time>2016-07-01T08:25:40Z</time>
      </trkpt>
      <trkpt lat="42.5093" lon="2.17678">
        <ele>1042.69</ele>
        <time>2016-07-01T08:25:41Z</time>
      </trkpt>
      <trkpt lat="42.50931" lon="2.17679">
        <ele>1042.69</ele>
        <time>2016-07-01T08:25:42Z</time>
      </trkpt>
      <trkpt lat="42.50933" lon="2.17679">
        <ele>1042.69</ele>
        <time>2016-07-01T08:25:43Z</time>
      </trkpt>
      <trkpt lat="42.50934" lon="2.1768">
        <ele>1042.69</ele>
        <time>2016-07-01T08:25:44Z</time>
      </trkpt>
      <trkpt lat="42.50935" lon="2.17681">
        <ele>1042.69</ele>
        <time>2016-07-01T08:25:45Z</time>
      </trkpt>
      <trkpt lat="42.50937" lon="2.17682">
        <ele>1042.69</ele>
        <time>2016-07-01T08:25:46Z</time>
      </trkpt>
      <trkpt lat="42.50938" lon="2.17683">
        <ele>1042.69</ele>
        <time>2016-07-01T08:25:47Z</time>
      </trkpt>
      <trkpt lat="42.5094" lon="2.17683">
        <ele>1042.69</ele>
        <time>2016-07-01T08:25:48Z</time>
      </trkpt>
      <trkpt lat="42.50941" lon="2.17684">
        <ele>1042.69</ele>
        <time>2016-07-01T08:25:49Z</time>
      </trkpt>
      <trkpt lat="42.50945" lon="2.17687">
        <ele>1042.21</ele>
        <time>2016-07-01T08:25:53Z</time>
      </trkpt>
      <trkpt lat="42.50947" lon="2.17689">
        <ele>1042.21</ele>
        <time>2016-07-01T08:25:55Z</time>
      </trkpt>
      <trkpt lat="42.50948" lon="2.1769">
        <ele>1042.21</ele>
        <time>2016-07-01T08:25:56Z</time>
      </trkpt>
      <trkpt lat="42.50949" lon="2.17691">
        <ele>1042.21</ele>
        <time>2016-07-01T08:25:57Z</time>
      </trkpt>
      <trkpt lat="42.50951" lon="2.17692">
        <ele>1042.21</ele>
        <time>2016-07-01T08:25:59Z</time>
      </trkpt>
      <trkpt lat="42.50953" lon="2.17692">
        <ele>1042.21</ele>
        <time>2016-07-01T08:26:00Z</time>
      </trkpt>
      <trkpt lat="42.50954" lon="2.17693">
        <ele>1042.21</ele>
        <time>2016-07-01T08:26:01Z</time>
      </trkpt>
      <trkpt lat="42.50955" lon="2.17693">
        <ele>1042.21</ele>
        <time>2016-07-01T08:26:02Z</time>
      </trkpt>
      <trkpt lat="42.50956" lon="2.17693">
        <ele>1042.21</ele>
        <time>2016-07-01T08:26:03Z</time>
      </trkpt>
      <trkpt lat="42.50958" lon="2.17694">
        <ele>1042.21</ele>
        <time>2016-07-01T08:26:04Z</time>
      </trkpt>
      <trkpt lat="42.50965" lon="2.17695">
        <ele>1042.21</ele>
        <time>2016-07-01T08:26:09Z</time>
      </trkpt>
      <trkpt lat="42.50966" lon="2.17697">
        <ele>1042.21</ele>
        <time>2016-07-01T08:26:10Z</time>
      </trkpt>
      <trkpt lat="42.50968" lon="2.17698">
        <ele>1042.21</ele>
        <time>2016-07-01T08:26:11Z</time>
      </trkpt>
      <trkpt lat="42.5097" lon="2.17699">
        <ele>1042.21</ele>
        <time>2016-07-01T08:26:13Z</time>
      </trkpt>
      <trkpt lat="42.50971" lon="2.177">
        <ele>1042.21</ele>
        <time>2016-07-01T08:26:14Z</time>
      </trkpt>
      <trkpt lat="42.50972" lon="2.17701">
        <ele>1042.21</ele>
        <time>2016-07-01T08:26:15Z</time>
      </trkpt>
      <trkpt lat="42.50978" lon="2.17705">
        <ele>1042.21</ele>
        <time>2016-07-01T08:26:19Z</time>
      </trkpt>
      <trkpt lat="42.50989" lon="2.17715">
        <ele>1041.73</ele>
        <time>2016-07-01T08:26:29Z</time>
      </trkpt>
      <trkpt lat="42.50999" lon="2.17726">
        <ele>1041.25</ele>
        <time>2016-07-01T08:26:39Z</time>
      </trkpt>
      <trkpt lat="42.51002" lon="2.17731">
        <ele>1041.25</ele>
        <time>2016-07-01T08:26:42Z</time>
      </trkpt>
      <trkpt lat="42.51003" lon="2.17733">
        <ele>1041.25</ele>
        <time>2016-07-01T08:26:43Z</time>
      </trkpt>
      <trkpt lat="42.51003" lon="2.17735">
        <ele>1041.25</ele>
        <time>2016-07-01T08:26:44Z</time>
      </trkpt>
      <trkpt lat="42.51005" lon="2.17736">
        <ele>1041.25</ele>
        <time>2016-07-01T08:26:45Z</time>
      </trkpt>
      <trkpt lat="42.51006" lon="2.17738">
        <ele>1040.28</ele>
        <time>2016-07-01T08:26:46Z</time>
      </trkpt>
      <trkpt lat="42.51007" lon="2.17739">
        <ele>1040.76</ele>
        <time>2016-07-01T08:26:47Z</time>
      </trkpt>
      <trkpt lat="42.51008" lon="2.17741">
        <ele>1040.76</ele>
        <time>2016-07-01T08:26:48Z</time>
      </trkpt>
      <trkpt lat="42.51008" lon="2.17742">
        <ele>1040.76</ele>
        <time>2016-07-01T08:26:49Z</time>
      </trkpt>
      <trkpt lat="42.51009" lon="2.17744">
        <ele>1039.8</ele>
        <time>2016-07-01T08:26:50Z</time>
      </trkpt>
      <trkpt lat="42.5101" lon="2.17745">
        <ele>1039.8</ele>
        <time>2016-07-01T08:26:51Z</time>
      </trkpt>
      <trkpt lat="42.51011" lon="2.17747">
        <ele>1039.8</ele>
        <time>2016-07-01T08:26:52Z</time>
      </trkpt>
      <trkpt lat="42.51012" lon="2.17748">
        <ele>1039.8</ele>
        <time>2016-07-01T08:26:53Z</time>
      </trkpt>
      <trkpt lat="42.51013" lon="2.17749">
        <ele>1039.8</ele>
        <time>2016-07-01T08:26:54Z</time>
      </trkpt>
      <trkpt lat="42.51014" lon="2.1775">
        <ele>1039.8</ele>
        <time>2016-07-01T08:26:55Z</time>
      </trkpt>
      <trkpt lat="42.51015" lon="2.17752">
        <ele>1039.32</ele>
        <time>2016-07-01T08:26:56Z</time>
      </trkpt>
      <trkpt lat="42.51016" lon="2.17753">
        <ele>1039.32</ele>
        <time>2016-07-01T08:26:57Z</time>
      </trkpt>
      <trkpt lat="42.51017" lon="2.17754">
        <ele>1039.32</ele>
        <time>2016-07-01T08:26:58Z</time>
      </trkpt>
      <trkpt lat="42.51017" lon="2.17755">
        <ele>1039.32</ele>
        <time>2016-07-01T08:26:59Z</time>
      </trkpt>
      <trkpt lat="42.51018" lon="2.17757">
        <ele>1039.32</ele>
        <time>2016-07-01T08:27:00Z</time>
      </trkpt>
      <trkpt lat="42.51019" lon="2.17758">
        <ele>1038.84</ele>
        <time>2016-07-01T08:27:01Z</time>
      </trkpt>
      <trkpt lat="42.5102" lon="2.1776">
        <ele>1038.84</ele>
        <time>2016-07-01T08:27:02Z</time>
      </trkpt>
      <trkpt lat="42.51021" lon="2.17761">
        <ele>1038.84</ele>
        <time>2016-07-01T08:27:03Z</time>
      </trkpt>
      <trkpt lat="42.51022" lon="2.17763">
        <ele>1038.84</ele>
        <time>2016-07-01T08:27:04Z</time>
      </trkpt>
      <trkpt lat="42.51023" lon="2.17765">
        <ele>1038.84</ele>
        <time>2016-07-01T08:27:05Z</time>
      </trkpt>
      <trkpt lat="42.51024" lon="2.17766">
        <ele>1038.84</ele>
        <time>2016-07-01T08:27:06Z</time>
      </trkpt>
      <trkpt lat="42.51026" lon="2.17768">
        <ele>1037.88</ele>
        <time>2016-07-01T08:27:07Z</time>
      </trkpt>
      <trkpt lat="42.51026" lon="2.1777">
        <ele>1038.36</ele>
        <time>2016-07-01T08:27:08Z</time>
      </trkpt>
      <trkpt lat="42.51027" lon="2.17771">
        <ele>1038.36</ele>
        <time>2016-07-01T08:27:09Z</time>
      </trkpt>
      <trkpt lat="42.51028" lon="2.17772">
        <ele>1038.36</ele>
        <time>2016-07-01T08:27:10Z</time>
      </trkpt>
      <trkpt lat="42.51028" lon="2.17773">
        <ele>1038.36</ele>
        <time>2016-07-01T08:27:11Z</time>
      </trkpt>
      <trkpt lat="42.5103" lon="2.17774">
        <ele>1038.36</ele>
        <time>2016-07-01T08:27:12Z</time>
      </trkpt>
      <trkpt lat="42.5103" lon="2.17776">
        <ele>1038.36</ele>
        <time>2016-07-01T08:27:13Z</time>
      </trkpt>
      <trkpt lat="42.51031" lon="2.17777">
        <ele>1037.4</ele>
        <time>2016-07-01T08:27:14Z</time>
      </trkpt>
      <trkpt lat="42.51033" lon="2.17778">
        <ele>1037.88</ele>
        <time>2016-07-01T08:27:15Z</time>
      </trkpt>
      <trkpt lat="42.51034" lon="2.1778">
        <ele>1037.4</ele>
        <time>2016-07-01T08:27:16Z</time>
      </trkpt>
      <trkpt lat="42.51034" lon="2.17781">
        <ele>1037.4</ele>
        <time>2016-07-01T08:27:17Z</time>
      </trkpt>
      <trkpt lat="42.51035" lon="2.17783">
        <ele>1037.4</ele>
        <time>2016-07-01T08:27:18Z</time>
      </trkpt>
      <trkpt lat="42.51037" lon="2.17784">
        <ele>1036.92</ele>
        <time>2016-07-01T08:27:19Z</time>
      </trkpt>
      <trkpt lat="42.51038" lon="2.17784">
        <ele>1036.92</ele>
        <time>2016-07-01T08:27:20Z</time>
      </trkpt>
      <trkpt lat="42.5104" lon="2.17785">
        <ele>1036.92</ele>
        <time>2016-07-01T08:27:21Z</time>
      </trkpt>
      <trkpt lat="42.51041" lon="2.17786">
        <ele>1036.92</ele>
        <time>2016-07-01T08:27:22Z</time>
      </trkpt>
      <trkpt lat="42.51042" lon="2.17787">
        <ele>1036.92</ele>
        <time>2016-07-01T08:27:23Z</time>
      </trkpt>
      <trkpt lat="42.51042" lon="2.17788">
        <ele>1036.92</ele>
        <time>2016-07-01T08:27:24Z</time>
      </trkpt>
      <trkpt lat="42.51043" lon="2.17789">
        <ele>1036.92</ele>
        <time>2016-07-01T08:27:25Z</time>
      </trkpt>
      <trkpt lat="42.51044" lon="2.17791">
        <ele>1036.92</ele>
        <time>2016-07-01T08:27:26Z</time>
      </trkpt>
      <trkpt lat="42.51045" lon="2.17793">
        <ele>1036.92</ele>
        <time>2016-07-01T08:27:27Z</time>
      </trkpt>
      <trkpt lat="42.51046" lon="2.17794">
        <ele>1036.44</ele>
        <time>2016-07-01T08:27:28Z</time>
      </trkpt>
      <trkpt lat="42.51046" lon="2.17797">
        <ele>1036.44</ele>
        <time>2016-07-01T08:27:29Z</time>
      </trkpt>
      <trkpt lat="42.51047" lon="2.17799">
        <ele>1036.44</ele>
        <time>2016-07-01T08:27:31Z</time>
      </trkpt>
      <trkpt lat="42.51048" lon="2.17801">
        <ele>1036.44</ele>
        <time>2016-07-01T08:27:32Z</time>
      </trkpt>
      <trkpt lat="42.51049" lon="2.17802">
        <ele>1036.44</ele>
        <time>2016-07-01T08:27:33Z</time>
      </trkpt>
      <trkpt lat="42.51049" lon="2.17803">
        <ele>1036.44</ele>
        <time>2016-07-01T08:27:34Z</time>
      </trkpt>
      <trkpt lat="42.51051" lon="2.17804">
        <ele>1036.44</ele>
        <time>2016-07-01T08:27:35Z</time>
      </trkpt>
      <trkpt lat="42.51052" lon="2.17805">
        <ele>1036.44</ele>
        <time>2016-07-01T08:27:36Z</time>
      </trkpt>
      <trkpt lat="42.51052" lon="2.17807">
        <ele>1036.44</ele>
        <time>2016-07-01T08:27:37Z</time>
      </trkpt>
      <trkpt lat="42.51054" lon="2.17808">
        <ele>1036.44</ele>
        <time>2016-07-01T08:27:38Z</time>
      </trkpt>
      <trkpt lat="42.51055" lon="2.17809">
        <ele>1036.44</ele>
        <time>2016-07-01T08:27:39Z</time>
      </trkpt>
      <trkpt lat="42.51056" lon="2.1781">
        <ele>1036.44</ele>
        <time>2016-07-01T08:27:40Z</time>
      </trkpt>
      <trkpt lat="42.51057" lon="2.17811">
        <ele>1036.44</ele>
        <time>2016-07-01T08:27:41Z</time>
      </trkpt>
      <trkpt lat="42.51057" lon="2.17813">
        <ele>1036.44</ele>
        <time>2016-07-01T08:27:42Z</time>
      </trkpt>
      <trkpt lat="42.51059" lon="2.17814">
        <ele>1036.44</ele>
        <time>2016-07-01T08:27:43Z</time>
      </trkpt>
      <trkpt lat="42.5106" lon="2.17815">
        <ele>1036.44</ele>
        <time>2016-07-01T08:27:44Z</time>
      </trkpt>
      <trkpt lat="42.5106" lon="2.17816">
        <ele>1036.44</ele>
        <time>2016-07-01T08:27:45Z</time>
      </trkpt>
      <trkpt lat="42.51061" lon="2.17818">
        <ele>1036.44</ele>
        <time>2016-07-01T08:27:46Z</time>
      </trkpt>
      <trkpt lat="42.51063" lon="2.17827">
        <ele>1036.44</ele>
        <time>2016-07-01T08:27:56Z</time>
      </trkpt>
      <trkpt lat="42.5107" lon="2.17824">
        <ele>1036.44</ele>
        <time>2016-07-01T08:28:07Z</time>
      </trkpt>
      <trkpt lat="42.51074" lon="2.17823">
        <ele>1036.44</ele>
        <time>2016-07-01T08:28:19Z</time>
      </trkpt>
      <trkpt lat="42.5108" lon="2.17824">
        <ele>1036.44</ele>
        <time>2016-07-01T08:28:25Z</time>
      </trkpt>
      <trkpt lat="42.5108" lon="2.17826">
        <ele>1036.44</ele>
        <time>2016-07-01T08:28:26Z</time>
      </trkpt>
      <trkpt lat="42.51081" lon="2.17827">
        <ele>1036.44</ele>
        <time>2016-07-01T08:28:27Z</time>
      </trkpt>
      <trkpt lat="42.51082" lon="2.17828">
        <ele>1036.44</ele>
        <time>2016-07-01T08:28:28Z</time>
      </trkpt>
      <trkpt lat="42.51083" lon="2.17829">
        <ele>1036.44</ele>
        <time>2016-07-01T08:28:29Z</time>
      </trkpt>
      <trkpt lat="42.51084" lon="2.1783">
        <ele>1036.44</ele>
        <time>2016-07-01T08:28:30Z</time>
      </trkpt>
      <trkpt lat="42.51085" lon="2.1783">
        <ele>1036.44</ele>
        <time>2016-07-01T08:28:31Z</time>
      </trkpt>
      <trkpt lat="42.51086" lon="2.17831">
        <ele>1036.44</ele>
        <time>2016-07-01T08:28:32Z</time>
      </trkpt>
      <trkpt lat="42.51087" lon="2.17831">
        <ele>1036.44</ele>
        <time>2016-07-01T08:28:33Z</time>
      </trkpt>
      <trkpt lat="42.51088" lon="2.17832">
        <ele>1036.44</ele>
        <time>2016-07-01T08:28:34Z</time>
      </trkpt>
      <trkpt lat="42.51089" lon="2.17834">
        <ele>1036.44</ele>
        <time>2016-07-01T08:28:36Z</time>
      </trkpt>
      <trkpt lat="42.51089" lon="2.17837">
        <ele>1036.44</ele>
        <time>2016-07-01T08:28:38Z</time>
      </trkpt>
      <trkpt lat="42.51092" lon="2.17841">
        <ele>1037.4</ele>
        <time>2016-07-01T08:28:41Z</time>
      </trkpt>
      <trkpt lat="42.51094" lon="2.17844">
        <ele>1037.4</ele>
        <time>2016-07-01T08:28:44Z</time>
      </trkpt>
      <trkpt lat="42.51095" lon="2.17845">
        <ele>1037.4</ele>
        <time>2016-07-01T08:28:45Z</time>
      </trkpt>
      <trkpt lat="42.51095" lon="2.17847">
        <ele>1037.4</ele>
        <time>2016-07-01T08:28:46Z</time>
      </trkpt>
      <trkpt lat="42.51095" lon="2.17849">
        <ele>1037.4</ele>
        <time>2016-07-01T08:28:47Z</time>
      </trkpt>
      <trkpt lat="42.51095" lon="2.17851">
        <ele>1037.4</ele>
        <time>2016-07-01T08:28:48Z</time>
      </trkpt>
      <trkpt lat="42.51095" lon="2.17852">
        <ele>1037.88</ele>
        <time>2016-07-01T08:28:49Z</time>
      </trkpt>
      <trkpt lat="42.51096" lon="2.17854">
        <ele>1038.36</ele>
        <time>2016-07-01T08:28:50Z</time>
      </trkpt>
      <trkpt lat="42.51097" lon="2.17855">
        <ele>1038.36</ele>
        <time>2016-07-01T08:28:51Z</time>
      </trkpt>
      <trkpt lat="42.51099" lon="2.17856">
        <ele>1038.36</ele>
        <time>2016-07-01T08:28:52Z</time>
      </trkpt>
      <trkpt lat="42.51099" lon="2.17859">
        <ele>1038.84</ele>
        <time>2016-07-01T08:28:54Z</time>
      </trkpt>
      <trkpt lat="42.51099" lon="2.1786">
        <ele>1038.84</ele>
        <time>2016-07-01T08:28:55Z</time>
      </trkpt>
      <trkpt lat="42.51101" lon="2.17861">
        <ele>1038.84</ele>
        <time>2016-07-01T08:28:56Z</time>
      </trkpt>
      <trkpt lat="42.51102" lon="2.17864">
        <ele>1038.84</ele>
        <time>2016-07-01T08:28:58Z</time>
      </trkpt>
      <trkpt lat="42.51103" lon="2.17865">
        <ele>1039.32</ele>
        <time>2016-07-01T08:28:59Z</time>
      </trkpt>
      <trkpt lat="42.51104" lon="2.17866">
        <ele>1039.32</ele>
        <time>2016-07-01T08:29:00Z</time>
      </trkpt>
      <trkpt lat="42.51104" lon="2.17868">
        <ele>1039.32</ele>
        <time>2016-07-01T08:29:01Z</time>
      </trkpt>
      <trkpt lat="42.51105" lon="2.1787">
        <ele>1039.8</ele>
        <time>2016-07-01T08:29:03Z</time>
      </trkpt>
      <trkpt lat="42.51105" lon="2.17872">
        <ele>1039.8</ele>
        <time>2016-07-01T08:29:04Z</time>
      </trkpt>
      <trkpt lat="42.51105" lon="2.17874">
        <ele>1039.8</ele>
        <time>2016-07-01T08:29:05Z</time>
      </trkpt>
      <trkpt lat="42.51105" lon="2.17877">
        <ele>1039.8</ele>
        <time>2016-07-01T08:29:07Z</time>
      </trkpt>
      <trkpt lat="42.51105" lon="2.17879">
        <ele>1040.28</ele>
        <time>2016-07-01T08:29:08Z</time>
      </trkpt>
      <trkpt lat="42.51106" lon="2.17881">
        <ele>1040.28</ele>
        <time>2016-07-01T08:29:09Z</time>
      </trkpt>
      <trkpt lat="42.51107" lon="2.17882">
        <ele>1040.28</ele>
        <time>2016-07-01T08:29:10Z</time>
      </trkpt>
      <trkpt lat="42.51107" lon="2.17883">
        <ele>1040.28</ele>
        <time>2016-07-01T08:29:11Z</time>
      </trkpt>
      <trkpt lat="42.51108" lon="2.17885">
        <ele>1040.28</ele>
        <time>2016-07-01T08:29:12Z</time>
      </trkpt>
      <trkpt lat="42.51108" lon="2.17887">
        <ele>1041.25</ele>
        <time>2016-07-01T08:29:13Z</time>
      </trkpt>
      <trkpt lat="42.51109" lon="2.17889">
        <ele>1041.25</ele>
        <time>2016-07-01T08:29:14Z</time>
      </trkpt>
      <trkpt lat="42.51109" lon="2.17891">
        <ele>1041.25</ele>
        <time>2016-07-01T08:29:15Z</time>
      </trkpt>
      <trkpt lat="42.51109" lon="2.17893">
        <ele>1041.25</ele>
        <time>2016-07-01T08:29:16Z</time>
      </trkpt>
      <trkpt lat="42.5111" lon="2.17894">
        <ele>1041.73</ele>
        <time>2016-07-01T08:29:17Z</time>
      </trkpt>
      <trkpt lat="42.5111" lon="2.17896">
        <ele>1041.73</ele>
        <time>2016-07-01T08:29:18Z</time>
      </trkpt>
      <trkpt lat="42.51111" lon="2.17897">
        <ele>1041.25</ele>
        <time>2016-07-01T08:29:19Z</time>
      </trkpt>
      <trkpt lat="42.51113" lon="2.17898">
        <ele>1041.25</ele>
        <time>2016-07-01T08:29:20Z</time>
      </trkpt>
      <trkpt lat="42.51114" lon="2.17901">
        <ele>1042.21</ele>
        <time>2016-07-01T08:29:22Z</time>
      </trkpt>
      <trkpt lat="42.51115" lon="2.17902">
        <ele>1042.21</ele>
        <time>2016-07-01T08:29:23Z</time>
      </trkpt>
      <trkpt lat="42.51116" lon="2.17904">
        <ele>1042.21</ele>
        <time>2016-07-01T08:29:24Z</time>
      </trkpt>
      <trkpt lat="42.51117" lon="2.17905">
        <ele>1042.69</ele>
        <time>2016-07-01T08:29:25Z</time>
      </trkpt>
      <trkpt lat="42.51118" lon="2.17906">
        <ele>1042.69</ele>
        <time>2016-07-01T08:29:26Z</time>
      </trkpt>
      <trkpt lat="42.51119" lon="2.17907">
        <ele>1042.69</ele>
        <time>2016-07-01T08:29:27Z</time>
      </trkpt>
      <trkpt lat="42.5112" lon="2.17909">
        <ele>1042.69</ele>
        <time>2016-07-01T08:29:28Z</time>
      </trkpt>
      <trkpt lat="42.5112" lon="2.1791">
        <ele>1043.17</ele>
        <time>2016-07-01T08:29:29Z</time>
      </trkpt>
      <trkpt lat="42.51122" lon="2.17911">
        <ele>1043.17</ele>
        <time>2016-07-01T08:29:30Z</time>
      </trkpt>
      <trkpt lat="42.51124" lon="2.17912">
        <ele>1043.17</ele>
        <time>2016-07-01T08:29:31Z</time>
      </trkpt>
      <trkpt lat="42.51125" lon="2.17913">
        <ele>1043.17</ele>
        <time>2016-07-01T08:29:32Z</time>
      </trkpt>
      <trkpt lat="42.51126" lon="2.17916">
        <ele>1043.17</ele>
        <time>2016-07-01T08:29:34Z</time>
      </trkpt>
      <trkpt lat="42.51127" lon="2.17917">
        <ele>1043.17</ele>
        <time>2016-07-01T08:29:35Z</time>
      </trkpt>
      <trkpt lat="42.51129" lon="2.17919">
        <ele>1043.65</ele>
        <time>2016-07-01T08:29:36Z</time>
      </trkpt>
      <trkpt lat="42.5113" lon="2.1792">
        <ele>1043.65</ele>
        <time>2016-07-01T08:29:37Z</time>
      </trkpt>
      <trkpt lat="42.51133" lon="2.17922">
        <ele>1043.65</ele>
        <time>2016-07-01T08:29:40Z</time>
      </trkpt>
      <trkpt lat="42.51135" lon="2.17928">
        <ele>1043.65</ele>
        <time>2016-07-01T08:29:44Z</time>
      </trkpt>
      <trkpt lat="42.51136" lon="2.17931">
        <ele>1044.13</ele>
        <time>2016-07-01T08:29:46Z</time>
      </trkpt>
      <trkpt lat="42.51138" lon="2.17932">
        <ele>1044.13</ele>
        <time>2016-07-01T08:29:47Z</time>
      </trkpt>
      <trkpt lat="42.5114" lon="2.17933">
        <ele>1044.13</ele>
        <time>2016-07-01T08:29:48Z</time>
      </trkpt>
      <trkpt lat="42.51142" lon="2.17933">
        <ele>1044.13</ele>
        <time>2016-07-01T08:29:49Z</time>
      </trkpt>
      <trkpt lat="42.51144" lon="2.17933">
        <ele>1044.13</ele>
        <time>2016-07-01T08:29:50Z</time>
      </trkpt>
      <trkpt lat="42.51145" lon="2.17933">
        <ele>1044.13</ele>
        <time>2016-07-01T08:29:51Z</time>
      </trkpt>
      <trkpt lat="42.51147" lon="2.17935">
        <ele>1044.13</ele>
        <time>2016-07-01T08:29:53Z</time>
      </trkpt>
      <trkpt lat="42.51148" lon="2.17936">
        <ele>1044.13</ele>
        <time>2016-07-01T08:29:54Z</time>
      </trkpt>
      <trkpt lat="42.51149" lon="2.17937">
        <ele>1044.13</ele>
        <time>2016-07-01T08:29:55Z</time>
      </trkpt>
      <trkpt lat="42.51149" lon="2.17939">
        <ele>1044.61</ele>
        <time>2016-07-01T08:29:56Z</time>
      </trkpt>
      <trkpt lat="42.5115" lon="2.1794">
        <ele>1044.61</ele>
        <time>2016-07-01T08:29:57Z</time>
      </trkpt>
      <trkpt lat="42.5115" lon="2.17942">
        <ele>1044.61</ele>
        <time>2016-07-01T08:29:58Z</time>
      </trkpt>
      <trkpt lat="42.51152" lon="2.17943">
        <ele>1044.61</ele>
        <time>2016-07-01T08:29:59Z</time>
      </trkpt>
      <trkpt lat="42.51152" lon="2.17945">
        <ele>1044.61</ele>
        <time>2016-07-01T08:30:00Z</time>
      </trkpt>
      <trkpt lat="42.51153" lon="2.17946">
        <ele>1044.61</ele>
        <time>2016-07-01T08:30:01Z</time>
      </trkpt>
      <trkpt lat="42.51155" lon="2.17947">
        <ele>1044.61</ele>
        <time>2016-07-01T08:30:02Z</time>
      </trkpt>
      <trkpt lat="42.51155" lon="2.17949">
        <ele>1044.61</ele>
        <time>2016-07-01T08:30:03Z</time>
      </trkpt>
      <trkpt lat="42.51155" lon="2.17951">
        <ele>1044.61</ele>
        <time>2016-07-01T08:30:04Z</time>
      </trkpt>
      <trkpt lat="42.51156" lon="2.17952">
        <ele>1044.61</ele>
        <time>2016-07-01T08:30:05Z</time>
      </trkpt>
      <trkpt lat="42.51157" lon="2.17954">
        <ele>1044.61</ele>
        <time>2016-07-01T08:30:06Z</time>
      </trkpt>
      <trkpt lat="42.51158" lon="2.17955">
        <ele>1044.61</ele>
        <time>2016-07-01T08:30:07Z</time>
      </trkpt>
      <trkpt lat="42.51158" lon="2.17956">
        <ele>1044.61</ele>
        <time>2016-07-01T08:30:08Z</time>
      </trkpt>
      <trkpt lat="42.51159" lon="2.17958">
        <ele>1044.61</ele>
        <time>2016-07-01T08:30:09Z</time>
      </trkpt>
      <trkpt lat="42.51159" lon="2.1796">
        <ele>1044.61</ele>
        <time>2016-07-01T08:30:10Z</time>
      </trkpt>
      <trkpt lat="42.5116" lon="2.17962">
        <ele>1044.13</ele>
        <time>2016-07-01T08:30:11Z</time>
      </trkpt>
      <trkpt lat="42.51161" lon="2.17963">
        <ele>1044.13</ele>
        <time>2016-07-01T08:30:12Z</time>
      </trkpt>
      <trkpt lat="42.51162" lon="2.17965">
        <ele>1044.13</ele>
        <time>2016-07-01T08:30:13Z</time>
      </trkpt>
      <trkpt lat="42.51162" lon="2.17967">
        <ele>1044.13</ele>
        <time>2016-07-01T08:30:14Z</time>
      </trkpt>
      <trkpt lat="42.51162" lon="2.17968">
        <ele>1045.09</ele>
        <time>2016-07-01T08:30:15Z</time>
      </trkpt>
      <trkpt lat="42.51163" lon="2.1797">
        <ele>1044.61</ele>
        <time>2016-07-01T08:30:16Z</time>
      </trkpt>
      <trkpt lat="42.51163" lon="2.17972">
        <ele>1044.61</ele>
        <time>2016-07-01T08:30:17Z</time>
      </trkpt>
      <trkpt lat="42.51164" lon="2.17975">
        <ele>1044.61</ele>
        <time>2016-07-01T08:30:19Z</time>
      </trkpt>
      <trkpt lat="42.51165" lon="2.17976">
        <ele>1044.61</ele>
        <time>2016-07-01T08:30:20Z</time>
      </trkpt>
      <trkpt lat="42.51165" lon="2.17979">
        <ele>1044.61</ele>
        <time>2016-07-01T08:30:21Z</time>
      </trkpt>
      <trkpt lat="42.51165" lon="2.17981">
        <ele>1045.57</ele>
        <time>2016-07-01T08:30:22Z</time>
      </trkpt>
      <trkpt lat="42.51165" lon="2.17983">
        <ele>1045.57</ele>
        <time>2016-07-01T08:30:23Z</time>
      </trkpt>
      <trkpt lat="42.51165" lon="2.17985">
        <ele>1045.09</ele>
        <time>2016-07-01T08:30:24Z</time>
      </trkpt>
      <trkpt lat="42.51167" lon="2.17985">
        <ele>1045.09</ele>
        <time>2016-07-01T08:30:25Z</time>
      </trkpt>
      <trkpt lat="42.51168" lon="2.17987">
        <ele>1045.09</ele>
        <time>2016-07-01T08:30:26Z</time>
      </trkpt>
      <trkpt lat="42.51169" lon="2.17988">
        <ele>1045.09</ele>
        <time>2016-07-01T08:30:27Z</time>
      </trkpt>
      <trkpt lat="42.5117" lon="2.1799">
        <ele>1046.05</ele>
        <time>2016-07-01T08:30:28Z</time>
      </trkpt>
      <trkpt lat="42.5117" lon="2.17991">
        <ele>1045.57</ele>
        <time>2016-07-01T08:30:29Z</time>
      </trkpt>
      <trkpt lat="42.51171" lon="2.17993">
        <ele>1045.57</ele>
        <time>2016-07-01T08:30:30Z</time>
      </trkpt>
      <trkpt lat="42.51172" lon="2.17994">
        <ele>1045.57</ele>
        <time>2016-07-01T08:30:31Z</time>
      </trkpt>
      <trkpt lat="42.51172" lon="2.17996">
        <ele>1045.57</ele>
        <time>2016-07-01T08:30:32Z</time>
      </trkpt>
      <trkpt lat="42.51172" lon="2.17998">
        <ele>1046.05</ele>
        <time>2016-07-01T08:30:33Z</time>
      </trkpt>
      <trkpt lat="42.51173" lon="2.18">
        <ele>1046.53</ele>
        <time>2016-07-01T08:30:34Z</time>
      </trkpt>
      <trkpt lat="42.51173" lon="2.18002">
        <ele>1046.53</ele>
        <time>2016-07-01T08:30:35Z</time>
      </trkpt>
      <trkpt lat="42.51174" lon="2.18003">
        <ele>1046.53</ele>
        <time>2016-07-01T08:30:36Z</time>
      </trkpt>
      <trkpt lat="42.51174" lon="2.18005">
        <ele>1046.53</ele>
        <time>2016-07-01T08:30:37Z</time>
      </trkpt>
      <trkpt lat="42.51174" lon="2.18007">
        <ele>1046.53</ele>
        <time>2016-07-01T08:30:38Z</time>
      </trkpt>
      <trkpt lat="42.51173" lon="2.18009">
        <ele>1047.01</ele>
        <time>2016-07-01T08:30:39Z</time>
      </trkpt>
      <trkpt lat="42.51173" lon="2.18011">
        <ele>1047.01</ele>
        <time>2016-07-01T08:30:40Z</time>
      </trkpt>
      <trkpt lat="42.51174" lon="2.18011">
        <ele>1047.01</ele>
        <time>2016-07-01T08:30:41Z</time>
      </trkpt>
      <trkpt lat="42.51174" lon="2.18014">
        <ele>1047.01</ele>
        <time>2016-07-01T08:30:42Z</time>
      </trkpt>
      <trkpt lat="42.51172" lon="2.18031">
        <ele>1047.97</ele>
        <time>2016-07-01T08:30:52Z</time>
      </trkpt>
      <trkpt lat="42.51171" lon="2.18033">
        <ele>1047.97</ele>
        <time>2016-07-01T08:30:53Z</time>
      </trkpt>
      <trkpt lat="42.5117" lon="2.18036">
        <ele>1047.97</ele>
        <time>2016-07-01T08:30:54Z</time>
      </trkpt>
      <trkpt lat="42.51162" lon="2.18053">
        <ele>1047.97</ele>
        <time>2016-07-01T08:31:03Z</time>
      </trkpt>
      <trkpt lat="42.51162" lon="2.18066">
        <ele>1047.97</ele>
        <time>2016-07-01T08:31:10Z</time>
      </trkpt>
      <trkpt lat="42.51157" lon="2.1808">
        <ele>1047.49</ele>
        <time>2016-07-01T08:31:18Z</time>
      </trkpt>
      <trkpt lat="42.51164" lon="2.18083">
        <ele>1047.49</ele>
        <time>2016-07-01T08:31:32Z</time>
      </trkpt>
      <trkpt lat="42.51164" lon="2.18085">
        <ele>1047.49</ele>
        <time>2016-07-01T08:31:41Z</time>
      </trkpt>
      <trkpt lat="42.51163" lon="2.18088">
        <ele>1047.49</ele>
        <time>2016-07-01T08:31:42Z</time>
      </trkpt>
      <trkpt lat="42.51162" lon="2.18089">
        <ele>1047.49</ele>
        <time>2016-07-01T08:31:43Z</time>
      </trkpt>
      <trkpt lat="42.51163" lon="2.1809">
        <ele>1047.49</ele>
        <time>2016-07-01T08:31:44Z</time>
      </trkpt>
      <trkpt lat="42.51162" lon="2.18092">
        <ele>1047.49</ele>
        <time>2016-07-01T08:31:45Z</time>
      </trkpt>
      <trkpt lat="42.51169" lon="2.18097">
        <ele>1047.49</ele>
        <time>2016-07-01T08:31:50Z</time>
      </trkpt>
      <trkpt lat="42.5117" lon="2.18099">
        <ele>1047.49</ele>
        <time>2016-07-01T08:31:51Z</time>
      </trkpt>
      <trkpt lat="42.5117" lon="2.1811">
        <ele>1046.53</ele>
        <time>2016-07-01T08:31:57Z</time>
      </trkpt>
      <trkpt lat="42.5117" lon="2.18112">
        <ele>1046.53</ele>
        <time>2016-07-01T08:31:58Z</time>
      </trkpt>
      <trkpt lat="42.51169" lon="2.18113">
        <ele>1046.53</ele>
        <time>2016-07-01T08:31:59Z</time>
      </trkpt>
      <trkpt lat="42.51169" lon="2.18115">
        <ele>1046.05</ele>
        <time>2016-07-01T08:32:00Z</time>
      </trkpt>
      <trkpt lat="42.51169" lon="2.18117">
        <ele>1046.05</ele>
        <time>2016-07-01T08:32:01Z</time>
      </trkpt>
      <trkpt lat="42.51165" lon="2.18133">
        <ele>1046.05</ele>
        <time>2016-07-01T08:32:10Z</time>
      </trkpt>
      <trkpt lat="42.51166" lon="2.18135">
        <ele>1046.05</ele>
        <time>2016-07-01T08:32:11Z</time>
      </trkpt>
      <trkpt lat="42.51164" lon="2.18141">
        <ele>1045.57</ele>
        <time>2016-07-01T08:32:14Z</time>
      </trkpt>
      <trkpt lat="42.51165" lon="2.18142">
        <ele>1045.57</ele>
        <time>2016-07-01T08:32:15Z</time>
      </trkpt>
      <trkpt lat="42.51166" lon="2.18143">
        <ele>1045.57</ele>
        <time>2016-07-01T08:32:16Z</time>
      </trkpt>
      <trkpt lat="42.51167" lon="2.18146">
        <ele>1045.57</ele>
        <time>2016-07-01T08:32:18Z</time>
      </trkpt>
      <trkpt lat="42.51168" lon="2.18147">
        <ele>1045.57</ele>
        <time>2016-07-01T08:32:19Z</time>
      </trkpt>
      <trkpt lat="42.51168" lon="2.18149">
        <ele>1045.57</ele>
        <time>2016-07-01T08:32:20Z</time>
      </trkpt>
      <trkpt lat="42.51168" lon="2.18151">
        <ele>1045.57</ele>
        <time>2016-07-01T08:32:21Z</time>
      </trkpt>
      <trkpt lat="42.51169" lon="2.18153">
        <ele>1045.57</ele>
        <time>2016-07-01T08:32:22Z</time>
      </trkpt>
      <trkpt lat="42.51169" lon="2.18154">
        <ele>1045.57</ele>
        <time>2016-07-01T08:32:23Z</time>
      </trkpt>
      <trkpt lat="42.5117" lon="2.18156">
        <ele>1045.57</ele>
        <time>2016-07-01T08:32:24Z</time>
      </trkpt>
      <trkpt lat="42.51171" lon="2.18157">
        <ele>1045.57</ele>
        <time>2016-07-01T08:32:25Z</time>
      </trkpt>
      <trkpt lat="42.51172" lon="2.18159">
        <ele>1045.57</ele>
        <time>2016-07-01T08:32:26Z</time>
      </trkpt>
      <trkpt lat="42.51173" lon="2.18161">
        <ele>1045.57</ele>
        <time>2016-07-01T08:32:27Z</time>
      </trkpt>
      <trkpt lat="42.51174" lon="2.18161">
        <ele>1045.57</ele>
        <time>2016-07-01T08:32:28Z</time>
      </trkpt>
      <trkpt lat="42.51176" lon="2.18162">
        <ele>1045.57</ele>
        <time>2016-07-01T08:32:29Z</time>
      </trkpt>
      <trkpt lat="42.51178" lon="2.18166">
        <ele>1045.57</ele>
        <time>2016-07-01T08:32:32Z</time>
      </trkpt>
      <trkpt lat="42.51178" lon="2.18168">
        <ele>1045.57</ele>
        <time>2016-07-01T08:32:33Z</time>
      </trkpt>
      <trkpt lat="42.5118" lon="2.18169">
        <ele>1045.57</ele>
        <time>2016-07-01T08:32:34Z</time>
      </trkpt>
      <trkpt lat="42.51181" lon="2.1817">
        <ele>1045.57</ele>
        <time>2016-07-01T08:32:35Z</time>
      </trkpt>
      <trkpt lat="42.51182" lon="2.18172">
        <ele>1045.57</ele>
        <time>2016-07-01T08:32:36Z</time>
      </trkpt>
      <trkpt lat="42.51183" lon="2.18173">
        <ele>1046.53</ele>
        <time>2016-07-01T08:32:37Z</time>
      </trkpt>
      <trkpt lat="42.51183" lon="2.18175">
        <ele>1046.53</ele>
        <time>2016-07-01T08:32:38Z</time>
      </trkpt>
      <trkpt lat="42.51184" lon="2.18177">
        <ele>1047.01</ele>
        <time>2016-07-01T08:32:39Z</time>
      </trkpt>
      <trkpt lat="42.51185" lon="2.18178">
        <ele>1047.01</ele>
        <time>2016-07-01T08:32:40Z</time>
      </trkpt>
      <trkpt lat="42.51186" lon="2.18179">
        <ele>1047.01</ele>
        <time>2016-07-01T08:32:41Z</time>
      </trkpt>
      <trkpt lat="42.51188" lon="2.18182">
        <ele>1047.01</ele>
        <time>2016-07-01T08:32:43Z</time>
      </trkpt>
      <trkpt lat="42.51189" lon="2.18183">
        <ele>1047.01</ele>
        <time>2016-07-01T08:32:44Z</time>
      </trkpt>
      <trkpt lat="42.51189" lon="2.18186">
        <ele>1047.01</ele>
        <time>2016-07-01T08:32:45Z</time>
      </trkpt>
      <trkpt lat="42.5119" lon="2.18188">
        <ele>1047.49</ele>
        <time>2016-07-01T08:32:46Z</time>
      </trkpt>
      <trkpt lat="42.5119" lon="2.1819">
        <ele>1047.49</ele>
        <time>2016-07-01T08:32:47Z</time>
      </trkpt>
      <trkpt lat="42.5119" lon="2.18191">
        <ele>1047.49</ele>
        <time>2016-07-01T08:32:48Z</time>
      </trkpt>
      <trkpt lat="42.51191" lon="2.18193">
        <ele>1047.49</ele>
        <time>2016-07-01T08:32:49Z</time>
      </trkpt>
      <trkpt lat="42.51191" lon="2.18195">
        <ele>1047.49</ele>
        <time>2016-07-01T08:32:50Z</time>
      </trkpt>
      <trkpt lat="42.51192" lon="2.18196">
        <ele>1047.97</ele>
        <time>2016-07-01T08:32:51Z</time>
      </trkpt>
      <trkpt lat="42.51193" lon="2.18198">
        <ele>1047.97</ele>
        <time>2016-07-01T08:32:52Z</time>
      </trkpt>
      <trkpt lat="42.51193" lon="2.182">
        <ele>1047.97</ele>
        <time>2016-07-01T08:32:53Z</time>
      </trkpt>
      <trkpt lat="42.51194" lon="2.18203">
        <ele>1047.97</ele>
        <time>2016-07-01T08:32:55Z</time>
      </trkpt>
      <trkpt lat="42.51194" lon="2.18205">
        <ele>1047.97</ele>
        <time>2016-07-01T08:32:56Z</time>
      </trkpt>
      <trkpt lat="42.51194" lon="2.18207">
        <ele>1047.97</ele>
        <time>2016-07-01T08:32:57Z</time>
      </trkpt>
      <trkpt lat="42.51194" lon="2.1821">
        <ele>1047.97</ele>
        <time>2016-07-01T08:32:58Z</time>
      </trkpt>
      <trkpt lat="42.51195" lon="2.18211">
        <ele>1047.97</ele>
        <time>2016-07-01T08:32:59Z</time>
      </trkpt>
      <trkpt lat="42.51196" lon="2.18214">
        <ele>1048.45</ele>
        <time>2016-07-01T08:33:04Z</time>
      </trkpt>
      <trkpt lat="42.51197" lon="2.18216">
        <ele>1048.45</ele>
        <time>2016-07-01T08:33:06Z</time>
      </trkpt>
      <trkpt lat="42.51198" lon="2.18218">
        <ele>1048.45</ele>
        <time>2016-07-01T08:33:07Z</time>
      </trkpt>
      <trkpt lat="42.51199" lon="2.1822">
        <ele>1048.45</ele>
        <time>2016-07-01T08:33:08Z</time>
      </trkpt>
      <trkpt lat="42.51199" lon="2.18222">
        <ele>1048.45</ele>
        <time>2016-07-01T08:33:09Z</time>
      </trkpt>
      <trkpt lat="42.512" lon="2.18224">
        <ele>1048.45</ele>
        <time>2016-07-01T08:33:10Z</time>
      </trkpt>
      <trkpt lat="42.51201" lon="2.18225">
        <ele>1048.45</ele>
        <time>2016-07-01T08:33:11Z</time>
      </trkpt>
      <trkpt lat="42.51201" lon="2.18227">
        <ele>1048.45</ele>
        <time>2016-07-01T08:33:12Z</time>
      </trkpt>
      <trkpt lat="42.51201" lon="2.18229">
        <ele>1048.45</ele>
        <time>2016-07-01T08:33:13Z</time>
      </trkpt>
      <trkpt lat="42.51202" lon="2.18233">
        <ele>1048.94</ele>
        <time>2016-07-01T08:33:15Z</time>
      </trkpt>
      <trkpt lat="42.51203" lon="2.18235">
        <ele>1048.94</ele>
        <time>2016-07-01T08:33:16Z</time>
      </trkpt>
      <trkpt lat="42.51205" lon="2.18245">
        <ele>1048.94</ele>
        <time>2016-07-01T08:33:22Z</time>
      </trkpt>
      <trkpt lat="42.51205" lon="2.18247">
        <ele>1049.42</ele>
        <time>2016-07-01T08:33:23Z</time>
      </trkpt>
      <trkpt lat="42.51206" lon="2.18249">
        <ele>1049.42</ele>
        <time>2016-07-01T08:33:24Z</time>
      </trkpt>
      <trkpt lat="42.51207" lon="2.1825">
        <ele>1049.42</ele>
        <time>2016-07-01T08:33:25Z</time>
      </trkpt>
      <trkpt lat="42.51208" lon="2.18251">
        <ele>1049.42</ele>
        <time>2016-07-01T08:33:26Z</time>
      </trkpt>
      <trkpt lat="42.51209" lon="2.18253">
        <ele>1049.42</ele>
        <time>2016-07-01T08:33:27Z</time>
      </trkpt>
      <trkpt lat="42.5121" lon="2.18254">
        <ele>1049.42</ele>
        <time>2016-07-01T08:33:28Z</time>
      </trkpt>
      <trkpt lat="42.51211" lon="2.18256">
        <ele>1049.42</ele>
        <time>2016-07-01T08:33:29Z</time>
      </trkpt>
      <trkpt lat="42.51212" lon="2.18257">
        <ele>1049.42</ele>
        <time>2016-07-01T08:33:30Z</time>
      </trkpt>
      <trkpt lat="42.51212" lon="2.18259">
        <ele>1049.42</ele>
        <time>2016-07-01T08:33:31Z</time>
      </trkpt>
      <trkpt lat="42.51212" lon="2.18261">
        <ele>1049.9</ele>
        <time>2016-07-01T08:33:32Z</time>
      </trkpt>
      <trkpt lat="42.51213" lon="2.18262">
        <ele>1049.9</ele>
        <time>2016-07-01T08:33:33Z</time>
      </trkpt>
      <trkpt lat="42.51214" lon="2.18263">
        <ele>1049.9</ele>
        <time>2016-07-01T08:33:34Z</time>
      </trkpt>
      <trkpt lat="42.51215" lon="2.18265">
        <ele>1049.9</ele>
        <time>2016-07-01T08:33:35Z</time>
      </trkpt>
      <trkpt lat="42.51216" lon="2.18266">
        <ele>1049.9</ele>
        <time>2016-07-01T08:33:36Z</time>
      </trkpt>
      <trkpt lat="42.51217" lon="2.18268">
        <ele>1049.9</ele>
        <time>2016-07-01T08:33:37Z</time>
      </trkpt>
      <trkpt lat="42.51217" lon="2.18269">
        <ele>1049.9</ele>
        <time>2016-07-01T08:33:38Z</time>
      </trkpt>
      <trkpt lat="42.51218" lon="2.1827">
        <ele>1050.38</ele>
        <time>2016-07-01T08:33:39Z</time>
      </trkpt>
      <trkpt lat="42.51219" lon="2.18272">
        <ele>1050.38</ele>
        <time>2016-07-01T08:33:40Z</time>
      </trkpt>
      <trkpt lat="42.51219" lon="2.18274">
        <ele>1050.38</ele>
        <time>2016-07-01T08:33:41Z</time>
      </trkpt>
      <trkpt lat="42.5122" lon="2.18275">
        <ele>1050.38</ele>
        <time>2016-07-01T08:33:42Z</time>
      </trkpt>
      <trkpt lat="42.51221" lon="2.18277">
        <ele>1050.38</ele>
        <time>2016-07-01T08:33:43Z</time>
      </trkpt>
      <trkpt lat="42.51221" lon="2.18278">
        <ele>1050.38</ele>
        <time>2016-07-01T08:33:44Z</time>
      </trkpt>
      <trkpt lat="42.51222" lon="2.18281">
        <ele>1050.38</ele>
        <time>2016-07-01T08:33:46Z</time>
      </trkpt>
      <trkpt lat="42.51223" lon="2.18283">
        <ele>1050.86</ele>
        <time>2016-07-01T08:33:47Z</time>
      </trkpt>
      <trkpt lat="42.51224" lon="2.18285">
        <ele>1050.86</ele>
        <time>2016-07-01T08:33:48Z</time>
      </trkpt>
      <trkpt lat="42.51223" lon="2.18288">
        <ele>1050.86</ele>
        <time>2016-07-01T08:33:49Z</time>
      </trkpt>
      <trkpt lat="42.51222" lon="2.18291">
        <ele>1050.86</ele>
        <time>2016-07-01T08:33:50Z</time>
      </trkpt>
      <trkpt lat="42.51224" lon="2.18293">
        <ele>1050.86</ele>
        <time>2016-07-01T08:33:51Z</time>
      </trkpt>
      <trkpt lat="42.51224" lon="2.18295">
        <ele>1050.86</ele>
        <time>2016-07-01T08:33:52Z</time>
      </trkpt>
      <trkpt lat="42.51224" lon="2.18296">
        <ele>1050.86</ele>
        <time>2016-07-01T08:33:53Z</time>
      </trkpt>
      <trkpt lat="42.51224" lon="2.18298">
        <ele>1051.34</ele>
        <time>2016-07-01T08:33:54Z</time>
      </trkpt>
      <trkpt lat="42.51225" lon="2.18299">
        <ele>1051.34</ele>
        <time>2016-07-01T08:33:55Z</time>
      </trkpt>
      <trkpt lat="42.51225" lon="2.18301">
        <ele>1051.34</ele>
        <time>2016-07-01T08:33:56Z</time>
      </trkpt>
      <trkpt lat="42.51226" lon="2.18303">
        <ele>1051.34</ele>
        <time>2016-07-01T08:33:57Z</time>
      </trkpt>
      <trkpt lat="42.51228" lon="2.18306">
        <ele>1051.34</ele>
        <time>2016-07-01T08:33:59Z</time>
      </trkpt>
      <trkpt lat="42.51229" lon="2.18307">
        <ele>1051.34</ele>
        <time>2016-07-01T08:34:00Z</time>
      </trkpt>
      <trkpt lat="42.51229" lon="2.1831">
        <ele>1051.82</ele>
        <time>2016-07-01T08:34:01Z</time>
      </trkpt>
      <trkpt lat="42.51229" lon="2.18312">
        <ele>1051.82</ele>
        <time>2016-07-01T08:34:02Z</time>
      </trkpt>
      <trkpt lat="42.51229" lon="2.18314">
        <ele>1051.82</ele>
        <time>2016-07-01T08:34:03Z</time>
      </trkpt>
      <trkpt lat="42.51228" lon="2.18316">
        <ele>1051.82</ele>
        <time>2016-07-01T08:34:04Z</time>
      </trkpt>
      <trkpt lat="42.51228" lon="2.18318">
        <ele>1051.82</ele>
        <time>2016-07-01T08:34:05Z</time>
      </trkpt>
      <trkpt lat="42.5123" lon="2.18319">
        <ele>1051.82</ele>
        <time>2016-07-01T08:34:06Z</time>
      </trkpt>
      <trkpt lat="42.51231" lon="2.18321">
        <ele>1051.82</ele>
        <time>2016-07-01T08:34:07Z</time>
      </trkpt>
      <trkpt lat="42.51231" lon="2.18323">
        <ele>1051.82</ele>
        <time>2016-07-01T08:34:08Z</time>
      </trkpt>
      <trkpt lat="42.51232" lon="2.18325">
        <ele>1051.82</ele>
        <time>2016-07-01T08:34:09Z</time>
      </trkpt>
      <trkpt lat="42.51234" lon="2.18331">
        <ele>1052.3</ele>
        <time>2016-07-01T08:34:13Z</time>
      </trkpt>
      <trkpt lat="42.51234" lon="2.18333">
        <ele>1052.3</ele>
        <time>2016-07-01T08:34:14Z</time>
      </trkpt>
      <trkpt lat="42.51235" lon="2.18335">
        <ele>1052.3</ele>
        <time>2016-07-01T08:34:15Z</time>
      </trkpt>
      <trkpt lat="42.51235" lon="2.18337">
        <ele>1052.78</ele>
        <time>2016-07-01T08:34:16Z</time>
      </trkpt>
      <trkpt lat="42.51235" lon="2.1834">
        <ele>1052.78</ele>
        <time>2016-07-01T08:34:17Z</time>
      </trkpt>
      <trkpt lat="42.51236" lon="2.18341">
        <ele>1052.78</ele>
        <time>2016-07-01T08:34:18Z</time>
      </trkpt>
      <trkpt lat="42.51237" lon="2.18342">
        <ele>1052.78</ele>
        <time>2016-07-01T08:34:19Z</time>
      </trkpt>
      <trkpt lat="42.51238" lon="2.18344">
        <ele>1052.78</ele>
        <time>2016-07-01T08:34:20Z</time>
      </trkpt>
      <trkpt lat="42.51239" lon="2.18346">
        <ele>1052.78</ele>
        <time>2016-07-01T08:34:21Z</time>
      </trkpt>
      <trkpt lat="42.51238" lon="2.18348">
        <ele>1052.78</ele>
        <time>2016-07-01T08:34:22Z</time>
      </trkpt>
      <trkpt lat="42.51238" lon="2.1835">
        <ele>1052.78</ele>
        <time>2016-07-01T08:34:23Z</time>
      </trkpt>
      <trkpt lat="42.51237" lon="2.18353">
        <ele>1052.78</ele>
        <time>2016-07-01T08:34:25Z</time>
      </trkpt>
      <trkpt lat="42.51239" lon="2.18355">
        <ele>1053.26</ele>
        <time>2016-07-01T08:34:26Z</time>
      </trkpt>
      <trkpt lat="42.5124" lon="2.18357">
        <ele>1053.26</ele>
        <time>2016-07-01T08:34:27Z</time>
      </trkpt>
      <trkpt lat="42.51241" lon="2.18359">
        <ele>1053.26</ele>
        <time>2016-07-01T08:34:28Z</time>
      </trkpt>
      <trkpt lat="42.51241" lon="2.18361">
        <ele>1053.26</ele>
        <time>2016-07-01T08:34:29Z</time>
      </trkpt>
      <trkpt lat="42.51241" lon="2.18364">
        <ele>1053.26</ele>
        <time>2016-07-01T08:34:30Z</time>
      </trkpt>
      <trkpt lat="42.51241" lon="2.18366">
        <ele>1053.26</ele>
        <time>2016-07-01T08:34:31Z</time>
      </trkpt>
      <trkpt lat="42.51243" lon="2.18382">
        <ele>1053.26</ele>
        <time>2016-07-01T08:34:39Z</time>
      </trkpt>
      <trkpt lat="42.51243" lon="2.18384">
        <ele>1053.26</ele>
        <time>2016-07-01T08:34:40Z</time>
      </trkpt>
      <trkpt lat="42.51243" lon="2.18387">
        <ele>1053.26</ele>
        <time>2016-07-01T08:34:42Z</time>
      </trkpt>
      <trkpt lat="42.51244" lon="2.18389">
        <ele>1053.26</ele>
        <time>2016-07-01T08:34:43Z</time>
      </trkpt>
      <trkpt lat="42.51243" lon="2.18391">
        <ele>1053.26</ele>
        <time>2016-07-01T08:34:44Z</time>
      </trkpt>
      <trkpt lat="42.51243" lon="2.18394">
        <ele>1053.26</ele>
        <time>2016-07-01T08:34:46Z</time>
      </trkpt>
      <trkpt lat="42.51243" lon="2.18396">
        <ele>1053.26</ele>
        <time>2016-07-01T08:34:47Z</time>
      </trkpt>
      <trkpt lat="42.51243" lon="2.18398">
        <ele>1053.26</ele>
        <time>2016-07-01T08:34:48Z</time>
      </trkpt>
      <trkpt lat="42.51244" lon="2.18406">
        <ele>1053.26</ele>
        <time>2016-07-01T08:34:52Z</time>
      </trkpt>
      <trkpt lat="42.51244" lon="2.18408">
        <ele>1053.26</ele>
        <time>2016-07-01T08:34:53Z</time>
      </trkpt>
      <trkpt lat="42.51245" lon="2.1841">
        <ele>1053.26</ele>
        <time>2016-07-01T08:34:54Z</time>
      </trkpt>
      <trkpt lat="42.51246" lon="2.18411">
        <ele>1053.26</ele>
        <time>2016-07-01T08:34:55Z</time>
      </trkpt>
      <trkpt lat="42.51247" lon="2.18413">
        <ele>1053.26</ele>
        <time>2016-07-01T08:34:56Z</time>
      </trkpt>
      <trkpt lat="42.51247" lon="2.18415">
        <ele>1053.26</ele>
        <time>2016-07-01T08:34:57Z</time>
      </trkpt>
      <trkpt lat="42.51247" lon="2.18418">
        <ele>1053.26</ele>
        <time>2016-07-01T08:34:58Z</time>
      </trkpt>
      <trkpt lat="42.51248" lon="2.1842">
        <ele>1052.3</ele>
        <time>2016-07-01T08:34:59Z</time>
      </trkpt>
      <trkpt lat="42.51249" lon="2.18421">
        <ele>1052.3</ele>
        <time>2016-07-01T08:35:00Z</time>
      </trkpt>
      <trkpt lat="42.5125" lon="2.18423">
        <ele>1052.3</ele>
        <time>2016-07-01T08:35:01Z</time>
      </trkpt>
      <trkpt lat="42.51252" lon="2.18424">
        <ele>1052.3</ele>
        <time>2016-07-01T08:35:02Z</time>
      </trkpt>
      <trkpt lat="42.51253" lon="2.18425">
        <ele>1051.82</ele>
        <time>2016-07-01T08:35:03Z</time>
      </trkpt>
      <trkpt lat="42.51254" lon="2.18426">
        <ele>1051.82</ele>
        <time>2016-07-01T08:35:04Z</time>
      </trkpt>
      <trkpt lat="42.51255" lon="2.18426">
        <ele>1051.82</ele>
        <time>2016-07-01T08:35:05Z</time>
      </trkpt>
      <trkpt lat="42.51256" lon="2.18427">
        <ele>1051.82</ele>
        <time>2016-07-01T08:35:06Z</time>
      </trkpt>
      <trkpt lat="42.51257" lon="2.18427">
        <ele>1051.82</ele>
        <time>2016-07-01T08:35:07Z</time>
      </trkpt>
      <trkpt lat="42.51258" lon="2.18428">
        <ele>1051.82</ele>
        <time>2016-07-01T08:35:08Z</time>
      </trkpt>
      <trkpt lat="42.51262" lon="2.18431">
        <ele>1051.82</ele>
        <time>2016-07-01T08:35:12Z</time>
      </trkpt>
      <trkpt lat="42.51262" lon="2.18433">
        <ele>1051.82</ele>
        <time>2016-07-01T08:35:13Z</time>
      </trkpt>
      <trkpt lat="42.51263" lon="2.18434">
        <ele>1051.82</ele>
        <time>2016-07-01T08:35:14Z</time>
      </trkpt>
      <trkpt lat="42.51264" lon="2.18435">
        <ele>1051.34</ele>
        <time>2016-07-01T08:35:15Z</time>
      </trkpt>
      <trkpt lat="42.51264" lon="2.18437">
        <ele>1051.34</ele>
        <time>2016-07-01T08:35:16Z</time>
      </trkpt>
      <trkpt lat="42.51265" lon="2.18438">
        <ele>1051.34</ele>
        <time>2016-07-01T08:35:17Z</time>
      </trkpt>
      <trkpt lat="42.51265" lon="2.18439">
        <ele>1050.86</ele>
        <time>2016-07-01T08:35:26Z</time>
      </trkpt>
      <trkpt lat="42.51267" lon="2.18438">
        <ele>1050.86</ele>
        <time>2016-07-01T08:35:43Z</time>
      </trkpt>
      <trkpt lat="42.5127" lon="2.18442">
        <ele>1050.86</ele>
        <time>2016-07-01T08:35:57Z</time>
      </trkpt>
      <trkpt lat="42.51271" lon="2.18443">
        <ele>1050.86</ele>
        <time>2016-07-01T08:35:58Z</time>
      </trkpt>
      <trkpt lat="42.51272" lon="2.18445">
        <ele>1050.86</ele>
        <time>2016-07-01T08:35:59Z</time>
      </trkpt>
      <trkpt lat="42.51273" lon="2.18447">
        <ele>1050.86</ele>
        <time>2016-07-01T08:36:00Z</time>
      </trkpt>
      <trkpt lat="42.51274" lon="2.18449">
        <ele>1050.86</ele>
        <time>2016-07-01T08:36:01Z</time>
      </trkpt>
      <trkpt lat="42.51274" lon="2.1845">
        <ele>1050.38</ele>
        <time>2016-07-01T08:36:02Z</time>
      </trkpt>
      <trkpt lat="42.51274" lon="2.18452">
        <ele>1050.38</ele>
        <time>2016-07-01T08:36:03Z</time>
      </trkpt>
      <trkpt lat="42.51274" lon="2.18454">
        <ele>1050.38</ele>
        <time>2016-07-01T08:36:04Z</time>
      </trkpt>
      <trkpt lat="42.51275" lon="2.18456">
        <ele>1050.38</ele>
        <time>2016-07-01T08:36:05Z</time>
      </trkpt>
      <trkpt lat="42.51275" lon="2.18458">
        <ele>1050.38</ele>
        <time>2016-07-01T08:36:06Z</time>
      </trkpt>
      <trkpt lat="42.51277" lon="2.18459">
        <ele>1050.38</ele>
        <time>2016-07-01T08:36:07Z</time>
      </trkpt>
      <trkpt lat="42.51277" lon="2.18461">
        <ele>1050.38</ele>
        <time>2016-07-01T08:36:08Z</time>
      </trkpt>
      <trkpt lat="42.51278" lon="2.18463">
        <ele>1049.9</ele>
        <time>2016-07-01T08:36:09Z</time>
      </trkpt>
      <trkpt lat="42.51279" lon="2.18465">
        <ele>1049.9</ele>
        <time>2016-07-01T08:36:10Z</time>
      </trkpt>
      <trkpt lat="42.51279" lon="2.18466">
        <ele>1049.9</ele>
        <time>2016-07-01T08:36:11Z</time>
      </trkpt>
      <trkpt lat="42.5128" lon="2.18468">
        <ele>1049.9</ele>
        <time>2016-07-01T08:36:12Z</time>
      </trkpt>
      <trkpt lat="42.5128" lon="2.18469">
        <ele>1049.42</ele>
        <time>2016-07-01T08:36:13Z</time>
      </trkpt>
      <trkpt lat="42.51281" lon="2.18471">
        <ele>1049.42</ele>
        <time>2016-07-01T08:36:14Z</time>
      </trkpt>
      <trkpt lat="42.51281" lon="2.18472">
        <ele>1049.42</ele>
        <time>2016-07-01T08:36:15Z</time>
      </trkpt>
      <trkpt lat="42.51284" lon="2.18478">
        <ele>1049.42</ele>
        <time>2016-07-01T08:36:19Z</time>
      </trkpt>
      <trkpt lat="42.51285" lon="2.18479">
        <ele>1048.94</ele>
        <time>2016-07-01T08:36:20Z</time>
      </trkpt>
      <trkpt lat="42.51286" lon="2.18481">
        <ele>1048.94</ele>
        <time>2016-07-01T08:36:21Z</time>
      </trkpt>
      <trkpt lat="42.5129" lon="2.18485">
        <ele>1048.94</ele>
        <time>2016-07-01T08:36:24Z</time>
      </trkpt>
      <trkpt lat="42.51291" lon="2.18486">
        <ele>1048.94</ele>
        <time>2016-07-01T08:36:25Z</time>
      </trkpt>
      <trkpt lat="42.51292" lon="2.18487">
        <ele>1048.94</ele>
        <time>2016-07-01T08:36:26Z</time>
      </trkpt>
      <trkpt lat="42.51292" lon="2.18489">
        <ele>1048.94</ele>
        <time>2016-07-01T08:36:27Z</time>
      </trkpt>
      <trkpt lat="42.51293" lon="2.18491">
        <ele>1048.45</ele>
        <time>2016-07-01T08:36:28Z</time>
      </trkpt>
      <trkpt lat="42.51293" lon="2.18493">
        <ele>1048.45</ele>
        <time>2016-07-01T08:36:29Z</time>
      </trkpt>
      <trkpt lat="42.51294" lon="2.18494">
        <ele>1048.45</ele>
        <time>2016-07-01T08:36:30Z</time>
      </trkpt>
      <trkpt lat="42.51294" lon="2.18496">
        <ele>1048.45</ele>
        <time>2016-07-01T08:36:31Z</time>
      </trkpt>
      <trkpt lat="42.51295" lon="2.18497">
        <ele>1048.45</ele>
        <time>2016-07-01T08:36:32Z</time>
      </trkpt>
      <trkpt lat="42.51302" lon="2.18512">
        <ele>1047.49</ele>
        <time>2016-07-01T08:36:40Z</time>
      </trkpt>
      <trkpt lat="42.51303" lon="2.18513">
        <ele>1047.49</ele>
        <time>2016-07-01T08:36:41Z</time>
      </trkpt>
      <trkpt lat="42.51304" lon="2.18515">
        <ele>1047.49</ele>
        <time>2016-07-01T08:36:42Z</time>
      </trkpt>
      <trkpt lat="42.51305" lon="2.18516">
        <ele>1047.49</ele>
        <time>2016-07-01T08:36:43Z</time>
      </trkpt>
      <trkpt lat="42.51306" lon="2.18517">
        <ele>1047.49</ele>
        <time>2016-07-01T08:36:44Z</time>
      </trkpt>
      <trkpt lat="42.51307" lon="2.18519">
        <ele>1047.01</ele>
        <time>2016-07-01T08:36:45Z</time>
      </trkpt>
      <trkpt lat="42.51308" lon="2.18521">
        <ele>1047.01</ele>
        <time>2016-07-01T08:36:46Z</time>
      </trkpt>
      <trkpt lat="42.51308" lon="2.18522">
        <ele>1047.01</ele>
        <time>2016-07-01T08:36:47Z</time>
      </trkpt>
      <trkpt lat="42.51309" lon="2.18524">
        <ele>1047.01</ele>
        <time>2016-07-01T08:36:48Z</time>
      </trkpt>
      <trkpt lat="42.5131" lon="2.18526">
        <ele>1047.01</ele>
        <time>2016-07-01T08:36:49Z</time>
      </trkpt>
      <trkpt lat="42.51313" lon="2.1853">
        <ele>1047.01</ele>
        <time>2016-07-01T08:36:52Z</time>
      </trkpt>
      <trkpt lat="42.51314" lon="2.18531">
        <ele>1047.01</ele>
        <time>2016-07-01T08:36:53Z</time>
      </trkpt>
      <trkpt lat="42.51314" lon="2.18534">
        <ele>1046.05</ele>
        <time>2016-07-01T08:36:54Z</time>
      </trkpt>
      <trkpt lat="42.51315" lon="2.18535">
        <ele>1046.05</ele>
        <time>2016-07-01T08:36:55Z</time>
      </trkpt>
      <trkpt lat="42.51316" lon="2.18537">
        <ele>1046.05</ele>
        <time>2016-07-01T08:36:56Z</time>
      </trkpt>
      <trkpt lat="42.5132" lon="2.18551">
        <ele>1045.57</ele>
        <time>2016-07-01T08:37:03Z</time>
      </trkpt>
      <trkpt lat="42.51321" lon="2.18553">
        <ele>1045.57</ele>
        <time>2016-07-01T08:37:04Z</time>
      </trkpt>
      <trkpt lat="42.51322" lon="2.18555">
        <ele>1045.57</ele>
        <time>2016-07-01T08:37:05Z</time>
      </trkpt>
      <trkpt lat="42.51323" lon="2.18556">
        <ele>1045.57</ele>
        <time>2016-07-01T08:37:06Z</time>
      </trkpt>
      <trkpt lat="42.51323" lon="2.18558">
        <ele>1045.57</ele>
        <time>2016-07-01T08:37:07Z</time>
      </trkpt>
      <trkpt lat="42.51324" lon="2.1856">
        <ele>1045.57</ele>
        <time>2016-07-01T08:37:08Z</time>
      </trkpt>
      <trkpt lat="42.51324" lon="2.18562">
        <ele>1045.57</ele>
        <time>2016-07-01T08:37:09Z</time>
      </trkpt>
      <trkpt lat="42.51325" lon="2.18564">
        <ele>1045.09</ele>
        <time>2016-07-01T08:37:10Z</time>
      </trkpt>
      <trkpt lat="42.51325" lon="2.18566">
        <ele>1045.09</ele>
        <time>2016-07-01T08:37:11Z</time>
      </trkpt>
      <trkpt lat="42.51325" lon="2.18568">
        <ele>1045.09</ele>
        <time>2016-07-01T08:37:12Z</time>
      </trkpt>
      <trkpt lat="42.51326" lon="2.1857">
        <ele>1045.09</ele>
        <time>2016-07-01T08:37:13Z</time>
      </trkpt>
      <trkpt lat="42.51326" lon="2.18572">
        <ele>1045.09</ele>
        <time>2016-07-01T08:37:14Z</time>
      </trkpt>
      <trkpt lat="42.51326" lon="2.18574">
        <ele>1045.09</ele>
        <time>2016-07-01T08:37:15Z</time>
      </trkpt>
      <trkpt lat="42.51327" lon="2.18576">
        <ele>1045.09</ele>
        <time>2016-07-01T08:37:16Z</time>
      </trkpt>
      <trkpt lat="42.51327" lon="2.18579">
        <ele>1044.61</ele>
        <time>2016-07-01T08:37:17Z</time>
      </trkpt>
      <trkpt lat="42.51328" lon="2.18581">
        <ele>1044.61</ele>
        <time>2016-07-01T08:37:18Z</time>
      </trkpt>
      <trkpt lat="42.51329" lon="2.18583">
        <ele>1044.61</ele>
        <time>2016-07-01T08:37:19Z</time>
      </trkpt>
      <trkpt lat="42.51329" lon="2.18585">
        <ele>1044.61</ele>
        <time>2016-07-01T08:37:20Z</time>
      </trkpt>
      <trkpt lat="42.51329" lon="2.18587">
        <ele>1044.61</ele>
        <time>2016-07-01T08:37:21Z</time>
      </trkpt>
      <trkpt lat="42.5133" lon="2.18589">
        <ele>1044.61</ele>
        <time>2016-07-01T08:37:22Z</time>
      </trkpt>
      <trkpt lat="42.5133" lon="2.18591">
        <ele>1044.13</ele>
        <time>2016-07-01T08:37:23Z</time>
      </trkpt>
      <trkpt lat="42.5133" lon="2.18593">
        <ele>1044.13</ele>
        <time>2016-07-01T08:37:24Z</time>
      </trkpt>
      <trkpt lat="42.51331" lon="2.18595">
        <ele>1044.13</ele>
        <time>2016-07-01T08:37:25Z</time>
      </trkpt>
      <trkpt lat="42.51331" lon="2.18596">
        <ele>1044.13</ele>
        <time>2016-07-01T08:37:26Z</time>
      </trkpt>
      <trkpt lat="42.51331" lon="2.18598">
        <ele>1044.13</ele>
        <time>2016-07-01T08:37:27Z</time>
      </trkpt>
      <trkpt lat="42.51331" lon="2.186">
        <ele>1043.65</ele>
        <time>2016-07-01T08:37:28Z</time>
      </trkpt>
      <trkpt lat="42.51331" lon="2.18601">
        <ele>1043.65</ele>
        <time>2016-07-01T08:37:29Z</time>
      </trkpt>
      <trkpt lat="42.51331" lon="2.18603">
        <ele>1043.65</ele>
        <time>2016-07-01T08:37:30Z</time>
      </trkpt>
      <trkpt lat="42.51331" lon="2.18605">
        <ele>1043.65</ele>
        <time>2016-07-01T08:37:31Z</time>
      </trkpt>
      <trkpt lat="42.51331" lon="2.18607">
        <ele>1043.65</ele>
        <time>2016-07-01T08:37:32Z</time>
      </trkpt>
      <trkpt lat="42.5133" lon="2.1861">
        <ele>1043.17</ele>
        <time>2016-07-01T08:37:33Z</time>
      </trkpt>
      <trkpt lat="42.5133" lon="2.18612">
        <ele>1043.17</ele>
        <time>2016-07-01T08:37:34Z</time>
      </trkpt>
      <trkpt lat="42.5133" lon="2.18617">
        <ele>1043.17</ele>
        <time>2016-07-01T08:37:36Z</time>
      </trkpt>
      <trkpt lat="42.51329" lon="2.18619">
        <ele>1043.17</ele>
        <time>2016-07-01T08:37:37Z</time>
      </trkpt>
      <trkpt lat="42.51327" lon="2.18629">
        <ele>1042.21</ele>
        <time>2016-07-01T08:37:42Z</time>
      </trkpt>
      <trkpt lat="42.51327" lon="2.18631">
        <ele>1042.21</ele>
        <time>2016-07-01T08:37:43Z</time>
      </trkpt>
      <trkpt lat="42.51326" lon="2.18633">
        <ele>1042.21</ele>
        <time>2016-07-01T08:37:44Z</time>
      </trkpt>
      <trkpt lat="42.51325" lon="2.18638">
        <ele>1041.73</ele>
        <time>2016-07-01T08:37:47Z</time>
      </trkpt>
      <trkpt lat="42.51325" lon="2.1864">
        <ele>1041.73</ele>
        <time>2016-07-01T08:37:48Z</time>
      </trkpt>
      <trkpt lat="42.51324" lon="2.18649">
        <ele>1041.25</ele>
        <time>2016-07-01T08:37:52Z</time>
      </trkpt>
      <trkpt lat="42.5132" lon="2.18666">
        <ele>1040.76</ele>
        <time>2016-07-01T08:38:00Z</time>
      </trkpt>
      <trkpt lat="42.5132" lon="2.18667">
        <ele>1040.76</ele>
        <time>2016-07-01T08:38:01Z</time>
      </trkpt>
      <trkpt lat="42.51318" lon="2.18674">
        <ele>1040.76</ele>
        <time>2016-07-01T08:38:05Z</time>
      </trkpt>
      <trkpt lat="42.51317" lon="2.18676">
        <ele>1040.76</ele>
        <time>2016-07-01T08:38:06Z</time>
      </trkpt>
      <trkpt lat="42.51316" lon="2.18688">
        <ele>1040.28</ele>
        <time>2016-07-01T08:38:12Z</time>
      </trkpt>
      <trkpt lat="42.51315" lon="2.18691">
        <ele>1039.8</ele>
        <time>2016-07-01T08:38:13Z</time>
      </trkpt>
      <trkpt lat="42.51315" lon="2.18693">
        <ele>1039.8</ele>
        <time>2016-07-01T08:38:14Z</time>
      </trkpt>
      <trkpt lat="42.51315" lon="2.18696">
        <ele>1039.8</ele>
        <time>2016-07-01T08:38:15Z</time>
      </trkpt>
      <trkpt lat="42.51315" lon="2.18698">
        <ele>1039.8</ele>
        <time>2016-07-01T08:38:16Z</time>
      </trkpt>
      <trkpt lat="42.51315" lon="2.187">
        <ele>1039.8</ele>
        <time>2016-07-01T08:38:17Z</time>
      </trkpt>
      <trkpt lat="42.51315" lon="2.18702">
        <ele>1039.8</ele>
        <time>2016-07-01T08:38:18Z</time>
      </trkpt>
      <trkpt lat="42.51315" lon="2.18704">
        <ele>1039.8</ele>
        <time>2016-07-01T08:38:19Z</time>
      </trkpt>
      <trkpt lat="42.51315" lon="2.18707">
        <ele>1038.84</ele>
        <time>2016-07-01T08:38:20Z</time>
      </trkpt>
      <trkpt lat="42.51316" lon="2.18709">
        <ele>1038.84</ele>
        <time>2016-07-01T08:38:21Z</time>
      </trkpt>
      <trkpt lat="42.51316" lon="2.18711">
        <ele>1038.84</ele>
        <time>2016-07-01T08:38:22Z</time>
      </trkpt>
      <trkpt lat="42.51316" lon="2.18713">
        <ele>1038.84</ele>
        <time>2016-07-01T08:38:23Z</time>
      </trkpt>
      <trkpt lat="42.51316" lon="2.18715">
        <ele>1038.84</ele>
        <time>2016-07-01T08:38:24Z</time>
      </trkpt>
      <trkpt lat="42.51317" lon="2.18716">
        <ele>1038.84</ele>
        <time>2016-07-01T08:38:25Z</time>
      </trkpt>
      <trkpt lat="42.51317" lon="2.18718">
        <ele>1038.84</ele>
        <time>2016-07-01T08:38:26Z</time>
      </trkpt>
      <trkpt lat="42.51317" lon="2.1872">
        <ele>1038.84</ele>
        <time>2016-07-01T08:38:27Z</time>
      </trkpt>
      <trkpt lat="42.51317" lon="2.18722">
        <ele>1038.84</ele>
        <time>2016-07-01T08:38:28Z</time>
      </trkpt>
      <trkpt lat="42.51318" lon="2.18723">
        <ele>1038.36</ele>
        <time>2016-07-01T08:38:29Z</time>
      </trkpt>
      <trkpt lat="42.51318" lon="2.18725">
        <ele>1038.36</ele>
        <time>2016-07-01T08:38:30Z</time>
      </trkpt>
      <trkpt lat="42.51318" lon="2.18727">
        <ele>1038.36</ele>
        <time>2016-07-01T08:38:31Z</time>
      </trkpt>
      <trkpt lat="42.51318" lon="2.18729">
        <ele>1038.36</ele>
        <time>2016-07-01T08:38:32Z</time>
      </trkpt>
      <trkpt lat="42.51318" lon="2.18732">
        <ele>1038.36</ele>
        <time>2016-07-01T08:38:33Z</time>
      </trkpt>
      <trkpt lat="42.51318" lon="2.18734">
        <ele>1038.36</ele>
        <time>2016-07-01T08:38:34Z</time>
      </trkpt>
      <trkpt lat="42.51318" lon="2.18736">
        <ele>1038.36</ele>
        <time>2016-07-01T08:38:35Z</time>
      </trkpt>
      <trkpt lat="42.51319" lon="2.18738">
        <ele>1038.36</ele>
        <time>2016-07-01T08:38:36Z</time>
      </trkpt>
      <trkpt lat="42.51319" lon="2.1874">
        <ele>1038.36</ele>
        <time>2016-07-01T08:38:37Z</time>
      </trkpt>
      <trkpt lat="42.5132" lon="2.18743">
        <ele>1038.36</ele>
        <time>2016-07-01T08:38:38Z</time>
      </trkpt>
      <trkpt lat="42.5132" lon="2.18745">
        <ele>1037.88</ele>
        <time>2016-07-01T08:38:39Z</time>
      </trkpt>
      <trkpt lat="42.51321" lon="2.18753">
        <ele>1037.88</ele>
        <time>2016-07-01T08:38:44Z</time>
      </trkpt>
      <trkpt lat="42.51322" lon="2.18754">
        <ele>1037.88</ele>
        <time>2016-07-01T08:38:45Z</time>
      </trkpt>
      <trkpt lat="42.51322" lon="2.18756">
        <ele>1037.88</ele>
        <time>2016-07-01T08:38:46Z</time>
      </trkpt>
      <trkpt lat="42.51322" lon="2.18758">
        <ele>1037.4</ele>
        <time>2016-07-01T08:38:47Z</time>
      </trkpt>
      <trkpt lat="42.51322" lon="2.1876">
        <ele>1037.4</ele>
        <time>2016-07-01T08:38:48Z</time>
      </trkpt>
      <trkpt lat="42.51318" lon="2.18779">
        <ele>1036.92</ele>
        <time>2016-07-01T08:38:57Z</time>
      </trkpt>
      <trkpt lat="42.51318" lon="2.1878">
        <ele>1036.92</ele>
        <time>2016-07-01T08:38:58Z</time>
      </trkpt>
      <trkpt lat="42.51318" lon="2.18783">
        <ele>1036.92</ele>
        <time>2016-07-01T08:38:59Z</time>
      </trkpt>
      <trkpt lat="42.51315" lon="2.188">
        <ele>1035.96</ele>
        <time>2016-07-01T08:39:08Z</time>
      </trkpt>
      <trkpt lat="42.51313" lon="2.18813">
        <ele>1035</ele>
        <time>2016-07-01T08:39:14Z</time>
      </trkpt>
      <trkpt lat="42.51313" lon="2.18815">
        <ele>1035</ele>
        <time>2016-07-01T08:39:15Z</time>
      </trkpt>
      <trkpt lat="42.51314" lon="2.18821">
        <ele>1034.52</ele>
        <time>2016-07-01T08:39:18Z</time>
      </trkpt>
      <trkpt lat="42.51313" lon="2.18823">
        <ele>1034.52</ele>
        <time>2016-07-01T08:39:19Z</time>
      </trkpt>
      <trkpt lat="42.51312" lon="2.18825">
        <ele>1034.52</ele>
        <time>2016-07-01T08:39:20Z</time>
      </trkpt>
      <trkpt lat="42.51312" lon="2.1883">
        <ele>1034.04</ele>
        <time>2016-07-01T08:39:23Z</time>
      </trkpt>
      <trkpt lat="42.51312" lon="2.18832">
        <ele>1034.04</ele>
        <time>2016-07-01T08:39:24Z</time>
      </trkpt>
      <trkpt lat="42.51312" lon="2.18835">
        <ele>1034.04</ele>
        <time>2016-07-01T08:39:26Z</time>
      </trkpt>
      <trkpt lat="42.51312" lon="2.18837">
        <ele>1034.04</ele>
        <time>2016-07-01T08:39:27Z</time>
      </trkpt>
      <trkpt lat="42.51313" lon="2.18839">
        <ele>1034.04</ele>
        <time>2016-07-01T08:39:28Z</time>
      </trkpt>
      <trkpt lat="42.51313" lon="2.18841">
        <ele>1033.55</ele>
        <time>2016-07-01T08:39:29Z</time>
      </trkpt>
      <trkpt lat="42.51313" lon="2.18843">
        <ele>1033.55</ele>
        <time>2016-07-01T08:39:30Z</time>
      </trkpt>
      <trkpt lat="42.51313" lon="2.18847">
        <ele>1033.55</ele>
        <time>2016-07-01T08:39:32Z</time>
      </trkpt>
      <trkpt lat="42.51313" lon="2.18849">
        <ele>1033.55</ele>
        <time>2016-07-01T08:39:33Z</time>
      </trkpt>
      <trkpt lat="42.51314" lon="2.18851">
        <ele>1033.07</ele>
        <time>2016-07-01T08:39:34Z</time>
      </trkpt>
      <trkpt lat="42.51314" lon="2.18853">
        <ele>1033.07</ele>
        <time>2016-07-01T08:39:35Z</time>
      </trkpt>
      <trkpt lat="42.51313" lon="2.18855">
        <ele>1033.07</ele>
        <time>2016-07-01T08:39:36Z</time>
      </trkpt>
      <trkpt lat="42.51313" lon="2.18858">
        <ele>1033.07</ele>
        <time>2016-07-01T08:39:37Z</time>
      </trkpt>
      <trkpt lat="42.51314" lon="2.1886">
        <ele>1033.07</ele>
        <time>2016-07-01T08:39:38Z</time>
      </trkpt>
      <trkpt lat="42.51314" lon="2.18863">
        <ele>1033.07</ele>
        <time>2016-07-01T08:39:39Z</time>
      </trkpt>
      <trkpt lat="42.51314" lon="2.18865">
        <ele>1032.59</ele>
        <time>2016-07-01T08:39:40Z</time>
      </trkpt>
      <trkpt lat="42.51314" lon="2.18868">
        <ele>1032.59</ele>
        <time>2016-07-01T08:39:41Z</time>
      </trkpt>
      <trkpt lat="42.51314" lon="2.18871">
        <ele>1032.59</ele>
        <time>2016-07-01T08:39:42Z</time>
      </trkpt>
      <trkpt lat="42.51314" lon="2.18873">
        <ele>1032.59</ele>
        <time>2016-07-01T08:39:43Z</time>
      </trkpt>
      <trkpt lat="42.51315" lon="2.18875">
        <ele>1032.59</ele>
        <time>2016-07-01T08:39:44Z</time>
      </trkpt>
      <trkpt lat="42.51315" lon="2.18878">
        <ele>1032.59</ele>
        <time>2016-07-01T08:39:45Z</time>
      </trkpt>
      <trkpt lat="42.51316" lon="2.1888">
        <ele>1032.59</ele>
        <time>2016-07-01T08:39:46Z</time>
      </trkpt>
      <trkpt lat="42.51316" lon="2.18882">
        <ele>1032.59</ele>
        <time>2016-07-01T08:39:47Z</time>
      </trkpt>
      <trkpt lat="42.51318" lon="2.1889">
        <ele>1032.11</ele>
        <time>2016-07-01T08:39:51Z</time>
      </trkpt>
      <trkpt lat="42.51319" lon="2.18892">
        <ele>1032.11</ele>
        <time>2016-07-01T08:39:52Z</time>
      </trkpt>
      <trkpt lat="42.5132" lon="2.18893">
        <ele>1032.11</ele>
        <time>2016-07-01T08:39:53Z</time>
      </trkpt>
      <trkpt lat="42.5132" lon="2.18895">
        <ele>1032.11</ele>
        <time>2016-07-01T08:39:54Z</time>
      </trkpt>
      <trkpt lat="42.51321" lon="2.18897">
        <ele>1032.11</ele>
        <time>2016-07-01T08:39:55Z</time>
      </trkpt>
      <trkpt lat="42.51322" lon="2.18898">
        <ele>1031.63</ele>
        <time>2016-07-01T08:39:56Z</time>
      </trkpt>
      <trkpt lat="42.51323" lon="2.189">
        <ele>1031.15</ele>
        <time>2016-07-01T08:39:57Z</time>
      </trkpt>
      <trkpt lat="42.51324" lon="2.18902">
        <ele>1031.15</ele>
        <time>2016-07-01T08:39:58Z</time>
      </trkpt>
      <trkpt lat="42.51324" lon="2.18903">
        <ele>1031.15</ele>
        <time>2016-07-01T08:39:59Z</time>
      </trkpt>
      <trkpt lat="42.51325" lon="2.18905">
        <ele>1031.15</ele>
        <time>2016-07-01T08:40:00Z</time>
      </trkpt>
      <trkpt lat="42.51325" lon="2.18908">
        <ele>1031.15</ele>
        <time>2016-07-01T08:40:01Z</time>
      </trkpt>
      <trkpt lat="42.51326" lon="2.1891">
        <ele>1030.67</ele>
        <time>2016-07-01T08:40:02Z</time>
      </trkpt>
      <trkpt lat="42.51327" lon="2.18912">
        <ele>1030.67</ele>
        <time>2016-07-01T08:40:03Z</time>
      </trkpt>
      <trkpt lat="42.51327" lon="2.18914">
        <ele>1030.67</ele>
        <time>2016-07-01T08:40:04Z</time>
      </trkpt>
      <trkpt lat="42.51328" lon="2.18916">
        <ele>1030.67</ele>
        <time>2016-07-01T08:40:05Z</time>
      </trkpt>
      <trkpt lat="42.51328" lon="2.18917">
        <ele>1030.67</ele>
        <time>2016-07-01T08:40:06Z</time>
      </trkpt>
      <trkpt lat="42.51329" lon="2.18919">
        <ele>1030.67</ele>
        <time>2016-07-01T08:40:07Z</time>
      </trkpt>
      <trkpt lat="42.51329" lon="2.18921">
        <ele>1030.19</ele>
        <time>2016-07-01T08:40:08Z</time>
      </trkpt>
      <trkpt lat="42.51331" lon="2.18923">
        <ele>1030.19</ele>
        <time>2016-07-01T08:40:10Z</time>
      </trkpt>
      <trkpt lat="42.51331" lon="2.18925">
        <ele>1030.19</ele>
        <time>2016-07-01T08:40:11Z</time>
      </trkpt>
      <trkpt lat="42.51331" lon="2.18927">
        <ele>1030.19</ele>
        <time>2016-07-01T08:40:12Z</time>
      </trkpt>
      <trkpt lat="42.51331" lon="2.18929">
        <ele>1030.19</ele>
        <time>2016-07-01T08:40:13Z</time>
      </trkpt>
      <trkpt lat="42.51331" lon="2.18932">
        <ele>1030.19</ele>
        <time>2016-07-01T08:40:14Z</time>
      </trkpt>
      <trkpt lat="42.51333" lon="2.18934">
        <ele>1029.71</ele>
        <time>2016-07-01T08:40:15Z</time>
      </trkpt>
      <trkpt lat="42.51334" lon="2.18935">
        <ele>1029.71</ele>
        <time>2016-07-01T08:40:16Z</time>
      </trkpt>
      <trkpt lat="42.51333" lon="2.18938">
        <ele>1029.71</ele>
        <time>2016-07-01T08:40:17Z</time>
      </trkpt>
      <trkpt lat="42.51334" lon="2.18941">
        <ele>1029.71</ele>
        <time>2016-07-01T08:40:18Z</time>
      </trkpt>
      <trkpt lat="42.51335" lon="2.18943">
        <ele>1029.71</ele>
        <time>2016-07-01T08:40:19Z</time>
      </trkpt>
      <trkpt lat="42.51335" lon="2.18945">
        <ele>1029.71</ele>
        <time>2016-07-01T08:40:20Z</time>
      </trkpt>
      <trkpt lat="42.51336" lon="2.18948">
        <ele>1028.75</ele>
        <time>2016-07-01T08:40:21Z</time>
      </trkpt>
      <trkpt lat="42.51337" lon="2.18949">
        <ele>1029.23</ele>
        <time>2016-07-01T08:40:22Z</time>
      </trkpt>
      <trkpt lat="42.51337" lon="2.18951">
        <ele>1029.23</ele>
        <time>2016-07-01T08:40:23Z</time>
      </trkpt>
      <trkpt lat="42.51337" lon="2.18954">
        <ele>1028.75</ele>
        <time>2016-07-01T08:40:24Z</time>
      </trkpt>
      <trkpt lat="42.51338" lon="2.18956">
        <ele>1028.75</ele>
        <time>2016-07-01T08:40:25Z</time>
      </trkpt>
      <trkpt lat="42.5134" lon="2.18961">
        <ele>1028.27</ele>
        <time>2016-07-01T08:40:28Z</time>
      </trkpt>
      <trkpt lat="42.5134" lon="2.18963">
        <ele>1028.27</ele>
        <time>2016-07-01T08:40:29Z</time>
      </trkpt>
      <trkpt lat="42.5134" lon="2.18965">
        <ele>1028.27</ele>
        <time>2016-07-01T08:40:30Z</time>
      </trkpt>
      <trkpt lat="42.51341" lon="2.18967">
        <ele>1028.27</ele>
        <time>2016-07-01T08:40:31Z</time>
      </trkpt>
      <trkpt lat="42.51341" lon="2.18969">
        <ele>1028.27</ele>
        <time>2016-07-01T08:40:32Z</time>
      </trkpt>
      <trkpt lat="42.51342" lon="2.18971">
        <ele>1028.27</ele>
        <time>2016-07-01T08:40:33Z</time>
      </trkpt>
      <trkpt lat="42.51342" lon="2.18973">
        <ele>1028.27</ele>
        <time>2016-07-01T08:40:34Z</time>
      </trkpt>
      <trkpt lat="42.51342" lon="2.18975">
        <ele>1027.79</ele>
        <time>2016-07-01T08:40:35Z</time>
      </trkpt>
      <trkpt lat="42.51343" lon="2.18977">
        <ele>1027.79</ele>
        <time>2016-07-01T08:40:36Z</time>
      </trkpt>
      <trkpt lat="42.51344" lon="2.18981">
        <ele>1027.79</ele>
        <time>2016-07-01T08:40:38Z</time>
      </trkpt>
      <trkpt lat="42.51345" lon="2.18983">
        <ele>1027.79</ele>
        <time>2016-07-01T08:40:39Z</time>
      </trkpt>
      <trkpt lat="42.51346" lon="2.18985">
        <ele>1027.79</ele>
        <time>2016-07-01T08:40:40Z</time>
      </trkpt>
      <trkpt lat="42.51346" lon="2.18987">
        <ele>1027.79</ele>
        <time>2016-07-01T08:40:41Z</time>
      </trkpt>
      <trkpt lat="42.51348" lon="2.18988">
        <ele>1027.79</ele>
        <time>2016-07-01T08:40:42Z</time>
      </trkpt>
      <trkpt lat="42.51348" lon="2.1899">
        <ele>1027.31</ele>
        <time>2016-07-01T08:40:43Z</time>
      </trkpt>
      <trkpt lat="42.51349" lon="2.18992">
        <ele>1027.31</ele>
        <time>2016-07-01T08:40:44Z</time>
      </trkpt>
      <trkpt lat="42.51349" lon="2.18993">
        <ele>1027.31</ele>
        <time>2016-07-01T08:40:45Z</time>
      </trkpt>
      <trkpt lat="42.5135" lon="2.18995">
        <ele>1027.31</ele>
        <time>2016-07-01T08:40:46Z</time>
      </trkpt>
      <trkpt lat="42.51351" lon="2.18996">
        <ele>1027.31</ele>
        <time>2016-07-01T08:40:47Z</time>
      </trkpt>
      <trkpt lat="42.51351" lon="2.18998">
        <ele>1027.31</ele>
        <time>2016-07-01T08:40:48Z</time>
      </trkpt>
      <trkpt lat="42.51352" lon="2.19">
        <ele>1027.31</ele>
        <time>2016-07-01T08:40:49Z</time>
      </trkpt>
      <trkpt lat="42.51352" lon="2.19002">
        <ele>1026.83</ele>
        <time>2016-07-01T08:40:50Z</time>
      </trkpt>
      <trkpt lat="42.51353" lon="2.19004">
        <ele>1026.83</ele>
        <time>2016-07-01T08:40:51Z</time>
      </trkpt>
      <trkpt lat="42.51353" lon="2.19007">
        <ele>1026.83</ele>
        <time>2016-07-01T08:40:52Z</time>
      </trkpt>
      <trkpt lat="42.51353" lon="2.19009">
        <ele>1026.83</ele>
        <time>2016-07-01T08:40:53Z</time>
      </trkpt>
      <trkpt lat="42.51353" lon="2.19012">
        <ele>1026.34</ele>
        <time>2016-07-01T08:40:54Z</time>
      </trkpt>
      <trkpt lat="42.51354" lon="2.19014">
        <ele>1026.34</ele>
        <time>2016-07-01T08:40:55Z</time>
      </trkpt>
      <trkpt lat="42.51354" lon="2.19016">
        <ele>1026.34</ele>
        <time>2016-07-01T08:40:56Z</time>
      </trkpt>
      <trkpt lat="42.51354" lon="2.19018">
        <ele>1026.34</ele>
        <time>2016-07-01T08:40:57Z</time>
      </trkpt>
      <trkpt lat="42.51355" lon="2.1902">
        <ele>1026.34</ele>
        <time>2016-07-01T08:40:58Z</time>
      </trkpt>
      <trkpt lat="42.51355" lon="2.19022">
        <ele>1026.34</ele>
        <time>2016-07-01T08:40:59Z</time>
      </trkpt>
      <trkpt lat="42.51355" lon="2.19025">
        <ele>1026.34</ele>
        <time>2016-07-01T08:41:00Z</time>
      </trkpt>
      <trkpt lat="42.51355" lon="2.19026">
        <ele>1026.34</ele>
        <time>2016-07-01T08:41:01Z</time>
      </trkpt>
      <trkpt lat="42.51356" lon="2.19028">
        <ele>1025.38</ele>
        <time>2016-07-01T08:41:02Z</time>
      </trkpt>
      <trkpt lat="42.51356" lon="2.1903">
        <ele>1025.38</ele>
        <time>2016-07-01T08:41:03Z</time>
      </trkpt>
      <trkpt lat="42.51356" lon="2.19031">
        <ele>1025.38</ele>
        <time>2016-07-01T08:41:04Z</time>
      </trkpt>
      <trkpt lat="42.51358" lon="2.19046">
        <ele>1024.9</ele>
        <time>2016-07-01T08:41:11Z</time>
      </trkpt>
      <trkpt lat="42.51358" lon="2.19048">
        <ele>1024.42</ele>
        <time>2016-07-01T08:41:12Z</time>
      </trkpt>
      <trkpt lat="42.51358" lon="2.19051">
        <ele>1024.42</ele>
        <time>2016-07-01T08:41:13Z</time>
      </trkpt>
      <trkpt lat="42.51358" lon="2.19053">
        <ele>1024.42</ele>
        <time>2016-07-01T08:41:14Z</time>
      </trkpt>
      <trkpt lat="42.51358" lon="2.19055">
        <ele>1024.42</ele>
        <time>2016-07-01T08:41:15Z</time>
      </trkpt>
      <trkpt lat="42.51358" lon="2.19057">
        <ele>1024.42</ele>
        <time>2016-07-01T08:41:16Z</time>
      </trkpt>
      <trkpt lat="42.51359" lon="2.19059">
        <ele>1023.94</ele>
        <time>2016-07-01T08:41:17Z</time>
      </trkpt>
      <trkpt lat="42.51359" lon="2.1906">
        <ele>1023.94</ele>
        <time>2016-07-01T08:41:18Z</time>
      </trkpt>
      <trkpt lat="42.51359" lon="2.19062">
        <ele>1023.94</ele>
        <time>2016-07-01T08:41:19Z</time>
      </trkpt>
      <trkpt lat="42.5136" lon="2.19064">
        <ele>1023.94</ele>
        <time>2016-07-01T08:41:20Z</time>
      </trkpt>
      <trkpt lat="42.5136" lon="2.19065">
        <ele>1023.94</ele>
        <time>2016-07-01T08:41:21Z</time>
      </trkpt>
      <trkpt lat="42.51361" lon="2.19067">
        <ele>1023.94</ele>
        <time>2016-07-01T08:41:22Z</time>
      </trkpt>
      <trkpt lat="42.51361" lon="2.19069">
        <ele>1023.94</ele>
        <time>2016-07-01T08:41:23Z</time>
      </trkpt>
      <trkpt lat="42.51362" lon="2.19071">
        <ele>1023.46</ele>
        <time>2016-07-01T08:41:24Z</time>
      </trkpt>
      <trkpt lat="42.51362" lon="2.19072">
        <ele>1023.46</ele>
        <time>2016-07-01T08:41:25Z</time>
      </trkpt>
      <trkpt lat="42.51363" lon="2.19074">
        <ele>1023.46</ele>
        <time>2016-07-01T08:41:26Z</time>
      </trkpt>
      <trkpt lat="42.51363" lon="2.19076">
        <ele>1023.46</ele>
        <time>2016-07-01T08:41:27Z</time>
      </trkpt>
      <trkpt lat="42.51363" lon="2.19078">
        <ele>1023.46</ele>
        <time>2016-07-01T08:41:28Z</time>
      </trkpt>
      <trkpt lat="42.51363" lon="2.1908">
        <ele>1023.46</ele>
        <time>2016-07-01T08:41:29Z</time>
      </trkpt>
      <trkpt lat="42.51364" lon="2.19083">
        <ele>1022.98</ele>
        <time>2016-07-01T08:41:30Z</time>
      </trkpt>
      <trkpt lat="42.51364" lon="2.19085">
        <ele>1022.98</ele>
        <time>2016-07-01T08:41:31Z</time>
      </trkpt>
      <trkpt lat="42.51365" lon="2.19087">
        <ele>1022.98</ele>
        <time>2016-07-01T08:41:32Z</time>
      </trkpt>
      <trkpt lat="42.51365" lon="2.1909">
        <ele>1022.98</ele>
        <time>2016-07-01T08:41:33Z</time>
      </trkpt>
      <trkpt lat="42.51368" lon="2.19098">
        <ele>1022.5</ele>
        <time>2016-07-01T08:41:37Z</time>
      </trkpt>
      <trkpt lat="42.51369" lon="2.19102">
        <ele>1022.5</ele>
        <time>2016-07-01T08:41:39Z</time>
      </trkpt>
      <trkpt lat="42.5137" lon="2.19104">
        <ele>1022.5</ele>
        <time>2016-07-01T08:41:40Z</time>
      </trkpt>
      <trkpt lat="42.51372" lon="2.19107">
        <ele>1021.54</ele>
        <time>2016-07-01T08:41:42Z</time>
      </trkpt>
      <trkpt lat="42.51373" lon="2.19108">
        <ele>1021.54</ele>
        <time>2016-07-01T08:41:43Z</time>
      </trkpt>
      <trkpt lat="42.51373" lon="2.1911">
        <ele>1021.54</ele>
        <time>2016-07-01T08:41:44Z</time>
      </trkpt>
      <trkpt lat="42.51374" lon="2.19112">
        <ele>1021.06</ele>
        <time>2016-07-01T08:41:45Z</time>
      </trkpt>
      <trkpt lat="42.51375" lon="2.19114">
        <ele>1021.06</ele>
        <time>2016-07-01T08:41:46Z</time>
      </trkpt>
      <trkpt lat="42.51376" lon="2.19115">
        <ele>1021.06</ele>
        <time>2016-07-01T08:41:47Z</time>
      </trkpt>
      <trkpt lat="42.51377" lon="2.19117">
        <ele>1021.06</ele>
        <time>2016-07-01T08:41:48Z</time>
      </trkpt>
      <trkpt lat="42.51378" lon="2.19119">
        <ele>1021.06</ele>
        <time>2016-07-01T08:41:49Z</time>
      </trkpt>
      <trkpt lat="42.51382" lon="2.19123">
        <ele>1020.58</ele>
        <time>2016-07-01T08:41:52Z</time>
      </trkpt>
      <trkpt lat="42.51387" lon="2.1913">
        <ele>1020.1</ele>
        <time>2016-07-01T08:41:56Z</time>
      </trkpt>
      <trkpt lat="42.51388" lon="2.19131">
        <ele>1020.1</ele>
        <time>2016-07-01T08:41:57Z</time>
      </trkpt>
      <trkpt lat="42.5139" lon="2.19132">
        <ele>1020.1</ele>
        <time>2016-07-01T08:41:58Z</time>
      </trkpt>
      <trkpt lat="42.51391" lon="2.19134">
        <ele>1020.1</ele>
        <time>2016-07-01T08:41:59Z</time>
      </trkpt>
      <trkpt lat="42.51392" lon="2.19135">
        <ele>1019.62</ele>
        <time>2016-07-01T08:42:00Z</time>
      </trkpt>
      <trkpt lat="42.51393" lon="2.19136">
        <ele>1019.62</ele>
        <time>2016-07-01T08:42:01Z</time>
      </trkpt>
      <trkpt lat="42.51394" lon="2.19137">
        <ele>1019.62</ele>
        <time>2016-07-01T08:42:02Z</time>
      </trkpt>
      <trkpt lat="42.51395" lon="2.19138">
        <ele>1019.62</ele>
        <time>2016-07-01T08:42:03Z</time>
      </trkpt>
      <trkpt lat="42.51396" lon="2.1914">
        <ele>1019.62</ele>
        <time>2016-07-01T08:42:04Z</time>
      </trkpt>
      <trkpt lat="42.51398" lon="2.19141">
        <ele>1019.13</ele>
        <time>2016-07-01T08:42:05Z</time>
      </trkpt>
      <trkpt lat="42.51398" lon="2.19142">
        <ele>1019.13</ele>
        <time>2016-07-01T08:42:06Z</time>
      </trkpt>
      <trkpt lat="42.51399" lon="2.19144">
        <ele>1019.13</ele>
        <time>2016-07-01T08:42:07Z</time>
      </trkpt>
      <trkpt lat="42.514" lon="2.19146">
        <ele>1019.13</ele>
        <time>2016-07-01T08:42:08Z</time>
      </trkpt>
      <trkpt lat="42.51404" lon="2.19151">
        <ele>1019.13</ele>
        <time>2016-07-01T08:42:11Z</time>
      </trkpt>
      <trkpt lat="42.51405" lon="2.19153">
        <ele>1018.17</ele>
        <time>2016-07-01T08:42:12Z</time>
      </trkpt>
      <trkpt lat="42.51406" lon="2.19155">
        <ele>1018.65</ele>
        <time>2016-07-01T08:42:13Z</time>
      </trkpt>
      <trkpt lat="42.51407" lon="2.19157">
        <ele>1018.65</ele>
        <time>2016-07-01T08:42:14Z</time>
      </trkpt>
      <trkpt lat="42.51408" lon="2.19158">
        <ele>1018.65</ele>
        <time>2016-07-01T08:42:15Z</time>
      </trkpt>
      <trkpt lat="42.51409" lon="2.1916">
        <ele>1018.65</ele>
        <time>2016-07-01T08:42:16Z</time>
      </trkpt>
      <trkpt lat="42.5141" lon="2.19161">
        <ele>1018.17</ele>
        <time>2016-07-01T08:42:17Z</time>
      </trkpt>
      <trkpt lat="42.51411" lon="2.19162">
        <ele>1018.17</ele>
        <time>2016-07-01T08:42:18Z</time>
      </trkpt>
      <trkpt lat="42.51412" lon="2.19164">
        <ele>1018.17</ele>
        <time>2016-07-01T08:42:19Z</time>
      </trkpt>
      <trkpt lat="42.51413" lon="2.19165">
        <ele>1017.69</ele>
        <time>2016-07-01T08:42:20Z</time>
      </trkpt>
      <trkpt lat="42.51414" lon="2.19166">
        <ele>1017.69</ele>
        <time>2016-07-01T08:42:21Z</time>
      </trkpt>
      <trkpt lat="42.51415" lon="2.19167">
        <ele>1017.69</ele>
        <time>2016-07-01T08:42:22Z</time>
      </trkpt>
      <trkpt lat="42.51416" lon="2.19169">
        <ele>1017.69</ele>
        <time>2016-07-01T08:42:23Z</time>
      </trkpt>
      <trkpt lat="42.51417" lon="2.1917">
        <ele>1017.69</ele>
        <time>2016-07-01T08:42:24Z</time>
      </trkpt>
      <trkpt lat="42.51417" lon="2.19172">
        <ele>1017.69</ele>
        <time>2016-07-01T08:42:25Z</time>
      </trkpt>
      <trkpt lat="42.5142" lon="2.19178">
        <ele>1017.21</ele>
        <time>2016-07-01T08:42:28Z</time>
      </trkpt>
      <trkpt lat="42.51421" lon="2.1918">
        <ele>1017.21</ele>
        <time>2016-07-01T08:42:29Z</time>
      </trkpt>
      <trkpt lat="42.51422" lon="2.19182">
        <ele>1017.21</ele>
        <time>2016-07-01T08:42:30Z</time>
      </trkpt>
      <trkpt lat="42.51423" lon="2.19184">
        <ele>1017.21</ele>
        <time>2016-07-01T08:42:31Z</time>
      </trkpt>
      <trkpt lat="42.51424" lon="2.19186">
        <ele>1017.21</ele>
        <time>2016-07-01T08:42:32Z</time>
      </trkpt>
      <trkpt lat="42.51424" lon="2.19188">
        <ele>1017.21</ele>
        <time>2016-07-01T08:42:33Z</time>
      </trkpt>
      <trkpt lat="42.51426" lon="2.1919">
        <ele>1017.21</ele>
        <time>2016-07-01T08:42:34Z</time>
      </trkpt>
      <trkpt lat="42.51426" lon="2.19192">
        <ele>1017.21</ele>
        <time>2016-07-01T08:42:35Z</time>
      </trkpt>
      <trkpt lat="42.51427" lon="2.19194">
        <ele>1017.21</ele>
        <time>2016-07-01T08:42:36Z</time>
      </trkpt>
      <trkpt lat="42.51428" lon="2.19196">
        <ele>1017.21</ele>
        <time>2016-07-01T08:42:37Z</time>
      </trkpt>
      <trkpt lat="42.51429" lon="2.19197">
        <ele>1016.73</ele>
        <time>2016-07-01T08:42:38Z</time>
      </trkpt>
      <trkpt lat="42.51429" lon="2.19199">
        <ele>1016.73</ele>
        <time>2016-07-01T08:42:39Z</time>
      </trkpt>
      <trkpt lat="42.5143" lon="2.19201">
        <ele>1016.73</ele>
        <time>2016-07-01T08:42:40Z</time>
      </trkpt>
      <trkpt lat="42.51431" lon="2.19202">
        <ele>1016.73</ele>
        <time>2016-07-01T08:42:41Z</time>
      </trkpt>
      <trkpt lat="42.51434" lon="2.19208">
        <ele>1016.25</ele>
        <time>2016-07-01T08:42:45Z</time>
      </trkpt>
      <trkpt lat="42.51434" lon="2.19211">
        <ele>1016.25</ele>
        <time>2016-07-01T08:42:46Z</time>
      </trkpt>
      <trkpt lat="42.51434" lon="2.19213">
        <ele>1016.25</ele>
        <time>2016-07-01T08:42:47Z</time>
      </trkpt>
      <trkpt lat="42.51438" lon="2.19223">
        <ele>1015.77</ele>
        <time>2016-07-01T08:42:52Z</time>
      </trkpt>
      <trkpt lat="42.51439" lon="2.19225">
        <ele>1014.81</ele>
        <time>2016-07-01T08:42:53Z</time>
      </trkpt>
      <trkpt lat="42.51439" lon="2.19226">
        <ele>1015.29</ele>
        <time>2016-07-01T08:42:54Z</time>
      </trkpt>
      <trkpt lat="42.5144" lon="2.19228">
        <ele>1015.29</ele>
        <time>2016-07-01T08:42:55Z</time>
      </trkpt>
      <trkpt lat="42.5144" lon="2.1923">
        <ele>1015.29</ele>
        <time>2016-07-01T08:42:56Z</time>
      </trkpt>
      <trkpt lat="42.51442" lon="2.19231">
        <ele>1014.33</ele>
        <time>2016-07-01T08:42:57Z</time>
      </trkpt>
      <trkpt lat="42.51443" lon="2.19232">
        <ele>1014.33</ele>
        <time>2016-07-01T08:42:58Z</time>
      </trkpt>
      <trkpt lat="42.51444" lon="2.19233">
        <ele>1014.33</ele>
        <time>2016-07-01T08:42:59Z</time>
      </trkpt>
      <trkpt lat="42.51445" lon="2.19235">
        <ele>1014.33</ele>
        <time>2016-07-01T08:43:00Z</time>
      </trkpt>
      <trkpt lat="42.51446" lon="2.19236">
        <ele>1014.33</ele>
        <time>2016-07-01T08:43:01Z</time>
      </trkpt>
      <trkpt lat="42.51447" lon="2.19237">
        <ele>1013.85</ele>
        <time>2016-07-01T08:43:02Z</time>
      </trkpt>
      <trkpt lat="42.51448" lon="2.19239">
        <ele>1013.85</ele>
        <time>2016-07-01T08:43:03Z</time>
      </trkpt>
      <trkpt lat="42.51449" lon="2.1924">
        <ele>1013.85</ele>
        <time>2016-07-01T08:43:04Z</time>
      </trkpt>
      <trkpt lat="42.5145" lon="2.19242">
        <ele>1013.85</ele>
        <time>2016-07-01T08:43:05Z</time>
      </trkpt>
      <trkpt lat="42.51451" lon="2.19243">
        <ele>1013.37</ele>
        <time>2016-07-01T08:43:06Z</time>
      </trkpt>
      <trkpt lat="42.51453" lon="2.19244">
        <ele>1013.37</ele>
        <time>2016-07-01T08:43:07Z</time>
      </trkpt>
      <trkpt lat="42.51455" lon="2.19245">
        <ele>1013.37</ele>
        <time>2016-07-01T08:43:08Z</time>
      </trkpt>
      <trkpt lat="42.51456" lon="2.19246">
        <ele>1013.37</ele>
        <time>2016-07-01T08:43:09Z</time>
      </trkpt>
      <trkpt lat="42.51469" lon="2.19255">
        <ele>1012.41</ele>
        <time>2016-07-01T08:43:19Z</time>
      </trkpt>
      <trkpt lat="42.51483" lon="2.19272">
        <ele>1010.96</ele>
        <time>2016-07-01T08:43:31Z</time>
      </trkpt>
      <trkpt lat="42.51497" lon="2.19295">
        <ele>1009.52</ele>
        <time>2016-07-01T08:43:46Z</time>
      </trkpt>
      <trkpt lat="42.51502" lon="2.19305">
        <ele>1009.04</ele>
        <time>2016-07-01T08:43:52Z</time>
      </trkpt>
      <trkpt lat="42.51502" lon="2.19307">
        <ele>1009.04</ele>
        <time>2016-07-01T08:43:53Z</time>
      </trkpt>
      <trkpt lat="42.51503" lon="2.19309">
        <ele>1009.04</ele>
        <time>2016-07-01T08:43:54Z</time>
      </trkpt>
      <trkpt lat="42.51503" lon="2.19311">
        <ele>1009.04</ele>
        <time>2016-07-01T08:43:55Z</time>
      </trkpt>
      <trkpt lat="42.51503" lon="2.19313">
        <ele>1009.04</ele>
        <time>2016-07-01T08:43:56Z</time>
      </trkpt>
      <trkpt lat="42.51504" lon="2.19315">
        <ele>1008.56</ele>
        <time>2016-07-01T08:43:57Z</time>
      </trkpt>
      <trkpt lat="42.51504" lon="2.19316">
        <ele>1008.56</ele>
        <time>2016-07-01T08:43:58Z</time>
      </trkpt>
      <trkpt lat="42.51504" lon="2.19318">
        <ele>1008.56</ele>
        <time>2016-07-01T08:43:59Z</time>
      </trkpt>
      <trkpt lat="42.51505" lon="2.1932">
        <ele>1008.56</ele>
        <time>2016-07-01T08:44:00Z</time>
      </trkpt>
      <trkpt lat="42.51506" lon="2.19335">
        <ele>1007.6</ele>
        <time>2016-07-01T08:44:07Z</time>
      </trkpt>
      <trkpt lat="42.51506" lon="2.19337">
        <ele>1007.6</ele>
        <time>2016-07-01T08:44:08Z</time>
      </trkpt>
      <trkpt lat="42.51506" lon="2.19339">
        <ele>1007.6</ele>
        <time>2016-07-01T08:44:09Z</time>
      </trkpt>
      <trkpt lat="42.51506" lon="2.1934">
        <ele>1007.6</ele>
        <time>2016-07-01T08:44:10Z</time>
      </trkpt>
      <trkpt lat="42.51505" lon="2.19342">
        <ele>1007.12</ele>
        <time>2016-07-01T08:44:11Z</time>
      </trkpt>
      <trkpt lat="42.51505" lon="2.19344">
        <ele>1007.12</ele>
        <time>2016-07-01T08:44:12Z</time>
      </trkpt>
      <trkpt lat="42.51505" lon="2.19346">
        <ele>1007.12</ele>
        <time>2016-07-01T08:44:13Z</time>
      </trkpt>
      <trkpt lat="42.51505" lon="2.19348">
        <ele>1007.12</ele>
        <time>2016-07-01T08:44:14Z</time>
      </trkpt>
      <trkpt lat="42.51504" lon="2.19352">
        <ele>1006.64</ele>
        <time>2016-07-01T08:44:16Z</time>
      </trkpt>
      <trkpt lat="42.51504" lon="2.19354">
        <ele>1006.64</ele>
        <time>2016-07-01T08:44:17Z</time>
      </trkpt>
      <trkpt lat="42.51503" lon="2.19357">
        <ele>1006.64</ele>
        <time>2016-07-01T08:44:18Z</time>
      </trkpt>
      <trkpt lat="42.51503" lon="2.19359">
        <ele>1005.68</ele>
        <time>2016-07-01T08:44:19Z</time>
      </trkpt>
      <trkpt lat="42.51503" lon="2.19361">
        <ele>1006.16</ele>
        <time>2016-07-01T08:44:20Z</time>
      </trkpt>
      <trkpt lat="42.51502" lon="2.19363">
        <ele>1006.16</ele>
        <time>2016-07-01T08:44:21Z</time>
      </trkpt>
      <trkpt lat="42.51502" lon="2.19365">
        <ele>1006.16</ele>
        <time>2016-07-01T08:44:22Z</time>
      </trkpt>
      <trkpt lat="42.51502" lon="2.1937">
        <ele>1005.68</ele>
        <time>2016-07-01T08:44:25Z</time>
      </trkpt>
      <trkpt lat="42.51501" lon="2.19372">
        <ele>1005.68</ele>
        <time>2016-07-01T08:44:26Z</time>
      </trkpt>
      <trkpt lat="42.51501" lon="2.19382">
        <ele>1004.23</ele>
        <time>2016-07-01T08:44:31Z</time>
      </trkpt>
      <trkpt lat="42.51501" lon="2.19383">
        <ele>1004.23</ele>
        <time>2016-07-01T08:44:32Z</time>
      </trkpt>
      <trkpt lat="42.51501" lon="2.19386">
        <ele>1004.23</ele>
        <time>2016-07-01T08:44:33Z</time>
      </trkpt>
      <trkpt lat="42.51501" lon="2.19388">
        <ele>1004.23</ele>
        <time>2016-07-01T08:44:34Z</time>
      </trkpt>
      <trkpt lat="42.51501" lon="2.1939">
        <ele>1003.75</ele>
        <time>2016-07-01T08:44:35Z</time>
      </trkpt>
      <trkpt lat="42.51501" lon="2.19392">
        <ele>1003.75</ele>
        <time>2016-07-01T08:44:36Z</time>
      </trkpt>
      <trkpt lat="42.51501" lon="2.19394">
        <ele>1003.75</ele>
        <time>2016-07-01T08:44:37Z</time>
      </trkpt>
      <trkpt lat="42.51502" lon="2.19395">
        <ele>1003.75</ele>
        <time>2016-07-01T08:44:38Z</time>
      </trkpt>
      <trkpt lat="42.51502" lon="2.19397">
        <ele>1003.75</ele>
        <time>2016-07-01T08:44:39Z</time>
      </trkpt>
      <trkpt lat="42.51502" lon="2.19399">
        <ele>1003.27</ele>
        <time>2016-07-01T08:44:40Z</time>
      </trkpt>
      <trkpt lat="42.51503" lon="2.19403">
        <ele>1003.27</ele>
        <time>2016-07-01T08:44:43Z</time>
      </trkpt>
      <trkpt lat="42.51503" lon="2.19406">
        <ele>1002.79</ele>
        <time>2016-07-01T08:44:44Z</time>
      </trkpt>
      <trkpt lat="42.51504" lon="2.19408">
        <ele>1002.79</ele>
        <time>2016-07-01T08:44:45Z</time>
      </trkpt>
      <trkpt lat="42.51504" lon="2.1941">
        <ele>1002.79</ele>
        <time>2016-07-01T08:44:46Z</time>
      </trkpt>
      <trkpt lat="42.51505" lon="2.19412">
        <ele>1002.79</ele>
        <time>2016-07-01T08:44:47Z</time>
      </trkpt>
      <trkpt lat="42.51505" lon="2.19414">
        <ele>1002.79</ele>
        <time>2016-07-01T08:44:48Z</time>
      </trkpt>
      <trkpt lat="42.51507" lon="2.19423">
        <ele>1002.31</ele>
        <time>2016-07-01T08:44:52Z</time>
      </trkpt>
      <trkpt lat="42.51507" lon="2.19426">
        <ele>1001.35</ele>
        <time>2016-07-01T08:44:53Z</time>
      </trkpt>
      <trkpt lat="42.51507" lon="2.19428">
        <ele>1001.83</ele>
        <time>2016-07-01T08:44:54Z</time>
      </trkpt>
      <trkpt lat="42.51508" lon="2.1943">
        <ele>1001.83</ele>
        <time>2016-07-01T08:44:55Z</time>
      </trkpt>
      <trkpt lat="42.51509" lon="2.19432">
        <ele>1001.83</ele>
        <time>2016-07-01T08:44:56Z</time>
      </trkpt>
      <trkpt lat="42.51509" lon="2.19434">
        <ele>1000.87</ele>
        <time>2016-07-01T08:44:57Z</time>
      </trkpt>
      <trkpt lat="42.5151" lon="2.19436">
        <ele>1000.87</ele>
        <time>2016-07-01T08:44:58Z</time>
      </trkpt>
      <trkpt lat="42.51511" lon="2.19437">
        <ele>1000.87</ele>
        <time>2016-07-01T08:44:59Z</time>
      </trkpt>
      <trkpt lat="42.51511" lon="2.19439">
        <ele>1000.87</ele>
        <time>2016-07-01T08:45:00Z</time>
      </trkpt>
      <trkpt lat="42.51512" lon="2.19441">
        <ele>1000.39</ele>
        <time>2016-07-01T08:45:01Z</time>
      </trkpt>
      <trkpt lat="42.51513" lon="2.19443">
        <ele>1000.39</ele>
        <time>2016-07-01T08:45:02Z</time>
      </trkpt>
      <trkpt lat="42.51513" lon="2.19445">
        <ele>1000.39</ele>
        <time>2016-07-01T08:45:03Z</time>
      </trkpt>
      <trkpt lat="42.51513" lon="2.19446">
        <ele>1000.39</ele>
        <time>2016-07-01T08:45:04Z</time>
      </trkpt>
      <trkpt lat="42.51514" lon="2.19448">
        <ele>1000.39</ele>
        <time>2016-07-01T08:45:05Z</time>
      </trkpt>
      <trkpt lat="42.51515" lon="2.19449">
        <ele>999.91</ele>
        <time>2016-07-01T08:45:06Z</time>
      </trkpt>
      <trkpt lat="42.51515" lon="2.1945">
        <ele>999.91</ele>
        <time>2016-07-01T08:45:07Z</time>
      </trkpt>
      <trkpt lat="42.51516" lon="2.19452">
        <ele>999.91</ele>
        <time>2016-07-01T08:45:08Z</time>
      </trkpt>
      <trkpt lat="42.51517" lon="2.19454">
        <ele>999.91</ele>
        <time>2016-07-01T08:45:09Z</time>
      </trkpt>
      <trkpt lat="42.51518" lon="2.19455">
        <ele>999.91</ele>
        <time>2016-07-01T08:45:10Z</time>
      </trkpt>
      <trkpt lat="42.51519" lon="2.19456">
        <ele>999.43</ele>
        <time>2016-07-01T08:45:11Z</time>
      </trkpt>
      <trkpt lat="42.51521" lon="2.19458">
        <ele>999.43</ele>
        <time>2016-07-01T08:45:12Z</time>
      </trkpt>
      <trkpt lat="42.51522" lon="2.1946">
        <ele>999.43</ele>
        <time>2016-07-01T08:45:13Z</time>
      </trkpt>
      <trkpt lat="42.51525" lon="2.19462">
        <ele>999.43</ele>
        <time>2016-07-01T08:45:15Z</time>
      </trkpt>
      <trkpt lat="42.51526" lon="2.19463">
        <ele>999.43</ele>
        <time>2016-07-01T08:45:16Z</time>
      </trkpt>
      <trkpt lat="42.51532" lon="2.19468">
        <ele>998.95</ele>
        <time>2016-07-01T08:45:20Z</time>
      </trkpt>
      <trkpt lat="42.51533" lon="2.19469">
        <ele>998.95</ele>
        <time>2016-07-01T08:45:21Z</time>
      </trkpt>
      <trkpt lat="42.51534" lon="2.1947">
        <ele>997.99</ele>
        <time>2016-07-01T08:45:22Z</time>
      </trkpt>
      <trkpt lat="42.51536" lon="2.19471">
        <ele>998.47</ele>
        <time>2016-07-01T08:45:23Z</time>
      </trkpt>
      <trkpt lat="42.51537" lon="2.19472">
        <ele>998.47</ele>
        <time>2016-07-01T08:45:24Z</time>
      </trkpt>
      <trkpt lat="42.51538" lon="2.19473">
        <ele>998.47</ele>
        <time>2016-07-01T08:45:25Z</time>
      </trkpt>
      <trkpt lat="42.51539" lon="2.19474">
        <ele>998.47</ele>
        <time>2016-07-01T08:45:26Z</time>
      </trkpt>
      <trkpt lat="42.5154" lon="2.19475">
        <ele>998.47</ele>
        <time>2016-07-01T08:45:27Z</time>
      </trkpt>
      <trkpt lat="42.51542" lon="2.19476">
        <ele>997.51</ele>
        <time>2016-07-01T08:45:28Z</time>
      </trkpt>
      <trkpt lat="42.51543" lon="2.19477">
        <ele>997.51</ele>
        <time>2016-07-01T08:45:29Z</time>
      </trkpt>
      <trkpt lat="42.51544" lon="2.19478">
        <ele>997.51</ele>
        <time>2016-07-01T08:45:30Z</time>
      </trkpt>
      <trkpt lat="42.51545" lon="2.1948">
        <ele>997.51</ele>
        <time>2016-07-01T08:45:31Z</time>
      </trkpt>
      <trkpt lat="42.51547" lon="2.19481">
        <ele>997.51</ele>
        <time>2016-07-01T08:45:32Z</time>
      </trkpt>
      <trkpt lat="42.51548" lon="2.19482">
        <ele>997.51</ele>
        <time>2016-07-01T08:45:33Z</time>
      </trkpt>
      <trkpt lat="42.51549" lon="2.19484">
        <ele>997.02</ele>
        <time>2016-07-01T08:45:34Z</time>
      </trkpt>
      <trkpt lat="42.51558" lon="2.19491">
        <ele>996.54</ele>
        <time>2016-07-01T08:45:40Z</time>
      </trkpt>
      <trkpt lat="42.51559" lon="2.19493">
        <ele>996.54</ele>
        <time>2016-07-01T08:45:41Z</time>
      </trkpt>
      <trkpt lat="42.5156" lon="2.19494">
        <ele>996.54</ele>
        <time>2016-07-01T08:45:42Z</time>
      </trkpt>
      <trkpt lat="42.51562" lon="2.19495">
        <ele>996.54</ele>
        <time>2016-07-01T08:45:43Z</time>
      </trkpt>
      <trkpt lat="42.51563" lon="2.19496">
        <ele>996.06</ele>
        <time>2016-07-01T08:45:44Z</time>
      </trkpt>
      <trkpt lat="42.51564" lon="2.19497">
        <ele>996.06</ele>
        <time>2016-07-01T08:45:45Z</time>
      </trkpt>
      <trkpt lat="42.51565" lon="2.19497">
        <ele>996.06</ele>
        <time>2016-07-01T08:45:46Z</time>
      </trkpt>
      <trkpt lat="42.51566" lon="2.19499">
        <ele>996.06</ele>
        <time>2016-07-01T08:45:47Z</time>
      </trkpt>
      <trkpt lat="42.51568" lon="2.195">
        <ele>996.06</ele>
        <time>2016-07-01T08:45:48Z</time>
      </trkpt>
      <trkpt lat="42.51569" lon="2.19501">
        <ele>996.06</ele>
        <time>2016-07-01T08:45:49Z</time>
      </trkpt>
      <trkpt lat="42.5157" lon="2.19502">
        <ele>995.58</ele>
        <time>2016-07-01T08:45:50Z</time>
      </trkpt>
      <trkpt lat="42.51571" lon="2.19503">
        <ele>995.58</ele>
        <time>2016-07-01T08:45:51Z</time>
      </trkpt>
      <trkpt lat="42.51572" lon="2.19504">
        <ele>995.58</ele>
        <time>2016-07-01T08:45:52Z</time>
      </trkpt>
      <trkpt lat="42.51592" lon="2.19519">
        <ele>994.14</ele>
        <time>2016-07-01T08:46:07Z</time>
      </trkpt>
      <trkpt lat="42.51594" lon="2.1952">
        <ele>993.66</ele>
        <time>2016-07-01T08:46:08Z</time>
      </trkpt>
      <trkpt lat="42.51604" lon="2.19527">
        <ele>993.18</ele>
        <time>2016-07-01T08:46:16Z</time>
      </trkpt>
      <trkpt lat="42.51605" lon="2.19528">
        <ele>993.18</ele>
        <time>2016-07-01T08:46:17Z</time>
      </trkpt>
      <trkpt lat="42.51607" lon="2.19529">
        <ele>993.18</ele>
        <time>2016-07-01T08:46:18Z</time>
      </trkpt>
      <trkpt lat="42.51608" lon="2.1953">
        <ele>992.7</ele>
        <time>2016-07-01T08:46:19Z</time>
      </trkpt>
      <trkpt lat="42.51609" lon="2.1953">
        <ele>992.7</ele>
        <time>2016-07-01T08:46:20Z</time>
      </trkpt>
      <trkpt lat="42.51619" lon="2.19534">
        <ele>992.22</ele>
        <time>2016-07-01T08:46:28Z</time>
      </trkpt>
      <trkpt lat="42.51621" lon="2.19534">
        <ele>992.22</ele>
        <time>2016-07-01T08:46:29Z</time>
      </trkpt>
      <trkpt lat="42.51622" lon="2.19535">
        <ele>992.22</ele>
        <time>2016-07-01T08:46:30Z</time>
      </trkpt>
      <trkpt lat="42.51624" lon="2.19535">
        <ele>991.26</ele>
        <time>2016-07-01T08:46:31Z</time>
      </trkpt>
      <trkpt lat="42.51626" lon="2.19535">
        <ele>991.74</ele>
        <time>2016-07-01T08:46:32Z</time>
      </trkpt>
      <trkpt lat="42.51627" lon="2.19536">
        <ele>991.74</ele>
        <time>2016-07-01T08:46:33Z</time>
      </trkpt>
      <trkpt lat="42.51631" lon="2.19536">
        <ele>991.74</ele>
        <time>2016-07-01T08:46:35Z</time>
      </trkpt>
      <trkpt lat="42.51632" lon="2.19537">
        <ele>991.74</ele>
        <time>2016-07-01T08:46:36Z</time>
      </trkpt>
      <trkpt lat="42.51634" lon="2.19537">
        <ele>990.78</ele>
        <time>2016-07-01T08:46:37Z</time>
      </trkpt>
      <trkpt lat="42.51635" lon="2.19536">
        <ele>991.26</ele>
        <time>2016-07-01T08:46:38Z</time>
      </trkpt>
      <trkpt lat="42.51636" lon="2.19537">
        <ele>991.26</ele>
        <time>2016-07-01T08:46:39Z</time>
      </trkpt>
      <trkpt lat="42.51637" lon="2.19537">
        <ele>991.26</ele>
        <time>2016-07-01T08:46:40Z</time>
      </trkpt>
      <trkpt lat="42.51639" lon="2.19537">
        <ele>991.26</ele>
        <time>2016-07-01T08:46:41Z</time>
      </trkpt>
      <trkpt lat="42.5164" lon="2.19538">
        <ele>991.26</ele>
        <time>2016-07-01T08:46:42Z</time>
      </trkpt>
      <trkpt lat="42.51642" lon="2.19539">
        <ele>991.26</ele>
        <time>2016-07-01T08:46:43Z</time>
      </trkpt>
      <trkpt lat="42.51643" lon="2.1954">
        <ele>991.26</ele>
        <time>2016-07-01T08:46:44Z</time>
      </trkpt>
      <trkpt lat="42.51645" lon="2.19541">
        <ele>990.3</ele>
        <time>2016-07-01T08:46:45Z</time>
      </trkpt>
      <trkpt lat="42.51653" lon="2.19544">
        <ele>989.81</ele>
        <time>2016-07-01T08:46:51Z</time>
      </trkpt>
      <trkpt lat="42.51654" lon="2.19545">
        <ele>989.81</ele>
        <time>2016-07-01T08:46:52Z</time>
      </trkpt>
      <trkpt lat="42.51656" lon="2.19545">
        <ele>989.81</ele>
        <time>2016-07-01T08:46:53Z</time>
      </trkpt>
      <trkpt lat="42.51657" lon="2.19546">
        <ele>989.81</ele>
        <time>2016-07-01T08:46:54Z</time>
      </trkpt>
      <trkpt lat="42.51658" lon="2.19546">
        <ele>989.81</ele>
        <time>2016-07-01T08:46:55Z</time>
      </trkpt>
      <trkpt lat="42.5166" lon="2.19547">
        <ele>989.81</ele>
        <time>2016-07-01T08:46:56Z</time>
      </trkpt>
      <trkpt lat="42.51662" lon="2.19548">
        <ele>989.81</ele>
        <time>2016-07-01T08:46:57Z</time>
      </trkpt>
      <trkpt lat="42.51663" lon="2.19548">
        <ele>989.33</ele>
        <time>2016-07-01T08:46:58Z</time>
      </trkpt>
      <trkpt lat="42.51664" lon="2.19549">
        <ele>989.33</ele>
        <time>2016-07-01T08:46:59Z</time>
      </trkpt>
      <trkpt lat="42.51665" lon="2.19549">
        <ele>989.33</ele>
        <time>2016-07-01T08:47:00Z</time>
      </trkpt>
      <trkpt lat="42.51667" lon="2.19549">
        <ele>989.33</ele>
        <time>2016-07-01T08:47:01Z</time>
      </trkpt>
      <trkpt lat="42.51675" lon="2.19554">
        <ele>989.33</ele>
        <time>2016-07-01T08:47:07Z</time>
      </trkpt>
      <trkpt lat="42.51676" lon="2.19556">
        <ele>988.85</ele>
        <time>2016-07-01T08:47:08Z</time>
      </trkpt>
      <trkpt lat="42.51678" lon="2.19557">
        <ele>988.85</ele>
        <time>2016-07-01T08:47:09Z</time>
      </trkpt>
      <trkpt lat="42.51679" lon="2.19558">
        <ele>988.85</ele>
        <time>2016-07-01T08:47:10Z</time>
      </trkpt>
      <trkpt lat="42.5168" lon="2.19559">
        <ele>988.85</ele>
        <time>2016-07-01T08:47:11Z</time>
      </trkpt>
      <trkpt lat="42.51682" lon="2.1956">
        <ele>988.85</ele>
        <time>2016-07-01T08:47:12Z</time>
      </trkpt>
      <trkpt lat="42.51683" lon="2.19561">
        <ele>988.85</ele>
        <time>2016-07-01T08:47:13Z</time>
      </trkpt>
      <trkpt lat="42.51684" lon="2.19562">
        <ele>988.85</ele>
        <time>2016-07-01T08:47:14Z</time>
      </trkpt>
      <trkpt lat="42.51693" lon="2.19574">
        <ele>987.89</ele>
        <time>2016-07-01T08:47:22Z</time>
      </trkpt>
      <trkpt lat="42.51694" lon="2.19575">
        <ele>987.89</ele>
        <time>2016-07-01T08:47:23Z</time>
      </trkpt>
      <trkpt lat="42.51694" lon="2.19577">
        <ele>987.89</ele>
        <time>2016-07-01T08:47:24Z</time>
      </trkpt>
      <trkpt lat="42.51695" lon="2.19578">
        <ele>987.89</ele>
        <time>2016-07-01T08:47:25Z</time>
      </trkpt>
      <trkpt lat="42.51696" lon="2.19579">
        <ele>986.93</ele>
        <time>2016-07-01T08:47:26Z</time>
      </trkpt>
      <trkpt lat="42.51699" lon="2.19585">
        <ele>986.93</ele>
        <time>2016-07-01T08:47:29Z</time>
      </trkpt>
      <trkpt lat="42.51699" lon="2.19587">
        <ele>986.93</ele>
        <time>2016-07-01T08:47:30Z</time>
      </trkpt>
      <trkpt lat="42.517" lon="2.19589">
        <ele>986.93</ele>
        <time>2016-07-01T08:47:31Z</time>
      </trkpt>
      <trkpt lat="42.51701" lon="2.19591">
        <ele>986.45</ele>
        <time>2016-07-01T08:47:32Z</time>
      </trkpt>
      <trkpt lat="42.51702" lon="2.19593">
        <ele>986.45</ele>
        <time>2016-07-01T08:47:33Z</time>
      </trkpt>
      <trkpt lat="42.51702" lon="2.19595">
        <ele>986.45</ele>
        <time>2016-07-01T08:47:34Z</time>
      </trkpt>
      <trkpt lat="42.51704" lon="2.19605">
        <ele>985.97</ele>
        <time>2016-07-01T08:47:39Z</time>
      </trkpt>
      <trkpt lat="42.51705" lon="2.19607">
        <ele>985.97</ele>
        <time>2016-07-01T08:47:40Z</time>
      </trkpt>
      <trkpt lat="42.51705" lon="2.19608">
        <ele>985.97</ele>
        <time>2016-07-01T08:47:41Z</time>
      </trkpt>
      <trkpt lat="42.51705" lon="2.1961">
        <ele>985.97</ele>
        <time>2016-07-01T08:47:42Z</time>
      </trkpt>
      <trkpt lat="42.51706" lon="2.19613">
        <ele>985.97</ele>
        <time>2016-07-01T08:47:43Z</time>
      </trkpt>
      <trkpt lat="42.51706" lon="2.19614">
        <ele>985.97</ele>
        <time>2016-07-01T08:47:44Z</time>
      </trkpt>
      <trkpt lat="42.51706" lon="2.19617">
        <ele>985.97</ele>
        <time>2016-07-01T08:47:45Z</time>
      </trkpt>
      <trkpt lat="42.51706" lon="2.19619">
        <ele>985.49</ele>
        <time>2016-07-01T08:47:46Z</time>
      </trkpt>
      <trkpt lat="42.51707" lon="2.19621">
        <ele>985.49</ele>
        <time>2016-07-01T08:47:47Z</time>
      </trkpt>
      <trkpt lat="42.51708" lon="2.19623">
        <ele>985.49</ele>
        <time>2016-07-01T08:47:48Z</time>
      </trkpt>
      <trkpt lat="42.51708" lon="2.19625">
        <ele>985.49</ele>
        <time>2016-07-01T08:47:49Z</time>
      </trkpt>
      <trkpt lat="42.51709" lon="2.19628">
        <ele>985.49</ele>
        <time>2016-07-01T08:47:50Z</time>
      </trkpt>
      <trkpt lat="42.51709" lon="2.1963">
        <ele>985.01</ele>
        <time>2016-07-01T08:47:51Z</time>
      </trkpt>
      <trkpt lat="42.51709" lon="2.19632">
        <ele>985.01</ele>
        <time>2016-07-01T08:47:52Z</time>
      </trkpt>
      <trkpt lat="42.51709" lon="2.19633">
        <ele>985.01</ele>
        <time>2016-07-01T08:47:53Z</time>
      </trkpt>
      <trkpt lat="42.5171" lon="2.19635">
        <ele>985.01</ele>
        <time>2016-07-01T08:47:54Z</time>
      </trkpt>
      <trkpt lat="42.51711" lon="2.19637">
        <ele>985.01</ele>
        <time>2016-07-01T08:47:55Z</time>
      </trkpt>
      <trkpt lat="42.51711" lon="2.19638">
        <ele>985.01</ele>
        <time>2016-07-01T08:47:56Z</time>
      </trkpt>
      <trkpt lat="42.51711" lon="2.1964">
        <ele>984.53</ele>
        <time>2016-07-01T08:47:57Z</time>
      </trkpt>
      <trkpt lat="42.51712" lon="2.19642">
        <ele>984.53</ele>
        <time>2016-07-01T08:47:58Z</time>
      </trkpt>
      <trkpt lat="42.51712" lon="2.19644">
        <ele>984.53</ele>
        <time>2016-07-01T08:47:59Z</time>
      </trkpt>
      <trkpt lat="42.51713" lon="2.19645">
        <ele>984.53</ele>
        <time>2016-07-01T08:48:00Z</time>
      </trkpt>
      <trkpt lat="42.51712" lon="2.19648">
        <ele>984.53</ele>
        <time>2016-07-01T08:48:01Z</time>
      </trkpt>
      <trkpt lat="42.51711" lon="2.19653">
        <ele>984.53</ele>
        <time>2016-07-01T08:48:03Z</time>
      </trkpt>
      <trkpt lat="42.51711" lon="2.19655">
        <ele>984.05</ele>
        <time>2016-07-01T08:48:04Z</time>
      </trkpt>
      <trkpt lat="42.51711" lon="2.19657">
        <ele>984.05</ele>
        <time>2016-07-01T08:48:05Z</time>
      </trkpt>
      <trkpt lat="42.51707" lon="2.19677">
        <ele>982.6</ele>
        <time>2016-07-01T08:48:15Z</time>
      </trkpt>
      <trkpt lat="42.517" lon="2.197">
        <ele>980.68</ele>
        <time>2016-07-01T08:48:26Z</time>
      </trkpt>
      <trkpt lat="42.51699" lon="2.19707">
        <ele>980.2</ele>
        <time>2016-07-01T08:48:30Z</time>
      </trkpt>
      <trkpt lat="42.51699" lon="2.19709">
        <ele>980.2</ele>
        <time>2016-07-01T08:48:31Z</time>
      </trkpt>
      <trkpt lat="42.51699" lon="2.19711">
        <ele>980.2</ele>
        <time>2016-07-01T08:48:32Z</time>
      </trkpt>
      <trkpt lat="42.51698" lon="2.19725">
        <ele>979.24</ele>
        <time>2016-07-01T08:48:40Z</time>
      </trkpt>
      <trkpt lat="42.51698" lon="2.19727">
        <ele>979.24</ele>
        <time>2016-07-01T08:48:41Z</time>
      </trkpt>
      <trkpt lat="42.51699" lon="2.19729">
        <ele>979.24</ele>
        <time>2016-07-01T08:48:42Z</time>
      </trkpt>
      <trkpt lat="42.51699" lon="2.19731">
        <ele>979.24</ele>
        <time>2016-07-01T08:48:43Z</time>
      </trkpt>
      <trkpt lat="42.51698" lon="2.19733">
        <ele>978.28</ele>
        <time>2016-07-01T08:48:44Z</time>
      </trkpt>
      <trkpt lat="42.51699" lon="2.19735">
        <ele>978.76</ele>
        <time>2016-07-01T08:48:45Z</time>
      </trkpt>
      <trkpt lat="42.51699" lon="2.19737">
        <ele>978.76</ele>
        <time>2016-07-01T08:48:46Z</time>
      </trkpt>
      <trkpt lat="42.517" lon="2.19739">
        <ele>978.76</ele>
        <time>2016-07-01T08:48:47Z</time>
      </trkpt>
      <trkpt lat="42.517" lon="2.19741">
        <ele>977.8</ele>
        <time>2016-07-01T08:48:48Z</time>
      </trkpt>
      <trkpt lat="42.51701" lon="2.19744">
        <ele>977.8</ele>
        <time>2016-07-01T08:48:49Z</time>
      </trkpt>
      <trkpt lat="42.51701" lon="2.19746">
        <ele>977.8</ele>
        <time>2016-07-01T08:48:50Z</time>
      </trkpt>
      <trkpt lat="42.51702" lon="2.19749">
        <ele>977.8</ele>
        <time>2016-07-01T08:48:51Z</time>
      </trkpt>
      <trkpt lat="42.51702" lon="2.19751">
        <ele>977.32</ele>
        <time>2016-07-01T08:48:52Z</time>
      </trkpt>
      <trkpt lat="42.51702" lon="2.19754">
        <ele>977.32</ele>
        <time>2016-07-01T08:48:53Z</time>
      </trkpt>
      <trkpt lat="42.51702" lon="2.19756">
        <ele>977.32</ele>
        <time>2016-07-01T08:48:54Z</time>
      </trkpt>
      <trkpt lat="42.51705" lon="2.19767">
        <ele>976.36</ele>
        <time>2016-07-01T08:49:00Z</time>
      </trkpt>
      <trkpt lat="42.51705" lon="2.19769">
        <ele>976.36</ele>
        <time>2016-07-01T08:49:01Z</time>
      </trkpt>
      <trkpt lat="42.51706" lon="2.1977">
        <ele>976.36</ele>
        <time>2016-07-01T08:49:02Z</time>
      </trkpt>
      <trkpt lat="42.51706" lon="2.19772">
        <ele>976.36</ele>
        <time>2016-07-01T08:49:03Z</time>
      </trkpt>
      <trkpt lat="42.51707" lon="2.19774">
        <ele>976.36</ele>
        <time>2016-07-01T08:49:04Z</time>
      </trkpt>
      <trkpt lat="42.51707" lon="2.19777">
        <ele>975.88</ele>
        <time>2016-07-01T08:49:05Z</time>
      </trkpt>
      <trkpt lat="42.51708" lon="2.19779">
        <ele>975.88</ele>
        <time>2016-07-01T08:49:06Z</time>
      </trkpt>
      <trkpt lat="42.51708" lon="2.19781">
        <ele>975.88</ele>
        <time>2016-07-01T08:49:07Z</time>
      </trkpt>
      <trkpt lat="42.5171" lon="2.19792">
        <ele>974.91</ele>
        <time>2016-07-01T08:49:12Z</time>
      </trkpt>
      <trkpt lat="42.5171" lon="2.19794">
        <ele>974.91</ele>
        <time>2016-07-01T08:49:13Z</time>
      </trkpt>
      <trkpt lat="42.5171" lon="2.19796">
        <ele>974.91</ele>
        <time>2016-07-01T08:49:14Z</time>
      </trkpt>
      <trkpt lat="42.51711" lon="2.19801">
        <ele>974.91</ele>
        <time>2016-07-01T08:49:16Z</time>
      </trkpt>
      <trkpt lat="42.51711" lon="2.19803">
        <ele>974.43</ele>
        <time>2016-07-01T08:49:17Z</time>
      </trkpt>
      <trkpt lat="42.5171" lon="2.19806">
        <ele>974.43</ele>
        <time>2016-07-01T08:49:19Z</time>
      </trkpt>
      <trkpt lat="42.5171" lon="2.19808">
        <ele>974.43</ele>
        <time>2016-07-01T08:49:20Z</time>
      </trkpt>
      <trkpt lat="42.5171" lon="2.1981">
        <ele>974.43</ele>
        <time>2016-07-01T08:49:21Z</time>
      </trkpt>
      <trkpt lat="42.5171" lon="2.19813">
        <ele>974.43</ele>
        <time>2016-07-01T08:49:22Z</time>
      </trkpt>
      <trkpt lat="42.5171" lon="2.19815">
        <ele>974.43</ele>
        <time>2016-07-01T08:49:23Z</time>
      </trkpt>
      <trkpt lat="42.5171" lon="2.19817">
        <ele>973.95</ele>
        <time>2016-07-01T08:49:24Z</time>
      </trkpt>
      <trkpt lat="42.5171" lon="2.19819">
        <ele>973.95</ele>
        <time>2016-07-01T08:49:25Z</time>
      </trkpt>
      <trkpt lat="42.51709" lon="2.19822">
        <ele>973.95</ele>
        <time>2016-07-01T08:49:26Z</time>
      </trkpt>
      <trkpt lat="42.51709" lon="2.19824">
        <ele>973.95</ele>
        <time>2016-07-01T08:49:27Z</time>
      </trkpt>
      <trkpt lat="42.51709" lon="2.19826">
        <ele>973.95</ele>
        <time>2016-07-01T08:49:28Z</time>
      </trkpt>
      <trkpt lat="42.51709" lon="2.19828">
        <ele>973.95</ele>
        <time>2016-07-01T08:49:29Z</time>
      </trkpt>
      <trkpt lat="42.51703" lon="2.19849">
        <ele>972.51</ele>
        <time>2016-07-01T08:49:40Z</time>
      </trkpt>
      <trkpt lat="42.51696" lon="2.19876">
        <ele>970.59</ele>
        <time>2016-07-01T08:49:54Z</time>
      </trkpt>
      <trkpt lat="42.51688" lon="2.19897">
        <ele>969.63</ele>
        <time>2016-07-01T08:50:06Z</time>
      </trkpt>
      <trkpt lat="42.51686" lon="2.19902">
        <ele>969.15</ele>
        <time>2016-07-01T08:50:11Z</time>
      </trkpt>
      <trkpt lat="42.51685" lon="2.19902">
        <ele>969.15</ele>
        <time>2016-07-01T08:50:12Z</time>
      </trkpt>
      <trkpt lat="42.51683" lon="2.19903">
        <ele>969.15</ele>
        <time>2016-07-01T08:50:13Z</time>
      </trkpt>
      <trkpt lat="42.51674" lon="2.19905">
        <ele>969.15</ele>
        <time>2016-07-01T08:50:24Z</time>
      </trkpt>
      <trkpt lat="42.5168" lon="2.19913">
        <ele>968.67</ele>
        <time>2016-07-01T08:50:30Z</time>
      </trkpt>
      <trkpt lat="42.51682" lon="2.1992">
        <ele>968.67</ele>
        <time>2016-07-01T08:50:34Z</time>
      </trkpt>
      <trkpt lat="42.5168" lon="2.1993">
        <ele>968.18</ele>
        <time>2016-07-01T08:50:39Z</time>
      </trkpt>
      <trkpt lat="42.5168" lon="2.1994">
        <ele>968.18</ele>
        <time>2016-07-01T08:50:44Z</time>
      </trkpt>
      <trkpt lat="42.5168" lon="2.19945">
        <ele>967.7</ele>
        <time>2016-07-01T08:50:47Z</time>
      </trkpt>
      <trkpt lat="42.51679" lon="2.19954">
        <ele>967.22</ele>
        <time>2016-07-01T08:50:52Z</time>
      </trkpt>
      <trkpt lat="42.51682" lon="2.1998">
        <ele>966.74</ele>
        <time>2016-07-01T08:51:03Z</time>
      </trkpt>
      <trkpt lat="42.51683" lon="2.19984">
        <ele>966.26</ele>
        <time>2016-07-01T08:51:05Z</time>
      </trkpt>
      <trkpt lat="42.51683" lon="2.19985">
        <ele>966.26</ele>
        <time>2016-07-01T08:51:06Z</time>
      </trkpt>
      <trkpt lat="42.51684" lon="2.19987">
        <ele>966.26</ele>
        <time>2016-07-01T08:51:07Z</time>
      </trkpt>
      <trkpt lat="42.51684" lon="2.19989">
        <ele>966.26</ele>
        <time>2016-07-01T08:51:08Z</time>
      </trkpt>
      <trkpt lat="42.51685" lon="2.1999">
        <ele>966.26</ele>
        <time>2016-07-01T08:51:09Z</time>
      </trkpt>
      <trkpt lat="42.51685" lon="2.19992">
        <ele>966.26</ele>
        <time>2016-07-01T08:51:10Z</time>
      </trkpt>
      <trkpt lat="42.51686" lon="2.19994">
        <ele>965.3</ele>
        <time>2016-07-01T08:51:11Z</time>
      </trkpt>
      <trkpt lat="42.51686" lon="2.19995">
        <ele>965.78</ele>
        <time>2016-07-01T08:51:12Z</time>
      </trkpt>
      <trkpt lat="42.51687" lon="2.19997">
        <ele>965.3</ele>
        <time>2016-07-01T08:51:13Z</time>
      </trkpt>
      <trkpt lat="42.51688" lon="2.19999">
        <ele>965.3</ele>
        <time>2016-07-01T08:51:14Z</time>
      </trkpt>
      <trkpt lat="42.51689" lon="2.2">
        <ele>965.3</ele>
        <time>2016-07-01T08:51:15Z</time>
      </trkpt>
      <trkpt lat="42.5169" lon="2.20002">
        <ele>965.3</ele>
        <time>2016-07-01T08:51:16Z</time>
      </trkpt>
      <trkpt lat="42.51691" lon="2.20004">
        <ele>965.3</ele>
        <time>2016-07-01T08:51:17Z</time>
      </trkpt>
      <trkpt lat="42.51691" lon="2.20006">
        <ele>965.3</ele>
        <time>2016-07-01T08:51:18Z</time>
      </trkpt>
      <trkpt lat="42.51692" lon="2.20007">
        <ele>965.3</ele>
        <time>2016-07-01T08:51:19Z</time>
      </trkpt>
      <trkpt lat="42.51693" lon="2.20009">
        <ele>965.3</ele>
        <time>2016-07-01T08:51:20Z</time>
      </trkpt>
      <trkpt lat="42.51694" lon="2.2001">
        <ele>964.82</ele>
        <time>2016-07-01T08:51:21Z</time>
      </trkpt>
      <trkpt lat="42.51695" lon="2.20012">
        <ele>964.82</ele>
        <time>2016-07-01T08:51:22Z</time>
      </trkpt>
      <trkpt lat="42.51695" lon="2.20013">
        <ele>964.82</ele>
        <time>2016-07-01T08:51:23Z</time>
      </trkpt>
      <trkpt lat="42.51696" lon="2.20015">
        <ele>964.82</ele>
        <time>2016-07-01T08:51:24Z</time>
      </trkpt>
      <trkpt lat="42.51697" lon="2.20016">
        <ele>964.82</ele>
        <time>2016-07-01T08:51:25Z</time>
      </trkpt>
      <trkpt lat="42.51698" lon="2.20018">
        <ele>964.82</ele>
        <time>2016-07-01T08:51:26Z</time>
      </trkpt>
      <trkpt lat="42.51699" lon="2.20019">
        <ele>964.82</ele>
        <time>2016-07-01T08:51:27Z</time>
      </trkpt>
      <trkpt lat="42.517" lon="2.20021">
        <ele>964.82</ele>
        <time>2016-07-01T08:51:28Z</time>
      </trkpt>
      <trkpt lat="42.51701" lon="2.20023">
        <ele>964.34</ele>
        <time>2016-07-01T08:51:29Z</time>
      </trkpt>
      <trkpt lat="42.51701" lon="2.20025">
        <ele>964.34</ele>
        <time>2016-07-01T08:51:30Z</time>
      </trkpt>
      <trkpt lat="42.51702" lon="2.20027">
        <ele>964.34</ele>
        <time>2016-07-01T08:51:31Z</time>
      </trkpt>
      <trkpt lat="42.51703" lon="2.20029">
        <ele>964.34</ele>
        <time>2016-07-01T08:51:32Z</time>
      </trkpt>
      <trkpt lat="42.51703" lon="2.20031">
        <ele>964.34</ele>
        <time>2016-07-01T08:51:33Z</time>
      </trkpt>
      <trkpt lat="42.51706" lon="2.20037">
        <ele>964.34</ele>
        <time>2016-07-01T08:51:36Z</time>
      </trkpt>
      <trkpt lat="42.51706" lon="2.20038">
        <ele>964.34</ele>
        <time>2016-07-01T08:51:37Z</time>
      </trkpt>
      <trkpt lat="42.51707" lon="2.2004">
        <ele>964.34</ele>
        <time>2016-07-01T08:51:38Z</time>
      </trkpt>
      <trkpt lat="42.51708" lon="2.20041">
        <ele>964.34</ele>
        <time>2016-07-01T08:51:39Z</time>
      </trkpt>
      <trkpt lat="42.51709" lon="2.20043">
        <ele>964.34</ele>
        <time>2016-07-01T08:51:40Z</time>
      </trkpt>
      <trkpt lat="42.51709" lon="2.20044">
        <ele>964.34</ele>
        <time>2016-07-01T08:51:41Z</time>
      </trkpt>
      <trkpt lat="42.5171" lon="2.20046">
        <ele>964.34</ele>
        <time>2016-07-01T08:51:42Z</time>
      </trkpt>
      <trkpt lat="42.51711" lon="2.20048">
        <ele>964.34</ele>
        <time>2016-07-01T08:51:43Z</time>
      </trkpt>
      <trkpt lat="42.51712" lon="2.20049">
        <ele>964.34</ele>
        <time>2016-07-01T08:51:44Z</time>
      </trkpt>
      <trkpt lat="42.51713" lon="2.20051">
        <ele>964.34</ele>
        <time>2016-07-01T08:51:45Z</time>
      </trkpt>
      <trkpt lat="42.51714" lon="2.20053">
        <ele>964.34</ele>
        <time>2016-07-01T08:51:46Z</time>
      </trkpt>
      <trkpt lat="42.51715" lon="2.20055">
        <ele>963.86</ele>
        <time>2016-07-01T08:51:47Z</time>
      </trkpt>
      <trkpt lat="42.51715" lon="2.20056">
        <ele>963.86</ele>
        <time>2016-07-01T08:51:48Z</time>
      </trkpt>
      <trkpt lat="42.51716" lon="2.20057">
        <ele>963.86</ele>
        <time>2016-07-01T08:51:49Z</time>
      </trkpt>
      <trkpt lat="42.51717" lon="2.20059">
        <ele>963.86</ele>
        <time>2016-07-01T08:51:50Z</time>
      </trkpt>
      <trkpt lat="42.51718" lon="2.2006">
        <ele>963.86</ele>
        <time>2016-07-01T08:51:51Z</time>
      </trkpt>
      <trkpt lat="42.51719" lon="2.20062">
        <ele>963.86</ele>
        <time>2016-07-01T08:51:52Z</time>
      </trkpt>
      <trkpt lat="42.5172" lon="2.20063">
        <ele>963.86</ele>
        <time>2016-07-01T08:51:53Z</time>
      </trkpt>
      <trkpt lat="42.5172" lon="2.20065">
        <ele>963.86</ele>
        <time>2016-07-01T08:51:54Z</time>
      </trkpt>
      <trkpt lat="42.51721" lon="2.20067">
        <ele>963.86</ele>
        <time>2016-07-01T08:51:55Z</time>
      </trkpt>
      <trkpt lat="42.51722" lon="2.20069">
        <ele>963.86</ele>
        <time>2016-07-01T08:51:56Z</time>
      </trkpt>
      <trkpt lat="42.51723" lon="2.20071">
        <ele>963.86</ele>
        <time>2016-07-01T08:51:57Z</time>
      </trkpt>
      <trkpt lat="42.51724" lon="2.20074">
        <ele>963.86</ele>
        <time>2016-07-01T08:51:58Z</time>
      </trkpt>
      <trkpt lat="42.51725" lon="2.20078">
        <ele>963.86</ele>
        <time>2016-07-01T08:52:00Z</time>
      </trkpt>
      <trkpt lat="42.51726" lon="2.2008">
        <ele>963.86</ele>
        <time>2016-07-01T08:52:01Z</time>
      </trkpt>
      <trkpt lat="42.51727" lon="2.20081">
        <ele>963.86</ele>
        <time>2016-07-01T08:52:02Z</time>
      </trkpt>
      <trkpt lat="42.51727" lon="2.20083">
        <ele>963.86</ele>
        <time>2016-07-01T08:52:03Z</time>
      </trkpt>
      <trkpt lat="42.51728" lon="2.20085">
        <ele>963.86</ele>
        <time>2016-07-01T08:52:04Z</time>
      </trkpt>
      <trkpt lat="42.51729" lon="2.20086">
        <ele>963.38</ele>
        <time>2016-07-01T08:52:05Z</time>
      </trkpt>
      <trkpt lat="42.51729" lon="2.20087">
        <ele>963.38</ele>
        <time>2016-07-01T08:52:06Z</time>
      </trkpt>
      <trkpt lat="42.5173" lon="2.20089">
        <ele>963.38</ele>
        <time>2016-07-01T08:52:07Z</time>
      </trkpt>
      <trkpt lat="42.51731" lon="2.20091">
        <ele>963.38</ele>
        <time>2016-07-01T08:52:08Z</time>
      </trkpt>
      <trkpt lat="42.51738" lon="2.20106">
        <ele>962.9</ele>
        <time>2016-07-01T08:52:16Z</time>
      </trkpt>
      <trkpt lat="42.51739" lon="2.20108">
        <ele>962.9</ele>
        <time>2016-07-01T08:52:17Z</time>
      </trkpt>
      <trkpt lat="42.5174" lon="2.20109">
        <ele>962.9</ele>
        <time>2016-07-01T08:52:18Z</time>
      </trkpt>
      <trkpt lat="42.51741" lon="2.20111">
        <ele>962.9</ele>
        <time>2016-07-01T08:52:19Z</time>
      </trkpt>
      <trkpt lat="42.51742" lon="2.20113">
        <ele>962.9</ele>
        <time>2016-07-01T08:52:20Z</time>
      </trkpt>
      <trkpt lat="42.51743" lon="2.20114">
        <ele>961.94</ele>
        <time>2016-07-01T08:52:21Z</time>
      </trkpt>
      <trkpt lat="42.51745" lon="2.20118">
        <ele>961.94</ele>
        <time>2016-07-01T08:52:24Z</time>
      </trkpt>
      <trkpt lat="42.51746" lon="2.2012">
        <ele>961.94</ele>
        <time>2016-07-01T08:52:25Z</time>
      </trkpt>
      <trkpt lat="42.51747" lon="2.20121">
        <ele>961.94</ele>
        <time>2016-07-01T08:52:26Z</time>
      </trkpt>
      <trkpt lat="42.51755" lon="2.20141">
        <ele>961.46</ele>
        <time>2016-07-01T08:52:36Z</time>
      </trkpt>
      <trkpt lat="42.51755" lon="2.20143">
        <ele>961.46</ele>
        <time>2016-07-01T08:52:37Z</time>
      </trkpt>
      <trkpt lat="42.51758" lon="2.20149">
        <ele>960.98</ele>
        <time>2016-07-01T08:52:40Z</time>
      </trkpt>
      <trkpt lat="42.51758" lon="2.2015">
        <ele>960.98</ele>
        <time>2016-07-01T08:52:41Z</time>
      </trkpt>
      <trkpt lat="42.51759" lon="2.20152">
        <ele>960.98</ele>
        <time>2016-07-01T08:52:42Z</time>
      </trkpt>
      <trkpt lat="42.5176" lon="2.20153">
        <ele>960.98</ele>
        <time>2016-07-01T08:52:43Z</time>
      </trkpt>
      <trkpt lat="42.51761" lon="2.20155">
        <ele>960.98</ele>
        <time>2016-07-01T08:52:44Z</time>
      </trkpt>
      <trkpt lat="42.51762" lon="2.20157">
        <ele>960.98</ele>
        <time>2016-07-01T08:52:45Z</time>
      </trkpt>
      <trkpt lat="42.51767" lon="2.20168">
        <ele>960.49</ele>
        <time>2016-07-01T08:52:52Z</time>
      </trkpt>
      <trkpt lat="42.51768" lon="2.2017">
        <ele>960.49</ele>
        <time>2016-07-01T08:52:53Z</time>
      </trkpt>
      <trkpt lat="42.51769" lon="2.20172">
        <ele>960.49</ele>
        <time>2016-07-01T08:52:54Z</time>
      </trkpt>
      <trkpt lat="42.5177" lon="2.20174">
        <ele>960.01</ele>
        <time>2016-07-01T08:52:55Z</time>
      </trkpt>
      <trkpt lat="42.51771" lon="2.20176">
        <ele>960.01</ele>
        <time>2016-07-01T08:52:56Z</time>
      </trkpt>
      <trkpt lat="42.51772" lon="2.20178">
        <ele>960.01</ele>
        <time>2016-07-01T08:52:57Z</time>
      </trkpt>
      <trkpt lat="42.51773" lon="2.2018">
        <ele>960.01</ele>
        <time>2016-07-01T08:52:58Z</time>
      </trkpt>
      <trkpt lat="42.51779" lon="2.20191">
        <ele>959.53</ele>
        <time>2016-07-01T08:53:04Z</time>
      </trkpt>
      <trkpt lat="42.5178" lon="2.20193">
        <ele>959.53</ele>
        <time>2016-07-01T08:53:05Z</time>
      </trkpt>
      <trkpt lat="42.51782" lon="2.20198">
        <ele>958.57</ele>
        <time>2016-07-01T08:53:08Z</time>
      </trkpt>
      <trkpt lat="42.51783" lon="2.202">
        <ele>958.57</ele>
        <time>2016-07-01T08:53:09Z</time>
      </trkpt>
      <trkpt lat="42.51784" lon="2.20202">
        <ele>958.57</ele>
        <time>2016-07-01T08:53:10Z</time>
      </trkpt>
      <trkpt lat="42.51785" lon="2.20204">
        <ele>958.57</ele>
        <time>2016-07-01T08:53:11Z</time>
      </trkpt>
      <trkpt lat="42.51785" lon="2.20205">
        <ele>958.09</ele>
        <time>2016-07-01T08:53:12Z</time>
      </trkpt>
      <trkpt lat="42.51786" lon="2.20207">
        <ele>958.09</ele>
        <time>2016-07-01T08:53:13Z</time>
      </trkpt>
      <trkpt lat="42.51788" lon="2.2021">
        <ele>958.09</ele>
        <time>2016-07-01T08:53:15Z</time>
      </trkpt>
      <trkpt lat="42.51788" lon="2.20212">
        <ele>958.09</ele>
        <time>2016-07-01T08:53:16Z</time>
      </trkpt>
      <trkpt lat="42.51789" lon="2.20214">
        <ele>958.09</ele>
        <time>2016-07-01T08:53:17Z</time>
      </trkpt>
      <trkpt lat="42.5179" lon="2.20216">
        <ele>957.61</ele>
        <time>2016-07-01T08:53:18Z</time>
      </trkpt>
      <trkpt lat="42.5179" lon="2.20218">
        <ele>957.61</ele>
        <time>2016-07-01T08:53:19Z</time>
      </trkpt>
      <trkpt lat="42.51791" lon="2.20219">
        <ele>957.61</ele>
        <time>2016-07-01T08:53:20Z</time>
      </trkpt>
      <trkpt lat="42.51792" lon="2.20223">
        <ele>957.13</ele>
        <time>2016-07-01T08:53:23Z</time>
      </trkpt>
      <trkpt lat="42.51794" lon="2.20228">
        <ele>957.13</ele>
        <time>2016-07-01T08:53:26Z</time>
      </trkpt>
      <trkpt lat="42.51795" lon="2.2023">
        <ele>956.65</ele>
        <time>2016-07-01T08:53:27Z</time>
      </trkpt>
      <trkpt lat="42.51795" lon="2.20232">
        <ele>956.65</ele>
        <time>2016-07-01T08:53:28Z</time>
      </trkpt>
      <trkpt lat="42.51795" lon="2.20234">
        <ele>956.65</ele>
        <time>2016-07-01T08:53:29Z</time>
      </trkpt>
      <trkpt lat="42.51795" lon="2.20235">
        <ele>956.65</ele>
        <time>2016-07-01T08:53:30Z</time>
      </trkpt>
      <trkpt lat="42.51795" lon="2.20237">
        <ele>956.65</ele>
        <time>2016-07-01T08:53:31Z</time>
      </trkpt>
      <trkpt lat="42.51796" lon="2.20238">
        <ele>955.69</ele>
        <time>2016-07-01T08:53:32Z</time>
      </trkpt>
      <trkpt lat="42.51797" lon="2.20238">
        <ele>956.17</ele>
        <time>2016-07-01T08:53:33Z</time>
      </trkpt>
      <trkpt lat="42.51803" lon="2.20236">
        <ele>955.69</ele>
        <time>2016-07-01T08:53:37Z</time>
      </trkpt>
      <trkpt lat="42.5181" lon="2.20246">
        <ele>955.69</ele>
        <time>2016-07-01T08:53:45Z</time>
      </trkpt>
      <trkpt lat="42.51811" lon="2.20249">
        <ele>955.69</ele>
        <time>2016-07-01T08:53:47Z</time>
      </trkpt>
      <trkpt lat="42.5181" lon="2.20253">
        <ele>955.69</ele>
        <time>2016-07-01T08:53:53Z</time>
      </trkpt>
      <trkpt lat="42.51806" lon="2.20255">
        <ele>955.21</ele>
        <time>2016-07-01T08:53:57Z</time>
      </trkpt>
      <trkpt lat="42.51808" lon="2.20261">
        <ele>954.73</ele>
        <time>2016-07-01T08:54:01Z</time>
      </trkpt>
      <trkpt lat="42.51814" lon="2.20269">
        <ele>953.77</ele>
        <time>2016-07-01T08:54:07Z</time>
      </trkpt>
      <trkpt lat="42.51818" lon="2.20272">
        <ele>953.28</ele>
        <time>2016-07-01T08:54:10Z</time>
      </trkpt>
      <trkpt lat="42.51826" lon="2.20286">
        <ele>951.84</ele>
        <time>2016-07-01T08:54:20Z</time>
      </trkpt>
      <trkpt lat="42.51827" lon="2.2029">
        <ele>951.36</ele>
        <time>2016-07-01T08:54:22Z</time>
      </trkpt>
      <trkpt lat="42.51838" lon="2.20306">
        <ele>950.4</ele>
        <time>2016-07-01T08:54:33Z</time>
      </trkpt>
      <trkpt lat="42.51851" lon="2.20324">
        <ele>948.48</ele>
        <time>2016-07-01T08:54:46Z</time>
      </trkpt>
      <trkpt lat="42.51854" lon="2.20327">
        <ele>948</ele>
        <time>2016-07-01T08:54:48Z</time>
      </trkpt>
      <trkpt lat="42.5187" lon="2.20346">
        <ele>946.56</ele>
        <time>2016-07-01T08:55:01Z</time>
      </trkpt>
      <trkpt lat="42.51875" lon="2.20353">
        <ele>946.07</ele>
        <time>2016-07-01T08:55:06Z</time>
      </trkpt>
      <trkpt lat="42.51886" lon="2.20361">
        <ele>944.63</ele>
        <time>2016-07-01T08:55:14Z</time>
      </trkpt>
      <trkpt lat="42.51897" lon="2.20368">
        <ele>943.67</ele>
        <time>2016-07-01T08:55:22Z</time>
      </trkpt>
      <trkpt lat="42.51898" lon="2.20369">
        <ele>943.67</ele>
        <time>2016-07-01T08:55:23Z</time>
      </trkpt>
      <trkpt lat="42.519" lon="2.2037">
        <ele>943.67</ele>
        <time>2016-07-01T08:55:24Z</time>
      </trkpt>
      <trkpt lat="42.51901" lon="2.2037">
        <ele>943.67</ele>
        <time>2016-07-01T08:55:25Z</time>
      </trkpt>
      <trkpt lat="42.51902" lon="2.2037">
        <ele>943.19</ele>
        <time>2016-07-01T08:55:26Z</time>
      </trkpt>
      <trkpt lat="42.51905" lon="2.2037">
        <ele>943.19</ele>
        <time>2016-07-01T08:55:28Z</time>
      </trkpt>
      <trkpt lat="42.51906" lon="2.20371">
        <ele>943.19</ele>
        <time>2016-07-01T08:55:29Z</time>
      </trkpt>
      <trkpt lat="42.51908" lon="2.20371">
        <ele>943.19</ele>
        <time>2016-07-01T08:55:30Z</time>
      </trkpt>
      <trkpt lat="42.5191" lon="2.20372">
        <ele>943.19</ele>
        <time>2016-07-01T08:55:31Z</time>
      </trkpt>
      <trkpt lat="42.51911" lon="2.20372">
        <ele>942.23</ele>
        <time>2016-07-01T08:55:32Z</time>
      </trkpt>
      <trkpt lat="42.51912" lon="2.20373">
        <ele>942.71</ele>
        <time>2016-07-01T08:55:33Z</time>
      </trkpt>
      <trkpt lat="42.51914" lon="2.20374">
        <ele>942.71</ele>
        <time>2016-07-01T08:55:34Z</time>
      </trkpt>
      <trkpt lat="42.51924" lon="2.20377">
        <ele>941.75</ele>
        <time>2016-07-01T08:55:42Z</time>
      </trkpt>
      <trkpt lat="42.51925" lon="2.20378">
        <ele>941.75</ele>
        <time>2016-07-01T08:55:43Z</time>
      </trkpt>
      <trkpt lat="42.51927" lon="2.20379">
        <ele>941.27</ele>
        <time>2016-07-01T08:55:44Z</time>
      </trkpt>
      <trkpt lat="42.51928" lon="2.2038">
        <ele>941.27</ele>
        <time>2016-07-01T08:55:45Z</time>
      </trkpt>
      <trkpt lat="42.5193" lon="2.20381">
        <ele>941.27</ele>
        <time>2016-07-01T08:55:46Z</time>
      </trkpt>
      <trkpt lat="42.51932" lon="2.20383">
        <ele>941.27</ele>
        <time>2016-07-01T08:55:47Z</time>
      </trkpt>
      <trkpt lat="42.51933" lon="2.20384">
        <ele>941.27</ele>
        <time>2016-07-01T08:55:48Z</time>
      </trkpt>
      <trkpt lat="42.51935" lon="2.20385">
        <ele>940.79</ele>
        <time>2016-07-01T08:55:49Z</time>
      </trkpt>
      <trkpt lat="42.51936" lon="2.20386">
        <ele>940.79</ele>
        <time>2016-07-01T08:55:50Z</time>
      </trkpt>
      <trkpt lat="42.51938" lon="2.20387">
        <ele>940.79</ele>
        <time>2016-07-01T08:55:51Z</time>
      </trkpt>
      <trkpt lat="42.51939" lon="2.20388">
        <ele>940.79</ele>
        <time>2016-07-01T08:55:52Z</time>
      </trkpt>
      <trkpt lat="42.5194" lon="2.20389">
        <ele>940.31</ele>
        <time>2016-07-01T08:55:53Z</time>
      </trkpt>
      <trkpt lat="42.51942" lon="2.2039">
        <ele>940.31</ele>
        <time>2016-07-01T08:55:54Z</time>
      </trkpt>
      <trkpt lat="42.51943" lon="2.20391">
        <ele>940.31</ele>
        <time>2016-07-01T08:55:55Z</time>
      </trkpt>
      <trkpt lat="42.51947" lon="2.20396">
        <ele>939.35</ele>
        <time>2016-07-01T08:55:59Z</time>
      </trkpt>
      <trkpt lat="42.51948" lon="2.20398">
        <ele>939.83</ele>
        <time>2016-07-01T08:56:00Z</time>
      </trkpt>
      <trkpt lat="42.5195" lon="2.20399">
        <ele>939.83</ele>
        <time>2016-07-01T08:56:01Z</time>
      </trkpt>
      <trkpt lat="42.51951" lon="2.204">
        <ele>939.83</ele>
        <time>2016-07-01T08:56:02Z</time>
      </trkpt>
      <trkpt lat="42.51952" lon="2.20401">
        <ele>939.83</ele>
        <time>2016-07-01T08:56:03Z</time>
      </trkpt>
      <trkpt lat="42.51953" lon="2.20402">
        <ele>938.86</ele>
        <time>2016-07-01T08:56:04Z</time>
      </trkpt>
      <trkpt lat="42.51954" lon="2.20403">
        <ele>939.35</ele>
        <time>2016-07-01T08:56:05Z</time>
      </trkpt>
      <trkpt lat="42.51955" lon="2.20404">
        <ele>939.35</ele>
        <time>2016-07-01T08:56:06Z</time>
      </trkpt>
      <trkpt lat="42.51956" lon="2.20405">
        <ele>939.35</ele>
        <time>2016-07-01T08:56:07Z</time>
      </trkpt>
      <trkpt lat="42.51957" lon="2.20406">
        <ele>939.35</ele>
        <time>2016-07-01T08:56:08Z</time>
      </trkpt>
      <trkpt lat="42.51958" lon="2.20408">
        <ele>938.38</ele>
        <time>2016-07-01T08:56:09Z</time>
      </trkpt>
      <trkpt lat="42.51959" lon="2.2041">
        <ele>938.38</ele>
        <time>2016-07-01T08:56:10Z</time>
      </trkpt>
      <trkpt lat="42.5196" lon="2.20412">
        <ele>938.38</ele>
        <time>2016-07-01T08:56:11Z</time>
      </trkpt>
      <trkpt lat="42.51961" lon="2.20413">
        <ele>938.38</ele>
        <time>2016-07-01T08:56:12Z</time>
      </trkpt>
      <trkpt lat="42.51962" lon="2.20416">
        <ele>938.38</ele>
        <time>2016-07-01T08:56:13Z</time>
      </trkpt>
      <trkpt lat="42.51965" lon="2.20421">
        <ele>937.9</ele>
        <time>2016-07-01T08:56:16Z</time>
      </trkpt>
      <trkpt lat="42.51965" lon="2.20423">
        <ele>937.9</ele>
        <time>2016-07-01T08:56:17Z</time>
      </trkpt>
      <trkpt lat="42.51967" lon="2.20426">
        <ele>937.42</ele>
        <time>2016-07-01T08:56:19Z</time>
      </trkpt>
      <trkpt lat="42.51967" lon="2.20428">
        <ele>937.42</ele>
        <time>2016-07-01T08:56:20Z</time>
      </trkpt>
      <trkpt lat="42.51967" lon="2.20429">
        <ele>937.42</ele>
        <time>2016-07-01T08:56:21Z</time>
      </trkpt>
      <trkpt lat="42.51967" lon="2.20431">
        <ele>937.42</ele>
        <time>2016-07-01T08:56:22Z</time>
      </trkpt>
      <trkpt lat="42.51967" lon="2.20433">
        <ele>936.94</ele>
        <time>2016-07-01T08:56:23Z</time>
      </trkpt>
      <trkpt lat="42.51967" lon="2.20435">
        <ele>936.94</ele>
        <time>2016-07-01T08:56:24Z</time>
      </trkpt>
      <trkpt lat="42.51967" lon="2.20437">
        <ele>936.94</ele>
        <time>2016-07-01T08:56:25Z</time>
      </trkpt>
      <trkpt lat="42.51966" lon="2.20439">
        <ele>936.94</ele>
        <time>2016-07-01T08:56:26Z</time>
      </trkpt>
      <trkpt lat="42.51966" lon="2.20441">
        <ele>936.46</ele>
        <time>2016-07-01T08:56:27Z</time>
      </trkpt>
      <trkpt lat="42.51966" lon="2.20443">
        <ele>936.46</ele>
        <time>2016-07-01T08:56:28Z</time>
      </trkpt>
      <trkpt lat="42.51966" lon="2.20446">
        <ele>936.46</ele>
        <time>2016-07-01T08:56:29Z</time>
      </trkpt>
      <trkpt lat="42.51965" lon="2.20448">
        <ele>936.46</ele>
        <time>2016-07-01T08:56:30Z</time>
      </trkpt>
      <trkpt lat="42.51964" lon="2.2045">
        <ele>936.46</ele>
        <time>2016-07-01T08:56:31Z</time>
      </trkpt>
      <trkpt lat="42.51964" lon="2.20451">
        <ele>935.5</ele>
        <time>2016-07-01T08:56:32Z</time>
      </trkpt>
      <trkpt lat="42.51964" lon="2.20453">
        <ele>935.98</ele>
        <time>2016-07-01T08:56:33Z</time>
      </trkpt>
      <trkpt lat="42.5196" lon="2.20461">
        <ele>935.02</ele>
        <time>2016-07-01T08:56:38Z</time>
      </trkpt>
      <trkpt lat="42.5196" lon="2.20463">
        <ele>935.02</ele>
        <time>2016-07-01T08:56:39Z</time>
      </trkpt>
      <trkpt lat="42.5196" lon="2.20465">
        <ele>935.02</ele>
        <time>2016-07-01T08:56:40Z</time>
      </trkpt>
      <trkpt lat="42.5196" lon="2.20467">
        <ele>935.02</ele>
        <time>2016-07-01T08:56:41Z</time>
      </trkpt>
      <trkpt lat="42.5196" lon="2.20469">
        <ele>934.54</ele>
        <time>2016-07-01T08:56:42Z</time>
      </trkpt>
      <trkpt lat="42.5196" lon="2.20471">
        <ele>934.54</ele>
        <time>2016-07-01T08:56:43Z</time>
      </trkpt>
      <trkpt lat="42.51959" lon="2.20473">
        <ele>934.54</ele>
        <time>2016-07-01T08:56:44Z</time>
      </trkpt>
      <trkpt lat="42.51959" lon="2.20476">
        <ele>934.54</ele>
        <time>2016-07-01T08:56:46Z</time>
      </trkpt>
      <trkpt lat="42.51958" lon="2.20477">
        <ele>934.54</ele>
        <time>2016-07-01T08:56:47Z</time>
      </trkpt>
      <trkpt lat="42.51957" lon="2.20484">
        <ele>934.06</ele>
        <time>2016-07-01T08:56:51Z</time>
      </trkpt>
      <trkpt lat="42.51957" lon="2.20485">
        <ele>934.06</ele>
        <time>2016-07-01T08:56:52Z</time>
      </trkpt>
      <trkpt lat="42.51957" lon="2.20487">
        <ele>933.58</ele>
        <time>2016-07-01T08:56:53Z</time>
      </trkpt>
      <trkpt lat="42.51958" lon="2.20489">
        <ele>933.58</ele>
        <time>2016-07-01T08:56:54Z</time>
      </trkpt>
      <trkpt lat="42.51958" lon="2.20491">
        <ele>933.58</ele>
        <time>2016-07-01T08:56:55Z</time>
      </trkpt>
      <trkpt lat="42.51958" lon="2.20493">
        <ele>933.58</ele>
        <time>2016-07-01T08:56:56Z</time>
      </trkpt>
      <trkpt lat="42.51958" lon="2.20495">
        <ele>933.58</ele>
        <time>2016-07-01T08:56:57Z</time>
      </trkpt>
      <trkpt lat="42.51959" lon="2.20497">
        <ele>933.58</ele>
        <time>2016-07-01T08:56:58Z</time>
      </trkpt>
      <trkpt lat="42.51959" lon="2.20499">
        <ele>933.1</ele>
        <time>2016-07-01T08:56:59Z</time>
      </trkpt>
      <trkpt lat="42.51959" lon="2.20501">
        <ele>933.1</ele>
        <time>2016-07-01T08:57:00Z</time>
      </trkpt>
      <trkpt lat="42.5196" lon="2.20502">
        <ele>933.1</ele>
        <time>2016-07-01T08:57:01Z</time>
      </trkpt>
      <trkpt lat="42.5196" lon="2.20504">
        <ele>933.1</ele>
        <time>2016-07-01T08:57:02Z</time>
      </trkpt>
      <trkpt lat="42.51961" lon="2.20506">
        <ele>933.1</ele>
        <time>2016-07-01T08:57:03Z</time>
      </trkpt>
      <trkpt lat="42.51962" lon="2.20508">
        <ele>932.62</ele>
        <time>2016-07-01T08:57:04Z</time>
      </trkpt>
      <trkpt lat="42.51962" lon="2.2051">
        <ele>932.62</ele>
        <time>2016-07-01T08:57:05Z</time>
      </trkpt>
      <trkpt lat="42.51963" lon="2.20511">
        <ele>932.62</ele>
        <time>2016-07-01T08:57:06Z</time>
      </trkpt>
      <trkpt lat="42.51963" lon="2.20513">
        <ele>932.62</ele>
        <time>2016-07-01T08:57:07Z</time>
      </trkpt>
      <trkpt lat="42.51963" lon="2.20515">
        <ele>932.62</ele>
        <time>2016-07-01T08:57:08Z</time>
      </trkpt>
      <trkpt lat="42.51964" lon="2.20516">
        <ele>932.62</ele>
        <time>2016-07-01T08:57:09Z</time>
      </trkpt>
      <trkpt lat="42.51964" lon="2.20519">
        <ele>932.62</ele>
        <time>2016-07-01T08:57:10Z</time>
      </trkpt>
      <trkpt lat="42.51964" lon="2.20521">
        <ele>932.62</ele>
        <time>2016-07-01T08:57:11Z</time>
      </trkpt>
      <trkpt lat="42.51964" lon="2.20522">
        <ele>931.65</ele>
        <time>2016-07-01T08:57:12Z</time>
      </trkpt>
      <trkpt lat="42.51964" lon="2.20524">
        <ele>932.14</ele>
        <time>2016-07-01T08:57:13Z</time>
      </trkpt>
      <trkpt lat="42.51967" lon="2.20544">
        <ele>930.69</ele>
        <time>2016-07-01T08:57:23Z</time>
      </trkpt>
      <trkpt lat="42.51967" lon="2.20545">
        <ele>930.69</ele>
        <time>2016-07-01T08:57:24Z</time>
      </trkpt>
      <trkpt lat="42.51967" lon="2.20547">
        <ele>930.69</ele>
        <time>2016-07-01T08:57:25Z</time>
      </trkpt>
      <trkpt lat="42.51967" lon="2.20549">
        <ele>930.69</ele>
        <time>2016-07-01T08:57:26Z</time>
      </trkpt>
      <trkpt lat="42.51967" lon="2.20551">
        <ele>930.21</ele>
        <time>2016-07-01T08:57:27Z</time>
      </trkpt>
      <trkpt lat="42.51967" lon="2.20553">
        <ele>930.21</ele>
        <time>2016-07-01T08:57:28Z</time>
      </trkpt>
      <trkpt lat="42.51967" lon="2.20555">
        <ele>930.21</ele>
        <time>2016-07-01T08:57:29Z</time>
      </trkpt>
      <trkpt lat="42.51967" lon="2.20558">
        <ele>930.21</ele>
        <time>2016-07-01T08:57:30Z</time>
      </trkpt>
      <trkpt lat="42.51967" lon="2.20562">
        <ele>929.73</ele>
        <time>2016-07-01T08:57:32Z</time>
      </trkpt>
      <trkpt lat="42.51967" lon="2.20565">
        <ele>929.73</ele>
        <time>2016-07-01T08:57:33Z</time>
      </trkpt>
      <trkpt lat="42.51967" lon="2.20567">
        <ele>929.73</ele>
        <time>2016-07-01T08:57:34Z</time>
      </trkpt>
      <trkpt lat="42.51967" lon="2.20568">
        <ele>929.73</ele>
        <time>2016-07-01T08:57:35Z</time>
      </trkpt>
      <trkpt lat="42.51967" lon="2.2057">
        <ele>929.73</ele>
        <time>2016-07-01T08:57:36Z</time>
      </trkpt>
      <trkpt lat="42.51967" lon="2.20572">
        <ele>929.73</ele>
        <time>2016-07-01T08:57:37Z</time>
      </trkpt>
      <trkpt lat="42.51966" lon="2.20574">
        <ele>929.25</ele>
        <time>2016-07-01T08:57:38Z</time>
      </trkpt>
      <trkpt lat="42.51964" lon="2.20588">
        <ele>928.77</ele>
        <time>2016-07-01T08:57:45Z</time>
      </trkpt>
      <trkpt lat="42.51964" lon="2.20589">
        <ele>928.77</ele>
        <time>2016-07-01T08:57:46Z</time>
      </trkpt>
      <trkpt lat="42.51964" lon="2.20591">
        <ele>928.77</ele>
        <time>2016-07-01T08:57:47Z</time>
      </trkpt>
      <trkpt lat="42.51964" lon="2.20593">
        <ele>927.81</ele>
        <time>2016-07-01T08:57:48Z</time>
      </trkpt>
      <trkpt lat="42.51964" lon="2.20595">
        <ele>928.29</ele>
        <time>2016-07-01T08:57:49Z</time>
      </trkpt>
      <trkpt lat="42.51964" lon="2.20596">
        <ele>928.29</ele>
        <time>2016-07-01T08:57:50Z</time>
      </trkpt>
      <trkpt lat="42.51963" lon="2.20598">
        <ele>928.29</ele>
        <time>2016-07-01T08:57:51Z</time>
      </trkpt>
      <trkpt lat="42.51963" lon="2.20606">
        <ele>927.81</ele>
        <time>2016-07-01T08:57:55Z</time>
      </trkpt>
      <trkpt lat="42.51964" lon="2.20607">
        <ele>927.81</ele>
        <time>2016-07-01T08:57:56Z</time>
      </trkpt>
      <trkpt lat="42.51964" lon="2.2061">
        <ele>927.81</ele>
        <time>2016-07-01T08:57:57Z</time>
      </trkpt>
      <trkpt lat="42.51964" lon="2.20612">
        <ele>927.81</ele>
        <time>2016-07-01T08:57:58Z</time>
      </trkpt>
      <trkpt lat="42.51964" lon="2.20614">
        <ele>927.81</ele>
        <time>2016-07-01T08:57:59Z</time>
      </trkpt>
      <trkpt lat="42.51965" lon="2.20615">
        <ele>927.81</ele>
        <time>2016-07-01T08:58:00Z</time>
      </trkpt>
      <trkpt lat="42.51966" lon="2.20616">
        <ele>927.81</ele>
        <time>2016-07-01T08:58:01Z</time>
      </trkpt>
      <trkpt lat="42.51966" lon="2.20618">
        <ele>926.85</ele>
        <time>2016-07-01T08:58:02Z</time>
      </trkpt>
      <trkpt lat="42.51967" lon="2.20619">
        <ele>926.85</ele>
        <time>2016-07-01T08:58:03Z</time>
      </trkpt>
      <trkpt lat="42.51982" lon="2.20632">
        <ele>926.37</ele>
        <time>2016-07-01T08:58:16Z</time>
      </trkpt>
      <trkpt lat="42.51987" lon="2.20635">
        <ele>926.37</ele>
        <time>2016-07-01T08:58:20Z</time>
      </trkpt>
      <trkpt lat="42.51988" lon="2.20635">
        <ele>926.37</ele>
        <time>2016-07-01T08:58:21Z</time>
      </trkpt>
      <trkpt lat="42.51989" lon="2.20635">
        <ele>925.89</ele>
        <time>2016-07-01T08:58:22Z</time>
      </trkpt>
      <trkpt lat="42.51991" lon="2.20635">
        <ele>925.89</ele>
        <time>2016-07-01T08:58:23Z</time>
      </trkpt>
      <trkpt lat="42.51992" lon="2.20635">
        <ele>925.89</ele>
        <time>2016-07-01T08:58:24Z</time>
      </trkpt>
      <trkpt lat="42.51993" lon="2.20635">
        <ele>925.89</ele>
        <time>2016-07-01T08:58:25Z</time>
      </trkpt>
      <trkpt lat="42.51995" lon="2.20635">
        <ele>925.89</ele>
        <time>2016-07-01T08:58:26Z</time>
      </trkpt>
      <trkpt lat="42.52005" lon="2.20635">
        <ele>925.41</ele>
        <time>2016-07-01T08:58:36Z</time>
      </trkpt>
      <trkpt lat="42.52022" lon="2.20639">
        <ele>923.48</ele>
        <time>2016-07-01T08:58:48Z</time>
      </trkpt>
      <trkpt lat="42.52043" lon="2.20648">
        <ele>921.56</ele>
        <time>2016-07-01T08:59:04Z</time>
      </trkpt>
      <trkpt lat="42.52058" lon="2.20667">
        <ele>920.12</ele>
        <time>2016-07-01T08:59:18Z</time>
      </trkpt>
      <trkpt lat="42.52066" lon="2.2068">
        <ele>919.16</ele>
        <time>2016-07-01T08:59:28Z</time>
      </trkpt>
      <trkpt lat="42.52068" lon="2.20683">
        <ele>918.68</ele>
        <time>2016-07-01T08:59:30Z</time>
      </trkpt>
      <trkpt lat="42.52068" lon="2.20685">
        <ele>918.68</ele>
        <time>2016-07-01T08:59:31Z</time>
      </trkpt>
      <trkpt lat="42.52069" lon="2.20687">
        <ele>918.68</ele>
        <time>2016-07-01T08:59:32Z</time>
      </trkpt>
      <trkpt lat="42.52077" lon="2.20708">
        <ele>917.72</ele>
        <time>2016-07-01T08:59:44Z</time>
      </trkpt>
      <trkpt lat="42.52078" lon="2.2071">
        <ele>917.72</ele>
        <time>2016-07-01T08:59:45Z</time>
      </trkpt>
      <trkpt lat="42.52079" lon="2.20712">
        <ele>917.72</ele>
        <time>2016-07-01T08:59:46Z</time>
      </trkpt>
      <trkpt lat="42.5208" lon="2.20713">
        <ele>917.24</ele>
        <time>2016-07-01T08:59:47Z</time>
      </trkpt>
      <trkpt lat="42.52081" lon="2.20715">
        <ele>917.24</ele>
        <time>2016-07-01T08:59:48Z</time>
      </trkpt>
      <trkpt lat="42.52082" lon="2.20716">
        <ele>917.24</ele>
        <time>2016-07-01T08:59:49Z</time>
      </trkpt>
      <trkpt lat="42.52082" lon="2.20717">
        <ele>917.24</ele>
        <time>2016-07-01T08:59:50Z</time>
      </trkpt>
      <trkpt lat="42.5209" lon="2.20736">
        <ele>916.27</ele>
        <time>2016-07-01T09:00:00Z</time>
      </trkpt>
      <trkpt lat="42.52091" lon="2.20738">
        <ele>916.27</ele>
        <time>2016-07-01T09:00:01Z</time>
      </trkpt>
      <trkpt lat="42.52092" lon="2.20739">
        <ele>916.27</ele>
        <time>2016-07-01T09:00:02Z</time>
      </trkpt>
      <trkpt lat="42.52093" lon="2.2074">
        <ele>916.27</ele>
        <time>2016-07-01T09:00:03Z</time>
      </trkpt>
      <trkpt lat="42.52094" lon="2.20741">
        <ele>916.27</ele>
        <time>2016-07-01T09:00:04Z</time>
      </trkpt>
      <trkpt lat="42.52096" lon="2.20742">
        <ele>915.31</ele>
        <time>2016-07-01T09:00:05Z</time>
      </trkpt>
      <trkpt lat="42.52096" lon="2.20743">
        <ele>915.31</ele>
        <time>2016-07-01T09:00:06Z</time>
      </trkpt>
      <trkpt lat="42.52097" lon="2.20745">
        <ele>915.31</ele>
        <time>2016-07-01T09:00:07Z</time>
      </trkpt>
      <trkpt lat="42.52098" lon="2.20747">
        <ele>915.31</ele>
        <time>2016-07-01T09:00:08Z</time>
      </trkpt>
      <trkpt lat="42.52098" lon="2.20748">
        <ele>915.31</ele>
        <time>2016-07-01T09:00:09Z</time>
      </trkpt>
      <trkpt lat="42.52099" lon="2.20751">
        <ele>915.31</ele>
        <time>2016-07-01T09:00:10Z</time>
      </trkpt>
      <trkpt lat="42.52102" lon="2.20756">
        <ele>914.83</ele>
        <time>2016-07-01T09:00:14Z</time>
      </trkpt>
      <trkpt lat="42.52104" lon="2.20758">
        <ele>914.83</ele>
        <time>2016-07-01T09:00:16Z</time>
      </trkpt>
      <trkpt lat="42.52105" lon="2.20759">
        <ele>914.35</ele>
        <time>2016-07-01T09:00:17Z</time>
      </trkpt>
      <trkpt lat="42.52107" lon="2.20759">
        <ele>914.35</ele>
        <time>2016-07-01T09:00:18Z</time>
      </trkpt>
      <trkpt lat="42.52108" lon="2.2076">
        <ele>914.35</ele>
        <time>2016-07-01T09:00:19Z</time>
      </trkpt>
      <trkpt lat="42.52109" lon="2.20761">
        <ele>914.35</ele>
        <time>2016-07-01T09:00:20Z</time>
      </trkpt>
      <trkpt lat="42.5211" lon="2.20763">
        <ele>914.35</ele>
        <time>2016-07-01T09:00:21Z</time>
      </trkpt>
      <trkpt lat="42.52111" lon="2.20764">
        <ele>913.87</ele>
        <time>2016-07-01T09:00:22Z</time>
      </trkpt>
      <trkpt lat="42.52112" lon="2.20766">
        <ele>913.87</ele>
        <time>2016-07-01T09:00:23Z</time>
      </trkpt>
      <trkpt lat="42.52113" lon="2.20768">
        <ele>913.87</ele>
        <time>2016-07-01T09:00:24Z</time>
      </trkpt>
      <trkpt lat="42.52113" lon="2.2077">
        <ele>913.87</ele>
        <time>2016-07-01T09:00:25Z</time>
      </trkpt>
      <trkpt lat="42.52113" lon="2.20772">
        <ele>913.87</ele>
        <time>2016-07-01T09:00:26Z</time>
      </trkpt>
      <trkpt lat="42.52114" lon="2.20774">
        <ele>913.87</ele>
        <time>2016-07-01T09:00:27Z</time>
      </trkpt>
      <trkpt lat="42.52114" lon="2.20776">
        <ele>913.87</ele>
        <time>2016-07-01T09:00:28Z</time>
      </trkpt>
      <trkpt lat="42.52115" lon="2.20778">
        <ele>913.39</ele>
        <time>2016-07-01T09:00:29Z</time>
      </trkpt>
      <trkpt lat="42.52116" lon="2.2078">
        <ele>913.39</ele>
        <time>2016-07-01T09:00:30Z</time>
      </trkpt>
      <trkpt lat="42.52117" lon="2.20781">
        <ele>913.39</ele>
        <time>2016-07-01T09:00:31Z</time>
      </trkpt>
      <trkpt lat="42.52117" lon="2.20783">
        <ele>913.39</ele>
        <time>2016-07-01T09:00:32Z</time>
      </trkpt>
      <trkpt lat="42.52118" lon="2.20785">
        <ele>913.39</ele>
        <time>2016-07-01T09:00:33Z</time>
      </trkpt>
      <trkpt lat="42.52118" lon="2.20787">
        <ele>913.39</ele>
        <time>2016-07-01T09:00:34Z</time>
      </trkpt>
      <trkpt lat="42.52118" lon="2.20789">
        <ele>912.91</ele>
        <time>2016-07-01T09:00:35Z</time>
      </trkpt>
      <trkpt lat="42.52119" lon="2.20791">
        <ele>912.91</ele>
        <time>2016-07-01T09:00:36Z</time>
      </trkpt>
      <trkpt lat="42.52118" lon="2.20793">
        <ele>912.91</ele>
        <time>2016-07-01T09:00:37Z</time>
      </trkpt>
      <trkpt lat="42.52118" lon="2.20796">
        <ele>912.91</ele>
        <time>2016-07-01T09:00:38Z</time>
      </trkpt>
      <trkpt lat="42.52118" lon="2.20798">
        <ele>912.91</ele>
        <time>2016-07-01T09:00:39Z</time>
      </trkpt>
      <trkpt lat="42.52118" lon="2.208">
        <ele>912.91</ele>
        <time>2016-07-01T09:00:40Z</time>
      </trkpt>
      <trkpt lat="42.52118" lon="2.20802">
        <ele>912.43</ele>
        <time>2016-07-01T09:00:41Z</time>
      </trkpt>
      <trkpt lat="42.52119" lon="2.20804">
        <ele>912.43</ele>
        <time>2016-07-01T09:00:42Z</time>
      </trkpt>
      <trkpt lat="42.52119" lon="2.20806">
        <ele>912.43</ele>
        <time>2016-07-01T09:00:43Z</time>
      </trkpt>
      <trkpt lat="42.52118" lon="2.20808">
        <ele>912.43</ele>
        <time>2016-07-01T09:00:44Z</time>
      </trkpt>
      <trkpt lat="42.52119" lon="2.2081">
        <ele>912.43</ele>
        <time>2016-07-01T09:00:45Z</time>
      </trkpt>
      <trkpt lat="42.52119" lon="2.20812">
        <ele>912.43</ele>
        <time>2016-07-01T09:00:46Z</time>
      </trkpt>
      <trkpt lat="42.52119" lon="2.20814">
        <ele>911.47</ele>
        <time>2016-07-01T09:00:47Z</time>
      </trkpt>
      <trkpt lat="42.5212" lon="2.20816">
        <ele>911.95</ele>
        <time>2016-07-01T09:00:48Z</time>
      </trkpt>
      <trkpt lat="42.5212" lon="2.20823">
        <ele>911.95</ele>
        <time>2016-07-01T09:00:51Z</time>
      </trkpt>
      <trkpt lat="42.52121" lon="2.20825">
        <ele>911.95</ele>
        <time>2016-07-01T09:00:52Z</time>
      </trkpt>
      <trkpt lat="42.5212" lon="2.20827">
        <ele>911.95</ele>
        <time>2016-07-01T09:00:53Z</time>
      </trkpt>
      <trkpt lat="42.5212" lon="2.20829">
        <ele>910.99</ele>
        <time>2016-07-01T09:00:54Z</time>
      </trkpt>
      <trkpt lat="42.5212" lon="2.20831">
        <ele>910.99</ele>
        <time>2016-07-01T09:00:55Z</time>
      </trkpt>
      <trkpt lat="42.5212" lon="2.20835">
        <ele>910.99</ele>
        <time>2016-07-01T09:00:57Z</time>
      </trkpt>
      <trkpt lat="42.5212" lon="2.20839">
        <ele>910.99</ele>
        <time>2016-07-01T09:00:59Z</time>
      </trkpt>
      <trkpt lat="42.5212" lon="2.2084">
        <ele>910.51</ele>
        <time>2016-07-01T09:01:00Z</time>
      </trkpt>
      <trkpt lat="42.5212" lon="2.20842">
        <ele>910.51</ele>
        <time>2016-07-01T09:01:01Z</time>
      </trkpt>
      <trkpt lat="42.5212" lon="2.20844">
        <ele>910.51</ele>
        <time>2016-07-01T09:01:02Z</time>
      </trkpt>
      <trkpt lat="42.52119" lon="2.20846">
        <ele>910.51</ele>
        <time>2016-07-01T09:01:03Z</time>
      </trkpt>
      <trkpt lat="42.52119" lon="2.20847">
        <ele>910.51</ele>
        <time>2016-07-01T09:01:04Z</time>
      </trkpt>
      <trkpt lat="42.52118" lon="2.20849">
        <ele>910.51</ele>
        <time>2016-07-01T09:01:05Z</time>
      </trkpt>
      <trkpt lat="42.52117" lon="2.20851">
        <ele>910.51</ele>
        <time>2016-07-01T09:01:06Z</time>
      </trkpt>
      <trkpt lat="42.52107" lon="2.20867">
        <ele>909.54</ele>
        <time>2016-07-01T09:01:16Z</time>
      </trkpt>
      <trkpt lat="42.52107" lon="2.20869">
        <ele>909.54</ele>
        <time>2016-07-01T09:01:17Z</time>
      </trkpt>
      <trkpt lat="42.52107" lon="2.2087">
        <ele>909.06</ele>
        <time>2016-07-01T09:01:18Z</time>
      </trkpt>
      <trkpt lat="42.52107" lon="2.20872">
        <ele>909.06</ele>
        <time>2016-07-01T09:01:19Z</time>
      </trkpt>
      <trkpt lat="42.52107" lon="2.20874">
        <ele>909.06</ele>
        <time>2016-07-01T09:01:20Z</time>
      </trkpt>
      <trkpt lat="42.52107" lon="2.20876">
        <ele>909.06</ele>
        <time>2016-07-01T09:01:21Z</time>
      </trkpt>
      <trkpt lat="42.52107" lon="2.20878">
        <ele>909.06</ele>
        <time>2016-07-01T09:01:22Z</time>
      </trkpt>
      <trkpt lat="42.52107" lon="2.2088">
        <ele>908.1</ele>
        <time>2016-07-01T09:01:23Z</time>
      </trkpt>
      <trkpt lat="42.52107" lon="2.20882">
        <ele>908.58</ele>
        <time>2016-07-01T09:01:24Z</time>
      </trkpt>
      <trkpt lat="42.52107" lon="2.20884">
        <ele>908.58</ele>
        <time>2016-07-01T09:01:25Z</time>
      </trkpt>
      <trkpt lat="42.52106" lon="2.20886">
        <ele>908.58</ele>
        <time>2016-07-01T09:01:26Z</time>
      </trkpt>
      <trkpt lat="42.52106" lon="2.20887">
        <ele>908.58</ele>
        <time>2016-07-01T09:01:27Z</time>
      </trkpt>
      <trkpt lat="42.52105" lon="2.2089">
        <ele>908.58</ele>
        <time>2016-07-01T09:01:28Z</time>
      </trkpt>
      <trkpt lat="42.52105" lon="2.20892">
        <ele>908.58</ele>
        <time>2016-07-01T09:01:29Z</time>
      </trkpt>
      <trkpt lat="42.52104" lon="2.20894">
        <ele>907.62</ele>
        <time>2016-07-01T09:01:30Z</time>
      </trkpt>
      <trkpt lat="42.52104" lon="2.20896">
        <ele>907.62</ele>
        <time>2016-07-01T09:01:31Z</time>
      </trkpt>
      <trkpt lat="42.52103" lon="2.20898">
        <ele>907.62</ele>
        <time>2016-07-01T09:01:32Z</time>
      </trkpt>
      <trkpt lat="42.52104" lon="2.209">
        <ele>907.62</ele>
        <time>2016-07-01T09:01:33Z</time>
      </trkpt>
      <trkpt lat="42.52105" lon="2.20902">
        <ele>907.62</ele>
        <time>2016-07-01T09:01:34Z</time>
      </trkpt>
      <trkpt lat="42.52105" lon="2.20904">
        <ele>907.14</ele>
        <time>2016-07-01T09:01:35Z</time>
      </trkpt>
      <trkpt lat="42.52104" lon="2.20906">
        <ele>907.14</ele>
        <time>2016-07-01T09:01:36Z</time>
      </trkpt>
      <trkpt lat="42.52105" lon="2.20908">
        <ele>907.14</ele>
        <time>2016-07-01T09:01:37Z</time>
      </trkpt>
      <trkpt lat="42.52104" lon="2.2091">
        <ele>907.14</ele>
        <time>2016-07-01T09:01:38Z</time>
      </trkpt>
      <trkpt lat="42.52104" lon="2.20912">
        <ele>907.14</ele>
        <time>2016-07-01T09:01:39Z</time>
      </trkpt>
      <trkpt lat="42.52105" lon="2.20915">
        <ele>907.14</ele>
        <time>2016-07-01T09:01:40Z</time>
      </trkpt>
      <trkpt lat="42.52105" lon="2.20917">
        <ele>907.14</ele>
        <time>2016-07-01T09:01:41Z</time>
      </trkpt>
      <trkpt lat="42.52104" lon="2.20919">
        <ele>906.66</ele>
        <time>2016-07-01T09:01:42Z</time>
      </trkpt>
      <trkpt lat="42.52104" lon="2.20931">
        <ele>906.66</ele>
        <time>2016-07-01T09:01:47Z</time>
      </trkpt>
      <trkpt lat="42.52104" lon="2.20933">
        <ele>906.66</ele>
        <time>2016-07-01T09:01:48Z</time>
      </trkpt>
      <trkpt lat="42.52103" lon="2.20935">
        <ele>906.18</ele>
        <time>2016-07-01T09:01:49Z</time>
      </trkpt>
      <trkpt lat="42.52103" lon="2.20937">
        <ele>906.18</ele>
        <time>2016-07-01T09:01:50Z</time>
      </trkpt>
      <trkpt lat="42.52103" lon="2.2094">
        <ele>906.18</ele>
        <time>2016-07-01T09:01:51Z</time>
      </trkpt>
      <trkpt lat="42.52103" lon="2.20942">
        <ele>906.18</ele>
        <time>2016-07-01T09:01:52Z</time>
      </trkpt>
      <trkpt lat="42.52103" lon="2.20943">
        <ele>906.18</ele>
        <time>2016-07-01T09:01:53Z</time>
      </trkpt>
      <trkpt lat="42.52104" lon="2.20945">
        <ele>906.18</ele>
        <time>2016-07-01T09:01:54Z</time>
      </trkpt>
      <trkpt lat="42.52103" lon="2.20947">
        <ele>905.7</ele>
        <time>2016-07-01T09:01:55Z</time>
      </trkpt>
      <trkpt lat="42.52103" lon="2.20949">
        <ele>905.7</ele>
        <time>2016-07-01T09:01:56Z</time>
      </trkpt>
      <trkpt lat="42.52104" lon="2.20951">
        <ele>905.7</ele>
        <time>2016-07-01T09:01:57Z</time>
      </trkpt>
      <trkpt lat="42.52104" lon="2.20953">
        <ele>905.7</ele>
        <time>2016-07-01T09:01:58Z</time>
      </trkpt>
      <trkpt lat="42.52104" lon="2.20956">
        <ele>905.7</ele>
        <time>2016-07-01T09:01:59Z</time>
      </trkpt>
      <trkpt lat="42.52104" lon="2.20958">
        <ele>905.22</ele>
        <time>2016-07-01T09:02:00Z</time>
      </trkpt>
      <trkpt lat="42.52105" lon="2.2096">
        <ele>905.22</ele>
        <time>2016-07-01T09:02:01Z</time>
      </trkpt>
      <trkpt lat="42.52105" lon="2.20962">
        <ele>905.22</ele>
        <time>2016-07-01T09:02:02Z</time>
      </trkpt>
      <trkpt lat="42.52105" lon="2.20964">
        <ele>905.22</ele>
        <time>2016-07-01T09:02:03Z</time>
      </trkpt>
      <trkpt lat="42.52107" lon="2.20973">
        <ele>904.74</ele>
        <time>2016-07-01T09:02:07Z</time>
      </trkpt>
      <trkpt lat="42.52107" lon="2.20975">
        <ele>904.74</ele>
        <time>2016-07-01T09:02:08Z</time>
      </trkpt>
      <trkpt lat="42.52114" lon="2.20998">
        <ele>903.3</ele>
        <time>2016-07-01T09:02:18Z</time>
      </trkpt>
      <trkpt lat="42.52125" lon="2.21013">
        <ele>902.33</ele>
        <time>2016-07-01T09:02:28Z</time>
      </trkpt>
      <trkpt lat="42.52125" lon="2.21015">
        <ele>901.85</ele>
        <time>2016-07-01T09:02:29Z</time>
      </trkpt>
      <trkpt lat="42.52126" lon="2.21017">
        <ele>901.85</ele>
        <time>2016-07-01T09:02:30Z</time>
      </trkpt>
      <trkpt lat="42.52127" lon="2.21019">
        <ele>901.85</ele>
        <time>2016-07-01T09:02:31Z</time>
      </trkpt>
      <trkpt lat="42.52128" lon="2.21021">
        <ele>901.85</ele>
        <time>2016-07-01T09:02:32Z</time>
      </trkpt>
      <trkpt lat="42.52132" lon="2.21033">
        <ele>900.41</ele>
        <time>2016-07-01T09:02:39Z</time>
      </trkpt>
      <trkpt lat="42.52132" lon="2.21035">
        <ele>900.41</ele>
        <time>2016-07-01T09:02:40Z</time>
      </trkpt>
      <trkpt lat="42.52132" lon="2.21037">
        <ele>900.41</ele>
        <time>2016-07-01T09:02:41Z</time>
      </trkpt>
      <trkpt lat="42.52133" lon="2.21041">
        <ele>899.93</ele>
        <time>2016-07-01T09:02:43Z</time>
      </trkpt>
      <trkpt lat="42.52133" lon="2.21044">
        <ele>899.93</ele>
        <time>2016-07-01T09:02:44Z</time>
      </trkpt>
      <trkpt lat="42.52134" lon="2.21046">
        <ele>899.93</ele>
        <time>2016-07-01T09:02:45Z</time>
      </trkpt>
      <trkpt lat="42.52135" lon="2.21052">
        <ele>899.93</ele>
        <time>2016-07-01T09:02:48Z</time>
      </trkpt>
      <trkpt lat="42.52136" lon="2.21054">
        <ele>899.45</ele>
        <time>2016-07-01T09:02:49Z</time>
      </trkpt>
      <trkpt lat="42.52137" lon="2.21066">
        <ele>898.97</ele>
        <time>2016-07-01T09:02:55Z</time>
      </trkpt>
      <trkpt lat="42.52138" lon="2.21068">
        <ele>898.97</ele>
        <time>2016-07-01T09:02:56Z</time>
      </trkpt>
      <trkpt lat="42.52138" lon="2.2107">
        <ele>898.97</ele>
        <time>2016-07-01T09:02:57Z</time>
      </trkpt>
      <trkpt lat="42.52138" lon="2.21073">
        <ele>898.97</ele>
        <time>2016-07-01T09:02:58Z</time>
      </trkpt>
      <trkpt lat="42.52139" lon="2.21075">
        <ele>898.97</ele>
        <time>2016-07-01T09:02:59Z</time>
      </trkpt>
      <trkpt lat="42.52139" lon="2.21077">
        <ele>898.49</ele>
        <time>2016-07-01T09:03:00Z</time>
      </trkpt>
      <trkpt lat="42.52139" lon="2.2108">
        <ele>898.49</ele>
        <time>2016-07-01T09:03:01Z</time>
      </trkpt>
      <trkpt lat="42.5214" lon="2.21082">
        <ele>898.49</ele>
        <time>2016-07-01T09:03:02Z</time>
      </trkpt>
      <trkpt lat="42.5214" lon="2.21084">
        <ele>898.49</ele>
        <time>2016-07-01T09:03:03Z</time>
      </trkpt>
      <trkpt lat="42.52141" lon="2.21086">
        <ele>898.49</ele>
        <time>2016-07-01T09:03:04Z</time>
      </trkpt>
      <trkpt lat="42.52141" lon="2.21089">
        <ele>898.01</ele>
        <time>2016-07-01T09:03:05Z</time>
      </trkpt>
      <trkpt lat="42.5214" lon="2.21091">
        <ele>898.01</ele>
        <time>2016-07-01T09:03:06Z</time>
      </trkpt>
      <trkpt lat="42.52141" lon="2.21093">
        <ele>898.01</ele>
        <time>2016-07-01T09:03:07Z</time>
      </trkpt>
      <trkpt lat="42.52141" lon="2.21095">
        <ele>898.01</ele>
        <time>2016-07-01T09:03:08Z</time>
      </trkpt>
      <trkpt lat="42.52141" lon="2.21097">
        <ele>898.01</ele>
        <time>2016-07-01T09:03:09Z</time>
      </trkpt>
      <trkpt lat="42.52142" lon="2.21101">
        <ele>897.53</ele>
        <time>2016-07-01T09:03:11Z</time>
      </trkpt>
      <trkpt lat="42.52142" lon="2.21104">
        <ele>897.53</ele>
        <time>2016-07-01T09:03:12Z</time>
      </trkpt>
      <trkpt lat="42.52142" lon="2.21106">
        <ele>897.53</ele>
        <time>2016-07-01T09:03:13Z</time>
      </trkpt>
      <trkpt lat="42.52142" lon="2.21108">
        <ele>897.53</ele>
        <time>2016-07-01T09:03:14Z</time>
      </trkpt>
      <trkpt lat="42.52143" lon="2.2111">
        <ele>897.53</ele>
        <time>2016-07-01T09:03:15Z</time>
      </trkpt>
      <trkpt lat="42.52143" lon="2.21112">
        <ele>896.57</ele>
        <time>2016-07-01T09:03:16Z</time>
      </trkpt>
      <trkpt lat="42.52143" lon="2.21114">
        <ele>896.57</ele>
        <time>2016-07-01T09:03:17Z</time>
      </trkpt>
      <trkpt lat="42.52143" lon="2.21116">
        <ele>896.57</ele>
        <time>2016-07-01T09:03:18Z</time>
      </trkpt>
      <trkpt lat="42.52143" lon="2.21118">
        <ele>896.57</ele>
        <time>2016-07-01T09:03:19Z</time>
      </trkpt>
      <trkpt lat="42.52143" lon="2.2112">
        <ele>896.57</ele>
        <time>2016-07-01T09:03:20Z</time>
      </trkpt>
      <trkpt lat="42.52142" lon="2.21122">
        <ele>896.09</ele>
        <time>2016-07-01T09:03:21Z</time>
      </trkpt>
      <trkpt lat="42.52143" lon="2.21124">
        <ele>896.09</ele>
        <time>2016-07-01T09:03:22Z</time>
      </trkpt>
      <trkpt lat="42.52143" lon="2.21126">
        <ele>896.09</ele>
        <time>2016-07-01T09:03:23Z</time>
      </trkpt>
      <trkpt lat="42.52142" lon="2.21128">
        <ele>896.09</ele>
        <time>2016-07-01T09:03:24Z</time>
      </trkpt>
      <trkpt lat="42.52143" lon="2.21129">
        <ele>896.09</ele>
        <time>2016-07-01T09:03:25Z</time>
      </trkpt>
      <trkpt lat="42.52143" lon="2.21131">
        <ele>895.61</ele>
        <time>2016-07-01T09:03:26Z</time>
      </trkpt>
      <trkpt lat="42.52143" lon="2.21133">
        <ele>895.61</ele>
        <time>2016-07-01T09:03:27Z</time>
      </trkpt>
      <trkpt lat="42.52143" lon="2.21135">
        <ele>895.61</ele>
        <time>2016-07-01T09:03:28Z</time>
      </trkpt>
      <trkpt lat="42.52143" lon="2.21137">
        <ele>895.61</ele>
        <time>2016-07-01T09:03:29Z</time>
      </trkpt>
      <trkpt lat="42.52144" lon="2.21139">
        <ele>895.61</ele>
        <time>2016-07-01T09:03:30Z</time>
      </trkpt>
      <trkpt lat="42.52144" lon="2.21141">
        <ele>895.12</ele>
        <time>2016-07-01T09:03:31Z</time>
      </trkpt>
      <trkpt lat="42.52143" lon="2.21143">
        <ele>895.12</ele>
        <time>2016-07-01T09:03:32Z</time>
      </trkpt>
      <trkpt lat="42.52144" lon="2.21145">
        <ele>895.12</ele>
        <time>2016-07-01T09:03:33Z</time>
      </trkpt>
      <trkpt lat="42.52144" lon="2.21147">
        <ele>895.12</ele>
        <time>2016-07-01T09:03:34Z</time>
      </trkpt>
      <trkpt lat="42.52144" lon="2.21149">
        <ele>895.12</ele>
        <time>2016-07-01T09:03:35Z</time>
      </trkpt>
      <trkpt lat="42.52143" lon="2.21152">
        <ele>894.64</ele>
        <time>2016-07-01T09:03:36Z</time>
      </trkpt>
      <trkpt lat="42.52144" lon="2.21154">
        <ele>894.64</ele>
        <time>2016-07-01T09:03:37Z</time>
      </trkpt>
      <trkpt lat="42.52144" lon="2.21156">
        <ele>894.64</ele>
        <time>2016-07-01T09:03:38Z</time>
      </trkpt>
      <trkpt lat="42.52144" lon="2.21158">
        <ele>894.64</ele>
        <time>2016-07-01T09:03:39Z</time>
      </trkpt>
      <trkpt lat="42.52144" lon="2.2116">
        <ele>894.64</ele>
        <time>2016-07-01T09:03:40Z</time>
      </trkpt>
      <trkpt lat="42.52145" lon="2.21162">
        <ele>894.16</ele>
        <time>2016-07-01T09:03:41Z</time>
      </trkpt>
      <trkpt lat="42.52145" lon="2.21164">
        <ele>894.16</ele>
        <time>2016-07-01T09:03:42Z</time>
      </trkpt>
      <trkpt lat="42.52145" lon="2.21166">
        <ele>894.16</ele>
        <time>2016-07-01T09:03:43Z</time>
      </trkpt>
      <trkpt lat="42.52145" lon="2.21169">
        <ele>894.16</ele>
        <time>2016-07-01T09:03:44Z</time>
      </trkpt>
      <trkpt lat="42.52146" lon="2.21171">
        <ele>894.16</ele>
        <time>2016-07-01T09:03:45Z</time>
      </trkpt>
      <trkpt lat="42.52152" lon="2.21201">
        <ele>892.24</ele>
        <time>2016-07-01T09:03:58Z</time>
      </trkpt>
      <trkpt lat="42.52153" lon="2.21205">
        <ele>892.24</ele>
        <time>2016-07-01T09:04:00Z</time>
      </trkpt>
      <trkpt lat="42.52154" lon="2.21208">
        <ele>891.76</ele>
        <time>2016-07-01T09:04:01Z</time>
      </trkpt>
      <trkpt lat="42.52155" lon="2.2121">
        <ele>891.76</ele>
        <time>2016-07-01T09:04:02Z</time>
      </trkpt>
      <trkpt lat="42.52155" lon="2.21212">
        <ele>891.76</ele>
        <time>2016-07-01T09:04:03Z</time>
      </trkpt>
      <trkpt lat="42.52156" lon="2.21214">
        <ele>891.76</ele>
        <time>2016-07-01T09:04:04Z</time>
      </trkpt>
      <trkpt lat="42.52157" lon="2.21216">
        <ele>891.28</ele>
        <time>2016-07-01T09:04:05Z</time>
      </trkpt>
      <trkpt lat="42.52157" lon="2.21218">
        <ele>891.28</ele>
        <time>2016-07-01T09:04:06Z</time>
      </trkpt>
      <trkpt lat="42.52167" lon="2.21246">
        <ele>889.84</ele>
        <time>2016-07-01T09:04:20Z</time>
      </trkpt>
      <trkpt lat="42.52175" lon="2.21267">
        <ele>888.88</ele>
        <time>2016-07-01T09:04:31Z</time>
      </trkpt>
      <trkpt lat="42.52178" lon="2.21276">
        <ele>888.88</ele>
        <time>2016-07-01T09:04:35Z</time>
      </trkpt>
      <trkpt lat="42.52179" lon="2.21278">
        <ele>888.4</ele>
        <time>2016-07-01T09:04:36Z</time>
      </trkpt>
      <trkpt lat="42.52188" lon="2.21303">
        <ele>887.43</ele>
        <time>2016-07-01T09:04:49Z</time>
      </trkpt>
      <trkpt lat="42.52192" lon="2.21317">
        <ele>886.95</ele>
        <time>2016-07-01T09:04:56Z</time>
      </trkpt>
      <trkpt lat="42.52193" lon="2.21319">
        <ele>886.47</ele>
        <time>2016-07-01T09:04:57Z</time>
      </trkpt>
      <trkpt lat="42.52194" lon="2.2132">
        <ele>886.47</ele>
        <time>2016-07-01T09:04:58Z</time>
      </trkpt>
      <trkpt lat="42.52194" lon="2.21322">
        <ele>886.47</ele>
        <time>2016-07-01T09:04:59Z</time>
      </trkpt>
      <trkpt lat="42.52195" lon="2.21324">
        <ele>886.47</ele>
        <time>2016-07-01T09:05:00Z</time>
      </trkpt>
      <trkpt lat="42.52196" lon="2.21326">
        <ele>886.47</ele>
        <time>2016-07-01T09:05:01Z</time>
      </trkpt>
      <trkpt lat="42.52196" lon="2.21328">
        <ele>885.51</ele>
        <time>2016-07-01T09:05:02Z</time>
      </trkpt>
      <trkpt lat="42.52197" lon="2.21332">
        <ele>885.51</ele>
        <time>2016-07-01T09:05:04Z</time>
      </trkpt>
      <trkpt lat="42.52198" lon="2.21334">
        <ele>885.51</ele>
        <time>2016-07-01T09:05:05Z</time>
      </trkpt>
      <trkpt lat="42.52199" lon="2.21336">
        <ele>885.51</ele>
        <time>2016-07-01T09:05:06Z</time>
      </trkpt>
      <trkpt lat="42.52199" lon="2.21338">
        <ele>885.51</ele>
        <time>2016-07-01T09:05:07Z</time>
      </trkpt>
      <trkpt lat="42.52199" lon="2.2134">
        <ele>885.03</ele>
        <time>2016-07-01T09:05:08Z</time>
      </trkpt>
      <trkpt lat="42.522" lon="2.21342">
        <ele>885.03</ele>
        <time>2016-07-01T09:05:09Z</time>
      </trkpt>
      <trkpt lat="42.522" lon="2.21344">
        <ele>885.03</ele>
        <time>2016-07-01T09:05:10Z</time>
      </trkpt>
      <trkpt lat="42.522" lon="2.21346">
        <ele>885.03</ele>
        <time>2016-07-01T09:05:11Z</time>
      </trkpt>
      <trkpt lat="42.522" lon="2.21349">
        <ele>885.03</ele>
        <time>2016-07-01T09:05:12Z</time>
      </trkpt>
      <trkpt lat="42.52201" lon="2.21351">
        <ele>885.03</ele>
        <time>2016-07-01T09:05:13Z</time>
      </trkpt>
      <trkpt lat="42.52201" lon="2.21353">
        <ele>884.55</ele>
        <time>2016-07-01T09:05:14Z</time>
      </trkpt>
      <trkpt lat="42.52201" lon="2.21355">
        <ele>884.55</ele>
        <time>2016-07-01T09:05:15Z</time>
      </trkpt>
      <trkpt lat="42.52201" lon="2.21357">
        <ele>884.55</ele>
        <time>2016-07-01T09:05:16Z</time>
      </trkpt>
      <trkpt lat="42.52201" lon="2.21359">
        <ele>884.55</ele>
        <time>2016-07-01T09:05:17Z</time>
      </trkpt>
      <trkpt lat="42.52201" lon="2.21361">
        <ele>884.55</ele>
        <time>2016-07-01T09:05:18Z</time>
      </trkpt>
      <trkpt lat="42.52201" lon="2.21363">
        <ele>884.55</ele>
        <time>2016-07-01T09:05:19Z</time>
      </trkpt>
      <trkpt lat="42.52201" lon="2.21366">
        <ele>884.07</ele>
        <time>2016-07-01T09:05:20Z</time>
      </trkpt>
      <trkpt lat="42.52201" lon="2.21368">
        <ele>884.07</ele>
        <time>2016-07-01T09:05:21Z</time>
      </trkpt>
      <trkpt lat="42.52201" lon="2.2137">
        <ele>884.07</ele>
        <time>2016-07-01T09:05:22Z</time>
      </trkpt>
      <trkpt lat="42.52201" lon="2.21372">
        <ele>884.07</ele>
        <time>2016-07-01T09:05:23Z</time>
      </trkpt>
      <trkpt lat="42.52202" lon="2.21374">
        <ele>884.07</ele>
        <time>2016-07-01T09:05:24Z</time>
      </trkpt>
      <trkpt lat="42.52202" lon="2.21377">
        <ele>883.59</ele>
        <time>2016-07-01T09:05:25Z</time>
      </trkpt>
      <trkpt lat="42.52202" lon="2.21379">
        <ele>883.59</ele>
        <time>2016-07-01T09:05:26Z</time>
      </trkpt>
      <trkpt lat="42.52202" lon="2.21382">
        <ele>883.59</ele>
        <time>2016-07-01T09:05:27Z</time>
      </trkpt>
      <trkpt lat="42.52202" lon="2.21384">
        <ele>883.59</ele>
        <time>2016-07-01T09:05:28Z</time>
      </trkpt>
      <trkpt lat="42.52202" lon="2.21386">
        <ele>883.59</ele>
        <time>2016-07-01T09:05:29Z</time>
      </trkpt>
      <trkpt lat="42.52203" lon="2.2139">
        <ele>883.11</ele>
        <time>2016-07-01T09:05:31Z</time>
      </trkpt>
      <trkpt lat="42.52203" lon="2.21392">
        <ele>883.11</ele>
        <time>2016-07-01T09:05:32Z</time>
      </trkpt>
      <trkpt lat="42.52203" lon="2.21394">
        <ele>883.11</ele>
        <time>2016-07-01T09:05:33Z</time>
      </trkpt>
      <trkpt lat="42.52203" lon="2.21396">
        <ele>883.11</ele>
        <time>2016-07-01T09:05:34Z</time>
      </trkpt>
      <trkpt lat="42.52203" lon="2.21398">
        <ele>882.15</ele>
        <time>2016-07-01T09:05:35Z</time>
      </trkpt>
      <trkpt lat="42.52203" lon="2.21401">
        <ele>882.63</ele>
        <time>2016-07-01T09:05:36Z</time>
      </trkpt>
      <trkpt lat="42.52203" lon="2.21403">
        <ele>882.63</ele>
        <time>2016-07-01T09:05:37Z</time>
      </trkpt>
      <trkpt lat="42.52203" lon="2.21405">
        <ele>882.63</ele>
        <time>2016-07-01T09:05:38Z</time>
      </trkpt>
      <trkpt lat="42.52204" lon="2.21415">
        <ele>881.67</ele>
        <time>2016-07-01T09:05:43Z</time>
      </trkpt>
      <trkpt lat="42.52204" lon="2.21417">
        <ele>881.67</ele>
        <time>2016-07-01T09:05:44Z</time>
      </trkpt>
      <trkpt lat="42.52205" lon="2.21419">
        <ele>881.19</ele>
        <time>2016-07-01T09:05:45Z</time>
      </trkpt>
      <trkpt lat="42.52205" lon="2.21421">
        <ele>881.19</ele>
        <time>2016-07-01T09:05:46Z</time>
      </trkpt>
      <trkpt lat="42.52205" lon="2.21423">
        <ele>881.19</ele>
        <time>2016-07-01T09:05:47Z</time>
      </trkpt>
      <trkpt lat="42.52205" lon="2.21425">
        <ele>881.19</ele>
        <time>2016-07-01T09:05:48Z</time>
      </trkpt>
      <trkpt lat="42.52206" lon="2.21427">
        <ele>881.19</ele>
        <time>2016-07-01T09:05:49Z</time>
      </trkpt>
      <trkpt lat="42.52206" lon="2.21431">
        <ele>881.19</ele>
        <time>2016-07-01T09:05:51Z</time>
      </trkpt>
      <trkpt lat="42.52206" lon="2.21433">
        <ele>880.71</ele>
        <time>2016-07-01T09:05:52Z</time>
      </trkpt>
      <trkpt lat="42.52206" lon="2.21435">
        <ele>880.71</ele>
        <time>2016-07-01T09:05:53Z</time>
      </trkpt>
      <trkpt lat="42.52206" lon="2.21437">
        <ele>880.71</ele>
        <time>2016-07-01T09:05:54Z</time>
      </trkpt>
      <trkpt lat="42.52206" lon="2.21439">
        <ele>880.71</ele>
        <time>2016-07-01T09:05:55Z</time>
      </trkpt>
      <trkpt lat="42.52206" lon="2.21441">
        <ele>880.71</ele>
        <time>2016-07-01T09:05:56Z</time>
      </trkpt>
      <trkpt lat="42.52206" lon="2.21444">
        <ele>880.22</ele>
        <time>2016-07-01T09:05:57Z</time>
      </trkpt>
      <trkpt lat="42.52206" lon="2.21446">
        <ele>880.22</ele>
        <time>2016-07-01T09:05:58Z</time>
      </trkpt>
      <trkpt lat="42.52206" lon="2.21448">
        <ele>880.22</ele>
        <time>2016-07-01T09:05:59Z</time>
      </trkpt>
      <trkpt lat="42.52206" lon="2.21451">
        <ele>880.22</ele>
        <time>2016-07-01T09:06:00Z</time>
      </trkpt>
      <trkpt lat="42.52205" lon="2.21453">
        <ele>880.22</ele>
        <time>2016-07-01T09:06:01Z</time>
      </trkpt>
      <trkpt lat="42.52204" lon="2.21455">
        <ele>880.22</ele>
        <time>2016-07-01T09:06:02Z</time>
      </trkpt>
      <trkpt lat="42.52203" lon="2.21457">
        <ele>880.22</ele>
        <time>2016-07-01T09:06:03Z</time>
      </trkpt>
      <trkpt lat="42.52203" lon="2.2146">
        <ele>880.22</ele>
        <time>2016-07-01T09:06:04Z</time>
      </trkpt>
      <trkpt lat="42.52201" lon="2.21466">
        <ele>879.74</ele>
        <time>2016-07-01T09:06:07Z</time>
      </trkpt>
      <trkpt lat="42.52201" lon="2.21468">
        <ele>879.74</ele>
        <time>2016-07-01T09:06:08Z</time>
      </trkpt>
      <trkpt lat="42.52201" lon="2.2147">
        <ele>878.78</ele>
        <time>2016-07-01T09:06:09Z</time>
      </trkpt>
      <trkpt lat="42.52199" lon="2.21472">
        <ele>879.26</ele>
        <time>2016-07-01T09:06:10Z</time>
      </trkpt>
      <trkpt lat="42.52198" lon="2.21474">
        <ele>879.26</ele>
        <time>2016-07-01T09:06:11Z</time>
      </trkpt>
      <trkpt lat="42.52198" lon="2.21476">
        <ele>879.26</ele>
        <time>2016-07-01T09:06:12Z</time>
      </trkpt>
      <trkpt lat="42.52197" lon="2.21478">
        <ele>879.26</ele>
        <time>2016-07-01T09:06:13Z</time>
      </trkpt>
      <trkpt lat="42.52196" lon="2.2148">
        <ele>878.3</ele>
        <time>2016-07-01T09:06:14Z</time>
      </trkpt>
      <trkpt lat="42.52195" lon="2.21482">
        <ele>878.78</ele>
        <time>2016-07-01T09:06:15Z</time>
      </trkpt>
      <trkpt lat="42.52194" lon="2.21484">
        <ele>878.78</ele>
        <time>2016-07-01T09:06:16Z</time>
      </trkpt>
      <trkpt lat="42.52193" lon="2.21486">
        <ele>878.78</ele>
        <time>2016-07-01T09:06:17Z</time>
      </trkpt>
      <trkpt lat="42.52192" lon="2.21488">
        <ele>878.78</ele>
        <time>2016-07-01T09:06:18Z</time>
      </trkpt>
      <trkpt lat="42.52191" lon="2.2149">
        <ele>877.82</ele>
        <time>2016-07-01T09:06:19Z</time>
      </trkpt>
      <trkpt lat="42.52191" lon="2.21492">
        <ele>877.82</ele>
        <time>2016-07-01T09:06:20Z</time>
      </trkpt>
      <trkpt lat="42.5219" lon="2.21495">
        <ele>877.82</ele>
        <time>2016-07-01T09:06:21Z</time>
      </trkpt>
      <trkpt lat="42.52189" lon="2.21499">
        <ele>877.82</ele>
        <time>2016-07-01T09:06:23Z</time>
      </trkpt>
      <trkpt lat="42.52188" lon="2.21501">
        <ele>877.82</ele>
        <time>2016-07-01T09:06:24Z</time>
      </trkpt>
      <trkpt lat="42.52188" lon="2.21503">
        <ele>877.34</ele>
        <time>2016-07-01T09:06:25Z</time>
      </trkpt>
      <trkpt lat="42.52191" lon="2.21531">
        <ele>876.38</ele>
        <time>2016-07-01T09:06:38Z</time>
      </trkpt>
      <trkpt lat="42.52205" lon="2.21553">
        <ele>874.46</ele>
        <time>2016-07-01T09:06:50Z</time>
      </trkpt>
      <trkpt lat="42.52207" lon="2.21555">
        <ele>874.46</ele>
        <time>2016-07-01T09:06:52Z</time>
      </trkpt>
      <trkpt lat="42.52208" lon="2.21557">
        <ele>874.46</ele>
        <time>2016-07-01T09:06:53Z</time>
      </trkpt>
      <trkpt lat="42.5221" lon="2.21559">
        <ele>873.98</ele>
        <time>2016-07-01T09:06:54Z</time>
      </trkpt>
      <trkpt lat="42.52211" lon="2.21562">
        <ele>873.98</ele>
        <time>2016-07-01T09:06:56Z</time>
      </trkpt>
      <trkpt lat="42.52212" lon="2.21564">
        <ele>873.98</ele>
        <time>2016-07-01T09:06:57Z</time>
      </trkpt>
      <trkpt lat="42.52213" lon="2.21566">
        <ele>873.98</ele>
        <time>2016-07-01T09:06:58Z</time>
      </trkpt>
      <trkpt lat="42.52224" lon="2.21596">
        <ele>872.53</ele>
        <time>2016-07-01T09:07:13Z</time>
      </trkpt>
      <trkpt lat="42.52226" lon="2.21624">
        <ele>870.61</ele>
        <time>2016-07-01T09:07:26Z</time>
      </trkpt>
      <trkpt lat="42.52224" lon="2.21637">
        <ele>869.65</ele>
        <time>2016-07-01T09:07:32Z</time>
      </trkpt>
      <trkpt lat="42.52224" lon="2.21639">
        <ele>869.65</ele>
        <time>2016-07-01T09:07:33Z</time>
      </trkpt>
      <trkpt lat="42.52223" lon="2.21641">
        <ele>869.65</ele>
        <time>2016-07-01T09:07:34Z</time>
      </trkpt>
      <trkpt lat="42.52223" lon="2.21643">
        <ele>868.69</ele>
        <time>2016-07-01T09:07:35Z</time>
      </trkpt>
      <trkpt lat="42.52223" lon="2.21645">
        <ele>869.17</ele>
        <time>2016-07-01T09:07:36Z</time>
      </trkpt>
      <trkpt lat="42.52222" lon="2.21648">
        <ele>869.17</ele>
        <time>2016-07-01T09:07:37Z</time>
      </trkpt>
      <trkpt lat="42.52222" lon="2.2165">
        <ele>869.17</ele>
        <time>2016-07-01T09:07:38Z</time>
      </trkpt>
      <trkpt lat="42.52222" lon="2.21651">
        <ele>869.17</ele>
        <time>2016-07-01T09:07:39Z</time>
      </trkpt>
      <trkpt lat="42.52221" lon="2.21653">
        <ele>868.21</ele>
        <time>2016-07-01T09:07:40Z</time>
      </trkpt>
      <trkpt lat="42.52221" lon="2.21655">
        <ele>868.69</ele>
        <time>2016-07-01T09:07:41Z</time>
      </trkpt>
      <trkpt lat="42.5222" lon="2.21659">
        <ele>868.69</ele>
        <time>2016-07-01T09:07:42Z</time>
      </trkpt>
      <trkpt lat="42.5222" lon="2.21661">
        <ele>868.69</ele>
        <time>2016-07-01T09:07:43Z</time>
      </trkpt>
      <trkpt lat="42.5222" lon="2.21664">
        <ele>868.69</ele>
        <time>2016-07-01T09:07:44Z</time>
      </trkpt>
      <trkpt lat="42.5222" lon="2.21666">
        <ele>867.73</ele>
        <time>2016-07-01T09:07:45Z</time>
      </trkpt>
      <trkpt lat="42.5222" lon="2.21669">
        <ele>868.21</ele>
        <time>2016-07-01T09:07:46Z</time>
      </trkpt>
      <trkpt lat="42.52221" lon="2.21671">
        <ele>868.21</ele>
        <time>2016-07-01T09:07:47Z</time>
      </trkpt>
      <trkpt lat="42.52221" lon="2.21673">
        <ele>868.21</ele>
        <time>2016-07-01T09:07:48Z</time>
      </trkpt>
      <trkpt lat="42.52221" lon="2.21676">
        <ele>868.21</ele>
        <time>2016-07-01T09:07:49Z</time>
      </trkpt>
      <trkpt lat="42.52221" lon="2.21678">
        <ele>868.21</ele>
        <time>2016-07-01T09:07:50Z</time>
      </trkpt>
      <trkpt lat="42.52222" lon="2.21681">
        <ele>867.25</ele>
        <time>2016-07-01T09:07:51Z</time>
      </trkpt>
      <trkpt lat="42.52222" lon="2.21683">
        <ele>867.25</ele>
        <time>2016-07-01T09:07:52Z</time>
      </trkpt>
      <trkpt lat="42.52224" lon="2.21696">
        <ele>867.25</ele>
        <time>2016-07-01T09:08:00Z</time>
      </trkpt>
      <trkpt lat="42.52225" lon="2.21697">
        <ele>867.25</ele>
        <time>2016-07-01T09:08:01Z</time>
      </trkpt>
      <trkpt lat="42.5223" lon="2.21723">
        <ele>865.8</ele>
        <time>2016-07-01T09:08:15Z</time>
      </trkpt>
      <trkpt lat="42.52231" lon="2.21725">
        <ele>865.8</ele>
        <time>2016-07-01T09:08:16Z</time>
      </trkpt>
      <trkpt lat="42.52231" lon="2.21728">
        <ele>865.8</ele>
        <time>2016-07-01T09:08:17Z</time>
      </trkpt>
      <trkpt lat="42.52232" lon="2.2173">
        <ele>865.8</ele>
        <time>2016-07-01T09:08:18Z</time>
      </trkpt>
      <trkpt lat="42.52233" lon="2.21732">
        <ele>865.32</ele>
        <time>2016-07-01T09:08:19Z</time>
      </trkpt>
      <trkpt lat="42.52233" lon="2.21734">
        <ele>865.32</ele>
        <time>2016-07-01T09:08:20Z</time>
      </trkpt>
      <trkpt lat="42.52234" lon="2.21735">
        <ele>865.32</ele>
        <time>2016-07-01T09:08:21Z</time>
      </trkpt>
      <trkpt lat="42.52235" lon="2.21737">
        <ele>865.32</ele>
        <time>2016-07-01T09:08:22Z</time>
      </trkpt>
      <trkpt lat="42.52236" lon="2.21738">
        <ele>865.32</ele>
        <time>2016-07-01T09:08:23Z</time>
      </trkpt>
      <trkpt lat="42.52237" lon="2.2174">
        <ele>865.32</ele>
        <time>2016-07-01T09:08:24Z</time>
      </trkpt>
      <trkpt lat="42.52238" lon="2.21741">
        <ele>864.84</ele>
        <time>2016-07-01T09:08:25Z</time>
      </trkpt>
      <trkpt lat="42.52239" lon="2.21743">
        <ele>864.84</ele>
        <time>2016-07-01T09:08:26Z</time>
      </trkpt>
      <trkpt lat="42.52254" lon="2.21764">
        <ele>862.92</ele>
        <time>2016-07-01T09:08:40Z</time>
      </trkpt>
      <trkpt lat="42.52269" lon="2.21785">
        <ele>861.96</ele>
        <time>2016-07-01T09:08:53Z</time>
      </trkpt>
      <trkpt lat="42.52274" lon="2.21797">
        <ele>860.52</ele>
        <time>2016-07-01T09:09:00Z</time>
      </trkpt>
      <trkpt lat="42.52277" lon="2.21802">
        <ele>860.52</ele>
        <time>2016-07-01T09:09:03Z</time>
      </trkpt>
      <trkpt lat="42.52277" lon="2.21804">
        <ele>860.52</ele>
        <time>2016-07-01T09:09:04Z</time>
      </trkpt>
      <trkpt lat="42.52278" lon="2.21806">
        <ele>860.52</ele>
        <time>2016-07-01T09:09:05Z</time>
      </trkpt>
      <trkpt lat="42.52279" lon="2.21809">
        <ele>860.52</ele>
        <time>2016-07-01T09:09:06Z</time>
      </trkpt>
      <trkpt lat="42.52279" lon="2.21811">
        <ele>860.04</ele>
        <time>2016-07-01T09:09:07Z</time>
      </trkpt>
      <trkpt lat="42.5228" lon="2.21813">
        <ele>860.04</ele>
        <time>2016-07-01T09:09:08Z</time>
      </trkpt>
      <trkpt lat="42.52281" lon="2.21814">
        <ele>860.04</ele>
        <time>2016-07-01T09:09:09Z</time>
      </trkpt>
      <trkpt lat="42.52281" lon="2.21816">
        <ele>860.04</ele>
        <time>2016-07-01T09:09:10Z</time>
      </trkpt>
      <trkpt lat="42.52282" lon="2.2182">
        <ele>859.56</ele>
        <time>2016-07-01T09:09:12Z</time>
      </trkpt>
      <trkpt lat="42.52283" lon="2.21822">
        <ele>859.56</ele>
        <time>2016-07-01T09:09:13Z</time>
      </trkpt>
      <trkpt lat="42.52285" lon="2.21828">
        <ele>859.56</ele>
        <time>2016-07-01T09:09:16Z</time>
      </trkpt>
      <trkpt lat="42.52301" lon="2.21852">
        <ele>857.63</ele>
        <time>2016-07-01T09:09:30Z</time>
      </trkpt>
      <trkpt lat="42.52322" lon="2.21865">
        <ele>856.67</ele>
        <time>2016-07-01T09:09:45Z</time>
      </trkpt>
      <trkpt lat="42.5234" lon="2.21879">
        <ele>855.23</ele>
        <time>2016-07-01T09:09:59Z</time>
      </trkpt>
      <trkpt lat="42.52341" lon="2.2188">
        <ele>855.23</ele>
        <time>2016-07-01T09:10:00Z</time>
      </trkpt>
      <trkpt lat="42.52343" lon="2.21881">
        <ele>854.75</ele>
        <time>2016-07-01T09:10:01Z</time>
      </trkpt>
      <trkpt lat="42.52347" lon="2.21886">
        <ele>854.75</ele>
        <time>2016-07-01T09:10:04Z</time>
      </trkpt>
      <trkpt lat="42.52348" lon="2.21887">
        <ele>854.75</ele>
        <time>2016-07-01T09:10:05Z</time>
      </trkpt>
      <trkpt lat="42.52349" lon="2.21888">
        <ele>854.27</ele>
        <time>2016-07-01T09:10:06Z</time>
      </trkpt>
      <trkpt lat="42.52351" lon="2.2189">
        <ele>854.27</ele>
        <time>2016-07-01T09:10:07Z</time>
      </trkpt>
      <trkpt lat="42.52352" lon="2.21891">
        <ele>854.27</ele>
        <time>2016-07-01T09:10:08Z</time>
      </trkpt>
      <trkpt lat="42.52353" lon="2.21893">
        <ele>854.27</ele>
        <time>2016-07-01T09:10:09Z</time>
      </trkpt>
      <trkpt lat="42.52354" lon="2.21894">
        <ele>854.27</ele>
        <time>2016-07-01T09:10:10Z</time>
      </trkpt>
      <trkpt lat="42.52374" lon="2.21911">
        <ele>852.35</ele>
        <time>2016-07-01T09:10:24Z</time>
      </trkpt>
      <trkpt lat="42.52393" lon="2.21922">
        <ele>850.9</ele>
        <time>2016-07-01T09:10:37Z</time>
      </trkpt>
      <trkpt lat="42.52396" lon="2.21924">
        <ele>849.94</ele>
        <time>2016-07-01T09:10:39Z</time>
      </trkpt>
      <trkpt lat="42.52398" lon="2.21925">
        <ele>849.94</ele>
        <time>2016-07-01T09:10:40Z</time>
      </trkpt>
      <trkpt lat="42.52399" lon="2.21926">
        <ele>849.94</ele>
        <time>2016-07-01T09:10:41Z</time>
      </trkpt>
      <trkpt lat="42.52401" lon="2.21927">
        <ele>849.94</ele>
        <time>2016-07-01T09:10:42Z</time>
      </trkpt>
      <trkpt lat="42.52402" lon="2.21927">
        <ele>849.94</ele>
        <time>2016-07-01T09:10:43Z</time>
      </trkpt>
      <trkpt lat="42.52404" lon="2.21928">
        <ele>849.46</ele>
        <time>2016-07-01T09:10:44Z</time>
      </trkpt>
      <trkpt lat="42.52405" lon="2.21929">
        <ele>849.46</ele>
        <time>2016-07-01T09:10:45Z</time>
      </trkpt>
      <trkpt lat="42.52407" lon="2.2193">
        <ele>849.46</ele>
        <time>2016-07-01T09:10:46Z</time>
      </trkpt>
      <trkpt lat="42.52408" lon="2.21931">
        <ele>849.46</ele>
        <time>2016-07-01T09:10:47Z</time>
      </trkpt>
      <trkpt lat="42.52409" lon="2.21932">
        <ele>849.46</ele>
        <time>2016-07-01T09:10:48Z</time>
      </trkpt>
      <trkpt lat="42.5241" lon="2.21934">
        <ele>849.46</ele>
        <time>2016-07-01T09:10:49Z</time>
      </trkpt>
      <trkpt lat="42.52411" lon="2.21935">
        <ele>848.98</ele>
        <time>2016-07-01T09:10:50Z</time>
      </trkpt>
      <trkpt lat="42.52412" lon="2.21937">
        <ele>848.98</ele>
        <time>2016-07-01T09:10:51Z</time>
      </trkpt>
      <trkpt lat="42.52414" lon="2.21938">
        <ele>848.98</ele>
        <time>2016-07-01T09:10:52Z</time>
      </trkpt>
      <trkpt lat="42.52415" lon="2.2194">
        <ele>848.98</ele>
        <time>2016-07-01T09:10:53Z</time>
      </trkpt>
      <trkpt lat="42.52415" lon="2.21942">
        <ele>848.98</ele>
        <time>2016-07-01T09:10:54Z</time>
      </trkpt>
      <trkpt lat="42.52416" lon="2.21944">
        <ele>848.5</ele>
        <time>2016-07-01T09:10:55Z</time>
      </trkpt>
      <trkpt lat="42.52418" lon="2.21945">
        <ele>848.5</ele>
        <time>2016-07-01T09:10:56Z</time>
      </trkpt>
      <trkpt lat="42.52418" lon="2.21946">
        <ele>848.5</ele>
        <time>2016-07-01T09:10:57Z</time>
      </trkpt>
      <trkpt lat="42.52426" lon="2.21952">
        <ele>848.02</ele>
        <time>2016-07-01T09:11:05Z</time>
      </trkpt>
      <trkpt lat="42.52427" lon="2.21953">
        <ele>848.02</ele>
        <time>2016-07-01T09:11:06Z</time>
      </trkpt>
      <trkpt lat="42.52428" lon="2.21955">
        <ele>848.02</ele>
        <time>2016-07-01T09:11:07Z</time>
      </trkpt>
      <trkpt lat="42.52429" lon="2.21957">
        <ele>847.54</ele>
        <time>2016-07-01T09:11:08Z</time>
      </trkpt>
      <trkpt lat="42.5243" lon="2.21958">
        <ele>847.54</ele>
        <time>2016-07-01T09:11:09Z</time>
      </trkpt>
      <trkpt lat="42.52431" lon="2.2196">
        <ele>847.54</ele>
        <time>2016-07-01T09:11:10Z</time>
      </trkpt>
      <trkpt lat="42.52436" lon="2.21966">
        <ele>847.06</ele>
        <time>2016-07-01T09:11:14Z</time>
      </trkpt>
      <trkpt lat="42.52437" lon="2.21967">
        <ele>847.06</ele>
        <time>2016-07-01T09:11:15Z</time>
      </trkpt>
      <trkpt lat="42.52446" lon="2.21982">
        <ele>845.62</ele>
        <time>2016-07-01T09:11:24Z</time>
      </trkpt>
      <trkpt lat="42.52447" lon="2.21984">
        <ele>845.62</ele>
        <time>2016-07-01T09:11:25Z</time>
      </trkpt>
      <trkpt lat="42.52448" lon="2.21985">
        <ele>845.62</ele>
        <time>2016-07-01T09:11:26Z</time>
      </trkpt>
      <trkpt lat="42.52448" lon="2.21987">
        <ele>845.62</ele>
        <time>2016-07-01T09:11:27Z</time>
      </trkpt>
      <trkpt lat="42.52449" lon="2.21989">
        <ele>845.62</ele>
        <time>2016-07-01T09:11:28Z</time>
      </trkpt>
      <trkpt lat="42.5245" lon="2.2199">
        <ele>845.14</ele>
        <time>2016-07-01T09:11:29Z</time>
      </trkpt>
      <trkpt lat="42.52453" lon="2.21997">
        <ele>845.14</ele>
        <time>2016-07-01T09:11:33Z</time>
      </trkpt>
      <trkpt lat="42.52454" lon="2.21999">
        <ele>844.66</ele>
        <time>2016-07-01T09:11:34Z</time>
      </trkpt>
      <trkpt lat="42.52454" lon="2.22001">
        <ele>844.66</ele>
        <time>2016-07-01T09:11:35Z</time>
      </trkpt>
      <trkpt lat="42.52455" lon="2.22003">
        <ele>844.66</ele>
        <time>2016-07-01T09:11:36Z</time>
      </trkpt>
      <trkpt lat="42.52456" lon="2.22005">
        <ele>844.66</ele>
        <time>2016-07-01T09:11:37Z</time>
      </trkpt>
      <trkpt lat="42.52457" lon="2.22008">
        <ele>844.66</ele>
        <time>2016-07-01T09:11:38Z</time>
      </trkpt>
      <trkpt lat="42.52458" lon="2.2201">
        <ele>844.18</ele>
        <time>2016-07-01T09:11:39Z</time>
      </trkpt>
      <trkpt lat="42.5246" lon="2.22019">
        <ele>844.18</ele>
        <time>2016-07-01T09:11:43Z</time>
      </trkpt>
      <trkpt lat="42.52461" lon="2.22021">
        <ele>844.18</ele>
        <time>2016-07-01T09:11:44Z</time>
      </trkpt>
      <trkpt lat="42.52461" lon="2.22023">
        <ele>843.69</ele>
        <time>2016-07-01T09:11:45Z</time>
      </trkpt>
      <trkpt lat="42.52462" lon="2.22025">
        <ele>843.69</ele>
        <time>2016-07-01T09:11:46Z</time>
      </trkpt>
      <trkpt lat="42.52462" lon="2.22027">
        <ele>843.69</ele>
        <time>2016-07-01T09:11:47Z</time>
      </trkpt>
      <trkpt lat="42.52462" lon="2.2203">
        <ele>843.69</ele>
        <time>2016-07-01T09:11:48Z</time>
      </trkpt>
      <trkpt lat="42.52463" lon="2.22032">
        <ele>843.69</ele>
        <time>2016-07-01T09:11:49Z</time>
      </trkpt>
      <trkpt lat="42.52463" lon="2.22034">
        <ele>843.69</ele>
        <time>2016-07-01T09:11:50Z</time>
      </trkpt>
      <trkpt lat="42.52463" lon="2.22036">
        <ele>843.21</ele>
        <time>2016-07-01T09:11:51Z</time>
      </trkpt>
      <trkpt lat="42.52464" lon="2.22038">
        <ele>843.21</ele>
        <time>2016-07-01T09:11:52Z</time>
      </trkpt>
      <trkpt lat="42.52465" lon="2.2204">
        <ele>843.21</ele>
        <time>2016-07-01T09:11:53Z</time>
      </trkpt>
      <trkpt lat="42.52465" lon="2.22043">
        <ele>843.21</ele>
        <time>2016-07-01T09:11:54Z</time>
      </trkpt>
      <trkpt lat="42.52466" lon="2.22045">
        <ele>842.73</ele>
        <time>2016-07-01T09:11:55Z</time>
      </trkpt>
      <trkpt lat="42.52466" lon="2.22047">
        <ele>842.73</ele>
        <time>2016-07-01T09:11:56Z</time>
      </trkpt>
      <trkpt lat="42.52466" lon="2.2205">
        <ele>842.25</ele>
        <time>2016-07-01T09:11:57Z</time>
      </trkpt>
      <trkpt lat="42.52466" lon="2.22052">
        <ele>842.25</ele>
        <time>2016-07-01T09:11:58Z</time>
      </trkpt>
      <trkpt lat="42.52467" lon="2.22054">
        <ele>842.25</ele>
        <time>2016-07-01T09:11:59Z</time>
      </trkpt>
      <trkpt lat="42.52468" lon="2.22056">
        <ele>842.25</ele>
        <time>2016-07-01T09:12:00Z</time>
      </trkpt>
      <trkpt lat="42.52469" lon="2.22063">
        <ele>841.77</ele>
        <time>2016-07-01T09:12:03Z</time>
      </trkpt>
      <trkpt lat="42.52469" lon="2.22065">
        <ele>841.77</ele>
        <time>2016-07-01T09:12:04Z</time>
      </trkpt>
      <trkpt lat="42.5247" lon="2.22068">
        <ele>841.77</ele>
        <time>2016-07-01T09:12:05Z</time>
      </trkpt>
      <trkpt lat="42.52471" lon="2.22072">
        <ele>841.77</ele>
        <time>2016-07-01T09:12:07Z</time>
      </trkpt>
      <trkpt lat="42.52472" lon="2.22075">
        <ele>841.77</ele>
        <time>2016-07-01T09:12:08Z</time>
      </trkpt>
      <trkpt lat="42.52473" lon="2.22081">
        <ele>841.29</ele>
        <time>2016-07-01T09:12:11Z</time>
      </trkpt>
      <trkpt lat="42.52474" lon="2.22083">
        <ele>841.29</ele>
        <time>2016-07-01T09:12:12Z</time>
      </trkpt>
      <trkpt lat="42.52475" lon="2.22085">
        <ele>841.29</ele>
        <time>2016-07-01T09:12:13Z</time>
      </trkpt>
      <trkpt lat="42.52475" lon="2.22087">
        <ele>841.29</ele>
        <time>2016-07-01T09:12:14Z</time>
      </trkpt>
      <trkpt lat="42.52475" lon="2.22088">
        <ele>840.81</ele>
        <time>2016-07-01T09:12:15Z</time>
      </trkpt>
      <trkpt lat="42.52476" lon="2.22089">
        <ele>840.81</ele>
        <time>2016-07-01T09:12:16Z</time>
      </trkpt>
      <trkpt lat="42.52477" lon="2.22091">
        <ele>840.81</ele>
        <time>2016-07-01T09:12:17Z</time>
      </trkpt>
      <trkpt lat="42.52478" lon="2.22094">
        <ele>840.81</ele>
        <time>2016-07-01T09:12:19Z</time>
      </trkpt>
      <trkpt lat="42.52479" lon="2.22096">
        <ele>840.81</ele>
        <time>2016-07-01T09:12:20Z</time>
      </trkpt>
      <trkpt lat="42.5248" lon="2.22098">
        <ele>840.81</ele>
        <time>2016-07-01T09:12:21Z</time>
      </trkpt>
      <trkpt lat="42.52481" lon="2.22099">
        <ele>840.33</ele>
        <time>2016-07-01T09:12:22Z</time>
      </trkpt>
      <trkpt lat="42.52482" lon="2.22101">
        <ele>840.33</ele>
        <time>2016-07-01T09:12:23Z</time>
      </trkpt>
      <trkpt lat="42.52483" lon="2.22103">
        <ele>840.33</ele>
        <time>2016-07-01T09:12:24Z</time>
      </trkpt>
      <trkpt lat="42.52484" lon="2.22105">
        <ele>840.33</ele>
        <time>2016-07-01T09:12:25Z</time>
      </trkpt>
      <trkpt lat="42.52484" lon="2.22107">
        <ele>840.33</ele>
        <time>2016-07-01T09:12:26Z</time>
      </trkpt>
      <trkpt lat="42.52485" lon="2.22108">
        <ele>840.33</ele>
        <time>2016-07-01T09:12:27Z</time>
      </trkpt>
      <trkpt lat="42.52486" lon="2.22111">
        <ele>839.37</ele>
        <time>2016-07-01T09:12:28Z</time>
      </trkpt>
      <trkpt lat="42.52487" lon="2.22112">
        <ele>839.37</ele>
        <time>2016-07-01T09:12:29Z</time>
      </trkpt>
      <trkpt lat="42.52488" lon="2.22114">
        <ele>839.37</ele>
        <time>2016-07-01T09:12:30Z</time>
      </trkpt>
      <trkpt lat="42.52489" lon="2.22116">
        <ele>839.37</ele>
        <time>2016-07-01T09:12:31Z</time>
      </trkpt>
      <trkpt lat="42.52491" lon="2.22118">
        <ele>839.37</ele>
        <time>2016-07-01T09:12:32Z</time>
      </trkpt>
      <trkpt lat="42.52491" lon="2.2212">
        <ele>838.89</ele>
        <time>2016-07-01T09:12:33Z</time>
      </trkpt>
      <trkpt lat="42.52492" lon="2.22122">
        <ele>838.89</ele>
        <time>2016-07-01T09:12:34Z</time>
      </trkpt>
      <trkpt lat="42.52493" lon="2.22123">
        <ele>838.89</ele>
        <time>2016-07-01T09:12:35Z</time>
      </trkpt>
      <trkpt lat="42.52495" lon="2.22125">
        <ele>838.89</ele>
        <time>2016-07-01T09:12:36Z</time>
      </trkpt>
      <trkpt lat="42.52495" lon="2.22127">
        <ele>838.89</ele>
        <time>2016-07-01T09:12:37Z</time>
      </trkpt>
      <trkpt lat="42.52496" lon="2.22129">
        <ele>838.89</ele>
        <time>2016-07-01T09:12:38Z</time>
      </trkpt>
      <trkpt lat="42.52497" lon="2.22131">
        <ele>838.41</ele>
        <time>2016-07-01T09:12:39Z</time>
      </trkpt>
      <trkpt lat="42.52498" lon="2.22133">
        <ele>838.41</ele>
        <time>2016-07-01T09:12:40Z</time>
      </trkpt>
      <trkpt lat="42.52499" lon="2.22135">
        <ele>838.41</ele>
        <time>2016-07-01T09:12:41Z</time>
      </trkpt>
      <trkpt lat="42.525" lon="2.22137">
        <ele>838.41</ele>
        <time>2016-07-01T09:12:42Z</time>
      </trkpt>
      <trkpt lat="42.52501" lon="2.22138">
        <ele>838.41</ele>
        <time>2016-07-01T09:12:43Z</time>
      </trkpt>
      <trkpt lat="42.52501" lon="2.2214">
        <ele>838.41</ele>
        <time>2016-07-01T09:12:44Z</time>
      </trkpt>
      <trkpt lat="42.52502" lon="2.22142">
        <ele>837.93</ele>
        <time>2016-07-01T09:12:45Z</time>
      </trkpt>
      <trkpt lat="42.52504" lon="2.22144">
        <ele>837.93</ele>
        <time>2016-07-01T09:12:46Z</time>
      </trkpt>
      <trkpt lat="42.52505" lon="2.22145">
        <ele>837.93</ele>
        <time>2016-07-01T09:12:47Z</time>
      </trkpt>
      <trkpt lat="42.52505" lon="2.22147">
        <ele>837.93</ele>
        <time>2016-07-01T09:12:48Z</time>
      </trkpt>
      <trkpt lat="42.52506" lon="2.22149">
        <ele>837.45</ele>
        <time>2016-07-01T09:12:49Z</time>
      </trkpt>
      <trkpt lat="42.52507" lon="2.22151">
        <ele>837.45</ele>
        <time>2016-07-01T09:12:50Z</time>
      </trkpt>
      <trkpt lat="42.52508" lon="2.22157">
        <ele>837.45</ele>
        <time>2016-07-01T09:12:53Z</time>
      </trkpt>
      <trkpt lat="42.5251" lon="2.22159">
        <ele>837.45</ele>
        <time>2016-07-01T09:12:54Z</time>
      </trkpt>
      <trkpt lat="42.52511" lon="2.2216">
        <ele>836.96</ele>
        <time>2016-07-01T09:12:55Z</time>
      </trkpt>
      <trkpt lat="42.52511" lon="2.22162">
        <ele>836.96</ele>
        <time>2016-07-01T09:12:56Z</time>
      </trkpt>
      <trkpt lat="42.52512" lon="2.22163">
        <ele>836.96</ele>
        <time>2016-07-01T09:12:57Z</time>
      </trkpt>
      <trkpt lat="42.52514" lon="2.22165">
        <ele>836.96</ele>
        <time>2016-07-01T09:12:58Z</time>
      </trkpt>
      <trkpt lat="42.52515" lon="2.22167">
        <ele>836.96</ele>
        <time>2016-07-01T09:12:59Z</time>
      </trkpt>
      <trkpt lat="42.52515" lon="2.22168">
        <ele>836.48</ele>
        <time>2016-07-01T09:13:00Z</time>
      </trkpt>
      <trkpt lat="42.52516" lon="2.2217">
        <ele>836</ele>
        <time>2016-07-01T09:13:01Z</time>
      </trkpt>
      <trkpt lat="42.52518" lon="2.22172">
        <ele>836</ele>
        <time>2016-07-01T09:13:02Z</time>
      </trkpt>
      <trkpt lat="42.52518" lon="2.22174">
        <ele>836</ele>
        <time>2016-07-01T09:13:03Z</time>
      </trkpt>
      <trkpt lat="42.52519" lon="2.22176">
        <ele>836</ele>
        <time>2016-07-01T09:13:04Z</time>
      </trkpt>
      <trkpt lat="42.52519" lon="2.22178">
        <ele>836</ele>
        <time>2016-07-01T09:13:05Z</time>
      </trkpt>
      <trkpt lat="42.52521" lon="2.2218">
        <ele>836</ele>
        <time>2016-07-01T09:13:06Z</time>
      </trkpt>
      <trkpt lat="42.52521" lon="2.22182">
        <ele>836</ele>
        <time>2016-07-01T09:13:07Z</time>
      </trkpt>
      <trkpt lat="42.52522" lon="2.22184">
        <ele>835.52</ele>
        <time>2016-07-01T09:13:08Z</time>
      </trkpt>
      <trkpt lat="42.52523" lon="2.22186">
        <ele>835.52</ele>
        <time>2016-07-01T09:13:09Z</time>
      </trkpt>
      <trkpt lat="42.52523" lon="2.22188">
        <ele>835.52</ele>
        <time>2016-07-01T09:13:10Z</time>
      </trkpt>
      <trkpt lat="42.52523" lon="2.2219">
        <ele>835.52</ele>
        <time>2016-07-01T09:13:11Z</time>
      </trkpt>
      <trkpt lat="42.52523" lon="2.22192">
        <ele>835.52</ele>
        <time>2016-07-01T09:13:12Z</time>
      </trkpt>
      <trkpt lat="42.52523" lon="2.22194">
        <ele>835.04</ele>
        <time>2016-07-01T09:13:13Z</time>
      </trkpt>
      <trkpt lat="42.52523" lon="2.22196">
        <ele>835.04</ele>
        <time>2016-07-01T09:13:14Z</time>
      </trkpt>
      <trkpt lat="42.52524" lon="2.22203">
        <ele>834.56</ele>
        <time>2016-07-01T09:13:17Z</time>
      </trkpt>
      <trkpt lat="42.52523" lon="2.22205">
        <ele>834.56</ele>
        <time>2016-07-01T09:13:18Z</time>
      </trkpt>
      <trkpt lat="42.52524" lon="2.22207">
        <ele>834.56</ele>
        <time>2016-07-01T09:13:19Z</time>
      </trkpt>
      <trkpt lat="42.52524" lon="2.22209">
        <ele>834.56</ele>
        <time>2016-07-01T09:13:20Z</time>
      </trkpt>
      <trkpt lat="42.52525" lon="2.22211">
        <ele>834.56</ele>
        <time>2016-07-01T09:13:21Z</time>
      </trkpt>
      <trkpt lat="42.52524" lon="2.22213">
        <ele>834.56</ele>
        <time>2016-07-01T09:13:22Z</time>
      </trkpt>
      <trkpt lat="42.52525" lon="2.22215">
        <ele>834.08</ele>
        <time>2016-07-01T09:13:23Z</time>
      </trkpt>
      <trkpt lat="42.52525" lon="2.22216">
        <ele>834.08</ele>
        <time>2016-07-01T09:13:24Z</time>
      </trkpt>
      <trkpt lat="42.52525" lon="2.22218">
        <ele>834.08</ele>
        <time>2016-07-01T09:13:25Z</time>
      </trkpt>
      <trkpt lat="42.52527" lon="2.2222">
        <ele>834.08</ele>
        <time>2016-07-01T09:13:26Z</time>
      </trkpt>
      <trkpt lat="42.52529" lon="2.22225">
        <ele>833.6</ele>
        <time>2016-07-01T09:13:30Z</time>
      </trkpt>
      <trkpt lat="42.5253" lon="2.22229">
        <ele>833.6</ele>
        <time>2016-07-01T09:13:32Z</time>
      </trkpt>
      <trkpt lat="42.52529" lon="2.22231">
        <ele>833.6</ele>
        <time>2016-07-01T09:13:33Z</time>
      </trkpt>
      <trkpt lat="42.52528" lon="2.22233">
        <ele>832.64</ele>
        <time>2016-07-01T09:13:34Z</time>
      </trkpt>
      <trkpt lat="42.52527" lon="2.22234">
        <ele>833.12</ele>
        <time>2016-07-01T09:13:35Z</time>
      </trkpt>
      <trkpt lat="42.52526" lon="2.22236">
        <ele>833.12</ele>
        <time>2016-07-01T09:13:36Z</time>
      </trkpt>
      <trkpt lat="42.52525" lon="2.22237">
        <ele>833.12</ele>
        <time>2016-07-01T09:13:37Z</time>
      </trkpt>
      <trkpt lat="42.52524" lon="2.22238">
        <ele>833.12</ele>
        <time>2016-07-01T09:13:38Z</time>
      </trkpt>
      <trkpt lat="42.52523" lon="2.2224">
        <ele>832.16</ele>
        <time>2016-07-01T09:13:39Z</time>
      </trkpt>
      <trkpt lat="42.52522" lon="2.22241">
        <ele>832.16</ele>
        <time>2016-07-01T09:13:40Z</time>
      </trkpt>
      <trkpt lat="42.52505" lon="2.22245">
        <ele>831.2</ele>
        <time>2016-07-01T09:13:52Z</time>
      </trkpt>
      <trkpt lat="42.52496" lon="2.22244">
        <ele>830.72</ele>
        <time>2016-07-01T09:13:58Z</time>
      </trkpt>
      <trkpt lat="42.52486" lon="2.2225">
        <ele>830.24</ele>
        <time>2016-07-01T09:14:08Z</time>
      </trkpt>
      <trkpt lat="42.52485" lon="2.22252">
        <ele>830.24</ele>
        <time>2016-07-01T09:14:09Z</time>
      </trkpt>
      <trkpt lat="42.5248" lon="2.22264">
        <ele>830.24</ele>
        <time>2016-07-01T09:14:18Z</time>
      </trkpt>
      <trkpt lat="42.52478" lon="2.22271">
        <ele>830.24</ele>
        <time>2016-07-01T09:14:23Z</time>
      </trkpt>
      <trkpt lat="42.52478" lon="2.22273">
        <ele>830.24</ele>
        <time>2016-07-01T09:14:24Z</time>
      </trkpt>
      <trkpt lat="42.52477" lon="2.22274">
        <ele>830.24</ele>
        <time>2016-07-01T09:14:25Z</time>
      </trkpt>
      <trkpt lat="42.52476" lon="2.22277">
        <ele>830.24</ele>
        <time>2016-07-01T09:14:27Z</time>
      </trkpt>
      <trkpt lat="42.52475" lon="2.22278">
        <ele>830.24</ele>
        <time>2016-07-01T09:14:28Z</time>
      </trkpt>
      <trkpt lat="42.52469" lon="2.22279">
        <ele>831.68</ele>
        <time>2016-07-01T09:14:34Z</time>
      </trkpt>
      <trkpt lat="42.52466" lon="2.22277">
        <ele>832.16</ele>
        <time>2016-07-01T09:14:38Z</time>
      </trkpt>
      <trkpt lat="42.52456" lon="2.22273">
        <ele>833.6</ele>
        <time>2016-07-01T09:14:48Z</time>
      </trkpt>
      <trkpt lat="42.52447" lon="2.22275">
        <ele>835.04</ele>
        <time>2016-07-01T09:14:57Z</time>
      </trkpt>
      <trkpt lat="42.5244" lon="2.22277">
        <ele>836.48</ele>
        <time>2016-07-01T09:15:05Z</time>
      </trkpt>
      <trkpt lat="42.52437" lon="2.22278">
        <ele>836.48</ele>
        <time>2016-07-01T09:15:07Z</time>
      </trkpt>
      <trkpt lat="42.52428" lon="2.22284">
        <ele>838.41</ele>
        <time>2016-07-01T09:15:17Z</time>
      </trkpt>
      <trkpt lat="42.52426" lon="2.22285">
        <ele>838.41</ele>
        <time>2016-07-01T09:15:18Z</time>
      </trkpt>
      <trkpt lat="42.52425" lon="2.22286">
        <ele>838.89</ele>
        <time>2016-07-01T09:15:19Z</time>
      </trkpt>
      <trkpt lat="42.52416" lon="2.22289">
        <ele>839.85</ele>
        <time>2016-07-01T09:15:27Z</time>
      </trkpt>
      <trkpt lat="42.52415" lon="2.22289">
        <ele>839.85</ele>
        <time>2016-07-01T09:15:28Z</time>
      </trkpt>
      <trkpt lat="42.52405" lon="2.2229">
        <ele>840.81</ele>
        <time>2016-07-01T09:15:37Z</time>
      </trkpt>
      <trkpt lat="42.52401" lon="2.22291">
        <ele>841.29</ele>
        <time>2016-07-01T09:15:41Z</time>
      </trkpt>
      <trkpt lat="42.5239" lon="2.22291">
        <ele>843.21</ele>
        <time>2016-07-01T09:15:51Z</time>
      </trkpt>
      <trkpt lat="42.52387" lon="2.22291">
        <ele>843.69</ele>
        <time>2016-07-01T09:15:55Z</time>
      </trkpt>
      <trkpt lat="42.52379" lon="2.22286">
        <ele>845.14</ele>
        <time>2016-07-01T09:16:06Z</time>
      </trkpt>
      <trkpt lat="42.52373" lon="2.22279">
        <ele>847.54</ele>
        <time>2016-07-01T09:16:18Z</time>
      </trkpt>
      <trkpt lat="42.52372" lon="2.22278">
        <ele>847.54</ele>
        <time>2016-07-01T09:16:19Z</time>
      </trkpt>
      <trkpt lat="42.52363" lon="2.22266">
        <ele>848.98</ele>
        <time>2016-07-01T09:16:33Z</time>
      </trkpt>
      <trkpt lat="42.5236" lon="2.22262">
        <ele>848.98</ele>
        <time>2016-07-01T09:16:40Z</time>
      </trkpt>
      <trkpt lat="42.52359" lon="2.22261">
        <ele>848.98</ele>
        <time>2016-07-01T09:16:41Z</time>
      </trkpt>
      <trkpt lat="42.5235" lon="2.22249">
        <ele>849.46</ele>
        <time>2016-07-01T09:16:52Z</time>
      </trkpt>
      <trkpt lat="42.52341" lon="2.22238">
        <ele>849.46</ele>
        <time>2016-07-01T09:17:03Z</time>
      </trkpt>
      <trkpt lat="42.52331" lon="2.22216">
        <ele>848.98</ele>
        <time>2016-07-01T09:17:17Z</time>
      </trkpt>
      <trkpt lat="42.52327" lon="2.2221">
        <ele>848.98</ele>
        <time>2016-07-01T09:17:23Z</time>
      </trkpt>
      <trkpt lat="42.52326" lon="2.22209">
        <ele>848.98</ele>
        <time>2016-07-01T09:17:24Z</time>
      </trkpt>
      <trkpt lat="42.5232" lon="2.22202">
        <ele>849.46</ele>
        <time>2016-07-01T09:17:33Z</time>
      </trkpt>
      <trkpt lat="42.52317" lon="2.22198">
        <ele>849.46</ele>
        <time>2016-07-01T09:17:36Z</time>
      </trkpt>
      <trkpt lat="42.52315" lon="2.22196">
        <ele>849.46</ele>
        <time>2016-07-01T09:17:38Z</time>
      </trkpt>
      <trkpt lat="42.52305" lon="2.22188">
        <ele>849.94</ele>
        <time>2016-07-01T09:17:47Z</time>
      </trkpt>
      <trkpt lat="42.52299" lon="2.22184">
        <ele>849.94</ele>
        <time>2016-07-01T09:17:51Z</time>
      </trkpt>
      <trkpt lat="42.52298" lon="2.22183">
        <ele>849.94</ele>
        <time>2016-07-01T09:17:52Z</time>
      </trkpt>
      <trkpt lat="42.52296" lon="2.22182">
        <ele>850.42</ele>
        <time>2016-07-01T09:17:53Z</time>
      </trkpt>
      <trkpt lat="42.52294" lon="2.22182">
        <ele>850.42</ele>
        <time>2016-07-01T09:17:54Z</time>
      </trkpt>
      <trkpt lat="42.52292" lon="2.22181">
        <ele>850.42</ele>
        <time>2016-07-01T09:17:55Z</time>
      </trkpt>
      <trkpt lat="42.52291" lon="2.22181">
        <ele>850.42</ele>
        <time>2016-07-01T09:17:56Z</time>
      </trkpt>
      <trkpt lat="42.52289" lon="2.2218">
        <ele>850.42</ele>
        <time>2016-07-01T09:17:57Z</time>
      </trkpt>
      <trkpt lat="42.52287" lon="2.2218">
        <ele>850.42</ele>
        <time>2016-07-01T09:17:58Z</time>
      </trkpt>
      <trkpt lat="42.52286" lon="2.2218">
        <ele>850.42</ele>
        <time>2016-07-01T09:17:59Z</time>
      </trkpt>
      <trkpt lat="42.52284" lon="2.2218">
        <ele>850.42</ele>
        <time>2016-07-01T09:18:00Z</time>
      </trkpt>
      <trkpt lat="42.52283" lon="2.22179">
        <ele>850.42</ele>
        <time>2016-07-01T09:18:01Z</time>
      </trkpt>
      <trkpt lat="42.52282" lon="2.22178">
        <ele>850.9</ele>
        <time>2016-07-01T09:18:02Z</time>
      </trkpt>
      <trkpt lat="42.52269" lon="2.22178">
        <ele>851.38</ele>
        <time>2016-07-01T09:18:13Z</time>
      </trkpt>
      <trkpt lat="42.52259" lon="2.22176">
        <ele>851.87</ele>
        <time>2016-07-01T09:18:20Z</time>
      </trkpt>
      <trkpt lat="42.52255" lon="2.2217">
        <ele>852.35</ele>
        <time>2016-07-01T09:18:26Z</time>
      </trkpt>
      <trkpt lat="42.52249" lon="2.22164">
        <ele>852.35</ele>
        <time>2016-07-01T09:18:40Z</time>
      </trkpt>
      <trkpt lat="42.52248" lon="2.22164">
        <ele>852.35</ele>
        <time>2016-07-01T09:18:50Z</time>
      </trkpt>
    </trkseg>
  </trk>
</gpx>